# Wetter Temperatur Luftdruck Luftfeuchtigkeit Sichtweite Windgeschwindigkeit Windrichtung Zeit
1 Clear 14 1026 52 10000 3.6 240 14:37 01.02.2023
2 Clear 13 1027 52 10000 3.6 330 13:20 01.02.2023
3 Clear 12 1028 54 10000 5.14 330 12:50 01.02.2023
4 Clear 11 1029 58 10000 6.17 330 11:56 01.02.2023
5 Clear 6 1028 73 10000 7.2 330 08:56 01.02.2023
6 Clear 7 1027 68 10000 4.12 330 03:18 01.02.2023
7 Clear 9 1027 60 10000 3.6 320 21:38 31.01.2023
8 Clear 9 1027 59 10000 2.68 258 19:48 31.01.2023
9 Clear 10 1027 58 10000 1.54 260 18:50 31.01.2023
10 Clear 13 1026 49 10000 4.12 210 15:37 31.01.2023
11 Clear 13 1026 48 10000 4.12 210 15:18 31.01.2023
12 Clear 13 1026 47 10000 3.6 240 14:52 31.01.2023
13 Clear 11 1027 51 10000 7.2 330 12:23 31.01.2023
14 Clear 9 1027 55 10000 7.72 330 11:20 31.01.2023
15 Clear 7 1026 62 10000 6.69 310 09:53 31.01.2023
16 Clear 5 1026 64 10000 7.72 330 08:59 31.01.2023
17 Clear 5 1025 66 10000 8.23 330 08:35 31.01.2023
18 Clear 6 1025 63 10000 6.17 330 05:39 31.01.2023
19 Clear 7 1025 61 10000 4.63 310 23:57 30.01.2023
20 Clear 7 1025 59 10000 5.14 320 22:51 30.01.2023
21 Clear 8 1026 59 10000 4.63 300 22:30 30.01.2023
22 Clear 8 1026 59 10000 3.6 310 20:59 30.01.2023
23 Clear 8 1026 57 10000 5.14 300 20:34 30.01.2023
24 Clear 11 1025 45 10000 5.14 320 17:54 30.01.2023
25 Clear 12 1024 41 10000 6.17 270 16:33 30.01.2023
26 Clear 11 1025 46 10000 6.17 270 14:27 30.01.2023
27 Clear 9 1027 52 10000 5.66 260 12:44 30.01.2023
28 Clear 8 1027 57 10000 6.69 340 11:27 30.01.2023
29 Clear 5 1028 63 10000 5.14 320 09:54 30.01.2023
30 Clear 4 1027 68 10000 6.17 330 08:56 30.01.2023
31 Clear 4 1026 69 10000 5.14 330 06:55 30.01.2023
32 Clear 5 1027 66 10000 4.12 330 01:39 30.01.2023
33 Clear 6 1027 64 10000 3.6 330 23:35 29.01.2023
34 Clear 6 1027 65 10000 2.68 255 22:37 29.01.2023
35 Clear 7 1027 67 10000 3.6 320 21:40 29.01.2023
36 Clear 7 1026 72 10000 2.06 300 20:41 29.01.2023
37 Clear 7 1026 72 10000 2.57 290 19:48 29.01.2023
38 Clear 7 1026 72 10000 1.54 210 19:27 29.01.2023
39 Clear 9 1025 64 10000 3.6 130 17:48 29.01.2023
40 Clouds 10 1024 56 10000 3.09 190 16:21 29.01.2023
41 Clouds 10 1024 55 10000 2.57 140 14:48 29.01.2023
42 Clouds 9 1025 54 10000 1.79 245 13:30 29.01.2023
43 Clouds 8 1026 58 10000 4.12 320 12:42 29.01.2023
44 Clouds 8 1026 59 10000 4.63 330 12:22 29.01.2023
45 Clouds 7 1026 61 10000 4.63 330 11:48 29.01.2023
46 Clouds 7 1026 63 10000 5.14 320 11:26 29.01.2023
47 Clouds 4 1025 69 10000 5.66 330 09:37 29.01.2023
48 Clouds 4 1023 70 10000 4.12 330 07:19 29.01.2023
49 Clouds 6 1022 69 10000 1.79 272 03:39 29.01.2023
50 Clouds 7 1021 64 10000 3.09 310 23:27 28.01.2023
51 Clouds 7 1020 65 10000 4.63 60 20:38 28.01.2023
52 Clouds 7 1020 65 10000 6.17 70 19:52 28.01.2023
53 Clouds 8 1019 67 10000 4.02 73 18:27 28.01.2023
54 Clouds 8 1018 67 10000 4.47 57 17:20 28.01.2023
55 Clouds 9 1018 65 10000 3.6 130 16:20 28.01.2023
56 Clouds 9 1018 64 10000 4.12 130 15:49 28.01.2023
57 Clouds 9 1017 61 10000 2.57 120 14:35 28.01.2023
58 Clouds 8 1018 59 10000 3.09 330 12:57 28.01.2023
59 Clouds 7 1018 62 10000 5.66 330 11:55 28.01.2023
60 Clouds 5 1018 68 10000 6.17 330 10:34 28.01.2023
61 Clouds 4 1016 69 10000 5.14 330 08:22 28.01.2023
62 Clouds 5 1015 78 10000 5.66 330 01:42 28.01.2023
63 Clouds 6 1015 79 10000 3.09 330 00:25 28.01.2023
64 Clouds 7 1015 76 10000 2.57 300 21:27 27.01.2023
65 Clouds 9 1013 76 10000 2.06 250 18:45 27.01.2023
66 Clouds 9 1013 74 10000 3.6 180 17:57 27.01.2023
67 Clouds 10 1013 73 10000 3.6 180 17:19 27.01.2023
68 Clouds 10 1012 72 10000 3.6 180 16:35 27.01.2023
69 Clouds 11 1012 64 10000 3.09 180 14:58 27.01.2023
70 Clouds 10 1012 61 10000 3.6 200 14:25 27.01.2023
71 Clouds 10 1012 60 10000 2.06 80 13:18 27.01.2023
72 Clouds 4 1012 73 10000 7.2 330 08:47 27.01.2023
73 Clouds 5 1012 74 10000 6.17 330 06:21 27.01.2023
74 Clouds 6 1013 76 10000 4.12 330 00:24 27.01.2023
75 Clouds 6 1014 77 10000 3.09 320 21:43 26.01.2023
76 Clear 7 1014 75 10000 2.06 290 20:39 26.01.2023
77 Clear 7 1014 74 10000 2.06 10 19:57 26.01.2023
78 Clouds 9 1013 67 10000 2.57 130 17:56 26.01.2023
79 Clouds 10 1013 58 10000 3.09 190 16:30 26.01.2023
80 Clouds 11 1013 58 10000 3.6 190 15:58 26.01.2023
81 Clouds 11 1013 57 10000 3.6 180 15:40 26.01.2023
82 Clouds 10 1013 57 10000 3.6 180 15:22 26.01.2023
83 Clouds 9 1015 55 10000 3.6 300 13:47 26.01.2023
84 Clear 8 1016 59 10000 5.14 320 12:31 26.01.2023
85 Clear 6 1016 69 10000 6.69 330 10:34 26.01.2023
86 Clear 5 1016 72 10000 5.66 330 09:44 26.01.2023
87 Clear 4 1016 74 10000 6.17 330 09:19 26.01.2023
88 Clear 4 1016 72 10000 6.69 330 06:39 26.01.2023
89 Clear 6 1020 68 10000 4.47 310 23:41 25.01.2023
90 Clear 6 1020 66 10000 4.12 330 22:48 25.01.2023
91 Clear 7 1020 64 10000 6.17 330 21:26 25.01.2023
92 Clear 7 1020 64 10000 6.69 310 20:59 25.01.2023
93 Clear 9 1021 52 10000 6.69 330 18:29 25.01.2023
94 Clouds 13 1021 46 10000 6.17 280 16:22 25.01.2023
95 Clear 13 1021 42 10000 5.14 270 15:21 25.01.2023
96 Clear 11 1024 50 10000 6.69 320 12:29 25.01.2023
97 Clouds 7 1024 62 10000 8.23 330 09:53 25.01.2023
98 Clouds 7 1024 64 10000 8.23 330 09:29 25.01.2023
99 Clouds 7 1024 71 10000 6.69 330 06:52 25.01.2023
100 Clouds 8 1025 73 10000 6.17 320 00:33 25.01.2023
101 Clouds 7 1026 72 10000 4.12 320 22:39 24.01.2023
102 Clouds 7 1026 74 10000 5.14 340 21:28 24.01.2023
103 Clouds 7 1025 75 10000 5.66 330 19:40 24.01.2023
104 Clouds 7 1025 76 10000 6.17 330 18:31 24.01.2023
105 Clouds 7 1025 76 10000 6.17 330 18:31 24.01.2023
106 Clouds 6 1025 77 10000 7.2 320 17:19 24.01.2023
107 Clouds 6 1025 79 10000 6.69 320 16:52 24.01.2023
108 Clouds 6 1025 78 10000 5.66 320 14:50 24.01.2023
109 Clouds 5 1026 75 10000 4.12 340 12:47 24.01.2023
110 Clouds 6 1026 62 10000 6.17 330 11:20 24.01.2023
111 Clouds 4 1024 69 10000 4.63 340 08:21 24.01.2023
112 Rain 4 1024 72 10000 4.63 340 07:51 24.01.2023
113 Clouds 5 1023 63 10000 5.66 340 05:31 24.01.2023
114 Clouds 6 1022 61 10000 4.12 330 01:29 24.01.2023
115 Clouds 6 1022 63 10000 4.12 320 23:51 23.01.2023
116 Clouds 6 1022 67 10000 3.6 330 22:20 23.01.2023
117 Clouds 7 1020 70 10000 3.09 300 19:46 23.01.2023
118 Clouds 7 1020 67 10000 2.06 130 18:26 23.01.2023
119 Clouds 9 1019 59 10000 3.6 160 16:19 23.01.2023
120 Clouds 9 1019 54 10000 2.57 120 14:45 23.01.2023
121 Clouds 8 1019 53 10000 3.09 90 13:44 23.01.2023
122 Clouds 8 1020 49 10000 4.63 60 12:54 23.01.2023
123 Clouds 7 1020 41 10000 4.12 340 11:44 23.01.2023
124 Clouds 3 1020 48 10000 5.14 320 08:59 23.01.2023
125 Clouds 3 1020 49 10000 4.63 320 07:38 23.01.2023
126 Clouds 5 1020 57 10000 3.6 330 23:37 22.01.2023
127 Clear 6 1020 55 10000 4.12 340 21:49 22.01.2023
128 Clear 6 1019 53 10000 3.6 30 20:57 22.01.2023
129 Clear 7 1019 52 10000 1.03 250 19:53 22.01.2023
130 Clear 8 1019 51 10000 4.12 200 19:20 22.01.2023
131 Clear 8 1019 49 10000 3.09 210 18:22 22.01.2023
132 Clear 10 1019 43 10000 4.63 260 17:44 22.01.2023
133 Clear 10 1019 41 10000 4.63 210 17:21 22.01.2023
134 Clear 10 1019 35 10000 4.12 270 14:56 22.01.2023
135 Clear 10 1019 34 10000 3.6 310 13:50 22.01.2023
136 Clear 9 1020 37 10000 5.14 330 12:54 22.01.2023
137 Clear 8 1020 36 10000 5.14 340 12:26 22.01.2023
138 Clouds 4 1020 45 10000 4.63 330 09:56 22.01.2023
139 Clouds 3 1020 49 10000 3.09 310 08:44 22.01.2023
140 Clear 3 1018 48 10000 3.6 310 02:54 22.01.2023
141 Clouds 5 1017 41 10000 3.09 350 23:42 21.01.2023
142 Clouds 5 1017 41 10000 4.63 340 22:48 21.01.2023
143 Clouds 7 1017 37 10000 5.14 330 20:59 21.01.2023
144 Clouds 8 1016 32 10000 5.14 310 18:49 21.01.2023
145 Clouds 11 1015 27 10000 9.26 310 15:36 21.01.2023
146 Clouds 11 1016 25 10000 6.17 320 13:31 21.01.2023
147 Clouds 10 1017 25 10000 6.17 310 12:52 21.01.2023
148 Clouds 9 1018 28 10000 6.17 320 11:28 21.01.2023
149 Clouds 8 1017 30 10000 5.66 340 10:47 21.01.2023
150 Clear 3 1017 40 10000 7.72 330 08:28 21.01.2023
151 Clear 6 1018 61 10000 4.12 330 01:19 21.01.2023
152 Clear 7 1018 61 10000 2.06 290 22:27 20.01.2023
153 Clouds 8 1018 60 10000 3.13 275 21:36 20.01.2023
154 Clouds 9 1018 62 10000 4.63 330 20:42 20.01.2023
155 Clouds 10 1017 54 10000 4.12 310 18:29 20.01.2023
156 Clouds 13 1015 47 10000 5.66 180 15:47 20.01.2023
157 Clouds 13 1015 52 10000 5.14 190 14:38 20.01.2023
158 Clouds 12 1016 60 10000 4.12 190 12:42 20.01.2023
159 Clouds 6 1014 79 10000 2.57 340 09:24 20.01.2023
160 Clouds 6 1012 82 10000 2.06 340 08:22 20.01.2023
161 Clouds 9 1004 72 10000 7.2 300 02:34 20.01.2023
162 Clouds 10 1003 67 10000 12.86 250 22:38 19.01.2023
163 Clouds 9 1003 67 10000 12.86 250 22:38 19.01.2023
164 Clouds 9 1004 66 10000 12.35 250 22:18 19.01.2023
165 Clouds 10 1007 52 10000 9.77 250 20:22 19.01.2023
166 Clouds 10 1008 50 10000 7.2 260 18:57 19.01.2023
167 Clouds 11 1011 53 10000 7.72 280 15:35 19.01.2023
168 Clear 7 1014 62 10000 6.69 310 10:53 19.01.2023
169 Clouds 5 1013 69 10000 7.72 320 08:59 19.01.2023
170 Clouds 7 1007 59 10000 5.81 307 23:35 18.01.2023
171 Clouds 9 1006 46 10000 6.17 280 20:55 18.01.2023
172 Clouds 9 1006 44 10000 6.17 290 20:19 18.01.2023
173 Clouds 9 1005 40 10000 7.2 300 19:37 18.01.2023
174 Clear 12 1003 27 10000 8.75 290 17:34 18.01.2023
175 Clear 12 1002 41 10000 5.14 270 15:22 18.01.2023
176 Clouds 11 1000 48 10000 5.66 340 13:27 18.01.2023
177 Clouds 8 998 62 10000 10.29 310 10:41 18.01.2023
178 Clouds 6 996 63 10000 8.75 300 08:18 18.01.2023
179 Clouds 8 995 54 10000 5.14 240 01:27 18.01.2023
180 Clear 9 995 56 10000 8.23 250 23:32 17.01.2023
181 Clouds 10 994 55 10000 10.29 270 20:32 17.01.2023
182 Clouds 10 994 61 10000 12.86 310 19:33 17.01.2023
183 Clouds 12 992 45 10000 12.35 270 18:18 17.01.2023
184 Clouds 13 991 40 10000 14.4 270 16:24 17.01.2023
185 Clouds 15 990 41 10000 14.4 270 14:55 17.01.2023
186 Clear 16 990 38 10000 5.81 289 13:47 17.01.2023
187 Clouds 16 991 47 10000 10.29 270 12:27 17.01.2023
188 Clouds 15 992 59 10000 10.8 260 11:38 17.01.2023
189 Rain 12 991 73 10000 7.72 250 09:34 17.01.2023
190 Clouds 15 990 63 10000 10.29 250 07:53 17.01.2023
191 Clouds 15 991 65 10000 10.29 230 03:55 17.01.2023
192 Clouds 13 995 77 10000 1.34 74 00:57 17.01.2023
193 Clouds 11 996 77 10000 2.06 310 23:32 16.01.2023
194 Clouds 12 999 72 10000 2.57 260 21:52 16.01.2023
195 Clouds 12 1000 69 10000 3.6 280 20:27 16.01.2023
196 Clouds 13 1001 67 10000 7.2 250 19:35 16.01.2023
197 Clouds 13 1001 66 10000 6.69 230 18:53 16.01.2023
198 Clouds 13 1001 65 10000 4.63 260 18:21 16.01.2023
199 Clouds 13 1002 64 10000 6.17 270 17:34 16.01.2023
200 Clouds 14 1003 55 10000 11.83 270 14:38 16.01.2023
201 Clouds 14 1004 53 10000 12.35 280 13:38 16.01.2023
202 Clouds 11 1007 54 10000 6.69 250 10:53 16.01.2023
203 Clouds 10 1007 57 10000 5.66 230 10:18 16.01.2023
204 Clouds 10 1016 81 10000 6.17 100 23:38 15.01.2023
205 Clouds 10 1017 75 10000 5.66 80 22:26 15.01.2023
206 Clouds 11 1017 67 10000 3.6 330 20:40 15.01.2023
207 Clouds 12 1016 66 10000 5.14 260 19:49 15.01.2023
208 Drizzle 13 1016 73 10000 4.12 350 17:46 15.01.2023
209 Rain 14 1015 75 10000 3.6 140 16:18 15.01.2023
210 Clouds 16 1017 61 10000 3.6 360 12:34 15.01.2023
211 Clouds 14 1017 67 10000 5.14 340 11:36 15.01.2023
212 Clear 13 1016 68 10000 4.63 270 10:30 15.01.2023
213 Clear 13 1015 70 10000 4.12 310 09:35 15.01.2023
214 Clear 12 1018 74 10000 3.09 250 01:50 15.01.2023
215 Clear 11 1020 75 10000 2.06 260 23:20 14.01.2023
216 Clear 12 1020 72 10000 3.6 260 22:00 14.01.2023
217 Clear 12 1020 72 10000 2.06 300 21:36 14.01.2023
218 Clear 12 1020 72 10000 2.06 300 21:18 14.01.2023
219 Clear 13 1021 70 10000 4.12 230 20:39 14.01.2023
220 Clear 14 1021 69 10000 7.72 230 18:40 14.01.2023
221 Clear 17 1021 62 10000 7.72 230 16:59 14.01.2023
222 Clear 18 1021 58 10000 9.77 230 15:28 14.01.2023
223 Clear 17 1022 57 10000 8.75 230 14:25 14.01.2023
224 Clear 16 1023 60 10000 9.26 230 13:42 14.01.2023
225 Clear 13 1025 68 10000 3.6 200 11:46 14.01.2023
226 Clouds 12 1025 73 10000 5.36 294 10:46 14.01.2023
227 Clouds 9 1026 78 10000 4.63 320 08:19 14.01.2023
228 Clear 10 1027 72 10000 3.6 320 23:36 13.01.2023
229 Clear 10 1027 72 10000 3.09 310 22:50 13.01.2023
230 Clear 11 1027 72 10000 3.09 300 22:31 13.01.2023
231 Clear 11 1027 69 10000 2.06 310 21:45 13.01.2023
232 Clear 11 1026 69 10000 2.57 290 19:43 13.01.2023
233 Clear 13 1025 66 10000 1.03 0 18:21 13.01.2023
234 Clear 15 1025 55 10000 1.54 180 16:45 13.01.2023
235 Clear 14 1025 58 10000 5.14 320 13:37 13.01.2023
236 Clear 13 1026 60 10000 5.14 330 12:20 13.01.2023
237 Clear 10 1025 71 10000 4.63 320 10:27 13.01.2023
238 Clear 11 1025 69 10000 5.14 320 09:46 13.01.2023
239 Clear 10 1024 68 10000 6.17 330 08:56 13.01.2023
240 Clear 10 1024 69 10000 5.66 320 08:27 13.01.2023
241 Clear 10 1024 69 10000 5.14 330 06:53 13.01.2023
242 Clear 9 1023 71 10000 5.66 330 05:23 13.01.2023
243 Clear 10 1024 67 10000 4.02 297 00:37 13.01.2023
244 Clear 10 1025 66 10000 4.12 340 22:44 12.01.2023
245 Clear 11 1025 68 10000 1.54 320 20:56 12.01.2023
246 Clear 12 1025 70 10000 2.57 270 19:54 12.01.2023
247 Clear 13 1025 67 10000 6.17 230 17:53 12.01.2023
248 Clear 15 1025 62 10000 5.14 220 16:47 12.01.2023
249 Clear 15 1025 57 10000 4.63 260 14:45 12.01.2023
250 Clear 15 1026 56 10000 4.63 260 14:24 12.01.2023
251 Clear 14 1027 58 10000 4.63 260 13:29 12.01.2023
252 Clear 11 1028 70 10000 6.69 330 10:54 12.01.2023
253 Clear 9 1028 78 10000 6.17 330 09:31 12.01.2023
254 Clear 9 1027 78 10000 6.17 320 05:48 12.01.2023
255 Clear 11 1027 77 10000 4.12 330 00:21 12.01.2023
256 Clear 11 1027 73 10000 4.12 340 23:41 11.01.2023
257 Clear 12 1027 72 10000 3.6 330 23:22 11.01.2023
258 Clear 12 1026 71 10000 4.63 330 22:42 11.01.2023
259 Clear 12 1026 69 10000 2.06 360 20:53 11.01.2023
260 Clear 13 1024 69 10000 4.12 330 18:46 11.01.2023
261 Clear 14 1023 66 10000 3.09 330 17:27 11.01.2023
262 Clear 15 1023 60 10000 3.6 320 15:30 11.01.2023
263 Clear 15 1023 60 10000 4.63 330 13:53 11.01.2023
264 Clear 14 1023 63 10000 6.17 330 12:21 11.01.2023
265 Clouds 12 1023 70 10000 5.36 313 10:47 11.01.2023
266 Clouds 9 1023 76 10000 5.66 330 08:21 11.01.2023
267 Clouds 10 1022 76 10000 4.63 330 07:26 11.01.2023
268 Clouds 10 1023 77 10000 5.14 320 04:37 11.01.2023
269 Clouds 10 1026 80 10000 1.54 320 22:46 10.01.2023
270 Clouds 10 1026 80 10000 1.54 320 22:46 10.01.2023
271 Clouds 11 1026 80 10000 1.54 320 22:18 10.01.2023
272 Clear 11 1027 74 10000 2.57 290 20:43 10.01.2023
273 Clouds 11 1027 72 10000 1.54 320 19:51 10.01.2023
274 Clouds 12 1026 67 10000 3.09 220 18:48 10.01.2023
275 Clouds 13 1026 60 10000 2.57 220 17:59 10.01.2023
276 Clear 14 1026 55 10000 3.09 210 16:54 10.01.2023
277 Clouds 15 1026 53 10000 1.54 140 15:32 10.01.2023
278 Clouds 14 1027 53 10000 1.54 360 14:35 10.01.2023
279 Clouds 13 1027 59 10000 5.14 320 12:31 10.01.2023
280 Clouds 9 1028 69 10000 7.72 330 09:43 10.01.2023
281 Clouds 8 1027 72 10000 5.14 340 08:37 10.01.2023
282 Clouds 8 1027 72 10000 5.14 340 07:55 10.01.2023
283 Clouds 9 1025 70 10000 4.12 310 04:59 10.01.2023
284 Clouds 11 1023 61 10000 5.14 280 23:57 09.01.2023
285 Clouds 12 1022 58 10000 6.17 290 21:57 09.01.2023
286 Clouds 13 1021 57 10000 6.69 270 20:46 09.01.2023
287 Clouds 13 1021 55 10000 5.66 250 19:50 09.01.2023
288 Clouds 14 1019 52 10000 8.23 300 18:23 09.01.2023
289 Clouds 14 1019 51 10000 8.23 300 17:49 09.01.2023
290 Clouds 16 1017 48 10000 8.23 290 16:34 09.01.2023
291 Clouds 16 1017 48 10000 6.69 300 15:31 09.01.2023
292 Clouds 16 1016 46 10000 5.14 290 14:53 09.01.2023
293 Clouds 16 1016 45 10000 6.69 290 14:33 09.01.2023
294 Clouds 16 1017 49 10000 7.2 290 12:54 09.01.2023
295 Clouds 15 1016 54 10000 8.75 310 11:51 09.01.2023
296 Clouds 14 1016 60 10000 5.66 350 11:19 09.01.2023
297 Clouds 13 1012 66 10000 4.63 220 06:56 09.01.2023
298 Clouds 14 1010 77 10000 6.17 240 02:55 09.01.2023
299 Clouds 14 1010 80 10000 2.06 270 00:58 09.01.2023
300 Clouds 14 1010 78 10000 2.57 270 21:50 08.01.2023
301 Clouds 14 1010 78 10000 3.6 300 21:21 08.01.2023
302 Clouds 14 1009 77 10000 2.57 250 20:33 08.01.2023
303 Clouds 15 1009 77 10000 3.09 270 18:45 08.01.2023
304 Clouds 15 1009 75 10000 3.6 210 17:21 08.01.2023
305 Clouds 15 1009 74 10000 4.63 260 16:37 08.01.2023
306 Clouds 15 1009 77 10000 6.17 230 15:34 08.01.2023
307 Drizzle 15 1011 76 10000 6.17 220 13:58 08.01.2023
308 Rain 15 1011 73 10000 6.69 230 13:30 08.01.2023
309 Clouds 15 1012 71 10000 6.17 230 12:43 08.01.2023
310 Clouds 13 1014 72 10000 2.57 120 10:28 08.01.2023
311 Clouds 13 1014 70 10000 2.57 240 09:36 08.01.2023
312 Clear 12 1014 74 10000 7.2 240 07:47 08.01.2023
313 Clear 12 1018 63 10000 7.2 240 23:59 07.01.2023
314 Clear 12 1018 62 10000 2.57 280 22:47 07.01.2023
315 Clear 11 1018 62 10000 4.02 302 22:24 07.01.2023
316 Clear 11 1018 63 10000 7.2 240 21:47 07.01.2023
317 Clear 11 1018 62 10000 2.57 260 20:43 07.01.2023
318 Clear 11 1018 62 10000 4.02 296 20:22 07.01.2023
319 Clear 12 1018 57 10000 5.14 300 18:33 07.01.2023
320 Clear 13 1018 55 10000 4.63 270 17:50 07.01.2023
321 Clear 14 1018 54 10000 7.2 230 17:28 07.01.2023
322 Clear 14 1018 54 10000 7.2 230 17:28 07.01.2023
323 Clear 14 1018 53 10000 6.69 240 16:37 07.01.2023
324 Clear 15 1018 51 10000 6.17 260 15:46 07.01.2023
325 Clear 15 1018 51 10000 6.17 260 15:26 07.01.2023
326 Clear 14 1019 52 10000 6.69 280 14:27 07.01.2023
327 Clear 14 1019 52 10000 5.14 270 13:47 07.01.2023
328 Clear 14 1020 52 10000 5.14 270 13:24 07.01.2023
329 Clear 13 1021 56 10000 4.92 294 12:22 07.01.2023
330 Clear 14 1021 56 10000 3.6 210 11:36 07.01.2023
331 Clouds 12 1021 67 10000 3.13 291 10:25 07.01.2023
332 Clear 10 1021 82 10000 4.63 320 08:27 07.01.2023
333 Clear 9 1021 84 10000 4.12 310 07:44 07.01.2023
334 Clouds 9 1021 85 10000 5.14 320 06:56 07.01.2023
335 Clear 10 1023 81 10000 4.63 320 00:43 07.01.2023
336 Clear 11 1024 82 10000 2.57 320 22:23 06.01.2023
337 Clear 10 1024 82 10000 2.57 310 21:59 06.01.2023
338 Clear 10 1024 80 10000 2.06 330 21:26 06.01.2023
339 Clear 11 1024 79 10000 0 0 19:58 06.01.2023
340 Clear 11 1024 77 10000 1.54 300 19:40 06.01.2023
341 Clear 11 1024 76 10000 1.54 300 19:22 06.01.2023
342 Clear 12 1023 74 10000 2.06 250 18:34 06.01.2023
343 Clear 14 1023 66 10000 3.09 220 16:56 06.01.2023
344 Clear 14 1023 64 10000 2.06 200 16:24 06.01.2023
345 Clear 14 1023 62 10000 2.06 190 15:56 06.01.2023
346 Clear 14 1023 63 10000 1.54 170 15:38 06.01.2023
347 Clear 15 1024 60 10000 1.03 0 14:40 06.01.2023
348 Clear 13 1025 61 10000 3.09 320 12:25 06.01.2023
349 Clear 12 1025 66 10000 1.34 233 10:58 06.01.2023
350 Clear 9 1024 74 10000 2.24 248 08:55 06.01.2023
351 Clear 9 1024 74 10000 4.12 320 06:42 06.01.2023
352 Clear 10 1025 68 10000 3.6 310 01:43 06.01.2023
353 Clear 10 1025 67 10000 4.12 320 22:55 05.01.2023
354 Clear 11 1025 66 10000 2.57 310 21:47 05.01.2023
355 Clear 12 1025 75 10000 4.12 240 19:29 05.01.2023
356 Clear 15 1025 64 10000 4.12 230 17:28 05.01.2023
357 Clear 16 1025 61 10000 4.63 220 16:20 05.01.2023
358 Clear 16 1025 60 10000 3.09 230 15:46 05.01.2023
359 Clear 16 1026 57 10000 3.09 200 14:36 05.01.2023
360 Clear 14 1028 63 10000 3.6 320 12:43 05.01.2023
361 Clear 13 1029 67 10000 1.79 249 11:51 05.01.2023
362 Clear 11 1029 73 10000 6.17 320 09:54 05.01.2023
363 Clear 9 1029 78 10000 6.69 320 08:29 05.01.2023
364 Clear 10 1029 80 10000 7.72 330 07:19 05.01.2023
365 Clear 10 1029 77 10000 7.72 320 04:57 05.01.2023
366 Clear 11 1032 75 10000 5.14 330 22:55 04.01.2023
367 Clear 12 1031 74 10000 4.12 320 21:33 04.01.2023
368 Clear 12 1031 75 10000 1.54 310 20:36 04.01.2023
369 Clear 12 1031 77 10000 2.06 310 19:56 04.01.2023
370 Clear 12 1031 76 10000 2.06 250 19:32 04.01.2023
371 Clear 13 1031 76 10000 2.57 230 18:37 04.01.2023
372 Clear 16 1031 67 10000 3.6 220 16:32 04.01.2023
373 Clear 16 1031 67 10000 3.6 220 16:32 04.01.2023
374 Clear 16 1031 65 10000 3.6 220 15:48 04.01.2023
375 Clear 16 1032 64 10000 3.09 320 14:22 04.01.2023
376 Clear 13 1033 71 10000 6.17 340 11:41 04.01.2023
377 Clear 13 1033 73 10000 6.17 340 11:20 04.01.2023
378 Clear 12 1033 76 10000 5.66 330 10:42 04.01.2023
379 Clear 11 1033 76 10000 5.66 330 10:21 04.01.2023
380 Clear 10 1031 83 10000 5.14 330 07:40 04.01.2023
381 Clear 10 1031 82 10000 3.6 320 02:53 04.01.2023
382 Clouds 11 1031 80 10000 1.79 275 00:31 04.01.2023
383 Clouds 11 1032 80 10000 2.06 360 23:34 03.01.2023
384 Clouds 12 1032 78 10000 3.6 320 22:41 03.01.2023
385 Clouds 12 1031 77 10000 4.63 320 20:53 03.01.2023
386 Clouds 13 1030 80 10000 3.09 300 19:23 03.01.2023
387 Clouds 15 1029 76 10000 3.09 220 17:36 03.01.2023
388 Clouds 16 1029 73 10000 4.63 270 16:36 03.01.2023
389 Clouds 16 1028 70 10000 2.06 230 13:55 03.01.2023
390 Clouds 16 1029 72 10000 3.09 330 13:30 03.01.2023
391 Clouds 15 1029 72 10000 4.12 330 12:57 03.01.2023
392 Clouds 15 1030 73 10000 3.09 340 12:30 03.01.2023
393 Clouds 15 1030 73 10000 3.09 340 12:30 03.01.2023
394 Clouds 14 1030 76 10000 3.6 340 11:21 03.01.2023
395 Clouds 12 1027 81 10000 4.63 320 07:29 03.01.2023
396 Clouds 12 1026 82 10000 4.12 320 04:22 03.01.2023
397 Clouds 13 1026 83 10000 4.12 330 03:43 03.01.2023
398 Clouds 13 1026 78 10000 3.6 330 01:56 03.01.2023
399 Clouds 13 1026 79 10000 3.09 310 22:42 02.01.2023
400 Clouds 13 1025 80 10000 2.57 330 22:19 02.01.2023
401 Clouds 14 1025 83 10000 2.06 340 20:40 02.01.2023
402 Clouds 14 1025 79 10000 2.06 340 19:52 02.01.2023
403 Clear 14 1024 77 10000 1.03 0 17:53 02.01.2023
404 Clouds 16 1023 69 10000 2.06 340 15:23 02.01.2023
405 Clouds 15 1023 76 10000 3.09 330 13:25 02.01.2023
406 Clouds 15 1024 79 10000 1.54 320 11:57 02.01.2023
407 Clouds 13 1024 76 10000 5.14 330 10:52 02.01.2023
408 Clouds 11 1023 72 10000 4.12 330 07:34 02.01.2023
409 Clouds 12 1024 78 9000 4.12 330 00:58 02.01.2023
410 Clouds 12 1024 88 9000 3.6 330 22:32 01.01.2023
411 Clouds 13 1024 89 9000 2.57 340 21:30 01.01.2023
412 Clouds 13 1025 90 9000 2.06 350 20:47 01.01.2023
413 Clouds 13 1024 90 9000 1.03 0 19:48 01.01.2023
414 Clear 14 1024 86 10000 0.51 120 18:24 01.01.2023
415 Clear 15 1024 83 10000 1.54 140 17:21 01.01.2023
416 Clear 16 1024 81 10000 0.51 0 16:33 01.01.2023
417 Clouds 16 1024 80 10000 1.54 230 14:59 01.01.2023
418 Clouds 16 1025 79 10000 1.03 300 13:41 01.01.2023
419 Clouds 16 1026 78 10000 0.89 52 12:41 01.01.2023
420 Clouds 14 1026 84 10000 0.45 51 11:38 01.01.2023
421 Clouds 13 1026 82 10000 4.12 320 10:36 01.01.2023
422 Clouds 11 1026 81 10000 4.63 320 08:56 01.01.2023
423 Clouds 11 1025 80 10000 4.63 320 08:22 01.01.2023
424 Clouds 11 1025 80 10000 3.09 320 07:23 01.01.2023
425 Clear 12 1025 76 10000 3.6 320 03:47 01.01.2023
426 Clear 14 1026 78 10000 2.57 320 23:44 31.12.2022
427 Clear 13 1025 77 10000 2.06 280 22:35 31.12.2022
428 Clear 14 1025 79 10000 3.6 250 21:41 31.12.2022
429 Clear 14 1025 78 10000 3.6 230 21:19 31.12.2022
430 Clear 15 1024 78 10000 4.12 210 19:43 31.12.2022
431 Clear 16 1024 73 10000 5.14 210 18:45 31.12.2022
432 Clear 17 1024 70 10000 5.66 210 18:19 31.12.2022
433 Clear 17 1023 67 10000 5.66 210 17:48 31.12.2022
434 Clear 19 1023 58 10000 4.63 210 16:59 31.12.2022
435 Clear 20 1023 53 10000 5.14 210 16:29 31.12.2022
436 Clear 20 1023 54 10000 4.63 220 15:19 31.12.2022
437 Clear 20 1024 52 10000 3.09 240 13:44 31.12.2022
438 Clear 19 1024 56 10000 2.06 290 12:40 31.12.2022
439 Clear 18 1025 61 10000 2.06 290 12:20 31.12.2022
440 Clear 17 1025 62 10000 3.09 320 11:50 31.12.2022
441 Clear 16 1025 62 10000 3.09 320 10:37 31.12.2022
442 Clear 15 1024 64 10000 3.09 330 09:55 31.12.2022
443 Clear 15 1024 63 10000 2.06 320 09:35 31.12.2022
444 Clear 14 1023 68 10000 3.09 300 07:49 31.12.2022
445 Clear 16 1023 74 10000 4.12 290 00:59 31.12.2022
446 Clear 15 1023 73 10000 3.58 269 23:50 30.12.2022
447 Clear 16 1023 73 10000 4.12 290 22:50 30.12.2022
448 Clear 16 1022 73 10000 3.09 210 21:50 30.12.2022
449 Clear 16 1022 72 10000 3.6 300 21:30 30.12.2022
450 Clear 16 1022 71 10000 2.57 290 19:52 30.12.2022
451 Clear 17 1020 67 10000 4.63 290 17:53 30.12.2022
452 Clouds 18 1020 66 10000 5.14 270 17:33 30.12.2022
453 Clear 19 1019 62 10000 5.14 270 15:58 30.12.2022
454 Clouds 19 1019 61 10000 5.66 250 14:54 30.12.2022
455 Clouds 18 1020 63 10000 3.6 260 12:50 30.12.2022
456 Clouds 13 1019 74 10000 0.45 300 08:23 30.12.2022
457 Clouds 13 1019 72 10000 2.57 320 03:44 30.12.2022
458 Clouds 14 1019 70 10000 2.57 350 02:24 30.12.2022
459 Clouds 15 1020 66 10000 7.72 260 22:58 29.12.2022
460 Clear 15 1019 65 10000 5.14 210 21:32 29.12.2022
461 Clear 15 1019 66 10000 5.14 220 20:54 29.12.2022
462 Clouds 15 1019 65 10000 5.14 220 20:26 29.12.2022
463 Clouds 15 1019 65 10000 4.63 260 18:32 29.12.2022
464 Clear 16 1018 64 10000 6.17 230 17:37 29.12.2022
465 Clear 17 1018 63 10000 6.17 230 17:18 29.12.2022
466 Clear 17 1018 60 10000 6.69 230 16:44 29.12.2022
467 Clear 17 1018 61 10000 6.17 220 15:44 29.12.2022
468 Clouds 18 1019 53 10000 3.6 250 13:34 29.12.2022
469 Clouds 18 1019 54 10000 3.6 250 13:34 29.12.2022
470 Clouds 15 1020 60 10000 3.58 308 11:48 29.12.2022
471 Clouds 12 1020 71 10000 3.6 320 09:20 29.12.2022
472 Clouds 12 1021 75 10000 2.06 300 00:37 29.12.2022
473 Clouds 13 1021 76 10000 3.6 290 23:28 28.12.2022
474 Clouds 13 1021 78 10000 3.6 300 21:49 28.12.2022
475 Clouds 13 1022 78 10000 3.09 260 21:19 28.12.2022
476 Clouds 14 1022 80 10000 6.69 240 19:47 28.12.2022
477 Clouds 16 1022 78 10000 7.2 230 16:58 28.12.2022
478 Clouds 17 1022 75 10000 8.23 220 15:39 28.12.2022
479 Clear 17 1024 72 10000 6.17 230 12:59 28.12.2022
480 Clear 16 1025 73 10000 5.66 230 12:32 28.12.2022
481 Clear 15 1025 70 10000 1.03 0 11:32 28.12.2022
482 Clouds 11 1026 76 10000 4.12 310 09:19 28.12.2022
483 Clouds 11 1025 73 10000 3.09 310 07:28 28.12.2022
484 Clouds 12 1025 75 10000 4.12 310 06:43 28.12.2022
485 Clouds 12 1028 81 10000 2.57 300 00:24 28.12.2022
486 Clear 13 1028 81 10000 2.06 210 20:31 27.12.2022
487 Clear 14 1028 77 10000 4.12 220 19:41 27.12.2022
488 Clear 15 1028 74 10000 3.6 210 17:58 27.12.2022
489 Clear 17 1028 68 10000 4.12 220 16:43 27.12.2022
490 Clear 18 1028 66 10000 5.14 220 15:49 27.12.2022
491 Clear 18 1029 67 10000 3.09 220 13:57 27.12.2022
492 Clear 15 1031 71 10000 4.12 320 11:30 27.12.2022
493 Clear 15 1030 71 10000 4.12 320 11:30 27.12.2022
494 Clear 13 1030 77 10000 6.17 320 09:47 27.12.2022
495 Clear 12 1030 80 10000 6.17 320 09:23 27.12.2022
496 Clear 12 1029 76 10000 5.14 320 08:21 27.12.2022
497 Clear 12 1029 78 10000 2.57 340 04:32 27.12.2022
498 Mist 12 1028 87 5000 2.06 310 23:25 26.12.2022
499 Clouds 13 1028 85 10000 1.54 40 21:32 26.12.2022
500 Clouds 14 1028 83 10000 3.6 70 20:42 26.12.2022
501 Clear 16 1027 77 10000 5.66 60 18:50 26.12.2022
502 Clear 17 1026 68 10000 4.47 65 17:52 26.12.2022
503 Clouds 21 1025 51 10000 4.12 270 16:22 26.12.2022
504 Clear 21 1024 48 10000 3.09 240 14:34 26.12.2022
505 Clouds 20 1025 45 10000 4.12 240 12:51 26.12.2022
506 Clear 14 1024 67 10000 4.63 310 08:52 26.12.2022
507 Clouds 15 1022 60 10000 3.6 320 00:25 26.12.2022
508 Clouds 15 1022 66 10000 1.54 300 23:38 25.12.2022
509 Clouds 15 1021 71 10000 1.54 230 22:38 25.12.2022
510 Clouds 15 1020 71 7000 2.57 330 21:49 25.12.2022
511 Clouds 16 1020 80 9000 2.57 220 18:51 25.12.2022
512 Clouds 17 1019 78 10000 3.09 230 17:52 25.12.2022
513 Clouds 17 1019 78 10000 3.09 220 17:34 25.12.2022
514 Clear 19 1018 68 10000 5.14 220 15:41 25.12.2022
515 Clear 19 1018 63 10000 4.63 210 12:59 25.12.2022
516 Clear 14 1019 68 10000 0.89 257 09:31 25.12.2022
517 Clear 15 1019 65 9000 3.09 250 00:28 25.12.2022
518 Clear 16 1019 66 10000 3.09 250 21:54 24.12.2022
519 Clear 17 1018 65 10000 3.09 250 19:51 24.12.2022
520 Clear 19 1017 63 10000 2.24 245 16:47 24.12.2022
521 Clear 20 1018 61 10000 4.63 210 14:55 24.12.2022
522 Clear 19 1019 58 10000 3.6 250 13:30 24.12.2022
523 Clear 17 1020 66 10000 4.12 210 11:29 24.12.2022
524 Clear 16 1020 72 10000 3.6 330 10:22 24.12.2022
525 Clouds 15 1020 74 10000 5.14 330 09:37 24.12.2022
526 Clouds 14 1019 73 10000 7.2 320 07:24 24.12.2022
527 Clear 16 1019 68 10000 5.14 320 02:50 24.12.2022
528 Clouds 16 1020 67 10000 4.12 320 23:57 23.12.2022
529 Clouds 17 1020 67 10000 4.12 290 22:29 23.12.2022
530 Clear 18 1020 65 10000 5.14 320 20:42 23.12.2022
531 Clear 18 1019 67 10000 5.14 320 19:39 23.12.2022
532 Clear 18 1019 65 10000 5.14 320 19:21 23.12.2022
533 Clear 19 1019 60 10000 8.23 320 18:46 23.12.2022
534 Clear 19 1019 61 10000 7.72 310 18:20 23.12.2022
535 Clear 20 1018 56 10000 7.72 250 16:39 23.12.2022
536 Clear 21 1019 57 10000 8.75 270 15:43 23.12.2022
537 Clear 19 1021 67 10000 8.75 270 12:18 23.12.2022
538 Clear 15 1021 77 10000 2.57 290 09:42 23.12.2022
539 Clear 14 1020 79 10000 2.57 290 09:23 23.12.2022
540 Clear 15 1020 77 10000 3.09 250 07:20 23.12.2022
541 Clear 15 1020 78 10000 3.09 250 06:48 23.12.2022
542 Clear 15 1021 73 10000 2.68 262 23:24 22.12.2022
543 Clear 15 1021 74 10000 2.06 320 22:58 22.12.2022
544 Clouds 15 1021 77 10000 1.54 320 21:48 22.12.2022
545 Clouds 16 1022 73 10000 2.57 220 19:46 22.12.2022
546 Clouds 16 1022 70 10000 3.09 280 19:18 22.12.2022
547 Clear 17 1021 67 10000 5.14 270 17:33 22.12.2022
548 Clouds 18 1021 65 10000 5.14 240 16:39 22.12.2022
549 Clouds 19 1021 66 10000 3.6 280 15:35 22.12.2022
550 Clear 19 1021 65 10000 4.12 280 14:53 22.12.2022
551 Clouds 18 1022 66 10000 5.66 270 13:51 22.12.2022
552 Clouds 17 1022 68 10000 6.17 260 13:18 22.12.2022
553 Clear 15 1023 76 10000 6.17 330 11:34 22.12.2022
554 Clear 14 1024 76 10000 3.58 307 10:31 22.12.2022
555 Clear 13 1023 77 10000 5.66 320 09:22 22.12.2022
556 Clear 12 1023 76 10000 6.69 330 08:32 22.12.2022
557 Clear 13 1022 75 10000 3.13 258 07:22 22.12.2022
558 Clouds 13 1022 75 10000 3.58 340 04:18 22.12.2022
559 Clouds 13 1021 77 10000 4.63 340 00:24 22.12.2022
560 Clouds 13 1021 78 10000 4.12 330 22:24 21.12.2022
561 Clouds 13 1021 76 10000 2.57 320 21:24 21.12.2022
562 Clouds 14 1021 75 10000 2.06 310 20:54 21.12.2022
563 Clouds 14 1021 76 10000 2.06 280 20:29 21.12.2022
564 Clouds 14 1021 76 10000 3.09 290 19:44 21.12.2022
565 Clouds 14 1020 75 10000 3.09 300 19:25 21.12.2022
566 Clouds 15 1020 74 10000 2.06 260 18:47 21.12.2022
567 Clouds 15 1020 73 10000 1.03 280 18:21 21.12.2022
568 Clouds 18 1019 63 10000 4.12 260 15:25 21.12.2022
569 Clouds 17 1020 65 10000 4.12 310 13:41 21.12.2022
570 Clouds 15 1021 73 10000 7.2 300 11:48 21.12.2022
571 Clouds 15 1021 73 10000 4.12 310 11:20 21.12.2022
572 Clouds 13 1020 78 10000 4.12 340 09:50 21.12.2022
573 Clouds 12 1020 79 10000 4.12 280 08:48 21.12.2022
574 Clouds 12 1019 80 10000 2.57 260 06:24 21.12.2022
575 Clouds 13 1020 81 10000 2.06 250 23:21 20.12.2022
576 Clouds 13 1020 81 10000 4.12 240 21:47 20.12.2022
577 Clouds 14 1020 81 10000 2.57 240 20:26 20.12.2022
578 Clouds 14 1020 81 10000 3.09 240 19:42 20.12.2022
579 Clouds 14 1020 81 10000 3.09 250 18:38 20.12.2022
580 Clouds 14 1020 79 10000 3.09 250 18:19 20.12.2022
581 Clouds 15 1020 80 10000 4.12 230 17:46 20.12.2022
582 Clouds 15 1020 79 10000 4.12 240 16:53 20.12.2022
583 Clouds 17 1021 74 10000 5.14 220 15:47 20.12.2022
584 Clouds 17 1021 78 10000 5.66 230 14:50 20.12.2022
585 Clouds 17 1021 79 10000 5.66 210 14:29 20.12.2022
586 Clouds 16 1023 78 10000 4.12 240 12:59 20.12.2022
587 Clouds 16 1023 78 10000 2.24 300 12:31 20.12.2022
588 Clouds 15 1024 79 10000 2.06 300 11:37 20.12.2022
589 Clouds 12 1024 74 10000 3.6 330 08:51 20.12.2022
590 Mist 11 1024 78 10000 3.6 320 04:38 20.12.2022
591 Clouds 13 1027 81 10000 1.03 310 22:46 19.12.2022
592 Clouds 13 1027 80 9000 1.54 270 21:56 19.12.2022
593 Clouds 13 1027 80 8000 1.54 270 20:28 19.12.2022
594 Clouds 14 1027 80 9000 1.03 0 19:39 19.12.2022
595 Clouds 14 1027 80 10000 2.06 220 18:42 19.12.2022
596 Clouds 15 1027 80 10000 3.09 210 17:36 19.12.2022
597 Clouds 16 1028 78 10000 3.09 220 13:55 19.12.2022
598 Clouds 16 1028 79 10000 2.06 320 12:21 19.12.2022
599 Clouds 14 1029 82 10000 1.79 293 10:56 19.12.2022
600 Clouds 11 1028 74 10000 4.12 320 07:45 19.12.2022
601 Clouds 12 1028 76 10000 0.89 294 03:48 19.12.2022
602 Clouds 12 1028 80 9000 1.54 320 22:40 18.12.2022
603 Clouds 12 1028 81 9000 1.54 320 21:46 18.12.2022
604 Clouds 12 1028 81 9000 2.06 280 21:23 18.12.2022
605 Clear 12 1028 82 10000 2.57 240 20:32 18.12.2022
606 Clear 12 1028 80 10000 3.09 240 19:41 18.12.2022
607 Clear 13 1027 81 10000 3.6 210 18:39 18.12.2022
608 Clear 13 1027 80 10000 4.63 220 17:49 18.12.2022
609 Clear 15 1027 78 10000 4.12 220 15:41 18.12.2022
610 Clear 15 1027 77 10000 4.12 220 15:20 18.12.2022
611 Clear 15 1027 78 10000 4.12 230 14:21 18.12.2022
612 Clouds 14 1028 77 10000 3.6 320 12:57 18.12.2022
613 Clouds 13 1028 77 10000 3.6 320 12:30 18.12.2022
614 Fog 12 1028 76 10000 5.14 320 11:20 18.12.2022
615 Clouds 10 1027 73 10000 6.69 330 09:20 18.12.2022
616 Clouds 9 1026 77 10000 6.17 330 08:45 18.12.2022
617 Clouds 9 1025 79 10000 5.14 330 06:24 18.12.2022
618 Clouds 9 1024 80 10000 4.12 330 03:41 18.12.2022
619 Clouds 10 1023 78 10000 3.6 320 01:49 18.12.2022
620 Clouds 11 1022 79 10000 2.06 320 22:29 17.12.2022
621 Clouds 11 1021 79 10000 2.57 280 20:18 17.12.2022
622 Clouds 13 1019 77 10000 2.57 180 17:20 17.12.2022
623 Clouds 14 1018 78 10000 2.57 150 15:18 17.12.2022
624 Mist 13 1018 80 10000 1.54 90 12:33 17.12.2022
625 Mist 12 1018 79 9000 2.06 320 11:18 17.12.2022
626 Mist 12 1018 78 3000 0 0 10:38 17.12.2022
627 Clouds 11 1017 78 8000 1.54 360 08:36 17.12.2022
628 Clouds 11 1015 79 9000 2.06 310 06:47 17.12.2022
629 Clouds 12 1013 76 10000 3.09 340 00:32 17.12.2022
630 Clouds 12 1011 78 10000 2.57 360 22:22 16.12.2022
631 Clouds 13 1009 73 10000 2.57 310 20:25 16.12.2022
632 Clouds 15 1008 69 10000 4.12 300 17:47 16.12.2022
633 Clouds 16 1006 62 10000 3.09 240 15:19 16.12.2022
634 Clouds 16 1006 64 10000 3.6 280 14:36 16.12.2022
635 Clouds 15 1006 70 10000 5.14 300 12:22 16.12.2022
636 Clouds 14 1006 73 10000 6.17 290 11:35 16.12.2022
637 Clouds 12 1005 79 10000 3.6 310 09:39 16.12.2022
638 Clouds 11 1004 78 10000 3.09 320 08:27 16.12.2022
639 Clouds 11 1004 78 10000 3.09 320 08:27 16.12.2022
640 Clouds 11 1004 78 10000 3.09 320 08:27 16.12.2022
641 Clear 11 1003 77 10000 3.6 330 07:54 16.12.2022
642 Clouds 13 1000 73 10000 2.57 320 00:22 16.12.2022
643 Clouds 13 1000 76 10000 3.09 280 22:33 15.12.2022
644 Clouds 13 999 79 10000 3.09 270 21:25 15.12.2022
645 Clouds 14 998 75 10000 2.06 280 19:46 15.12.2022
646 Clouds 14 997 75 10000 6.17 230 18:53 15.12.2022
647 Clouds 16 997 70 10000 4.12 240 17:27 15.12.2022
648 Clouds 17 996 67 10000 8.75 240 15:46 15.12.2022
649 Clouds 17 995 69 10000 9.77 230 14:55 15.12.2022
650 Clouds 17 995 74 10000 8.23 230 12:51 15.12.2022
651 Clouds 17 996 77 10000 4.63 260 12:22 15.12.2022
652 Clouds 13 995 80 10000 4.12 320 08:59 15.12.2022
653 Drizzle 12 995 79 7000 5.66 320 08:21 15.12.2022
654 Clouds 13 997 80 10000 3.09 330 05:43 15.12.2022
655 Clouds 13 1001 83 10000 2.57 330 00:59 15.12.2022
656 Clouds 13 1003 87 10000 2.06 360 21:24 14.12.2022
657 Clouds 13 1003 80 10000 1.54 20 20:45 14.12.2022
658 Clouds 13 1003 81 10000 1.54 40 19:51 14.12.2022
659 Clouds 15 1004 81 10000 4.63 70 17:19 14.12.2022
660 Clouds 15 1004 81 10000 4.63 70 16:53 14.12.2022
661 Clouds 16 1004 79 10000 4.63 70 14:58 14.12.2022
662 Clouds 17 1004 75 10000 3.13 70 13:19 14.12.2022
663 Clouds 16 1005 77 10000 2.06 90 10:55 14.12.2022
664 Clouds 15 1004 79 10000 2.06 70 10:23 14.12.2022
665 Fog 13 1002 81 10000 2.57 240 08:46 14.12.2022
666 Clouds 13 1000 83 10000 2.57 330 22:42 13.12.2022
667 Clouds 14 1001 82 10000 1.54 340 21:45 13.12.2022
668 Clouds 13 1001 81 10000 1.03 0 20:48 13.12.2022
669 Clouds 13 1002 82 10000 1.54 350 19:25 13.12.2022
670 Rain 14 1003 87 10000 2.06 140 16:40 13.12.2022
671 Rain 15 1003 79 10000 3.58 286 14:59 13.12.2022
672 Clear 14 1003 81 10000 2.57 0 13:37 13.12.2022
673 Clear 14 1004 78 10000 3.6 330 10:54 13.12.2022
674 Clear 13 1004 79 10000 3.6 330 10:27 13.12.2022
675 Clear 13 1004 79 10000 3.6 330 10:27 13.12.2022
676 Clouds 11 1003 77 10000 1.54 340 08:31 13.12.2022
677 Clouds 10 1001 85 10000 5.66 320 22:42 12.12.2022
678 Clouds 10 1001 79 10000 5.14 320 22:20 12.12.2022
679 Clouds 10 1002 84 5000 5.14 330 20:41 12.12.2022
680 Clouds 10 1002 84 5000 5.14 330 20:41 12.12.2022
681 Rain 9 1003 83 5000 5.14 340 18:31 12.12.2022
682 Rain 10 1005 76 10000 1.54 140 15:41 12.12.2022
683 Clouds 11 1006 71 10000 1.54 290 14:26 12.12.2022
684 Clouds 11 1006 71 10000 1.54 290 14:26 12.12.2022
685 Clouds 8 1010 77 10000 4.12 340 09:56 12.12.2022
686 Clouds 7 1010 78 10000 3.09 290 09:18 12.12.2022
687 Clouds 7 1008 77 10000 5.66 340 04:52 12.12.2022
688 Clouds 9 1008 74 10000 3.09 320 01:51 12.12.2022
689 Clouds 10 1006 74 10000 1.54 40 22:19 11.12.2022
690 Clouds 10 1006 73 10000 3.09 320 20:41 11.12.2022
691 Clouds 10 1005 72 10000 3.09 320 19:40 11.12.2022
692 Clouds 10 1005 72 10000 3.6 320 18:55 11.12.2022
693 Clouds 10 1005 72 10000 3.09 310 17:57 11.12.2022
694 Clouds 10 1005 71 10000 2.57 310 17:28 11.12.2022
695 Clouds 10 1005 69 10000 3.58 72 16:49 11.12.2022
696 Clouds 10 1005 67 10000 3.09 320 15:45 11.12.2022
697 Rain 10 1006 66 10000 4.12 320 13:43 11.12.2022
698 Clouds 9 1007 65 10000 5.66 320 12:43 11.12.2022
699 Clear 8 1008 65 10000 5.66 320 11:29 11.12.2022
700 Clear 6 1008 61 10000 5.66 310 04:54 11.12.2022
701 Clear 6 1009 56 10000 4.12 340 00:32 11.12.2022
702 Clear 7 1009 52 10000 5.14 320 22:51 10.12.2022
703 Clear 7 1009 53 10000 5.14 250 22:32 10.12.2022
704 Clear 7 1009 53 10000 5.14 250 22:32 10.12.2022
705 Clear 8 1009 51 10000 7.72 310 21:18 10.12.2022
706 Clear 9 1009 51 10000 6.17 290 20:24 10.12.2022
707 Clear 10 1007 52 10000 6.17 310 18:33 10.12.2022
708 Clouds 12 1005 53 10000 7.2 300 16:47 10.12.2022
709 Clouds 13 1005 55 10000 6.69 260 15:53 10.12.2022
710 Clouds 13 1004 57 10000 5.66 280 15:34 10.12.2022
711 Clouds 14 1003 64 10000 4.63 280 13:56 10.12.2022
712 Clouds 14 1004 70 10000 4.63 340 12:45 10.12.2022
713 Clouds 13 1004 75 10000 6.69 270 11:26 10.12.2022
714 Clouds 13 1003 79 10000 4.12 260 10:28 10.12.2022
715 Clouds 12 1002 81 10000 2.57 250 07:42 10.12.2022
716 Clouds 12 1001 81 10000 1.54 300 07:18 10.12.2022
717 Clouds 14 999 75 10000 3.6 340 23:54 09.12.2022
718 Clouds 14 999 73 10000 3.13 346 22:43 09.12.2022
719 Clouds 14 999 73 10000 2.68 315 21:47 09.12.2022
720 Clouds 14 999 72 10000 2.06 330 21:21 09.12.2022
721 Clouds 14 998 73 10000 2.06 220 19:49 09.12.2022
722 Clouds 15 998 69 10000 2.57 270 18:36 09.12.2022
723 Clouds 16 998 68 10000 3.09 250 17:44 09.12.2022
724 Clouds 18 998 63 10000 5.66 230 16:30 09.12.2022
725 Clouds 18 998 60 10000 6.17 240 15:32 09.12.2022
726 Clouds 18 999 61 10000 5.66 210 14:23 09.12.2022
727 Clouds 15 1000 72 10000 2.57 240 10:52 09.12.2022
728 Clouds 15 1000 75 10000 2.68 293 10:29 09.12.2022
729 Clear 12 999 82 10000 2.57 310 08:23 09.12.2022
730 Mist 13 1000 83 5000 1.54 290 03:18 09.12.2022
731 Mist 14 1001 83 3900 1.54 290 23:37 08.12.2022
732 Mist 13 1002 86 2700 2.06 340 20:56 08.12.2022
733 Mist 13 1003 86 2700 2.06 350 20:21 08.12.2022
734 Rain 13 1004 86 2000 3.6 330 16:51 08.12.2022
735 Rain 13 1006 85 4000 2.06 350 14:46 08.12.2022
736 Rain 13 1006 82 5000 2.57 310 14:20 08.12.2022
737 Mist 13 1009 79 9000 3.09 330 10:56 08.12.2022
738 Mist 12 1009 80 10000 3.6 330 09:35 08.12.2022
739 Mist 11 1009 80 10000 3.09 340 08:58 08.12.2022
740 Clouds 12 1011 80 10000 1.54 270 22:44 07.12.2022
741 Clouds 13 1011 80 9000 2.06 330 22:19 07.12.2022
742 Clouds 12 1011 80 9000 2.06 330 22:19 07.12.2022
743 Clouds 13 1011 80 9000 2.06 330 21:47 07.12.2022
744 Clouds 13 1011 80 9000 1.54 290 20:36 07.12.2022
745 Clouds 13 1012 79 10000 2.06 210 18:42 07.12.2022
746 Clouds 14 1012 75 9000 1.54 220 16:21 07.12.2022
747 Clouds 15 1012 69 10000 1.03 0 14:40 07.12.2022
748 Clouds 14 1014 75 10000 0.45 18 11:37 07.12.2022
749 Mist 12 1014 79 8000 6.17 330 10:36 07.12.2022
750 Clouds 11 1014 84 9000 6.17 330 09:37 07.12.2022
751 Clouds 10 1014 86 8000 5.14 330 08:44 07.12.2022
752 Clear 10 1014 86 9000 3.6 330 05:28 07.12.2022
753 Clouds 10 1014 86 8000 3.6 330 04:35 07.12.2022
754 Clouds 11 1015 84 10000 1.54 330 22:37 06.12.2022
755 Clouds 12 1015 88 10000 2.06 310 20:20 06.12.2022
756 Clouds 13 1014 80 10000 2.57 130 17:39 06.12.2022
757 Clouds 14 1014 77 10000 3.09 110 16:41 06.12.2022
758 Clouds 15 1014 75 10000 2.06 140 15:49 06.12.2022
759 Clouds 15 1014 73 10000 2.06 170 14:55 06.12.2022
760 Clouds 15 1014 73 10000 2.57 190 14:24 06.12.2022
761 Clouds 14 1015 72 10000 2.06 160 12:54 06.12.2022
762 Clouds 14 1015 72 10000 2.06 320 12:36 06.12.2022
763 Clouds 10 1015 79 10000 4.12 330 07:59 06.12.2022
764 Clouds 10 1015 86 10000 3.6 330 05:56 06.12.2022
765 Clouds 10 1016 85 10000 3.6 330 01:25 06.12.2022
766 Clouds 11 1016 81 10000 2.57 20 22:34 05.12.2022
767 Clouds 12 1016 83 10000 3.09 40 20:55 05.12.2022
768 Clouds 12 1016 84 10000 3.09 40 20:55 05.12.2022
769 Clear 12 1016 84 10000 3.6 60 20:26 05.12.2022
770 Clouds 12 1017 79 10000 3.09 50 19:45 05.12.2022
771 Clouds 13 1016 77 10000 3.6 70 17:49 05.12.2022
772 Clouds 14 1016 74 10000 3.6 70 16:47 05.12.2022
773 Clouds 14 1016 69 10000 4.63 70 15:22 05.12.2022
774 Clear 13 1017 61 10000 3.09 330 12:59 05.12.2022
775 Clear 13 1017 61 10000 4.12 330 12:40 05.12.2022
776 Clear 13 1018 62 10000 4.12 330 12:19 05.12.2022
777 Clouds 11 1018 62 10000 0.89 285 10:58 05.12.2022
778 Clouds 8 1016 70 10000 6.17 330 00:21 05.12.2022
779 Clouds 9 1015 67 10000 5.66 340 22:58 04.12.2022
780 Clouds 8 1015 70 10000 4.12 350 22:36 04.12.2022
781 Clouds 9 1014 68 10000 3.09 340 22:18 04.12.2022
782 Clouds 9 1013 63 10000 2.57 350 20:53 04.12.2022
783 Clouds 10 1012 60 10000 2.57 280 19:39 04.12.2022
784 Clouds 10 1012 60 10000 2.57 280 19:18 04.12.2022
785 Clouds 12 1011 55 10000 4.12 290 17:24 04.12.2022
786 Clouds 13 1010 54 10000 4.12 310 16:56 04.12.2022
787 Clouds 13 1010 55 10000 4.63 290 16:36 04.12.2022
788 Clouds 13 1010 56 10000 4.63 290 16:18 04.12.2022
789 Clouds 13 1010 66 10000 2.57 240 14:44 04.12.2022
790 Clouds 12 1010 66 10000 4.63 320 13:37 04.12.2022
791 Clouds 11 1010 65 10000 2.24 325 12:44 04.12.2022
792 Clouds 11 1010 73 10000 5.66 330 11:59 04.12.2022
793 Clouds 9 1009 80 10000 5.14 330 09:33 04.12.2022
794 Clouds 8 1008 81 10000 5.66 330 07:32 04.12.2022
795 Rain 9 1008 79 10000 2.57 320 00:59 04.12.2022
796 Rain 10 1008 73 10000 3.09 340 23:43 03.12.2022
797 Rain 10 1008 69 6000 3.09 330 22:23 03.12.2022
798 Clouds 10 1008 68 10000 2.57 330 21:28 03.12.2022
799 Clouds 10 1007 69 10000 2.06 300 20:34 03.12.2022
800 Clouds 11 1007 67 10000 3.09 250 18:40 03.12.2022
801 Clouds 13 1007 59 10000 6.17 230 16:57 03.12.2022
802 Clouds 14 1006 53 10000 6.17 220 14:32 03.12.2022
803 Clouds 13 1007 55 10000 4.12 310 12:55 03.12.2022
804 Clouds 12 1007 59 10000 5.14 320 12:24 03.12.2022
805 Clouds 9 1008 67 10000 4.63 320 10:26 03.12.2022
806 Clouds 6 1008 74 10000 4.12 350 07:58 03.12.2022
807 Clear 8 1010 71 10000 5.66 330 01:31 03.12.2022
808 Clouds 9 1011 71 10000 6.17 320 23:25 02.12.2022
809 Clouds 10 1012 68 10000 3.6 330 20:59 02.12.2022
810 Clouds 11 1012 64 10000 2.57 70 19:34 02.12.2022
811 Clouds 13 1012 61 10000 5.14 80 15:59 02.12.2022
812 Clouds 14 1013 56 10000 3.6 70 14:45 02.12.2022
813 Clouds 14 1013 55 10000 3.6 70 14:26 02.12.2022
814 Clouds 13 1014 55 10000 3.09 320 13:36 02.12.2022
815 Clouds 11 1015 57 10000 4.63 320 11:44 02.12.2022
816 Clouds 9 1016 65 10000 5.14 320 09:46 02.12.2022
817 Clouds 9 1016 65 10000 5.66 320 09:46 02.12.2022
818 Clouds 9 1016 65 10000 5.66 320 09:46 02.12.2022
819 Clouds 9 1016 64 10000 5.14 320 09:46 02.12.2022
820 Clouds 9 1016 65 10000 5.14 320 09:46 02.12.2022
821 Clouds 8 1016 66 10000 4.63 320 07:25 02.12.2022
822 Clouds 8 1016 69 10000 5.14 330 05:21 02.12.2022
823 Clouds 10 1017 61 10000 3.09 320 22:30 01.12.2022
824 Clouds 10 1017 63 10000 3.09 320 21:39 01.12.2022
825 Clouds 11 1016 62 10000 2.06 10 20:30 01.12.2022
826 Clouds 12 1016 61 10000 4.63 70 18:56 01.12.2022
827 Clouds 14 1015 59 10000 4.12 80 16:25 01.12.2022
828 Clouds 14 1016 58 10000 4.12 60 13:41 01.12.2022
829 Clouds 11 1017 70 10000 3.09 0 10:42 01.12.2022
830 Clouds 10 1016 73 10000 3.6 320 09:54 01.12.2022
831 Clouds 10 1017 75 10000 3.6 320 09:36 01.12.2022
832 Clouds 10 1016 79 10000 4.12 320 05:45 01.12.2022
833 Clouds 10 1016 80 10000 3.09 330 22:40 30.11.2022
834 Drizzle 11 1016 83 10000 2.57 290 21:20 30.11.2022
835 Clouds 11 1016 78 10000 3.09 330 20:48 30.11.2022
836 Clouds 11 1016 81 10000 2.06 350 20:23 30.11.2022
837 Clouds 12 1016 76 10000 1.54 330 18:35 30.11.2022
838 Clouds 13 1015 73 10000 2.06 190 17:39 30.11.2022
839 Clouds 14 1015 70 10000 2.06 220 16:20 30.11.2022
840 Clouds 14 1015 69 10000 2.57 230 14:45 30.11.2022
841 Clouds 14 1016 68 10000 2.24 190 14:24 30.11.2022
842 Clouds 13 1017 70 10000 4.63 330 11:57 30.11.2022
843 Clouds 10 1017 80 10000 5.14 330 09:21 30.11.2022
844 Clouds 9 1017 81 10000 6.17 330 07:59 30.11.2022
845 Clouds 9 1016 79 10000 5.66 330 04:57 30.11.2022
846 Clouds 11 1016 80 10000 2.57 340 23:26 29.11.2022
847 Clouds 11 1016 77 10000 1.54 320 21:48 29.11.2022
848 Clouds 12 1016 75 10000 2.06 280 20:50 29.11.2022
849 Clouds 12 1016 73 10000 1.54 280 19:48 29.11.2022
850 Clouds 14 1016 65 10000 0.51 60 17:53 29.11.2022
851 Clouds 15 1015 58 10000 3.6 350 16:31 29.11.2022
852 Clouds 15 1016 57 10000 4.12 260 15:22 29.11.2022
853 Clouds 15 1016 58 10000 4.12 320 13:50 29.11.2022
854 Clouds 14 1016 61 10000 6.17 310 12:36 29.11.2022
855 Clouds 13 1017 64 10000 6.17 320 11:31 29.11.2022
856 Clouds 11 1017 70 10000 5.14 310 10:23 29.11.2022
857 Clouds 10 1017 73 10000 7.2 310 09:26 29.11.2022
858 Clouds 9 1016 75 10000 6.69 300 06:46 29.11.2022
859 Clear 11 1016 74 10000 4.63 310 00:22 29.11.2022
860 Clouds 11 1016 75 10000 3.09 320 23:22 28.11.2022
861 Clouds 11 1016 76 10000 2.57 320 21:56 28.11.2022
862 Clouds 12 1016 75 10000 2.68 289 21:38 28.11.2022
863 Clouds 12 1015 73 10000 1.54 350 20:24 28.11.2022
864 Clouds 13 1015 79 10000 2.06 10 19:24 28.11.2022
865 Clouds 13 1015 79 10000 1.54 280 18:28 28.11.2022
866 Clouds 14 1014 71 10000 2.57 220 17:22 28.11.2022
867 Clouds 14 1014 75 10000 2.57 240 14:57 28.11.2022
868 Drizzle 13 1013 81 10000 2.57 270 13:54 28.11.2022
869 Clouds 12 1013 81 10000 1.54 320 12:59 28.11.2022
870 Clouds 11 1013 79 10000 7.2 320 11:31 28.11.2022
871 Clouds 12 1013 79 10000 5.14 330 07:55 28.11.2022
872 Clouds 12 1014 80 10000 3.09 330 04:55 28.11.2022
873 Clouds 12 1015 80 10000 4.12 320 04:37 28.11.2022
874 Clouds 13 1015 81 10000 3.09 330 03:21 28.11.2022
875 Clouds 13 1018 82 10000 2.57 320 23:44 27.11.2022
876 Clouds 14 1019 85 10000 2.06 330 21:55 27.11.2022
877 Clouds 13 1020 81 10000 2.06 320 20:43 27.11.2022
878 Clouds 14 1021 78 10000 1.54 200 18:31 27.11.2022
879 Clouds 17 1022 69 10000 2.57 220 15:40 27.11.2022
880 Clouds 16 1024 62 10000 1.54 300 13:47 27.11.2022
881 Clear 15 1025 61 10000 3.6 330 12:20 27.11.2022
882 Clear 11 1025 75 10000 6.17 330 09:21 27.11.2022
883 Clear 10 1025 74 10000 5.66 330 06:30 27.11.2022
884 Clear 12 1027 61 10000 4.63 330 23:22 26.11.2022
885 Clear 13 1027 59 10000 3.6 330 21:27 26.11.2022
886 Clear 14 1026 57 10000 2.24 276 19:57 26.11.2022
887 Clear 14 1026 59 10000 2.06 290 18:41 26.11.2022
888 Clear 17 1026 48 10000 3.6 220 16:38 26.11.2022
889 Clear 17 1026 44 10000 3.09 260 15:22 26.11.2022
890 Clear 15 1027 49 10000 6.17 310 12:51 26.11.2022
891 Clear 13 1028 57 10000 6.17 330 10:53 26.11.2022
892 Clear 11 1028 63 10000 4.92 264 09:43 26.11.2022
893 Clouds 10 1027 65 10000 5.14 320 07:48 26.11.2022
894 Clear 12 1024 72 10000 2.57 310 22:43 25.11.2022
895 Clear 12 1024 78 10000 2.57 260 21:35 25.11.2022
896 Clouds 13 1023 76 10000 2.57 270 20:33 25.11.2022
897 Clouds 17 1019 63 10000 5.14 320 16:59 25.11.2022
898 Thunderstorm 17 1019 70 10000 5.14 240 15:40 25.11.2022
899 Clouds 16 1020 70 10000 3.6 350 10:29 25.11.2022
900 Clear 14 1018 76 10000 3.09 340 08:44 25.11.2022
901 Clear 15 1017 75 10000 3.09 340 07:27 25.11.2022
902 Clear 15 1017 74 10000 3.6 310 06:42 25.11.2022
903 Clouds 15 1016 75 10000 1.03 330 01:25 25.11.2022
904 Clouds 16 1016 73 10000 0.51 0 23:22 24.11.2022
905 Clouds 16 1016 72 10000 1.03 300 22:29 24.11.2022
906 Clouds 16 1016 70 10000 0.51 0 21:35 24.11.2022
907 Clouds 16 1016 70 10000 2.57 230 19:48 24.11.2022
908 Clouds 17 1016 64 10000 4.63 240 17:47 24.11.2022
909 Clouds 18 1016 63 10000 4.63 230 17:23 24.11.2022
910 Clouds 18 1016 65 10000 5.66 220 16:39 24.11.2022
911 Clouds 18 1017 77 10000 5.66 170 14:23 24.11.2022
912 Clouds 17 1019 72 10000 1.79 54 12:40 24.11.2022
913 Clouds 17 1019 69 10000 3.09 320 11:37 24.11.2022
914 Clouds 13 1019 75 10000 4.63 320 08:47 24.11.2022
915 Clouds 14 1017 77 10000 3.09 290 04:46 24.11.2022
916 Clouds 15 1015 78 10000 3.6 330 00:40 24.11.2022
917 Clouds 15 1015 79 10000 1.54 310 23:32 23.11.2022
918 Clouds 15 1013 77 10000 1.54 50 21:48 23.11.2022
919 Clouds 16 1012 76 10000 3.09 40 20:51 23.11.2022
920 Clear 17 1011 75 10000 3.6 50 19:34 23.11.2022
921 Clear 17 1010 72 10000 1.79 67 18:55 23.11.2022
922 Clear 19 1009 66 10000 2.57 320 17:29 23.11.2022
923 Clouds 21 1007 62 10000 5.14 240 14:19 23.11.2022
924 Clouds 19 1006 66 10000 6.69 230 13:24 23.11.2022
925 Clouds 19 1006 68 10000 8.23 240 12:23 23.11.2022
926 Clouds 19 1006 66 10000 7.72 240 11:46 23.11.2022
927 Clouds 17 1006 67 10000 5.66 240 10:48 23.11.2022
928 Clouds 16 1005 71 10000 3.09 320 10:18 23.11.2022
929 Clouds 15 1005 74 10000 3.6 340 09:28 23.11.2022
930 Clouds 14 1005 75 10000 3.09 310 08:58 23.11.2022
931 Clouds 14 1005 75 10000 2.68 294 08:36 23.11.2022
932 Clouds 13 1006 74 10000 3.6 330 05:19 23.11.2022
933 Clouds 12 1007 71 10000 5.14 250 01:42 23.11.2022
934 Clouds 12 1008 65 10000 5.66 260 22:37 22.11.2022
935 Clouds 12 1008 65 10000 5.14 260 21:51 22.11.2022
936 Clouds 13 1008 64 10000 6.69 270 21:31 22.11.2022
937 Clouds 13 1008 61 10000 7.2 250 20:44 22.11.2022
938 Clouds 13 1008 57 10000 6.69 260 19:47 22.11.2022
939 Clouds 14 1008 51 10000 7.72 270 17:54 22.11.2022
940 Clouds 14 1007 47 10000 8.75 270 16:39 22.11.2022
941 Clouds 15 1008 46 10000 12.35 290 14:43 22.11.2022
942 Clouds 13 1009 50 10000 7.72 290 12:56 22.11.2022
943 Clear 11 1009 58 10000 9.77 290 09:41 22.11.2022
944 Clear 10 1009 59 10000 7.72 300 08:58 22.11.2022
945 Clear 10 1007 63 10000 7.2 290 06:45 22.11.2022
946 Clouds 12 1004 69 10000 7.72 310 00:59 22.11.2022
947 Clouds 12 1003 70 10000 5.66 300 23:23 21.11.2022
948 Clouds 13 1002 69 10000 5.66 290 22:26 21.11.2022
949 Clouds 14 1002 67 10000 5.66 320 21:33 21.11.2022
950 Clouds 15 1001 72 10000 5.14 280 20:34 21.11.2022
951 Clouds 14 1002 78 10000 5.14 240 19:39 21.11.2022
952 Clouds 14 1002 79 10000 2.06 290 18:52 21.11.2022
953 Clouds 14 1003 76 8000 2.57 320 17:44 21.11.2022
954 Rain 15 1004 73 10000 2.57 270 16:44 21.11.2022
955 Rain 15 1004 72 10000 2.06 290 16:23 21.11.2022
956 Clouds 16 1005 71 10000 3.09 280 15:24 21.11.2022
957 Clouds 15 1006 70 10000 3.09 320 13:54 21.11.2022
958 Clouds 15 1007 70 10000 2.06 320 13:27 21.11.2022
959 Clouds 13 1012 70 10000 2.57 320 10:20 21.11.2022
960 Clouds 12 1013 67 10000 4.12 330 08:20 21.11.2022
961 Clouds 12 1013 67 10000 4.12 330 08:19 21.11.2022
962 Clear 12 1018 68 10000 3.13 276 02:18 21.11.2022
963 Clouds 13 1018 68 10000 1.54 340 22:19 20.11.2022
964 Clouds 13 1018 68 10000 1.54 330 20:55 20.11.2022
965 Clouds 13 1017 67 10000 1.03 0 20:22 20.11.2022
966 Clouds 15 1016 62 10000 2.57 260 17:49 20.11.2022
967 Clouds 16 1017 50 10000 2.06 200 15:52 20.11.2022
968 Clear 16 1017 50 10000 3.13 172 15:25 20.11.2022
969 Clear 16 1017 47 10000 3.6 280 14:25 20.11.2022
970 Clear 16 1017 46 10000 3.09 320 13:32 20.11.2022
971 Clear 14 1018 50 10000 6.17 340 12:25 20.11.2022
972 Clear 11 1018 56 10000 5.66 310 10:59 20.11.2022
973 Clear 10 1018 61 10000 7.72 300 09:47 20.11.2022
974 Clear 9 1017 65 10000 6.69 310 08:59 20.11.2022
975 Clear 8 1017 68 10000 5.14 310 08:33 20.11.2022
976 Clear 8 1016 67 10000 9.77 300 07:28 20.11.2022
977 Clear 10 1015 67 10000 4.92 293 01:31 20.11.2022
978 Clear 10 1015 66 10000 4.12 330 00:58 20.11.2022
979 Clear 10 1015 66 10000 4.12 330 00:39 20.11.2022
980 Clear 10 1015 65 10000 4.12 330 00:20 20.11.2022
981 Clear 11 1014 66 10000 4.12 330 23:47 19.11.2022
982 Clear 11 1014 67 10000 4.63 310 23:20 19.11.2022
983 Clouds 11 1014 67 10000 3.09 320 22:20 19.11.2022
984 Clouds 12 1014 66 10000 3.09 300 21:28 19.11.2022
985 Clouds 12 1013 66 10000 3.6 340 20:42 19.11.2022
986 Clouds 13 1013 66 10000 3.09 330 20:23 19.11.2022
987 Clouds 13 1012 71 10000 2.06 330 18:54 19.11.2022
988 Clouds 14 1011 63 10000 4.63 280 17:39 19.11.2022
989 Clouds 15 1011 59 10000 4.63 280 17:19 19.11.2022
990 Clouds 16 1010 52 10000 5.14 290 15:34 19.11.2022
991 Clouds 15 1010 55 10000 3.6 330 13:36 19.11.2022
992 Clouds 13 1011 60 10000 5.66 330 11:57 19.11.2022
993 Clouds 12 1011 67 10000 6.69 330 10:19 19.11.2022
994 Clouds 10 1010 73 10000 5.66 330 08:36 19.11.2022
995 Clouds 11 1009 72 10000 4.63 320 04:46 19.11.2022
996 Clouds 12 1009 76 10000 4.12 320 01:52 19.11.2022
997 Clouds 13 1009 75 10000 1.54 330 23:40 18.11.2022
998 Clouds 13 1009 77 10000 0.51 120 22:34 18.11.2022
999 Clouds 13 1009 78 10000 2.57 20 21:37 18.11.2022
1000 Drizzle 13 1009 77 10000 3.09 350 20:59 18.11.2022
1001 Clouds 13 1009 77 10000 2.06 40 20:26 18.11.2022
1002 Clouds 14 1009 74 10000 2.57 70 19:46 18.11.2022
1003 Clouds 15 1008 75 10000 4.63 60 18:23 18.11.2022
1004 Clouds 16 1007 70 10000 2.06 150 16:41 18.11.2022
1005 Clouds 17 1008 70 10000 4.63 300 13:40 18.11.2022
1006 Clouds 16 1009 69 10000 5.14 330 11:24 18.11.2022
1007 Clouds 14 1008 71 10000 4.63 320 08:24 18.11.2022
1008 Clear 14 1007 66 10000 4.63 340 06:23 18.11.2022
1009 Clear 15 1007 62 10000 3.6 340 05:18 18.11.2022
1010 Clear 18 1005 54 10000 5.66 260 00:42 18.11.2022
1011 Clear 21 1003 54 10000 5.14 270 21:26 17.11.2022
1012 Clouds 20 1002 60 10000 4.12 260 20:29 17.11.2022
1013 Clouds 20 1002 62 10000 4.12 220 19:50 17.11.2022
1014 Clouds 20 1002 69 10000 6.69 240 18:35 17.11.2022
1015 Clouds 22 1003 67 10000 2.57 240 17:32 17.11.2022
1016 Clouds 22 1003 67 10000 5.66 230 16:48 17.11.2022
1017 Clouds 21 1004 64 10000 3.6 240 12:53 17.11.2022
1018 Clear 20 1005 65 10000 1.79 301 11:21 17.11.2022
1019 Clouds 17 1005 67 10000 3.13 303 08:20 17.11.2022
1020 Clouds 18 1004 63 10000 4.12 260 02:54 17.11.2022
1021 Clouds 18 1004 60 10000 4.63 240 00:20 17.11.2022
1022 Clouds 18 1004 58 10000 7.2 240 22:29 16.11.2022
1023 Clouds 18 1004 56 10000 8.23 260 20:36 16.11.2022
1024 Clouds 18 1004 55 10000 4.12 240 19:33 16.11.2022
1025 Clouds 18 1005 52 10000 5.66 250 18:40 16.11.2022
1026 Clouds 20 1004 48 10000 5.66 260 17:19 16.11.2022
1027 Clouds 20 1006 61 10000 3.6 280 13:39 16.11.2022
1028 Clouds 18 1008 70 10000 2.06 310 09:34 16.11.2022
1029 Clouds 18 1007 65 10000 2.57 310 01:57 16.11.2022
1030 Clouds 19 1007 63 10000 4.12 330 01:25 16.11.2022
1031 Clear 18 1007 69 10000 2.24 332 22:22 15.11.2022
1032 Clear 19 1007 65 10000 4.63 260 20:32 15.11.2022
1033 Clear 19 1007 67 10000 4.63 240 19:33 15.11.2022
1034 Clear 21 1007 65 10000 7.2 250 17:39 15.11.2022
1035 Clear 21 1007 65 10000 7.72 250 16:53 15.11.2022
1036 Clear 22 1007 63 10000 7.72 260 16:18 15.11.2022
1037 Clouds 22 1008 57 10000 6.69 260 14:42 15.11.2022
1038 Clouds 22 1009 60 10000 3.6 250 12:59 15.11.2022
1039 Clear 21 1011 62 10000 6.17 240 11:42 15.11.2022
1040 Clear 20 1011 65 10000 3.09 240 10:41 15.11.2022
1041 Clear 17 1011 74 10000 2.06 310 06:57 15.11.2022
1042 Clouds 17 1015 74 10000 2.57 310 00:34 15.11.2022
1043 Clouds 18 1015 75 10000 3.09 230 22:54 14.11.2022
1044 Clouds 18 1016 72 10000 4.12 240 21:19 14.11.2022
1045 Clouds 19 1016 74 10000 4.12 250 20:38 14.11.2022
1046 Clouds 19 1015 75 10000 4.12 220 18:29 14.11.2022
1047 Clouds 21 1015 73 10000 7.72 230 15:45 14.11.2022
1048 Clouds 20 1017 73 10000 2.57 190 11:50 14.11.2022
1049 Clouds 20 1017 75 10000 1.03 0 11:28 14.11.2022
1050 Clouds 20 1017 75 10000 1.03 0 11:28 14.11.2022
1051 Mist 16 1017 84 8000 3.09 320 08:48 14.11.2022
1052 Mist 16 1017 84 8000 3.09 320 08:48 14.11.2022
1053 Clouds 16 1016 83 9000 3.09 330 07:53 14.11.2022
1054 Clouds 16 1016 84 10000 3.09 330 06:19 14.11.2022
1055 Clouds 16 1019 83 10000 1.03 340 00:18 14.11.2022
1056 Clouds 17 1019 81 10000 1.03 110 21:53 13.11.2022
1057 Clouds 18 1019 81 10000 1.54 120 20:58 13.11.2022
1058 Clouds 18 1019 80 10000 3.09 130 19:27 13.11.2022
1059 Clouds 18 1018 81 10000 2.68 129 17:56 13.11.2022
1060 Clouds 19 1018 80 10000 4.63 120 17:21 13.11.2022
1061 Clear 21 1018 76 10000 4.63 210 14:58 13.11.2022
1062 Clear 21 1019 73 10000 2.06 190 13:35 13.11.2022
1063 Clear 20 1020 71 10000 3.09 200 12:37 13.11.2022
1064 Clear 18 1021 74 10000 0.89 319 10:52 13.11.2022
1065 Clouds 14 1020 86 10000 4.63 330 07:58 13.11.2022
1066 Clouds 16 1023 84 10000 1.54 320 01:34 13.11.2022
1067 Clouds 17 1024 84 10000 2.06 60 22:29 12.11.2022
1068 Clouds 17 1024 84 10000 1.03 40 21:24 12.11.2022
1069 Clouds 17 1025 83 10000 2.57 60 20:18 12.11.2022
1070 Clouds 19 1025 84 10000 3.09 130 17:57 12.11.2022
1071 Clouds 20 1025 78 10000 3.13 71 16:25 12.11.2022
1072 Clouds 21 1026 76 10000 6.17 80 15:22 12.11.2022
1073 Clouds 21 1028 75 10000 6.17 60 12:28 12.11.2022
1074 Clouds 18 1028 79 10000 4.63 50 09:20 12.11.2022
1075 Clouds 17 1028 80 10000 3.6 30 05:55 12.11.2022
1076 Clouds 19 1029 81 10000 6.17 60 22:31 11.11.2022
1077 Clouds 20 1028 81 10000 7.2 60 20:46 11.11.2022
1078 Clouds 20 1028 81 10000 7.2 60 20:46 11.11.2022
1079 Clouds 20 1028 83 10000 7.72 60 19:44 11.11.2022
1080 Clouds 20 1028 83 10000 7.72 60 19:20 11.11.2022
1081 Clouds 20 1027 80 10000 6.69 60 17:56 11.11.2022
1082 Clouds 21 1027 75 10000 8.23 70 16:27 11.11.2022
1083 Clouds 21 1028 72 10000 9.26 60 14:21 11.11.2022
1084 Clouds 21 1028 67 10000 8.23 60 13:29 11.11.2022
1085 Clear 18 1028 73 10000 4.12 330 09:49 11.11.2022
1086 Clouds 16 1027 77 10000 5.14 330 08:27 11.11.2022
1087 Clear 15 1026 77 10000 4.12 330 06:26 11.11.2022
1088 Clouds 16 1027 79 10000 1.54 330 23:38 10.11.2022
1089 Clouds 16 1026 74 10000 2.06 330 22:41 10.11.2022
1090 Clouds 16 1026 74 10000 2.57 320 21:35 10.11.2022
1091 Clouds 17 1026 74 10000 2.06 330 20:59 10.11.2022
1092 Clouds 17 1026 75 10000 1.54 300 20:22 10.11.2022
1093 Clouds 17 1025 77 10000 0.51 350 19:44 10.11.2022
1094 Clouds 17 1025 75 10000 0.51 100 18:44 10.11.2022
1095 Clouds 19 1024 74 10000 4.63 120 16:26 10.11.2022
1096 Clouds 20 1023 69 10000 3.09 200 14:21 10.11.2022
1097 Clouds 20 1023 68 10000 3.13 156 13:18 10.11.2022
1098 Clouds 15 1023 79 10000 2.57 350 09:19 10.11.2022
1099 Drizzle 15 1021 82 10000 3.6 320 06:40 10.11.2022
1100 Rain 17 1020 82 8000 5.14 100 00:56 10.11.2022
1101 Rain 18 1019 72 10000 3.09 340 22:47 09.11.2022
1102 Clouds 20 1017 60 10000 4.12 310 20:58 09.11.2022
1103 Clouds 20 1017 59 10000 4.63 300 20:39 09.11.2022
1104 Clouds 21 1017 54 10000 3.09 310 19:50 09.11.2022
1105 Rain 21 1016 53 10000 2.68 292 19:24 09.11.2022
1106 Clouds 22 1016 55 10000 3.09 250 17:39 09.11.2022
1107 Clouds 22 1016 55 10000 3.09 250 17:39 09.11.2022
1108 Clouds 23 1015 54 10000 5.66 260 14:56 09.11.2022
1109 Clouds 23 1015 55 10000 4.63 250 14:26 09.11.2022
1110 Clear 22 1015 56 10000 3.6 270 13:34 09.11.2022
1111 Clear 22 1015 59 10000 4.12 260 12:51 09.11.2022
1112 Clouds 17 1015 76 10000 4.12 310 09:29 09.11.2022
1113 Clouds 16 1014 78 10000 3.13 312 07:47 09.11.2022
1114 Clouds 16 1014 89 10000 4.12 330 04:35 09.11.2022
1115 Clouds 17 1015 87 10000 0 0 22:35 08.11.2022
1116 Clouds 17 1015 88 10000 1.03 0 21:37 08.11.2022
1117 Clouds 18 1015 88 10000 2.57 250 20:47 08.11.2022
1118 Clouds 18 1015 82 10000 3.09 230 20:18 08.11.2022
1119 Clouds 18 1014 83 10000 2.57 220 19:24 08.11.2022
1120 Clouds 20 1014 80 10000 3.09 210 17:37 08.11.2022
1121 Clouds 22 1014 74 10000 5.14 220 15:32 08.11.2022
1122 Clouds 23 1015 70 10000 5.14 240 14:31 08.11.2022
1123 Clouds 23 1015 70 10000 5.14 240 14:31 08.11.2022
1124 Clouds 23 1015 70 10000 5.14 240 14:31 08.11.2022
1125 Clouds 22 1016 72 10000 5.66 240 13:28 08.11.2022
1126 Clouds 19 1016 74 10000 1.54 160 11:21 08.11.2022
1127 Clouds 15 1016 87 10000 4.12 320 07:43 08.11.2022
1128 Clouds 15 1016 87 10000 4.12 320 05:27 08.11.2022
1129 Clouds 16 1018 86 10000 3.09 320 22:58 07.11.2022
1130 Clouds 16 1018 86 10000 2.06 320 21:52 07.11.2022
1131 Clear 16 1017 85 10000 2.06 320 20:54 07.11.2022
1132 Clear 17 1018 84 10000 2.57 270 19:42 07.11.2022
1133 Clear 19 1017 76 10000 1.54 200 17:43 07.11.2022
1134 Clear 20 1018 68 10000 4.12 200 15:40 07.11.2022
1135 Clear 20 1018 65 10000 4.12 190 14:57 07.11.2022
1136 Clear 21 1018 65 10000 4.12 190 14:57 07.11.2022
1137 Clear 21 1019 57 10000 4.12 190 13:45 07.11.2022
1138 Clear 20 1020 55 10000 2.06 300 12:30 07.11.2022
1139 Clear 18 1021 61 10000 4.12 320 10:45 07.11.2022
1140 Clear 16 1020 69 10000 6.17 330 09:18 07.11.2022
1141 Clouds 14 1020 76 10000 6.17 330 06:54 07.11.2022
1142 Clouds 15 1020 81 10000 5.14 330 02:20 07.11.2022
1143 Clear 15 1020 80 10000 3.09 340 23:49 06.11.2022
1144 Clear 17 1018 72 10000 2.06 360 21:43 06.11.2022
1145 Clear 17 1018 70 10000 2.06 330 21:18 06.11.2022
1146 Clear 17 1017 69 10000 3.09 270 19:57 06.11.2022
1147 Clear 18 1017 70 10000 4.12 230 19:28 06.11.2022
1148 Clear 19 1016 65 10000 2.57 210 18:20 06.11.2022
1149 Clear 20 1015 62 10000 6.17 220 17:45 06.11.2022
1150 Clear 20 1015 61 10000 6.17 220 17:19 06.11.2022
1151 Clear 21 1015 55 10000 5.66 230 16:19 06.11.2022
1152 Clear 22 1015 50 10000 5.66 220 15:20 06.11.2022
1153 Clouds 21 1016 48 10000 4.63 240 12:47 06.11.2022
1154 Clear 17 1017 52 10000 4.63 320 10:58 06.11.2022
1155 Clouds 17 1017 53 10000 1.79 250 10:33 06.11.2022
1156 Clear 13 1016 64 10000 6.17 320 07:44 06.11.2022
1157 Clear 14 1019 61 10000 2.57 290 23:25 05.11.2022
1158 Clear 14 1019 60 10000 3.6 330 22:29 05.11.2022
1159 Clear 16 1019 63 10000 2.06 190 18:42 05.11.2022
1160 Clear 19 1018 52 10000 3.09 230 16:56 05.11.2022
1161 Clear 19 1018 44 10000 3.09 160 14:50 05.11.2022
1162 Clear 19 1019 40 10000 3.09 220 13:40 05.11.2022
1163 Clear 17 1019 43 10000 4.12 330 11:52 05.11.2022
1164 Clear 13 1018 55 10000 7.2 320 08:59 05.11.2022
1165 Clear 13 1017 57 10000 8.75 330 07:23 05.11.2022
1166 Clouds 13 1017 57 10000 9.26 320 06:54 05.11.2022
1167 Clouds 14 1016 57 10000 5.81 300 00:45 05.11.2022
1168 Clouds 14 1016 55 10000 5.66 300 23:29 04.11.2022
1169 Clouds 16 1015 49 10000 4.12 320 21:36 04.11.2022
1170 Clouds 17 1014 46 10000 9.77 280 19:38 04.11.2022
1171 Clouds 18 1013 43 10000 8.23 290 17:44 04.11.2022
1172 Clouds 20 1012 39 10000 8.75 300 14:38 04.11.2022
1173 Clouds 19 1012 46 10000 11.32 310 13:19 04.11.2022
1174 Clouds 17 1012 51 10000 9.26 290 11:58 04.11.2022
1175 Clear 14 1013 60 10000 8.23 290 09:30 04.11.2022
1176 Clear 13 1014 63 10000 3.6 300 08:20 04.11.2022
1177 Clear 14 1014 63 10000 4.63 280 06:40 04.11.2022
1178 Clouds 19 1013 70 10000 3.6 230 00:56 04.11.2022
1179 Clouds 19 1013 69 10000 4.63 270 21:42 03.11.2022
1180 Clouds 19 1013 68 10000 6.17 280 20:46 03.11.2022
1181 Clouds 20 1013 65 10000 2.68 312 19:41 03.11.2022
1182 Clouds 20 1012 63 10000 5.14 270 18:27 03.11.2022
1183 Clouds 21 1012 63 10000 4.63 270 17:37 03.11.2022
1184 Rain 22 1012 73 10000 4.12 240 15:24 03.11.2022
1185 Clouds 23 1014 74 10000 7.72 230 13:33 03.11.2022
1186 Clouds 22 1015 77 10000 3.6 220 12:35 03.11.2022
1187 Clouds 21 1015 77 10000 2.06 270 11:36 03.11.2022
1188 Clouds 17 1017 84 10000 3.6 320 07:48 03.11.2022
1189 Clouds 17 1022 82 10000 2.06 280 22:29 02.11.2022
1190 Clouds 18 1022 81 10000 2.06 290 20:56 02.11.2022
1191 Clouds 18 1022 81 10000 1.54 290 20:24 02.11.2022
1192 Clouds 19 1022 76 10000 2.06 120 18:28 02.11.2022
1193 Clouds 21 1022 63 10000 4.63 130 16:28 02.11.2022
1194 Clouds 22 1022 61 10000 4.12 120 15:30 02.11.2022
1195 Clouds 22 1024 60 10000 4.63 80 12:58 02.11.2022
1196 Clouds 22 1025 61 10000 4.63 70 12:23 02.11.2022
1197 Clouds 20 1025 69 10000 2.06 320 09:51 02.11.2022
1198 Clouds 17 1025 82 10000 4.12 330 08:33 02.11.2022
1199 Clouds 17 1023 83 10000 2.57 340 02:40 02.11.2022
1200 Clouds 18 1023 83 10000 2.06 320 22:21 01.11.2022
1201 Clouds 18 1023 85 10000 3.09 290 21:54 01.11.2022
1202 Clouds 18 1023 84 10000 1.03 30 20:55 01.11.2022
1203 Clouds 18 1023 84 10000 1.54 300 20:23 01.11.2022
1204 Clouds 19 1023 83 10000 1.03 60 19:41 01.11.2022
1205 Clouds 20 1022 80 10000 2.57 90 18:26 01.11.2022
1206 Clouds 21 1022 73 10000 5.14 140 16:28 01.11.2022
1207 Clouds 22 1022 73 10000 6.69 80 14:45 01.11.2022
1208 Clouds 23 1022 71 10000 5.14 70 12:57 01.11.2022
1209 Clouds 23 1022 68 10000 4.47 88 12:25 01.11.2022
1210 Clear 22 1023 63 10000 4.12 320 11:20 01.11.2022
1211 Clouds 20 1021 73 10000 3.6 320 09:22 01.11.2022
1212 Clouds 18 1020 80 10000 3.09 340 07:51 01.11.2022
1213 Clouds 18 1020 80 10000 2.57 330 07:28 01.11.2022
1214 Clouds 18 1020 84 10000 2.57 310 06:45 01.11.2022
1215 Clouds 18 1019 79 10000 2.57 320 05:23 01.11.2022
1216 Clouds 20 1020 82 10000 1.54 230 22:44 31.10.2022
1217 Clouds 21 1019 87 10000 2.57 260 21:33 31.10.2022
1218 Clouds 21 1019 82 10000 3.09 180 19:57 31.10.2022
1219 Clouds 21 1019 80 10000 2.06 140 18:42 31.10.2022
1220 Clouds 22 1018 79 10000 3.09 180 16:44 31.10.2022
1221 Clouds 23 1018 77 10000 3.6 160 15:35 31.10.2022
1222 Clouds 23 1020 69 10000 2.57 150 12:30 31.10.2022
1223 Clouds 19 1020 78 9000 4.12 330 09:44 31.10.2022
1224 Clouds 17 1020 80 8000 3.6 330 07:41 31.10.2022
1225 Clouds 18 1020 80 8000 2.57 330 02:47 31.10.2022
1226 Clouds 18 1020 83 10000 2.06 340 01:48 31.10.2022
1227 Clouds 19 1020 86 10000 1.54 10 22:22 30.10.2022
1228 Clouds 19 1021 87 10000 1.54 360 20:43 30.10.2022
1229 Clouds 19 1020 86 10000 2.06 50 19:52 30.10.2022
1230 Clouds 22 1020 76 10000 3.6 130 16:42 30.10.2022
1231 Clouds 23 1020 73 10000 2.06 130 14:43 30.10.2022
1232 Clouds 22 1020 74 10000 2.57 110 13:51 30.10.2022
1233 Clouds 22 1021 73 10000 1.34 128 12:27 30.10.2022
1234 Clouds 19 1021 78 10000 4.12 330 10:25 30.10.2022
1235 Fog 18 1021 80 10000 5.14 330 09:35 30.10.2022
1236 Clouds 17 1020 83 10000 5.66 330 07:57 30.10.2022
1237 Clouds 18 1022 79 8000 2.57 340 00:29 30.10.2022
1238 Clouds 18 1022 80 8000 1.54 320 23:47 29.10.2022
1239 Clouds 19 1022 82 6000 1.54 300 22:31 29.10.2022
1240 Clear 19 1022 74 10000 1.54 140 19:41 29.10.2022
1241 Clouds 21 1022 78 10000 3.6 140 17:24 29.10.2022
1242 Clouds 22 1022 77 10000 3.6 70 15:40 29.10.2022
1243 Clouds 22 1022 78 10000 3.6 110 14:56 29.10.2022
1244 Clouds 22 1023 77 10000 2.06 100 14:36 29.10.2022
1245 Clouds 21 1023 72 10000 3.6 40 12:33 29.10.2022
1246 Clouds 17 1024 71 8000 3.09 340 09:43 29.10.2022
1247 Clouds 17 1023 76 10000 3.09 330 07:31 29.10.2022
1248 Clouds 18 1023 63 10000 3.09 320 05:55 29.10.2022
1249 Clouds 20 1025 74 7000 1.54 20 00:27 29.10.2022
1250 Clouds 19 1025 82 9000 2.57 50 22:23 28.10.2022
1251 Clouds 20 1025 90 10000 2.06 20 20:46 28.10.2022
1252 Clouds 21 1025 76 10000 2.57 50 18:51 28.10.2022
1253 Clouds 22 1024 79 10000 3.09 130 18:30 28.10.2022
1254 Clouds 24 1025 67 10000 3.09 100 15:30 28.10.2022
1255 Clouds 24 1025 67 10000 3.09 100 15:30 28.10.2022
1256 Clouds 24 1025 67 10000 3.6 70 14:36 28.10.2022
1257 Clouds 22 1027 72 8000 3.6 70 12:26 28.10.2022
1258 Clouds 21 1026 74 8000 2.06 360 11:34 28.10.2022
1259 Clouds 20 1026 74 9000 3.09 330 10:47 28.10.2022
1260 Clouds 18 1025 67 10000 3.09 340 09:47 28.10.2022
1261 Clouds 18 1024 75 10000 2.57 10 08:21 28.10.2022
1262 Clouds 18 1025 88 7000 1.54 320 03:43 28.10.2022
1263 Clouds 19 1025 92 10000 2.06 40 23:49 27.10.2022
1264 Clouds 20 1025 91 10000 3.09 40 22:40 27.10.2022
1265 Clouds 20 1025 91 10000 3.6 40 21:35 27.10.2022
1266 Clouds 21 1025 90 10000 4.12 60 20:28 27.10.2022
1267 Clouds 22 1024 85 10000 4.12 70 18:22 27.10.2022
1268 Clouds 25 1025 72 10000 6.17 70 14:23 27.10.2022
1269 Clouds 20 1023 78 10000 3.09 330 09:24 27.10.2022
1270 Clear 19 1022 74 10000 3.09 330 07:29 27.10.2022
1271 Clouds 21 1022 91 8000 2.06 330 00:22 27.10.2022
1272 Clouds 21 1022 90 7000 1.54 290 23:44 26.10.2022
1273 Clouds 21 1022 90 8000 1.54 270 22:37 26.10.2022
1274 Clouds 23 1020 85 10000 2.06 120 19:57 26.10.2022
1275 Clear 27 1019 72 10000 2.57 170 16:52 26.10.2022
1276 Clear 27 1019 66 10000 3.09 190 14:52 26.10.2022
1277 Clear 24 1019 71 10000 1.79 92 12:39 26.10.2022
1278 Clear 23 1019 72 10000 3.6 320 11:32 26.10.2022
1279 Clouds 20 1018 79 10000 4.63 320 09:18 26.10.2022
1280 Clouds 20 1017 83 10000 3.6 320 08:43 26.10.2022
1281 Clouds 21 1016 81 10000 2.57 220 00:48 26.10.2022
1282 Clouds 21 1017 82 10000 0 0 00:29 26.10.2022
1283 Clouds 21 1017 85 10000 3.09 230 21:57 25.10.2022
1284 Clouds 22 1017 88 10000 2.57 220 21:25 25.10.2022
1285 Clouds 22 1016 88 10000 2.06 210 20:26 25.10.2022
1286 Clouds 23 1016 84 10000 3.09 130 18:38 25.10.2022
1287 Clouds 25 1017 72 10000 4.12 200 15:28 25.10.2022
1288 Clear 24 1018 58 10000 3.6 340 11:40 25.10.2022
1289 Clear 23 1018 60 10000 3.6 320 10:46 25.10.2022
1290 Clear 22 1018 61 10000 4.63 330 10:28 25.10.2022
1291 Clear 20 1017 67 10000 4.12 320 08:36 25.10.2022
1292 Clear 19 1018 67 10000 4.12 320 08:18 25.10.2022
1293 Clear 20 1017 65 10000 4.12 320 07:41 25.10.2022
1294 Clear 20 1017 65 10000 3.09 320 04:27 25.10.2022
1295 Clear 20 1018 68 10000 2.06 280 03:25 25.10.2022
1296 Clouds 21 1018 66 10000 1.54 320 00:32 25.10.2022
1297 Clear 22 1017 66 10000 1.54 230 22:26 24.10.2022
1298 Clear 22 1017 66 10000 2.06 230 21:34 24.10.2022
1299 Clear 23 1017 61 10000 4.12 240 20:44 24.10.2022
1300 Clear 23 1017 61 10000 4.12 240 20:19 24.10.2022
1301 Clouds 26 1015 53 10000 6.69 260 17:53 24.10.2022
1302 Clear 26 1015 64 10000 8.75 230 16:54 24.10.2022
1303 Clear 26 1015 64 10000 7.72 220 15:19 24.10.2022
1304 Clouds 27 1016 58 10000 5.14 260 14:18 24.10.2022
1305 Clouds 25 1017 57 10000 3.09 240 12:26 24.10.2022
1306 Clouds 21 1016 71 10000 2.57 330 09:18 24.10.2022
1307 Clouds 21 1016 81 10000 2.57 320 02:58 24.10.2022
1308 Clouds 22 1015 84 10000 1.03 220 22:19 23.10.2022
1309 Clouds 22 1015 84 10000 2.57 250 20:25 23.10.2022
1310 Clouds 24 1014 80 10000 3.09 190 18:26 23.10.2022
1311 Clear 24 1014 76 10000 2.06 210 17:28 23.10.2022
1312 Clear 25 1015 75 10000 2.57 260 15:39 23.10.2022
1313 Clear 24 1016 77 10000 2.57 220 14:46 23.10.2022
1314 Clouds 23 1016 73 10000 3.6 310 11:27 23.10.2022
1315 Clouds 21 1016 79 10000 4.12 320 09:55 23.10.2022
1316 Clouds 19 1015 80 10000 2.57 320 04:29 23.10.2022
1317 Clouds 20 1016 73 10000 2.06 340 22:49 22.10.2022
1318 Clouds 21 1016 69 10000 0.51 350 21:43 22.10.2022
1319 Clear 22 1016 68 10000 1.03 170 20:57 22.10.2022
1320 Clear 23 1015 67 10000 2.57 170 19:57 22.10.2022
1321 Clear 23 1015 64 10000 3.09 160 19:30 22.10.2022
1322 Clear 25 1015 55 10000 3.09 190 17:39 22.10.2022
1323 Clear 26 1015 51 10000 3.13 182 15:59 22.10.2022
1324 Clear 26 1016 52 10000 3.09 200 14:48 22.10.2022
1325 Clouds 26 1016 52 10000 3.09 230 13:57 22.10.2022
1326 Clouds 21 1017 63 10000 2.68 287 10:34 22.10.2022
1327 Clouds 20 1016 66 10000 4.12 320 09:40 22.10.2022
1328 Clear 19 1016 66 10000 2.68 290 08:37 22.10.2022
1329 Clear 20 1014 69 10000 2.68 250 04:25 22.10.2022
1330 Clouds 22 1015 80 10000 3.09 250 00:19 22.10.2022
1331 Clouds 22 1014 77 10000 4.12 250 22:19 21.10.2022
1332 Clouds 22 1014 76 10000 4.12 210 21:32 21.10.2022
1333 Clouds 23 1013 71 10000 3.6 260 20:25 21.10.2022
1334 Clouds 25 1013 67 10000 7.72 240 17:50 21.10.2022
1335 Clouds 26 1014 73 10000 6.69 220 14:32 21.10.2022
1336 Clouds 25 1013 75 10000 4.63 220 13:31 21.10.2022
1337 Clouds 24 1014 73 10000 3.6 240 11:46 21.10.2022
1338 Clouds 22 1014 75 10000 3.6 310 10:22 21.10.2022
1339 Clouds 20 1013 73 10000 4.12 330 08:42 21.10.2022
1340 Clouds 20 1013 73 10000 4.12 330 08:19 21.10.2022
1341 Clouds 20 1013 72 10000 3.09 320 08:19 21.10.2022
1342 Clouds 21 1014 77 10000 2.57 340 03:19 21.10.2022
1343 Clouds 22 1015 79 8000 2.06 90 22:36 20.10.2022
1344 Clouds 22 1016 77 8000 1.54 80 20:53 20.10.2022
1345 Rain 23 1016 75 8000 1.54 310 19:42 20.10.2022
1346 Rain 23 1015 70 8000 1.54 110 18:19 20.10.2022
1347 Rain 24 1015 70 8000 2.06 360 17:38 20.10.2022
1348 Clouds 24 1017 79 8000 2.57 130 13:32 20.10.2022
1349 Clouds 24 1017 77 8000 1.54 320 12:31 20.10.2022
1350 Clouds 22 1017 75 8000 1.54 340 11:29 20.10.2022
1351 Clouds 22 1017 80 8000 1.54 330 10:51 20.10.2022
1352 Mist 20 1016 87 8000 2.57 340 08:55 20.10.2022
1353 Clouds 20 1017 84 8000 2.06 330 05:54 20.10.2022
1354 Clouds 21 1017 84 8000 3.09 310 01:57 20.10.2022
1355 Clouds 22 1017 87 8000 2.57 260 22:53 19.10.2022
1356 Clouds 22 1018 82 9000 2.57 240 22:23 19.10.2022
1357 Clouds 22 1018 81 9000 2.57 230 21:20 19.10.2022
1358 Clouds 23 1018 80 10000 4.12 220 19:53 19.10.2022
1359 Clouds 25 1018 77 10000 5.14 210 17:44 19.10.2022
1360 Clouds 25 1018 76 9000 4.12 190 16:22 19.10.2022
1361 Clouds 25 1020 74 8000 2.57 160 13:59 19.10.2022
1362 Clouds 23 1021 82 9000 1.03 0 11:42 19.10.2022
1363 Mist 20 1020 91 9000 2.57 320 08:47 19.10.2022
1364 Clouds 19 1020 90 7000 2.06 330 07:22 19.10.2022
1365 Clear 20 1023 90 10000 2.57 310 01:32 19.10.2022
1366 Clouds 21 1024 91 9000 1.03 0 23:22 18.10.2022
1367 Clouds 21 1024 90 10000 1.03 0 21:49 18.10.2022
1368 Clouds 21 1024 90 10000 1.03 0 21:49 18.10.2022
1369 Clouds 21 1024 85 10000 1.03 0 21:19 18.10.2022
1370 Clouds 22 1024 85 10000 1.54 110 20:26 18.10.2022
1371 Clouds 22 1024 85 10000 1.54 110 20:26 18.10.2022
1372 Clouds 23 1024 84 10000 3.09 140 18:55 18.10.2022
1373 Clouds 24 1025 79 10000 4.63 130 16:56 18.10.2022
1374 Clouds 25 1025 76 10000 4.63 80 14:59 18.10.2022
1375 Clouds 25 1026 75 10000 3.6 90 13:38 18.10.2022
1376 Clouds 23 1027 79 10000 3.09 330 11:47 18.10.2022
1377 Clouds 21 1026 85 10000 3.6 340 10:29 18.10.2022
1378 Clouds 20 1026 89 10000 4.63 320 09:25 18.10.2022
1379 Clouds 19 1025 92 10000 2.57 340 05:54 18.10.2022
1380 Clouds 22 1026 84 10000 3.6 50 23:35 17.10.2022
1381 Clouds 22 1025 84 10000 3.6 80 21:31 17.10.2022
1382 Clouds 22 1025 83 10000 3.6 60 20:47 17.10.2022
1383 Clouds 22 1025 83 10000 3.6 70 20:27 17.10.2022
1384 Clouds 23 1025 83 10000 4.12 90 19:41 17.10.2022
1385 Clouds 23 1025 83 10000 3.09 90 19:41 17.10.2022
1386 Clouds 24 1024 80 10000 5.14 90 17:47 17.10.2022
1387 Clouds 24 1024 80 10000 6.17 70 15:55 17.10.2022
1388 Clouds 24 1024 80 10000 5.66 70 15:20 17.10.2022
1389 Clouds 24 1025 81 10000 5.14 70 12:48 17.10.2022
1390 Clouds 20 1022 82 10000 1.54 340 08:52 17.10.2022
1391 Clouds 21 1021 88 10000 2.57 60 01:25 17.10.2022
1392 Clouds 22 1021 88 10000 1.54 110 22:54 16.10.2022
1393 Clouds 22 1020 89 10000 1.54 110 21:22 16.10.2022
1394 Clouds 23 1019 82 10000 2.06 120 19:51 16.10.2022
1395 Clouds 23 1019 82 10000 3.6 130 19:27 16.10.2022
1396 Clouds 24 1018 77 10000 4.12 110 17:45 16.10.2022
1397 Clouds 25 1018 78 10000 4.12 100 16:26 16.10.2022
1398 Clouds 25 1018 78 10000 3.6 130 15:53 16.10.2022
1399 Clouds 24 1018 79 10000 1.54 80 12:29 16.10.2022
1400 Clouds 22 1018 83 10000 2.57 340 11:27 16.10.2022
1401 Clouds 21 1018 85 10000 2.57 350 10:26 16.10.2022
1402 Clouds 20 1016 89 10000 2.06 310 04:52 16.10.2022
1403 Clouds 21 1016 83 10000 3.09 230 23:43 15.10.2022
1404 Clouds 22 1015 88 10000 4.63 230 21:53 15.10.2022
1405 Clouds 22 1015 88 10000 4.12 230 21:18 15.10.2022
1406 Clouds 23 1014 83 10000 3.6 210 19:30 15.10.2022
1407 Clouds 25 1012 80 10000 3.6 180 17:23 15.10.2022
1408 Clouds 26 1014 76 10000 3.6 190 15:45 15.10.2022
1409 Clouds 25 1016 75 10000 3.6 200 13:27 15.10.2022
1410 Clouds 23 1016 75 10000 2.57 320 11:43 15.10.2022
1411 Clouds 19 1016 87 10000 5.14 330 09:37 15.10.2022
1412 Clouds 18 1016 90 10000 4.12 330 07:37 15.10.2022
1413 Clouds 19 1018 88 10000 1.54 280 00:40 15.10.2022
1414 Clear 20 1019 86 10000 2.06 40 22:42 14.10.2022
1415 Clear 20 1019 85 10000 2.06 290 22:22 14.10.2022
1416 Clear 21 1019 84 10000 1.03 0 20:51 14.10.2022
1417 Clear 23 1018 76 10000 3.09 120 18:51 14.10.2022
1418 Clouds 25 1019 71 10000 2.57 160 15:32 14.10.2022
1419 Clear 24 1020 63 10000 3.09 100 12:57 14.10.2022
1420 Clear 23 1020 62 10000 4.12 330 11:26 14.10.2022
1421 Clear 18 1019 78 10000 4.12 340 08:32 14.10.2022
1422 Clouds 18 1019 81 10000 3.6 330 06:47 14.10.2022
1423 Clouds 18 1019 78 10000 3.6 330 06:18 14.10.2022
1424 Clouds 19 1019 80 10000 2.57 310 05:42 14.10.2022
1425 Clouds 19 1020 81 10000 2.57 300 03:19 14.10.2022
1426 Clouds 21 1021 76 10000 4.12 250 23:42 13.10.2022
1427 Clouds 21 1021 76 10000 4.12 260 21:45 13.10.2022
1428 Clouds 22 1021 73 10000 6.17 250 20:49 13.10.2022
1429 Clouds 23 1020 69 10000 7.72 240 19:43 13.10.2022
1430 Clouds 24 1020 64 10000 3.13 219 18:52 13.10.2022
1431 Clouds 25 1019 58 10000 4.63 260 18:21 13.10.2022
1432 Clouds 25 1019 58 10000 8.75 230 15:51 13.10.2022
1433 Clouds 25 1020 58 10000 9.26 220 15:33 13.10.2022
1434 Clouds 25 1021 61 10000 3.09 270 14:18 13.10.2022
1435 Clouds 24 1021 65 10000 5.14 220 12:43 13.10.2022
1436 Clouds 22 1022 68 10000 1.03 0 10:59 13.10.2022
1437 Clouds 18 1022 83 10000 4.12 320 08:34 13.10.2022
1438 Clear 18 1022 83 10000 4.12 320 07:38 13.10.2022
1439 Clear 19 1022 82 10000 3.6 320 04:25 13.10.2022
1440 Clear 19 1022 85 10000 2.06 350 01:40 13.10.2022
1441 Clear 19 1022 85 10000 2.06 320 00:41 13.10.2022
1442 Clouds 20 1022 83 10000 2.57 290 22:45 12.10.2022
1443 Clouds 20 1021 78 10000 2.06 60 21:46 12.10.2022
1444 Clouds 20 1021 79 10000 2.06 280 21:19 12.10.2022
1445 Clouds 21 1021 81 10000 1.34 0 20:35 12.10.2022
1446 Clouds 22 1020 77 10000 2.68 72 19:22 12.10.2022
1447 Clouds 23 1020 73 10000 5.14 130 17:57 12.10.2022
1448 Clouds 23 1019 70 10000 5.14 130 16:59 12.10.2022
1449 Clouds 24 1020 59 10000 4.63 100 14:45 12.10.2022
1450 Clear 24 1020 60 10000 4.12 100 13:53 12.10.2022
1451 Clouds 22 1020 59 10000 2.57 320 11:54 12.10.2022
1452 Clouds 19 1020 76 10000 3.6 330 09:36 12.10.2022
1453 Clouds 18 1019 83 10000 4.63 320 07:42 12.10.2022
1454 Clouds 17 1019 84 10000 3.09 330 06:44 12.10.2022
1455 Clouds 18 1019 85 10000 3.6 330 05:32 12.10.2022
1456 Clouds 19 1020 80 10000 3.6 20 00:32 12.10.2022
1457 Clouds 20 1019 81 10000 5.66 80 21:25 11.10.2022
1458 Clouds 20 1019 80 10000 5.66 80 20:30 11.10.2022
1459 Clouds 21 1018 80 10000 5.66 80 18:27 11.10.2022
1460 Clouds 22 1019 78 10000 6.17 80 16:27 11.10.2022
1461 Clouds 22 1020 75 10000 6.69 70 13:52 11.10.2022
1462 Clouds 21 1020 79 10000 4.63 60 11:32 11.10.2022
1463 Clouds 20 1020 77 10000 2.57 340 10:27 11.10.2022
1464 Clouds 18 1019 88 10000 3.09 320 08:46 11.10.2022
1465 Clouds 18 1018 90 10000 3.09 320 05:25 11.10.2022
1466 Clouds 19 1019 83 10000 2.06 20 01:52 11.10.2022
1467 Clouds 20 1019 87 10000 3.09 70 00:24 11.10.2022
1468 Clouds 20 1018 82 10000 2.57 60 21:21 10.10.2022
1469 Clouds 21 1018 82 10000 2.57 140 19:45 10.10.2022
1470 Clouds 22 1017 79 10000 4.12 120 18:25 10.10.2022
1471 Clouds 22 1018 79 10000 4.63 130 16:43 10.10.2022
1472 Clouds 23 1018 78 10000 4.12 100 14:46 10.10.2022
1473 Clouds 22 1018 80 10000 4.12 90 12:24 10.10.2022
1474 Clouds 21 1018 82 10000 1.54 110 11:18 10.10.2022
1475 Clouds 18 1016 86 10000 2.57 330 07:47 10.10.2022
1476 Clouds 19 1016 84 10000 2.06 350 05:39 10.10.2022
1477 Clouds 20 1017 82 10000 1.54 320 02:50 10.10.2022
1478 Clouds 19 1017 82 10000 1.54 10 00:26 10.10.2022
1479 Clouds 19 1017 82 10000 1.03 280 22:27 09.10.2022
1480 Clouds 20 1017 81 10000 0 0 21:54 09.10.2022
1481 Clouds 20 1016 81 10000 0.51 0 20:57 09.10.2022
1482 Clouds 21 1016 80 10000 2.06 180 19:54 09.10.2022
1483 Clouds 21 1016 79 10000 2.57 130 19:32 09.10.2022
1484 Clouds 21 1016 78 10000 3.6 120 18:32 09.10.2022
1485 Clouds 22 1016 76 10000 3.6 120 16:56 09.10.2022
1486 Clouds 22 1016 74 10000 4.12 140 16:32 09.10.2022
1487 Clouds 22 1017 74 10000 4.12 150 15:37 09.10.2022
1488 Clouds 22 1017 74 10000 4.12 130 14:31 09.10.2022
1489 Clouds 22 1018 76 10000 2.57 90 12:59 09.10.2022
1490 Clouds 21 1018 75 10000 3.09 120 12:22 09.10.2022
1491 Clouds 20 1018 80 10000 1.03 0 10:48 09.10.2022
1492 Clouds 17 1017 90 10000 1.54 320 08:29 09.10.2022
1493 Clouds 18 1018 84 10000 1.54 330 03:37 09.10.2022
1494 Clouds 18 1018 84 10000 2.06 310 02:39 09.10.2022
1495 Clouds 19 1019 82 10000 3.09 330 00:34 09.10.2022
1496 Clouds 19 1019 79 10000 2.57 80 22:53 08.10.2022
1497 Clouds 20 1019 78 10000 2.57 80 21:50 08.10.2022
1498 Clouds 20 1019 77 10000 4.12 70 20:27 08.10.2022
1499 Clouds 21 1018 80 10000 4.63 90 18:53 08.10.2022
1500 Clouds 22 1018 79 10000 6.69 70 16:38 08.10.2022
1501 Clouds 22 1019 77 10000 6.69 80 14:54 08.10.2022
1502 Clouds 22 1019 74 10000 6.17 80 13:30 08.10.2022
1503 Clouds 19 1019 88 10000 2.06 30 10:40 08.10.2022
1504 Clouds 19 1019 84 10000 2.06 30 10:21 08.10.2022
1505 Clouds 18 1018 86 10000 2.06 350 08:48 08.10.2022
1506 Clouds 19 1018 86 7000 6.69 70 03:59 08.10.2022
1507 Rain 19 1019 84 10000 5.14 60 00:58 08.10.2022
1508 Rain 20 1019 82 10000 4.12 50 23:32 07.10.2022
1509 Rain 20 1019 82 10000 4.63 30 22:56 07.10.2022
1510 Rain 20 1019 82 10000 6.17 50 21:40 07.10.2022
1511 Clouds 20 1019 81 10000 3.58 53 19:44 07.10.2022
1512 Clouds 20 1019 81 10000 5.36 53 17:54 07.10.2022
1513 Clouds 20 1020 81 4000 6.17 320 16:42 07.10.2022
1514 Clouds 20 1020 88 10000 5.66 320 15:25 07.10.2022
1515 Rain 19 1022 86 10000 3.6 340 13:55 07.10.2022
1516 Rain 19 1023 85 9000 4.12 330 11:29 07.10.2022
1517 Rain 18 1023 79 9000 2.57 10 09:25 07.10.2022
1518 Rain 19 1023 78 10000 3.09 30 08:21 07.10.2022
1519 Clear 19 1025 77 10000 2.57 340 02:52 07.10.2022
1520 Clouds 20 1026 74 10000 3.6 60 22:54 06.10.2022
1521 Clouds 21 1026 74 10000 4.12 60 21:57 06.10.2022
1522 Clouds 21 1026 74 10000 5.14 60 21:36 06.10.2022
1523 Clouds 22 1026 76 10000 4.63 70 20:39 06.10.2022
1524 Clouds 22 1025 73 10000 7.2 80 18:56 06.10.2022
1525 Clouds 22 1025 74 10000 6.17 130 18:32 06.10.2022
1526 Clouds 24 1026 72 10000 7.72 90 15:38 06.10.2022
1527 Clouds 23 1027 75 10000 8.23 70 12:59 06.10.2022
1528 Clouds 19 1026 81 10000 2.57 330 09:27 06.10.2022
1529 Clouds 19 1025 83 10000 3.6 330 05:19 06.10.2022
1530 Clouds 20 1025 83 10000 3.09 330 01:47 06.10.2022
1531 Clouds 21 1025 80 10000 2.57 40 21:59 05.10.2022
1532 Clouds 22 1024 78 10000 3.6 70 19:45 05.10.2022
1533 Clouds 23 1023 76 10000 5.66 130 17:37 05.10.2022
1534 Clouds 24 1023 74 10000 4.63 90 16:45 05.10.2022
1535 Clouds 24 1024 71 10000 4.12 100 14:59 05.10.2022
1536 Clouds 24 1024 72 10000 4.63 120 14:38 05.10.2022
1537 Clouds 24 1024 73 10000 3.6 110 13:29 05.10.2022
1538 Clouds 23 1024 75 10000 2.06 330 11:53 05.10.2022
1539 Clouds 18 1023 86 10000 4.12 330 08:28 05.10.2022
1540 Clouds 17 1022 89 10000 4.12 330 07:21 05.10.2022
1541 Clouds 18 1022 87 10000 3.09 340 05:34 05.10.2022
1542 Clouds 19 1023 85 10000 2.57 310 02:37 05.10.2022
1543 Clouds 19 1022 85 10000 2.57 280 00:41 05.10.2022
1544 Clouds 19 1022 84 10000 1.54 330 00:22 05.10.2022
1545 Clouds 21 1022 80 10000 1.03 0 21:25 04.10.2022
1546 Clouds 21 1021 78 10000 2.57 110 20:20 04.10.2022
1547 Clear 23 1021 73 10000 5.66 130 18:56 04.10.2022
1548 Clear 23 1021 74 10000 5.14 140 18:34 04.10.2022
1549 Clouds 24 1020 63 10000 4.63 110 16:58 04.10.2022
1550 Clouds 25 1020 57 10000 4.12 100 16:20 04.10.2022
1551 Clouds 23 1021 65 10000 2.06 330 10:54 04.10.2022
1552 Clouds 19 1020 83 10000 3.09 330 08:28 04.10.2022
1553 Clouds 19 1018 87 10000 4.63 330 06:22 04.10.2022
1554 Clouds 20 1019 87 10000 2.06 310 00:29 04.10.2022
1555 Clouds 20 1019 84 10000 1.54 300 22:58 03.10.2022
1556 Clouds 21 1019 83 10000 1.03 230 21:41 03.10.2022
1557 Clouds 21 1019 81 10000 2.57 220 20:43 03.10.2022
1558 Clouds 23 1019 75 10000 3.6 150 18:53 03.10.2022
1559 Clouds 24 1019 75 10000 4.12 190 17:39 03.10.2022
1560 Clouds 24 1019 73 10000 4.63 120 16:40 03.10.2022
1561 Clouds 25 1020 73 10000 4.63 120 15:26 03.10.2022
1562 Clouds 24 1021 73 10000 3.09 130 13:39 03.10.2022
1563 Clouds 23 1022 74 10000 1.34 132 11:47 03.10.2022
1564 Clear 21 1022 76 10000 3.6 330 10:25 03.10.2022
1565 Clear 19 1021 78 10000 4.63 330 08:59 03.10.2022
1566 Clouds 19 1022 81 10000 3.09 320 04:51 03.10.2022
1567 Clouds 20 1022 76 10000 2.06 300 02:27 03.10.2022
1568 Clouds 21 1023 77 10000 5.66 240 22:24 02.10.2022
1569 Clouds 22 1022 73 10000 6.69 240 20:32 02.10.2022
1570 Clear 26 1022 59 10000 9.26 220 18:30 02.10.2022
1571 Clear 26 1022 56 10000 8.75 230 17:35 02.10.2022
1572 Clear 27 1022 50 10000 9.26 220 16:33 02.10.2022
1573 Clear 27 1023 51 10000 10.8 230 15:40 02.10.2022
1574 Clouds 26 1025 64 10000 9.26 220 13:51 02.10.2022
1575 Clouds 25 1025 63 10000 8.23 220 12:51 02.10.2022
1576 Clouds 25 1025 63 10000 7.72 230 12:24 02.10.2022
1577 Clouds 24 1026 59 10000 5.66 230 11:36 02.10.2022
1578 Clear 22 1026 58 10000 3.09 300 10:37 02.10.2022
1579 Clear 19 1025 61 10000 6.69 330 08:53 02.10.2022
1580 Clear 18 1025 68 10000 6.17 320 07:29 02.10.2022
1581 Clear 19 1026 74 10000 3.09 320 02:54 02.10.2022
1582 Clear 19 1026 71 10000 1.54 310 00:45 02.10.2022
1583 Clear 19 1026 70 10000 2.06 290 00:20 02.10.2022
1584 Clear 20 1025 68 10000 4.12 250 22:36 01.10.2022
1585 Clear 22 1024 64 10000 7.2 240 20:21 01.10.2022
1586 Clear 25 1023 52 10000 9.26 220 17:55 01.10.2022
1587 Clear 24 1023 48 10000 8.23 220 16:31 01.10.2022
1588 Clear 23 1024 47 10000 5.36 172 14:26 01.10.2022
1589 Clear 23 1023 47 10000 4.12 240 13:21 01.10.2022
1590 Clear 22 1024 48 10000 2.57 320 12:30 01.10.2022
1591 Clear 19 1023 50 10000 5.14 330 11:19 01.10.2022
1592 Clear 18 1023 56 10000 6.69 330 10:31 01.10.2022
1593 Clear 16 1022 64 10000 6.17 340 09:27 01.10.2022
1594 Clear 16 1022 62 10000 5.66 330 08:57 01.10.2022
1595 Clear 15 1019 83 10000 5.14 330 04:19 01.10.2022
1596 Clear 15 1019 77 10000 4.63 330 03:31 01.10.2022
1597 Clouds 17 1017 77 10000 4.12 30 23:59 30.09.2022
1598 Clouds 18 1016 77 10000 3.58 90 22:37 30.09.2022
1599 Clouds 19 1015 71 10000 6.17 190 21:28 30.09.2022
1600 Clouds 19 1014 70 10000 5.14 180 20:44 30.09.2022
1601 Clouds 20 1014 69 10000 5.66 180 19:49 30.09.2022
1602 Clouds 21 1012 57 10000 5.36 179 17:32 30.09.2022
1603 Clouds 21 1011 53 10000 7.2 130 15:56 30.09.2022
1604 Clouds 21 1010 51 10000 2.68 125 13:30 30.09.2022
1605 Clouds 20 1010 55 10000 5.66 330 11:58 30.09.2022
1606 Clouds 17 1009 64 10000 5.66 330 10:40 30.09.2022
1607 Clouds 15 1007 72 10000 6.17 330 08:26 30.09.2022
1608 Clouds 15 1005 76 10000 3.6 320 05:54 30.09.2022
1609 Clouds 16 1005 76 10000 3.09 330 02:39 30.09.2022
1610 Clouds 17 1003 79 10000 6.69 70 22:40 29.09.2022
1611 Clouds 18 1003 76 10000 4.63 80 21:28 29.09.2022
1612 Clouds 19 1003 76 10000 4.47 62 20:57 29.09.2022
1613 Clouds 22 1001 54 10000 3.13 143 18:45 29.09.2022
1614 Clouds 22 1001 55 10000 5.66 100 17:32 29.09.2022
1615 Clouds 23 1001 51 10000 5.14 270 16:28 29.09.2022
1616 Clouds 23 1001 50 10000 4.12 140 15:36 29.09.2022
1617 Clouds 23 1002 49 10000 3.09 250 14:31 29.09.2022
1618 Clouds 18 1002 65 10000 3.13 296 10:33 29.09.2022
1619 Clouds 18 1003 66 10000 6.17 330 07:22 29.09.2022
1620 Clouds 19 1005 79 10000 2.06 40 02:51 29.09.2022
1621 Clouds 20 1005 68 10000 3.09 300 23:56 28.09.2022
1622 Clouds 20 1005 68 10000 3.09 300 23:56 28.09.2022
1623 Clear 22 1005 55 10000 4.47 82 22:58 28.09.2022
1624 Clouds 23 1004 45 10000 4.63 270 21:30 28.09.2022
1625 Clouds 24 1004 43 10000 6.17 270 20:25 28.09.2022
1626 Clouds 25 1004 45 10000 5.14 230 18:42 28.09.2022
1627 Clouds 25 1005 49 10000 7.2 280 15:32 28.09.2022
1628 Clouds 22 1007 58 10000 6.17 280 13:27 28.09.2022
1629 Clouds 20 1008 64 10000 4.12 340 11:18 28.09.2022
1630 Clouds 17 1009 72 10000 3.6 300 09:18 28.09.2022
1631 Clouds 17 1009 72 10000 5.66 320 07:39 28.09.2022
1632 Clear 17 1010 67 10000 6.17 320 04:34 28.09.2022
1633 Clouds 18 1012 70 10000 5.14 320 01:36 28.09.2022
1634 Clouds 20 1011 72 10000 2.57 330 23:27 27.09.2022
1635 Clear 20 1011 73 10000 2.57 70 21:47 27.09.2022
1636 Clear 21 1011 71 10000 3.09 120 20:49 27.09.2022
1637 Clear 22 1010 67 10000 4.12 130 19:49 27.09.2022
1638 Clouds 22 1010 64 10000 5.14 120 19:30 27.09.2022
1639 Clouds 24 1010 57 10000 4.63 200 17:46 27.09.2022
1640 Clouds 24 1009 54 10000 4.12 180 15:59 27.09.2022
1641 Clouds 23 1009 52 10000 2.06 260 14:59 27.09.2022
1642 Clear 22 1010 53 10000 3.09 310 13:32 27.09.2022
1643 Clear 21 1010 52 10000 5.14 330 12:22 27.09.2022
1644 Clear 18 1010 60 10000 4.63 360 09:49 27.09.2022
1645 Clouds 16 1009 65 10000 3.6 320 07:38 27.09.2022
1646 Clear 17 1010 57 10000 4.12 300 02:59 27.09.2022
1647 Clear 19 1010 52 10000 5.66 270 01:35 27.09.2022
1648 Clear 20 1011 48 10000 3.09 280 23:39 26.09.2022
1649 Clear 20 1011 47 10000 3.09 280 23:20 26.09.2022
1650 Clear 22 1010 43 10000 5.66 250 20:48 26.09.2022
1651 Clear 23 1010 40 10000 7.72 250 19:42 26.09.2022
1652 Clear 24 1010 42 10000 9.77 220 18:38 26.09.2022
1653 Clouds 25 1010 43 10000 10.8 220 17:24 26.09.2022
1654 Clouds 24 1011 51 10000 5.14 270 14:48 26.09.2022
1655 Clear 22 1012 60 10000 6.17 270 12:30 26.09.2022
1656 Clouds 19 1012 70 10000 5.14 330 10:41 26.09.2022
1657 Clouds 18 1012 72 10000 5.14 330 10:22 26.09.2022
1658 Clouds 18 1012 74 10000 4.63 330 09:56 26.09.2022
1659 Clouds 17 1012 74 10000 5.14 330 09:26 26.09.2022
1660 Clouds 17 1011 77 10000 3.09 310 08:58 26.09.2022
1661 Clear 17 1012 70 10000 3.09 330 03:48 26.09.2022
1662 Clear 18 1013 69 10000 3.09 330 01:56 26.09.2022
1663 Clouds 19 1013 68 10000 3.09 70 23:23 25.09.2022
1664 Clouds 20 1013 69 10000 2.57 80 21:44 25.09.2022
1665 Clouds 20 1013 68 10000 2.06 90 20:57 25.09.2022
1666 Clouds 20 1012 68 10000 2.06 110 20:33 25.09.2022
1667 Clouds 22 1012 64 10000 5.14 140 18:49 25.09.2022
1668 Clouds 22 1012 63 10000 5.14 140 18:24 25.09.2022
1669 Clouds 22 1012 61 10000 5.66 130 17:22 25.09.2022
1670 Clouds 23 1012 62 10000 4.12 140 15:50 25.09.2022
1671 Clouds 23 1012 62 10000 2.57 140 14:35 25.09.2022
1672 Clouds 22 1013 60 10000 3.6 200 13:58 25.09.2022
1673 Clouds 19 1013 68 10000 5.66 330 10:38 25.09.2022
1674 Clouds 18 1012 75 10000 5.66 330 09:37 25.09.2022
1675 Clouds 17 1012 80 10000 3.6 320 06:53 25.09.2022
1676 Clouds 17 1012 85 10000 2.57 330 05:19 25.09.2022
1677 Rain 19 1012 75 10000 7.2 60 23:36 24.09.2022
1678 Clouds 21 1012 78 10000 6.17 80 21:19 24.09.2022
1679 Clouds 21 1011 76 10000 5.36 74 19:34 24.09.2022
1680 Clouds 22 1011 74 10000 4.63 80 18:57 24.09.2022
1681 Clouds 22 1011 70 10000 5.66 70 16:50 24.09.2022
1682 Clouds 22 1012 72 10000 5.66 80 15:23 24.09.2022
1683 Clouds 22 1012 72 10000 5.66 80 15:23 24.09.2022
1684 Clouds 22 1013 71 10000 5.14 70 14:36 24.09.2022
1685 Clouds 22 1013 71 10000 4.63 70 13:18 24.09.2022
1686 Clouds 21 1014 78 10000 5.14 70 12:23 24.09.2022
1687 Clouds 19 1013 83 10000 5.14 70 09:59 24.09.2022
1688 Clouds 19 1013 83 10000 6.69 80 08:58 24.09.2022
1689 Clouds 18 1013 85 10000 2.57 350 07:41 24.09.2022
1690 Clouds 18 1012 94 10000 2.06 310 04:53 24.09.2022
1691 Clouds 18 1012 91 10000 1.03 360 04:21 24.09.2022
1692 Clouds 22 1014 81 10000 6.69 240 22:58 23.09.2022
1693 Clouds 23 1014 82 10000 4.12 200 21:37 23.09.2022
1694 Clouds 23 1014 78 10000 3.6 210 21:19 23.09.2022
1695 Rain 23 1015 76 10000 4.02 217 20:43 23.09.2022
1696 Clouds 24 1015 71 10000 4.63 200 19:20 23.09.2022
1697 Rain 24 1015 72 10000 4.63 190 19:20 23.09.2022
1698 Clouds 25 1016 66 10000 5.66 170 16:48 23.09.2022
1699 Clouds 25 1018 69 10000 3.6 110 12:52 23.09.2022
1700 Clouds 21 1018 74 10000 4.12 330 09:36 23.09.2022
1701 Clouds 19 1018 80 10000 4.12 330 07:29 23.09.2022
1702 Clouds 20 1019 79 10000 2.57 330 01:21 23.09.2022
1703 Clouds 21 1019 76 10000 2.06 30 23:29 22.09.2022
1704 Clouds 21 1019 75 10000 3.09 70 22:27 22.09.2022
1705 Clouds 22 1018 73 10000 2.06 110 21:24 22.09.2022
1706 Clouds 22 1018 72 10000 3.6 90 20:21 22.09.2022
1707 Clear 23 1017 68 10000 4.63 90 18:44 22.09.2022
1708 Clouds 25 1018 57 10000 6.69 80 14:49 22.09.2022
1709 Clouds 22 1019 71 10000 6.17 60 10:39 22.09.2022
1710 Clouds 22 1018 71 10000 6.17 60 10:19 22.09.2022
1711 Clouds 20 1017 71 10000 2.57 340 07:50 22.09.2022
1712 Clouds 20 1017 65 10000 2.06 330 04:38 22.09.2022
1713 Clouds 22 1018 66 10000 3.09 60 00:25 22.09.2022
1714 Clouds 22 1018 69 10000 3.6 80 22:29 21.09.2022
1715 Clouds 21 1018 71 10000 4.12 80 21:18 21.09.2022
1716 Clouds 23 1016 67 10000 5.14 130 18:50 21.09.2022
1717 Clouds 24 1016 63 10000 5.66 140 17:41 21.09.2022
1718 Clouds 25 1017 62 10000 5.14 120 15:35 21.09.2022
1719 Clouds 25 1017 60 10000 4.63 90 13:42 21.09.2022
1720 Clouds 24 1018 62 10000 5.14 80 11:42 21.09.2022
1721 Clouds 23 1018 64 10000 5.14 70 10:54 21.09.2022
1722 Clouds 21 1018 70 10000 2.57 360 09:39 21.09.2022
1723 Clouds 21 1018 71 10000 2.57 360 09:39 21.09.2022
1724 Clouds 20 1017 76 10000 2.57 330 08:31 21.09.2022
1725 Clear 20 1017 87 10000 2.57 330 03:51 21.09.2022
1726 Clear 20 1017 88 10000 2.06 340 02:38 21.09.2022
1727 Clear 20 1018 86 10000 2.57 340 01:52 21.09.2022
1728 Clouds 21 1018 83 10000 2.06 350 00:19 21.09.2022
1729 Clouds 22 1018 78 10000 2.06 70 21:52 20.09.2022
1730 Clouds 23 1017 78 10000 3.09 180 20:32 20.09.2022
1731 Clouds 24 1016 70 10000 2.57 170 18:41 20.09.2022
1732 Clouds 25 1016 65 10000 6.17 120 15:51 20.09.2022
1733 Clouds 25 1018 62 10000 4.12 120 14:18 20.09.2022
1734 Clouds 24 1018 67 10000 3.6 80 11:51 20.09.2022
1735 Clouds 21 1017 74 10000 2.57 70 08:44 20.09.2022
1736 Clouds 21 1017 74 10000 3.09 70 08:23 20.09.2022
1737 Clear 21 1016 84 10000 3.6 330 04:37 20.09.2022
1738 Clear 21 1016 84 10000 2.06 350 02:24 20.09.2022
1739 Clouds 22 1016 81 10000 2.57 270 22:44 19.09.2022
1740 Clouds 23 1016 80 10000 1.54 230 21:28 19.09.2022
1741 Clouds 23 1015 78 10000 2.57 110 20:40 19.09.2022
1742 Clouds 24 1014 73 10000 4.63 110 18:49 19.09.2022
1743 Clouds 26 1015 67 10000 4.63 120 17:20 19.09.2022
1744 Clouds 26 1016 62 10000 4.63 130 13:49 19.09.2022
1745 Clouds 25 1016 65 10000 3.6 100 12:26 19.09.2022
1746 Clear 22 1015 73 10000 3.09 340 10:19 19.09.2022
1747 Clear 19 1015 82 10000 4.12 320 08:41 19.09.2022
1748 Clouds 20 1015 85 10000 4.12 320 04:26 19.09.2022
1749 Clouds 21 1016 79 10000 1.54 300 00:52 19.09.2022
1750 Clouds 21 1016 76 10000 1.54 60 22:42 18.09.2022
1751 Clouds 22 1016 76 10000 1.54 120 21:26 18.09.2022
1752 Clouds 23 1016 71 10000 3.6 120 19:56 18.09.2022
1753 Clouds 24 1016 65 10000 3.6 180 17:53 18.09.2022
1754 Clouds 25 1016 61 10000 4.63 180 16:56 18.09.2022
1755 Clouds 25 1017 55 10000 3.6 180 14:52 18.09.2022
1756 Clouds 25 1017 52 10000 3.6 170 13:41 18.09.2022
1757 Clouds 24 1017 51 10000 2.57 140 12:28 18.09.2022
1758 Clouds 22 1017 48 10000 3.09 320 10:28 18.09.2022
1759 Clouds 21 1015 55 10000 3.09 90 03:35 18.09.2022
1760 Clouds 22 1016 57 10000 2.57 120 01:22 18.09.2022
1761 Clouds 22 1016 65 10000 2.06 120 23:36 17.09.2022
1762 Clouds 23 1015 67 10000 3.09 130 21:35 17.09.2022
1763 Clouds 23 1014 69 10000 4.63 130 19:40 17.09.2022
1764 Clouds 23 1014 69 10000 4.63 130 19:40 17.09.2022
1765 Clouds 24 1014 69 10000 4.63 130 18:43 17.09.2022
1766 Clouds 24 1015 63 10000 4.12 170 14:54 17.09.2022
1767 Clouds 24 1014 56 10000 2.57 160 13:38 17.09.2022
1768 Clouds 21 1014 63 10000 4.63 330 10:56 17.09.2022
1769 Clouds 20 1013 68 10000 7.2 330 08:33 17.09.2022
1770 Clouds 20 1011 67 10000 5.66 320 06:21 17.09.2022
1771 Thunderstorm 23 1012 86 10000 7.2 50 23:56 16.09.2022
1772 Thunderstorm 23 1011 84 10000 5.36 53 22:51 16.09.2022
1773 Clouds 25 1010 77 10000 2.57 160 20:54 16.09.2022
1774 Clouds 26 1009 74 10000 3.6 160 19:50 16.09.2022
1775 Clouds 26 1011 74 10000 5.14 180 16:26 16.09.2022
1776 Clouds 27 1011 70 10000 6.17 200 14:53 16.09.2022
1777 Rain 27 1012 67 10000 5.66 180 13:42 16.09.2022
1778 Clouds 26 1012 68 10000 4.12 320 10:46 16.09.2022
1779 Clouds 22 1012 78 10000 5.14 330 08:19 16.09.2022
1780 Clouds 22 1011 81 10000 5.14 330 06:48 16.09.2022
1781 Clouds 22 1011 81 10000 4.63 320 05:58 16.09.2022
1782 Clouds 23 1012 82 10000 1.03 350 02:37 16.09.2022
1783 Clouds 25 1012 80 10000 1.54 80 22:20 15.09.2022
1784 Clouds 25 1012 81 10000 2.06 120 22:20 15.09.2022
1785 Clouds 26 1010 77 10000 1.54 200 20:40 15.09.2022
1786 Clouds 27 1010 72 10000 3.09 180 19:45 15.09.2022
1787 Clouds 28 1010 71 10000 4.63 180 18:29 15.09.2022
1788 Clouds 29 1010 66 10000 5.14 150 17:31 15.09.2022
1789 Clouds 30 1010 61 10000 4.12 140 15:50 15.09.2022
1790 Clouds 29 1011 63 10000 3.6 80 13:19 15.09.2022
1791 Clear 28 1012 64 10000 3.6 60 11:48 15.09.2022
1792 Clouds 25 1011 68 10000 5.14 320 09:52 15.09.2022
1793 Clouds 22 1010 76 10000 4.12 330 07:45 15.09.2022
1794 Clear 23 1009 78 10000 3.6 300 03:52 15.09.2022
1795 Clouds 25 1010 78 10000 3.6 280 23:43 14.09.2022
1796 Clouds 26 1009 76 10000 4.12 250 21:26 14.09.2022
1797 Clouds 27 1008 72 10000 6.17 230 19:33 14.09.2022
1798 Clouds 28 1009 67 10000 6.69 240 18:30 14.09.2022
1799 Clouds 27 1009 66 10000 6.17 250 16:44 14.09.2022
1800 Clouds 27 1009 67 10000 6.69 230 15:29 14.09.2022
1801 Clouds 27 1008 68 10000 4.63 300 13:36 14.09.2022
1802 Rain 24 1008 76 10000 4.63 310 10:52 14.09.2022
1803 Drizzle 23 1009 81 10000 3.09 340 09:41 14.09.2022
1804 Rain 22 1007 82 10000 5.66 330 06:52 14.09.2022
1805 Rain 22 1008 83 10000 5.14 320 06:34 14.09.2022
1806 Rain 24 1009 66 10000 8.23 310 03:55 14.09.2022
1807 Clouds 25 1009 64 10000 3.6 330 01:43 14.09.2022
1808 Clouds 25 1009 65 10000 3.6 340 01:20 14.09.2022
1809 Clouds 26 1010 61 10000 4.12 300 23:55 13.09.2022
1810 Rain 26 1010 61 10000 4.63 320 23:37 13.09.2022
1811 Rain 26 1009 60 10000 4.63 320 23:19 13.09.2022
1812 Clouds 26 1009 60 10000 2.57 280 22:44 13.09.2022
1813 Rain 26 1009 59 10000 4.47 341 21:44 13.09.2022
1814 Clouds 27 1010 54 10000 4.12 350 19:32 13.09.2022
1815 Rain 29 1012 48 10000 5.66 320 17:33 13.09.2022
1816 Clouds 29 1011 44 10000 4.63 330 15:54 13.09.2022
1817 Clouds 30 1011 54 10000 7.2 290 13:54 13.09.2022
1818 Clouds 30 1011 69 10000 4.12 70 12:28 13.09.2022
1819 Clouds 25 1011 85 10000 2.57 320 08:33 13.09.2022
1820 Clouds 25 1010 86 10000 2.06 40 04:32 13.09.2022
1821 Clear 26 1012 81 10000 2.06 30 23:32 12.09.2022
1822 Clear 26 1012 81 10000 2.06 10 22:49 12.09.2022
1823 Clear 27 1012 82 10000 2.57 40 21:36 12.09.2022
1824 Clouds 27 1011 82 10000 4.12 130 20:25 12.09.2022
1825 Clouds 29 1011 79 10000 4.63 120 18:42 12.09.2022
1826 Clouds 30 1012 76 10000 5.66 190 16:23 12.09.2022
1827 Clouds 30 1013 74 10000 3.13 250 13:41 12.09.2022
1828 Clouds 28 1013 80 10000 2.06 270 11:22 12.09.2022
1829 Clouds 25 1013 86 10000 3.6 330 09:35 12.09.2022
1830 Clouds 24 1013 89 10000 3.09 340 04:49 12.09.2022
1831 Clouds 24 1013 89 10000 3.09 340 03:33 12.09.2022
1832 Clouds 25 1014 86 10000 1.54 310 23:22 11.09.2022
1833 Clouds 26 1014 85 10000 1.54 240 21:58 11.09.2022
1834 Clouds 26 1014 82 10000 2.57 210 20:46 11.09.2022
1835 Clouds 27 1014 83 10000 4.12 110 19:53 11.09.2022
1836 Clouds 27 1014 82 10000 4.12 120 19:22 11.09.2022
1837 Clouds 28 1014 82 10000 4.12 130 18:20 11.09.2022
1838 Clouds 28 1015 81 10000 5.14 120 16:34 11.09.2022
1839 Clouds 27 1016 79 10000 5.14 120 14:19 11.09.2022
1840 Clouds 26 1017 79 10000 6.17 70 12:40 11.09.2022
1841 Clouds 24 1016 81 10000 3.09 330 08:48 11.09.2022
1842 Clouds 24 1016 84 10000 3.09 330 06:56 11.09.2022
1843 Clouds 25 1017 82 10000 1.54 300 00:50 11.09.2022
1844 Clouds 25 1017 81 10000 1.03 0 22:55 10.09.2022
1845 Clouds 26 1017 79 10000 3.09 210 21:25 10.09.2022
1846 Clouds 27 1017 74 10000 4.12 220 19:47 10.09.2022
1847 Clouds 27 1017 72 10000 4.63 220 19:28 10.09.2022
1848 Clouds 27 1017 72 10000 5.14 220 18:51 10.09.2022
1849 Clouds 28 1018 69 10000 4.63 180 15:49 10.09.2022
1850 Clouds 27 1018 68 10000 4.12 160 14:42 10.09.2022
1851 Clouds 27 1019 67 10000 3.6 150 12:52 10.09.2022
1852 Clouds 26 1019 70 10000 1.79 196 10:58 10.09.2022
1853 Clouds 23 1019 72 10000 3.09 320 09:37 10.09.2022
1854 Clouds 22 1019 76 10000 3.6 330 08:36 10.09.2022
1855 Clouds 22 1018 76 10000 4.12 330 06:43 10.09.2022
1856 Clouds 23 1019 73 10000 3.6 90 00:41 10.09.2022
1857 Clouds 24 1018 73 10000 6.17 70 23:33 09.09.2022
1858 Clouds 24 1018 71 10000 6.69 80 22:18 09.09.2022
1859 Clouds 25 1017 70 10000 7.2 70 20:46 09.09.2022
1860 Clouds 25 1017 73 10000 6.69 80 19:24 09.09.2022
1861 Clouds 25 1017 73 10000 6.17 90 18:47 09.09.2022
1862 Clouds 26 1016 73 10000 6.17 90 16:23 09.09.2022
1863 Clouds 28 1016 69 10000 5.66 120 13:49 09.09.2022
1864 Clouds 27 1016 70 10000 4.47 81 12:32 09.09.2022
1865 Clouds 25 1016 65 10000 3.6 330 09:55 09.09.2022
1866 Clear 23 1015 77 10000 2.06 350 05:19 09.09.2022
1867 Clouds 24 1015 76 10000 1.34 259 03:20 09.09.2022
1868 Clear 25 1014 70 10000 3.6 220 21:53 08.09.2022
1869 Clouds 26 1014 68 10000 4.12 220 20:56 08.09.2022
1870 Clouds 26 1014 67 10000 4.12 220 20:31 08.09.2022
1871 Clouds 27 1013 64 10000 5.14 220 19:56 08.09.2022
1872 Clouds 28 1014 57 10000 4.63 200 18:22 08.09.2022
1873 Clouds 28 1014 51 10000 3.6 160 16:21 08.09.2022
1874 Clouds 28 1015 51 10000 3.09 200 14:40 08.09.2022
1875 Clouds 27 1015 55 10000 2.57 90 13:27 08.09.2022
1876 Rain 26 1015 61 10000 4.12 70 11:57 08.09.2022
1877 Clouds 26 1015 66 10000 4.63 80 10:57 08.09.2022
1878 Clouds 24 1014 71 10000 4.12 70 08:51 08.09.2022
1879 Clouds 24 1012 70 10000 4.12 20 06:42 08.09.2022
1880 Clouds 26 1011 79 10000 2.57 320 02:37 08.09.2022
1881 Clouds 26 1011 79 10000 2.06 300 02:18 08.09.2022
1882 Clouds 26 1011 81 10000 2.57 250 00:56 08.09.2022
1883 Clouds 27 1012 80 10000 2.06 230 22:44 07.09.2022
1884 Clouds 27 1012 80 10000 2.57 240 21:42 07.09.2022
1885 Clouds 27 1011 80 10000 3.09 230 20:49 07.09.2022
1886 Clouds 28 1011 75 10000 3.6 230 19:42 07.09.2022
1887 Clouds 29 1011 70 10000 3.09 200 18:27 07.09.2022
1888 Clouds 29 1013 75 10000 5.66 70 14:26 07.09.2022
1889 Clouds 26 1014 79 10000 5.14 60 10:48 07.09.2022
1890 Clear 25 1014 81 10000 1.79 71 09:19 07.09.2022
1891 Clear 23 1013 82 10000 4.12 330 07:23 07.09.2022
1892 Clouds 24 1013 82 10000 2.06 290 03:33 07.09.2022
1893 Clear 26 1014 80 10000 3.6 240 23:38 06.09.2022
1894 Clear 27 1013 74 10000 4.12 240 21:42 06.09.2022
1895 Clear 28 1013 77 10000 2.57 210 20:45 06.09.2022
1896 Clouds 30 1013 71 10000 8.23 220 18:45 06.09.2022
1897 Clouds 30 1014 70 10000 8.23 220 18:22 06.09.2022
1898 Clouds 31 1014 69 10000 7.72 210 17:22 06.09.2022
1899 Clouds 31 1014 67 10000 7.72 220 16:37 06.09.2022
1900 Clouds 31 1015 67 10000 7.2 210 15:22 06.09.2022
1901 Clear 31 1015 66 10000 3.6 210 13:45 06.09.2022
1902 Clear 31 1015 66 10000 3.6 210 13:45 06.09.2022
1903 Clear 31 1015 68 10000 3.6 190 13:24 06.09.2022
1904 Clouds 29 1016 71 10000 2.57 190 11:59 06.09.2022
1905 Clouds 28 1016 74 10000 2.57 320 10:41 06.09.2022
1906 Clouds 25 1016 84 10000 3.6 320 08:50 06.09.2022
1907 Clouds 24 1016 89 10000 4.12 330 07:45 06.09.2022
1908 Clouds 25 1016 89 10000 2.57 330 02:44 06.09.2022
1909 Clouds 26 1017 86 10000 1.03 50 23:27 05.09.2022
1910 Clouds 27 1017 86 10000 1.54 80 22:21 05.09.2022
1911 Clouds 27 1017 83 10000 3.6 130 20:35 05.09.2022
1912 Clouds 28 1016 80 10000 3.6 110 19:20 05.09.2022
1913 Clouds 28 1016 79 10000 4.12 140 18:45 05.09.2022
1914 Clouds 29 1017 78 10000 4.12 130 18:21 05.09.2022
1915 Clouds 29 1017 79 10000 4.12 130 16:43 05.09.2022
1916 Rain 28 1018 80 10000 6.17 130 15:47 05.09.2022
1917 Clouds 30 1018 79 10000 5.14 100 13:26 05.09.2022
1918 Clouds 29 1019 78 10000 5.14 80 12:28 05.09.2022
1919 Clouds 27 1018 77 10000 3.6 320 10:18 05.09.2022
1920 Clouds 24 1018 87 10000 4.12 330 06:42 05.09.2022
1921 Clouds 25 1018 84 10000 2.06 330 02:42 05.09.2022
1922 Clouds 25 1018 83 10000 2.06 60 23:26 04.09.2022
1923 Clouds 26 1017 86 10000 2.06 110 22:27 04.09.2022
1924 Clouds 26 1017 84 10000 2.57 110 21:32 04.09.2022
1925 Clouds 27 1016 81 10000 3.6 100 19:38 04.09.2022
1926 Clouds 28 1016 80 10000 4.12 90 18:20 04.09.2022
1927 Clouds 28 1016 76 10000 4.12 110 16:56 04.09.2022
1928 Clouds 29 1016 75 10000 5.14 120 14:33 04.09.2022
1929 Clouds 29 1017 75 10000 5.14 110 13:52 04.09.2022
1930 Clouds 29 1017 72 10000 5.14 110 12:18 04.09.2022
1931 Clouds 27 1016 75 10000 3.09 60 10:47 04.09.2022
1932 Clouds 23 1015 87 10000 3.6 330 08:21 04.09.2022
1933 Clouds 23 1014 89 10000 2.57 330 05:36 04.09.2022
1934 Clouds 24 1013 87 10000 1.54 10 00:53 04.09.2022
1935 Rain 25 1012 85 10000 2.57 50 22:26 03.09.2022
1936 Rain 25 1012 85 10000 3.09 50 21:23 03.09.2022
1937 Rain 25 1012 84 10000 5.14 70 19:56 03.09.2022
1938 Clouds 26 1011 81 10000 6.17 90 17:29 03.09.2022
1939 Clouds 28 1012 75 10000 6.69 90 16:33 03.09.2022
1940 Clouds 28 1012 69 10000 7.2 90 14:46 03.09.2022
1941 Clouds 28 1012 67 10000 7.2 90 14:26 03.09.2022
1942 Clouds 28 1012 66 10000 5.66 90 13:21 03.09.2022
1943 Clouds 27 1012 69 10000 4.63 60 10:55 03.09.2022
1944 Clouds 24 1011 79 10000 3.09 340 08:41 03.09.2022
1945 Clouds 23 1011 79 10000 4.63 310 06:59 03.09.2022
1946 Clouds 23 1011 80 10000 5.66 40 04:40 03.09.2022
1947 Clouds 24 1011 75 10000 3.09 330 00:41 03.09.2022
1948 Clouds 24 1010 70 10000 4.12 330 23:20 02.09.2022
1949 Clouds 25 1010 68 10000 4.12 30 21:33 02.09.2022
1950 Clouds 26 1010 69 10000 8.23 70 20:39 02.09.2022
1951 Rain 26 1010 74 10000 4.12 300 19:35 02.09.2022
1952 Clouds 28 1010 80 10000 3.09 210 18:43 02.09.2022
1953 Clouds 28 1010 80 10000 3.09 210 18:24 02.09.2022
1954 Clouds 28 1009 81 10000 5.14 130 16:50 02.09.2022
1955 Clouds 29 1010 76 10000 5.66 120 15:40 02.09.2022
1956 Rain 29 1012 71 10000 3.6 90 12:49 02.09.2022
1957 Clear 27 1012 69 10000 2.57 330 10:25 02.09.2022
1958 Clouds 26 1011 77 10000 3.09 0 09:41 02.09.2022
1959 Clouds 24 1011 85 10000 4.63 320 08:35 02.09.2022
1960 Clouds 24 1012 86 10000 3.6 330 06:42 02.09.2022
1961 Clouds 23 1012 85 10000 4.12 320 03:53 02.09.2022
1962 Clouds 25 1013 80 10000 1.54 280 22:54 01.09.2022
1963 Clouds 26 1012 78 10000 1.54 160 21:45 01.09.2022
1964 Clouds 26 1012 78 10000 1.54 160 21:26 01.09.2022
1965 Clear 26 1012 76 10000 3.09 160 20:48 01.09.2022
1966 Clear 28 1012 71 10000 3.6 140 19:24 01.09.2022
1967 Clouds 29 1012 67 10000 5.66 120 17:49 01.09.2022
1968 Clouds 29 1013 64 10000 5.66 130 16:41 01.09.2022
1969 Clouds 30 1014 61 10000 3.09 180 14:34 01.09.2022
1970 Clear 29 1014 58 10000 1.79 36 13:20 01.09.2022
1971 Clouds 28 1015 57 10000 2.57 330 11:57 01.09.2022
1972 Clear 28 1015 58 10000 2.24 57 11:39 01.09.2022
1973 Clear 28 1015 57 10000 1.79 58 11:18 01.09.2022
1974 Clear 24 1014 69 10000 6.17 330 09:20 01.09.2022
1975 Clear 23 1013 55 10000 6.69 320 06:28 01.09.2022
1976 Clear 22 1014 63 10000 4.63 320 01:45 01.09.2022
1977 Clear 23 1014 72 10000 3.6 340 00:33 01.09.2022
1978 Clouds 22 1015 86 10000 4.63 310 22:21 31.08.2022
1979 Rain 22 1014 83 10000 1.54 350 20:27 31.08.2022
1980 Thunderstorm 27 1015 80 10000 3.09 160 18:19 31.08.2022
1981 Rain 28 1014 75 10000 2.06 140 16:32 31.08.2022
1982 Clouds 29 1015 67 10000 4.63 50 15:18 31.08.2022
1983 Rain 24 1017 89 10000 2.06 170 12:30 31.08.2022
1984 Rain 23 1016 82 10000 2.57 360 11:38 31.08.2022
1985 Thunderstorm 24 1016 87 10000 2.68 96 09:25 31.08.2022
1986 Rain 26 1015 89 10000 1.54 150 06:35 31.08.2022
1987 Clouds 27 1015 85 10000 2.68 318 01:57 31.08.2022
1988 Clear 28 1015 83 10000 7.72 230 21:49 30.08.2022
1989 Clear 28 1014 81 10000 6.69 220 21:21 30.08.2022
1990 Clouds 30 1013 74 10000 6.17 220 19:26 30.08.2022
1991 Clouds 31 1014 71 10000 8.75 220 16:35 30.08.2022
1992 Clouds 31 1016 70 10000 5.14 190 13:37 30.08.2022
1993 Clouds 29 1017 71 10000 3.6 260 11:23 30.08.2022
1994 Clouds 28 1017 72 10000 2.06 320 10:57 30.08.2022
1995 Clouds 25 1016 77 10000 4.63 330 08:49 30.08.2022
1996 Clouds 25 1016 77 10000 3.6 330 03:57 30.08.2022
1997 Clouds 27 1015 77 10000 1.54 140 00:26 30.08.2022
1998 Clouds 27 1015 73 10000 3.09 100 22:34 29.08.2022
1999 Rain 27 1015 73 10000 3.09 270 21:48 29.08.2022
2000 Clouds 28 1015 74 10000 3.09 170 20:34 29.08.2022
2001 Clouds 30 1014 63 10000 4.12 230 18:55 29.08.2022
2002 Clouds 30 1015 65 10000 6.69 230 17:26 29.08.2022
2003 Clouds 30 1015 65 10000 6.69 230 16:56 29.08.2022
2004 Clouds 30 1015 67 10000 4.92 194 15:18 29.08.2022
2005 Clear 30 1016 59 10000 7.72 230 13:40 29.08.2022
2006 Clear 29 1016 65 10000 8.23 230 12:20 29.08.2022
2007 Clear 29 1015 63 10000 1.34 280 10:42 29.08.2022
2008 Clear 25 1015 78 10000 2.68 249 08:53 29.08.2022
2009 Clouds 24 1015 85 10000 3.6 340 06:29 29.08.2022
2010 Clouds 25 1015 83 10000 1.03 0 01:58 29.08.2022
2011 Clouds 26 1015 80 10000 3.09 250 23:33 28.08.2022
2012 Clouds 27 1014 76 10000 3.09 230 21:47 28.08.2022
2013 Clouds 27 1014 75 10000 3.6 220 21:25 28.08.2022
2014 Clear 29 1013 71 10000 5.66 220 20:18 28.08.2022
2015 Clear 28 1013 71 10000 5.66 220 20:18 28.08.2022
2016 Clouds 29 1014 70 10000 7.2 220 18:22 28.08.2022
2017 Clouds 29 1014 70 10000 7.72 230 17:51 28.08.2022
2018 Clouds 31 1013 66 10000 7.2 210 16:44 28.08.2022
2019 Clouds 31 1013 65 10000 7.2 210 15:00 28.08.2022
2020 Clear 31 1013 64 10000 5.36 175 13:19 28.08.2022
2021 Clouds 29 1013 66 10000 3.6 200 11:25 28.08.2022
2022 Clouds 27 1013 69 10000 4.63 320 10:20 28.08.2022
2023 Clouds 25 1013 75 10000 4.12 320 08:49 28.08.2022
2024 Clouds 24 1012 82 10000 5.66 320 07:53 28.08.2022
2025 Clouds 23 1012 83 10000 5.14 330 07:23 28.08.2022
2026 Clouds 25 1012 80 10000 1.54 280 00:36 28.08.2022
2027 Clouds 26 1012 78 10000 4.63 220 22:58 27.08.2022
2028 Clouds 27 1012 77 10000 4.12 220 22:27 27.08.2022
2029 Clouds 28 1011 74 10000 5.14 220 20:35 27.08.2022
2030 Clouds 29 1011 71 10000 5.14 210 18:57 27.08.2022
2031 Clouds 29 1011 70 10000 6.69 180 16:29 27.08.2022
2032 Clouds 29 1011 72 10000 6.17 160 15:31 27.08.2022
2033 Clouds 29 1012 71 10000 4.63 120 13:22 27.08.2022
2034 Clouds 28 1012 72 10000 3.09 170 11:59 27.08.2022
2035 Clouds 27 1012 71 10000 3.09 310 10:27 27.08.2022
2036 Clouds 26 1012 75 10000 3.09 340 09:33 27.08.2022
2037 Clouds 24 1011 81 10000 3.6 330 06:52 27.08.2022
2038 Clouds 26 1012 72 10000 1.54 320 00:53 27.08.2022
2039 Clouds 26 1012 70 10000 2.57 240 23:46 26.08.2022
2040 Clouds 27 1012 65 10000 4.12 250 21:46 26.08.2022
2041 Clouds 28 1011 70 10000 5.66 230 19:50 26.08.2022
2042 Clouds 29 1011 67 10000 7.2 220 17:59 26.08.2022
2043 Clouds 31 1012 62 10000 6.69 210 16:32 26.08.2022
2044 Clouds 31 1012 55 10000 5.66 210 15:24 26.08.2022
2045 Clouds 31 1014 50 10000 3.6 200 13:18 26.08.2022
2046 Clear 29 1014 53 10000 5.14 320 11:48 26.08.2022
2047 Clear 28 1014 58 10000 5.14 340 11:22 26.08.2022
2048 Clear 26 1014 67 10000 5.66 330 09:45 26.08.2022
2049 Clear 24 1014 71 10000 3.6 320 04:56 26.08.2022
2050 Rain 24 1014 75 10000 7.72 340 00:44 26.08.2022
2051 Rain 25 1015 70 10000 8.23 320 22:44 25.08.2022
2052 Rain 27 1015 79 10000 3.09 310 20:55 25.08.2022
2053 Clouds 28 1014 78 10000 4.12 110 19:36 25.08.2022
2054 Clouds 29 1014 76 10000 3.09 110 18:35 25.08.2022
2055 Clouds 30 1013 74 10000 3.6 130 17:32 25.08.2022
2056 Clouds 30 1013 73 10000 4.63 130 16:45 25.08.2022
2057 Clouds 30 1014 73 10000 5.66 130 15:37 25.08.2022
2058 Clouds 30 1014 69 10000 4.63 90 13:59 25.08.2022
2059 Clouds 29 1015 65 10000 3.6 110 11:25 25.08.2022
2060 Clouds 29 1015 61 10000 4.02 93 10:44 25.08.2022
2061 Clear 25 1013 77 10000 2.57 270 07:35 25.08.2022
2062 Clouds 26 1012 71 10000 2.57 190 03:54 25.08.2022
2063 Clouds 26 1015 79 10000 1.54 290 23:38 24.08.2022
2064 Clouds 27 1015 79 10000 3.09 300 23:18 24.08.2022
2065 Clouds 27 1014 79 10000 3.6 260 21:56 24.08.2022
2066 Clouds 27 1014 79 10000 4.63 230 21:30 24.08.2022
2067 Clouds 29 1013 75 10000 5.14 220 19:56 24.08.2022
2068 Clear 31 1014 66 10000 6.17 210 17:32 24.08.2022
2069 Clouds 31 1013 63 10000 6.17 210 15:55 24.08.2022
2070 Clear 31 1014 64 10000 7.2 220 15:35 24.08.2022
2071 Clouds 31 1014 62 10000 4.63 120 12:52 24.08.2022
2072 Clouds 31 1014 62 10000 4.63 120 12:52 24.08.2022
2073 Clouds 31 1014 62 10000 1.34 55 11:21 24.08.2022
2074 Clear 26 1014 77 10000 4.63 310 08:59 24.08.2022
2075 Clear 25 1013 84 10000 4.47 248 06:40 24.08.2022
2076 Clear 26 1014 84 10000 2.06 300 01:20 24.08.2022
2077 Clear 26 1014 81 10000 2.57 210 22:49 23.08.2022
2078 Clear 27 1014 79 10000 3.6 230 22:18 23.08.2022
2079 Clear 28 1013 72 10000 4.12 220 20:49 23.08.2022
2080 Clear 29 1012 68 10000 7.2 230 19:24 23.08.2022
2081 Clear 30 1012 65 10000 7.2 220 18:21 23.08.2022
2082 Clear 30 1012 64 10000 6.17 210 17:30 23.08.2022
2083 Clear 30 1013 65 10000 5.14 190 16:26 23.08.2022
2084 Clouds 30 1014 67 10000 5.66 130 14:54 23.08.2022
2085 Clouds 29 1014 67 10000 3.09 160 12:46 23.08.2022
2086 Clouds 28 1014 69 10000 1.79 122 11:19 23.08.2022
2087 Clouds 27 1014 70 10000 3.6 320 10:33 23.08.2022
2088 Clouds 26 1014 75 10000 4.12 330 09:46 23.08.2022
2089 Clouds 25 1014 82 10000 3.6 340 08:47 23.08.2022
2090 Clouds 24 1014 83 10000 3.6 340 08:19 23.08.2022
2091 Clouds 23 1014 87 10000 3.09 340 07:33 23.08.2022
2092 Clouds 23 1013 86 10000 3.6 320 06:26 23.08.2022
2093 Clouds 24 1013 85 10000 2.06 340 01:52 23.08.2022
2094 Clouds 25 1013 83 10000 2.06 310 00:27 23.08.2022
2095 Clouds 25 1013 82 10000 2.06 220 23:32 22.08.2022
2096 Clouds 26 1013 81 10000 2.06 160 22:29 22.08.2022
2097 Clouds 26 1013 77 10000 3.09 130 20:58 22.08.2022
2098 Clouds 27 1012 75 10000 4.12 120 19:47 22.08.2022
2099 Clouds 28 1012 72 10000 5.14 130 18:38 22.08.2022
2100 Clouds 28 1013 68 10000 4.63 170 16:26 22.08.2022
2101 Clouds 29 1013 67 10000 5.14 160 15:36 22.08.2022
2102 Clouds 28 1013 71 10000 2.57 100 12:56 22.08.2022
2103 Clouds 25 1013 83 10000 2.57 30 10:20 22.08.2022
2104 Clouds 23 1013 90 10000 1.54 10 07:40 22.08.2022
2105 Clouds 24 1013 90 10000 2.57 330 02:50 22.08.2022
2106 Clouds 24 1013 89 10000 2.06 330 00:37 22.08.2022
2107 Clouds 24 1013 89 10000 2.06 330 00:37 22.08.2022
2108 Clouds 24 1014 89 10000 3.6 340 23:58 21.08.2022
2109 Clouds 24 1014 90 10000 3.09 330 21:57 21.08.2022
2110 Clouds 24 1013 92 10000 3.6 340 21:21 21.08.2022
2111 Thunderstorm 24 1013 90 10000 2.57 360 20:27 21.08.2022
2112 Rain 27 1013 78 10000 9.26 40 19:23 21.08.2022
2113 Clouds 30 1012 72 10000 5.66 190 16:54 21.08.2022
2114 Clouds 30 1013 73 10000 5.66 130 15:53 21.08.2022
2115 Clouds 30 1013 72 10000 5.66 210 15:20 21.08.2022
2116 Clouds 30 1014 73 10000 4.12 180 13:51 21.08.2022
2117 Clouds 29 1014 73 10000 4.63 110 13:24 21.08.2022
2118 Clouds 29 1015 73 10000 2.57 170 11:29 21.08.2022
2119 Clouds 26 1015 78 10000 3.09 330 09:31 21.08.2022
2120 Clouds 24 1015 83 10000 3.6 330 08:56 21.08.2022
2121 Clouds 24 1015 84 10000 3.09 330 08:38 21.08.2022
2122 Clouds 24 1015 86 10000 3.09 320 07:26 21.08.2022
2123 Clouds 24 1016 81 10000 1.03 320 03:24 21.08.2022
2124 Clouds 25 1016 75 10000 3.09 250 23:49 20.08.2022
2125 Clouds 26 1016 75 10000 3.6 250 22:24 20.08.2022
2126 Clouds 27 1015 74 10000 7.2 240 21:26 20.08.2022
2127 Clouds 28 1015 70 10000 8.23 240 20:28 20.08.2022
2128 Clouds 29 1015 67 10000 8.23 230 19:40 20.08.2022
2129 Clouds 30 1015 65 10000 7.72 220 18:29 20.08.2022
2130 Clouds 30 1015 62 10000 8.75 220 17:40 20.08.2022
2131 Clouds 30 1016 61 10000 8.75 220 16:49 20.08.2022
2132 Clouds 30 1016 54 10000 8.75 210 15:26 20.08.2022
2133 Clear 30 1018 60 10000 8.23 200 13:24 20.08.2022
2134 Clear 28 1018 61 10000 3.6 180 11:49 20.08.2022
2135 Clear 25 1018 71 10000 5.14 330 09:34 20.08.2022
2136 Clear 23 1018 78 10000 5.14 320 08:29 20.08.2022
2137 Clear 22 1017 81 10000 3.6 330 05:51 20.08.2022
2138 Clear 23 1018 76 10000 2.06 360 00:59 20.08.2022
2139 Clear 23 1019 74 10000 2.57 280 00:34 20.08.2022
2140 Clear 24 1018 71 10000 3.09 60 22:59 19.08.2022
2141 Clear 25 1018 70 10000 3.09 130 21:40 19.08.2022
2142 Clear 27 1017 61 10000 4.12 110 19:54 19.08.2022
2143 Clouds 28 1017 55 10000 6.17 130 17:19 19.08.2022
2144 Clear 28 1017 51 10000 4.63 180 14:54 19.08.2022
2145 Clear 27 1017 50 10000 4.12 340 13:18 19.08.2022
2146 Clear 24 1017 59 10000 5.14 340 10:52 19.08.2022
2147 Clear 23 1018 64 10000 5.14 330 10:19 19.08.2022
2148 Clear 19 1016 78 10000 5.14 310 06:27 19.08.2022
2149 Clouds 21 1016 80 10000 3.6 330 00:56 19.08.2022
2150 Clouds 20 1015 81 10000 3.58 308 00:26 19.08.2022
2151 Clouds 21 1015 82 10000 1.03 0 23:37 18.08.2022
2152 Clouds 21 1015 86 10000 3.6 340 22:49 18.08.2022
2153 Clouds 21 1015 85 10000 3.6 330 21:55 18.08.2022
2154 Clouds 21 1014 85 10000 3.09 320 21:26 18.08.2022
2155 Clouds 21 1014 84 10000 4.63 310 19:56 18.08.2022
2156 Rain 21 1014 84 10000 4.12 340 19:26 18.08.2022
2157 Thunderstorm 23 1015 76 10000 3.09 20 17:50 18.08.2022
2158 Thunderstorm 24 1013 67 10000 5.14 90 16:58 18.08.2022
2159 Clouds 27 1012 52 10000 4.12 180 14:45 18.08.2022
2160 Clouds 27 1012 52 10000 3.58 133 14:19 18.08.2022
2161 Clouds 25 1012 55 10000 4.63 310 12:55 18.08.2022
2162 Rain 22 1012 65 10000 4.12 310 11:34 18.08.2022
2163 Clouds 21 1011 71 10000 4.12 320 09:43 18.08.2022
2164 Clouds 21 1011 71 10000 5.14 320 08:39 18.08.2022
2165 Clouds 20 1010 74 10000 4.63 300 07:19 18.08.2022
2166 Rain 21 1010 91 10000 3.6 280 03:53 18.08.2022
2167 Rain 23 1010 77 10000 2.06 10 23:34 17.08.2022
2168 Thunderstorm 23 1009 69 4000 3.09 40 21:40 17.08.2022
2169 Clouds 26 1008 65 10000 6.69 80 20:18 17.08.2022
2170 Clouds 26 1008 69 10000 5.14 90 19:28 17.08.2022
2171 Clouds 29 1007 71 10000 7.2 120 17:35 17.08.2022
2172 Clouds 30 1007 60 10000 4.63 170 16:22 17.08.2022
2173 Clouds 30 1007 60 10000 4.63 170 16:22 17.08.2022
2174 Clouds 31 1007 55 10000 4.12 120 15:22 17.08.2022
2175 Clouds 27 1007 67 10000 3.6 30 12:57 17.08.2022
2176 Rain 26 1007 73 10000 5.66 70 11:37 17.08.2022
2177 Clouds 26 1007 77 10000 2.06 330 09:31 17.08.2022
2178 Clouds 25 1007 82 10000 3.09 330 08:23 17.08.2022
2179 Clouds 25 1007 86 10000 1.03 0 03:27 17.08.2022
2180 Clouds 26 1007 87 10000 1.54 140 23:58 16.08.2022
2181 Clouds 27 1007 85 10000 4.12 130 22:35 16.08.2022
2182 Clouds 28 1007 80 10000 2.06 130 20:52 16.08.2022
2183 Clouds 28 1007 78 10000 1.03 0 19:53 16.08.2022
2184 Rain 28 1006 79 10000 3.6 120 18:40 16.08.2022
2185 Clouds 29 1007 76 10000 4.12 120 17:43 16.08.2022
2186 Clouds 30 1009 68 10000 3.6 100 15:48 16.08.2022
2187 Clouds 29 1010 68 10000 4.63 110 14:55 16.08.2022
2188 Clouds 29 1008 72 10000 3.6 120 14:37 16.08.2022
2189 Clouds 28 1009 72 10000 3.6 120 12:58 16.08.2022
2190 Clouds 28 1008 68 10000 2.06 120 10:59 16.08.2022
2191 Clear 28 1008 68 10000 1.54 310 09:50 16.08.2022
2192 Clear 26 1008 73 10000 2.57 330 08:47 16.08.2022
2193 Clear 24 1008 79 10000 3.6 320 07:58 16.08.2022
2194 Clouds 24 1009 79 10000 1.03 330 02:50 16.08.2022
2195 Clouds 26 1008 77 10000 2.57 100 22:31 15.08.2022
2196 Clouds 26 1008 77 10000 3.6 130 21:55 15.08.2022
2197 Clouds 26 1008 76 10000 3.09 100 21:35 15.08.2022
2198 Clouds 27 1007 75 10000 3.6 100 20:20 15.08.2022
2199 Clouds 28 1007 72 10000 5.14 130 18:43 15.08.2022
2200 Clouds 28 1007 70 10000 6.17 130 17:46 15.08.2022
2201 Clouds 29 1008 65 10000 5.66 120 16:22 15.08.2022
2202 Clouds 30 1008 60 10000 7.2 90 13:58 15.08.2022
2203 Clouds 30 1008 55 10000 5.66 90 12:38 15.08.2022
2204 Clear 28 1007 57 10000 1.54 10 10:18 15.08.2022
2205 Clear 26 1007 64 10000 3.09 330 08:51 15.08.2022
2206 Clear 25 1007 69 10000 2.06 340 06:33 15.08.2022
2207 Clear 26 1008 73 10000 4.12 50 03:34 15.08.2022
2208 Clouds 26 1008 77 10000 3.6 50 23:24 14.08.2022
2209 Clouds 27 1007 77 10000 3.6 70 21:43 14.08.2022
2210 Clouds 28 1007 76 10000 5.66 100 20:33 14.08.2022
2211 Clouds 29 1007 74 10000 5.66 100 19:36 14.08.2022
2212 Clouds 30 1007 72 10000 6.17 130 18:21 14.08.2022
2213 Clouds 32 1006 61 10000 8.23 220 17:31 14.08.2022
2214 Clouds 35 1006 43 10000 7.72 210 16:23 14.08.2022
2215 Clear 34 1006 41 10000 9.26 220 14:55 14.08.2022
2216 Clear 34 1007 41 10000 6.69 220 13:51 14.08.2022
2217 Clear 34 1007 41 10000 5.66 200 13:31 14.08.2022
2218 Clouds 34 1008 36 10000 4.63 290 12:42 14.08.2022
2219 Clear 32 1008 37 10000 6.17 280 11:23 14.08.2022
2220 Rain 30 1008 43 10000 7.2 290 08:57 14.08.2022
2221 Clouds 27 1008 75 10000 4.63 320 06:41 14.08.2022
2222 Clouds 27 1008 80 10000 4.12 330 05:37 14.08.2022
2223 Clouds 28 1010 82 10000 2.57 230 01:43 14.08.2022
2224 Clear 28 1010 77 10000 2.06 200 23:22 13.08.2022
2225 Clear 29 1011 73 10000 2.57 320 22:28 13.08.2022
2226 Rain 28 1011 83 10000 7.2 50 20:51 13.08.2022
2227 Clear 29 1011 78 10000 2.57 120 19:49 13.08.2022
2228 Clear 30 1011 72 10000 2.57 120 19:19 13.08.2022
2229 Clear 30 1011 75 10000 6.17 110 17:22 13.08.2022
2230 Clouds 31 1011 73 10000 5.14 130 14:51 13.08.2022
2231 Clouds 32 1011 73 10000 5.66 120 14:24 13.08.2022
2232 Clouds 32 1011 69 10000 7.2 130 13:34 13.08.2022
2233 Clear 33 1010 50 10000 2.68 79 11:33 13.08.2022
2234 Clear 29 1009 64 10000 4.63 330 09:27 13.08.2022
2235 Clear 26 1009 73 10000 3.09 300 07:43 13.08.2022
2236 Clear 28 1011 74 10000 2.24 300 01:52 13.08.2022
2237 Clear 29 1012 72 10000 4.63 240 23:36 12.08.2022
2238 Clear 30 1011 71 10000 6.69 230 21:40 12.08.2022
2239 Clear 31 1011 70 10000 5.66 190 19:50 12.08.2022
2240 Clouds 32 1011 67 10000 9.77 230 19:24 12.08.2022
2241 Clear 33 1010 65 10000 10.29 230 18:29 12.08.2022
2242 Clear 34 1010 64 10000 10.29 220 16:27 12.08.2022
2243 Clear 34 1011 64 10000 9.77 210 15:23 12.08.2022
2244 Clear 34 1011 59 10000 11.32 220 13:50 12.08.2022
2245 Clear 33 1012 62 10000 9.77 230 12:50 12.08.2022
2246 Clouds 29 1013 70 10000 2.06 310 09:22 12.08.2022
2247 Clear 26 1013 76 10000 3.6 320 07:46 12.08.2022
2248 Clear 26 1013 78 10000 2.06 320 06:24 12.08.2022
2249 Clear 27 1014 63 10000 2.06 270 01:22 12.08.2022
2250 Clear 27 1014 69 10000 2.57 240 00:18 12.08.2022
2251 Clear 28 1015 73 10000 3.09 220 23:27 11.08.2022
2252 Clear 29 1014 70 10000 3.09 220 21:55 11.08.2022
2253 Clear 29 1014 68 10000 3.09 210 21:28 11.08.2022
2254 Clear 31 1014 60 10000 4.12 170 20:31 11.08.2022
2255 Clear 31 1014 61 10000 4.12 210 19:41 11.08.2022
2256 Clear 31 1014 61 10000 4.63 190 19:21 11.08.2022
2257 Clear 32 1014 55 10000 5.14 170 17:23 11.08.2022
2258 Clear 33 1015 51 10000 6.17 140 16:19 11.08.2022
2259 Clear 32 1015 55 10000 7.2 130 15:20 11.08.2022
2260 Clear 32 1015 60 10000 5.14 190 12:35 11.08.2022
2261 Clear 28 1015 56 10000 3.09 320 09:29 11.08.2022
2262 Clear 25 1015 65 10000 3.6 320 06:59 11.08.2022
2263 Clear 26 1015 64 10000 2.57 290 03:25 11.08.2022
2264 Clouds 28 1015 69 10000 2.57 270 00:28 11.08.2022
2265 Clouds 30 1015 64 10000 5.14 220 22:21 10.08.2022
2266 Clouds 30 1015 67 10000 3.09 250 21:20 10.08.2022
2267 Clouds 31 1015 65 10000 4.12 220 20:43 10.08.2022
2268 Clouds 30 1015 64 10000 3.09 250 20:43 10.08.2022
2269 Clear 32 1014 64 10000 5.66 210 18:53 10.08.2022
2270 Clear 32 1015 60 10000 7.72 210 17:31 10.08.2022
2271 Clouds 33 1015 55 10000 6.17 200 15:53 10.08.2022
2272 Clear 33 1015 52 10000 5.14 180 13:34 10.08.2022
2273 Clear 32 1016 54 10000 4.12 190 12:24 10.08.2022
2274 Clear 28 1016 54 10000 2.24 316 08:55 10.08.2022
2275 Clear 26 1017 58 10000 4.12 320 08:31 10.08.2022
2276 Clear 25 1015 61 10000 4.12 310 06:22 10.08.2022
2277 Clear 27 1017 59 10000 4.63 330 02:45 10.08.2022
2278 Clear 28 1016 68 10000 3.09 200 23:34 09.08.2022
2279 Clear 28 1016 67 10000 3.09 210 22:55 09.08.2022
2280 Clear 29 1017 67 10000 2.06 180 21:34 09.08.2022
2281 Clear 30 1016 65 10000 3.6 130 19:34 09.08.2022
2282 Clear 31 1016 63 10000 4.63 120 18:29 09.08.2022
2283 Clear 31 1016 59 10000 5.14 130 17:27 09.08.2022
2284 Clear 32 1017 55 10000 5.66 120 16:40 09.08.2022
2285 Clear 32 1017 56 10000 5.66 120 16:40 09.08.2022
2286 Clear 32 1017 51 10000 5.66 140 15:40 09.08.2022
2287 Clear 31 1018 59 10000 5.14 150 12:48 09.08.2022
2288 Clear 28 1017 62 10000 5.14 320 09:30 09.08.2022
2289 Clear 27 1017 62 10000 5.66 320 08:33 09.08.2022
2290 Clear 25 1016 65 10000 5.14 320 07:20 09.08.2022
2291 Clear 26 1016 70 10000 4.12 320 03:32 09.08.2022
2292 Clear 27 1016 75 10000 1.54 120 23:27 08.08.2022
2293 Clear 27 1016 75 10000 1.54 120 23:27 08.08.2022
2294 Clear 27 1016 73 10000 2.57 130 22:54 08.08.2022
2295 Clear 28 1016 68 10000 1.54 180 21:49 08.08.2022
2296 Clear 28 1015 65 10000 3.6 140 20:55 08.08.2022
2297 Clear 29 1015 61 10000 3.09 140 19:50 08.08.2022
2298 Clear 30 1015 57 10000 4.63 120 18:38 08.08.2022
2299 Clear 31 1016 53 10000 6.17 130 16:37 08.08.2022
2300 Clear 31 1016 52 10000 5.66 110 15:39 08.08.2022
2301 Clear 32 1016 43 10000 3.6 130 12:51 08.08.2022
2302 Clear 31 1016 43 10000 4.63 90 11:53 08.08.2022
2303 Clear 29 1016 51 10000 3.6 340 09:43 08.08.2022
2304 Clear 25 1014 65 10000 5.14 310 05:43 08.08.2022
2305 Clear 26 1014 64 10000 3.6 330 02:27 08.08.2022
2306 Clear 27 1014 61 10000 4.63 300 22:32 07.08.2022
2307 Rain 27 1013 59 10000 3.09 280 21:39 07.08.2022
2308 Rain 28 1014 57 10000 2.06 300 20:26 07.08.2022
2309 Rain 29 1015 56 10000 1.54 340 19:55 07.08.2022
2310 Rain 29 1015 55 10000 1.54 50 19:34 07.08.2022
2311 Rain 30 1015 60 10000 3.6 100 18:23 07.08.2022
2312 Clear 31 1014 52 10000 6.17 130 16:54 07.08.2022
2313 Clear 31 1014 50 10000 4.63 160 16:35 07.08.2022
2314 Clear 31 1015 52 10000 5.66 140 15:19 07.08.2022
2315 Clouds 31 1016 51 10000 5.14 110 13:24 07.08.2022
2316 Clear 31 1016 54 10000 5.14 90 11:27 07.08.2022
2317 Clear 30 1016 58 10000 1.79 76 10:34 07.08.2022
2318 Clouds 25 1014 61 10000 3.6 330 06:52 07.08.2022
2319 Clouds 26 1015 61 10000 4.12 320 03:20 07.08.2022
2320 Clear 28 1014 71 10000 6.69 240 00:31 07.08.2022
2321 Clouds 28 1015 76 10000 4.63 220 22:24 06.08.2022
2322 Clear 30 1015 69 10000 3.09 210 20:42 06.08.2022
2323 Clear 30 1015 67 10000 6.17 220 19:41 06.08.2022
2324 Clear 31 1015 59 10000 7.2 220 18:30 06.08.2022
2325 Clear 32 1015 57 10000 7.2 210 17:32 06.08.2022
2326 Clear 33 1016 52 10000 4.63 200 14:43 06.08.2022
2327 Clear 33 1016 49 10000 4.12 140 13:44 06.08.2022
2328 Clear 32 1017 44 10000 1.34 68 11:55 06.08.2022
2329 Clear 29 1017 54 10000 5.14 330 10:32 06.08.2022
2330 Clear 27 1016 63 10000 7.2 330 08:40 06.08.2022
2331 Clear 24 1016 67 10000 5.14 330 03:53 06.08.2022
2332 Clouds 25 1015 62 10000 6.17 320 23:50 05.08.2022
2333 Clouds 25 1014 67 10000 5.14 310 22:32 05.08.2022
2334 Thunderstorm 23 1015 85 8000 4.12 320 19:59 05.08.2022
2335 Thunderstorm 22 1017 87 2200 3.6 280 18:46 05.08.2022
2336 Thunderstorm 26 1017 68 3000 7.2 330 18:25 05.08.2022
2337 Clouds 31 1014 69 10000 6.17 110 16:49 05.08.2022
2338 Clouds 32 1014 66 10000 7.2 120 15:22 05.08.2022
2339 Clouds 32 1015 67 10000 5.66 160 14:31 05.08.2022
2340 Clouds 32 1015 64 10000 5.66 180 13:24 05.08.2022
2341 Clouds 32 1015 64 10000 5.66 180 12:44 05.08.2022
2342 Clouds 30 1015 66 10000 3.09 190 10:55 05.08.2022
2343 Clouds 26 1015 75 10000 3.09 330 08:36 05.08.2022
2344 Clear 25 1015 81 10000 3.6 330 07:28 05.08.2022
2345 Clear 27 1015 76 10000 2.57 240 01:46 05.08.2022
2346 Clear 28 1015 74 10000 3.6 240 22:40 04.08.2022
2347 Clear 29 1014 73 10000 2.57 210 21:27 04.08.2022
2348 Clear 29 1013 71 10000 3.6 200 20:45 04.08.2022
2349 Clear 31 1013 67 10000 5.14 160 19:58 04.08.2022
2350 Clear 32 1013 64 10000 5.14 170 18:52 04.08.2022
2351 Clouds 32 1013 64 10000 5.14 200 18:32 04.08.2022
2352 Clear 33 1014 53 10000 6.17 210 14:50 04.08.2022
2353 Clear 33 1014 54 10000 5.14 200 13:23 04.08.2022
2354 Clear 32 1014 54 10000 3.6 200 11:38 04.08.2022
2355 Clear 30 1014 56 10000 2.57 320 09:58 04.08.2022
2356 Clear 26 1014 65 10000 2.06 320 07:31 04.08.2022
2357 Clear 27 1014 68 10000 3.09 230 02:46 04.08.2022
2358 Clear 29 1014 57 10000 3.09 270 23:58 03.08.2022
2359 Clear 29 1014 55 10000 3.09 280 23:36 03.08.2022
2360 Clear 30 1013 64 10000 3.09 220 21:26 03.08.2022
2361 Clear 31 1013 60 10000 4.63 240 20:20 03.08.2022
2362 Clear 32 1013 59 10000 5.14 210 18:53 03.08.2022
2363 Clear 33 1013 56 10000 5.66 200 16:27 03.08.2022
2364 Clear 33 1013 57 10000 5.66 210 15:53 03.08.2022
2365 Clear 33 1014 60 10000 6.17 200 13:38 03.08.2022
2366 Clear 31 1013 54 10000 3.6 230 10:50 03.08.2022
2367 Clear 26 1013 65 10000 2.57 320 07:23 03.08.2022
2368 Clear 27 1013 64 10000 3.09 320 04:22 03.08.2022
2369 Clear 27 1014 63 10000 2.06 260 03:23 03.08.2022
2370 Clear 28 1014 60 10000 3.09 250 00:49 03.08.2022
2371 Clouds 29 1014 66 10000 3.09 230 22:37 02.08.2022
2372 Clouds 29 1014 66 10000 3.09 220 21:51 02.08.2022
2373 Clear 30 1014 60 10000 4.63 220 20:30 02.08.2022
2374 Clear 32 1014 55 10000 6.69 220 17:52 02.08.2022
2375 Clear 33 1015 53 10000 3.6 150 14:46 02.08.2022
2376 Clear 32 1015 51 10000 2.24 60 10:50 02.08.2022
2377 Clouds 29 1016 62 10000 2.06 330 08:54 02.08.2022
2378 Clouds 27 1015 67 10000 4.12 320 07:52 02.08.2022
2379 Clouds 27 1015 65 10000 2.24 244 05:40 02.08.2022
2380 Clouds 28 1015 63 10000 3.09 300 03:40 02.08.2022
2381 Clouds 29 1016 58 10000 3.09 240 23:35 01.08.2022
2382 Clear 29 1016 60 10000 2.06 220 22:22 01.08.2022
2383 Clear 30 1015 58 10000 4.12 220 20:47 01.08.2022
2384 Clear 32 1015 53 10000 5.14 220 19:22 01.08.2022
2385 Clear 33 1014 46 10000 6.69 170 17:57 01.08.2022
2386 Clear 33 1015 43 10000 6.17 180 16:52 01.08.2022
2387 Clouds 33 1015 43 10000 5.66 210 15:52 01.08.2022
2388 Clouds 33 1015 43 10000 5.66 210 15:30 01.08.2022
2389 Clear 33 1016 48 10000 5.14 220 13:45 01.08.2022
2390 Clear 33 1016 50 10000 1.79 195 11:49 01.08.2022
2391 Clear 33 1016 50 10000 1.79 195 11:49 01.08.2022
2392 Clear 29 1016 63 10000 3.6 330 09:39 01.08.2022
2393 Clear 26 1016 73 10000 5.14 320 08:22 01.08.2022
2394 Clear 25 1016 74 10000 5.66 320 04:47 01.08.2022
2395 Clear 26 1016 71 10000 4.12 320 02:32 01.08.2022
2396 Clouds 27 1017 67 10000 4.63 240 23:54 31.07.2022
2397 Clouds 28 1016 67 10000 2.06 200 22:36 31.07.2022
2398 Clouds 28 1016 67 10000 2.06 200 22:36 31.07.2022
2399 Clouds 29 1016 60 10000 3.6 210 20:50 31.07.2022
2400 Clouds 30 1016 55 10000 4.63 120 19:41 31.07.2022
2401 Clouds 32 1016 50 10000 5.66 200 17:47 31.07.2022
2402 Clouds 32 1017 51 10000 6.69 160 15:35 31.07.2022
2403 Clouds 32 1018 55 10000 3.6 180 13:41 31.07.2022
2404 Clouds 31 1018 56 10000 3.6 110 11:55 31.07.2022
2405 Clouds 28 1018 70 10000 4.12 340 09:36 31.07.2022
2406 Clouds 24 1017 81 10000 2.06 310 06:48 31.07.2022
2407 Clear 25 1019 77 10000 3.09 290 02:57 31.07.2022
2408 Clear 26 1019 71 10000 1.03 0 23:36 30.07.2022
2409 Clear 27 1018 69 10000 1.54 140 22:19 30.07.2022
2410 Clear 27 1018 68 10000 2.57 180 21:48 30.07.2022
2411 Clear 28 1018 64 10000 3.6 190 20:56 30.07.2022
2412 Clear 28 1017 62 10000 5.14 170 19:58 30.07.2022
2413 Clear 29 1017 58 10000 5.66 210 18:53 30.07.2022
2414 Clear 30 1018 55 10000 6.17 210 17:44 30.07.2022
2415 Clouds 30 1018 55 10000 5.14 220 15:50 30.07.2022
2416 Clouds 30 1018 56 10000 4.63 190 15:22 30.07.2022
2417 Clouds 29 1019 58 10000 2.57 140 12:59 30.07.2022
2418 Clouds 28 1019 62 10000 2.57 160 11:55 30.07.2022
2419 Clouds 27 1019 71 10000 1.03 0 10:31 30.07.2022
2420 Clouds 26 1019 72 10000 2.57 310 09:54 30.07.2022
2421 Clouds 24 1018 79 10000 2.57 320 07:55 30.07.2022
2422 Clouds 24 1017 85 10000 2.57 40 02:57 30.07.2022
2423 Clouds 24 1017 84 10000 2.06 60 02:24 30.07.2022
2424 Clouds 25 1017 82 10000 6.69 70 22:41 29.07.2022
2425 Clouds 25 1016 82 10000 5.14 60 21:24 29.07.2022
2426 Clouds 26 1016 79 10000 3.6 70 20:39 29.07.2022
2427 Clouds 27 1016 68 10000 5.81 61 18:18 29.07.2022
2428 Clouds 28 1016 76 10000 8.23 90 15:35 29.07.2022
2429 Clouds 30 1015 73 10000 4.63 120 13:19 29.07.2022
2430 Clouds 29 1015 69 10000 3.09 100 11:28 29.07.2022
2431 Clouds 26 1014 83 10000 3.6 330 08:50 29.07.2022
2432 Clouds 25 1014 83 10000 3.6 330 08:18 29.07.2022
2433 Clouds 25 1014 85 10000 1.54 280 01:58 29.07.2022
2434 Clouds 27 1013 80 10000 2.06 150 22:53 28.07.2022
2435 Rain 27 1012 76 10000 2.57 210 21:29 28.07.2022
2436 Clouds 28 1012 73 10000 3.6 210 20:34 28.07.2022
2437 Clouds 29 1012 69 10000 2.24 173 19:44 28.07.2022
2438 Clouds 29 1012 66 10000 5.66 200 19:24 28.07.2022
2439 Rain 28 1012 69 10000 4.63 200 17:44 28.07.2022
2440 Rain 28 1012 71 10000 5.14 200 16:59 28.07.2022
2441 Rain 29 1013 68 10000 4.63 190 16:36 28.07.2022
2442 Clouds 30 1013 65 10000 4.12 160 13:35 28.07.2022
2443 Clouds 28 1013 74 10000 2.06 0 11:42 28.07.2022
2444 Rain 25 1012 85 10000 1.54 360 06:59 28.07.2022
2445 Clouds 24 1012 83 10000 1.03 0 05:33 28.07.2022
2446 Clouds 25 1012 84 10000 1.54 280 03:53 28.07.2022
2447 Clouds 26 1012 80 10000 2.57 230 23:19 27.07.2022
2448 Clouds 28 1011 72 10000 5.66 220 21:29 27.07.2022
2449 Clouds 29 1011 69 10000 7.2 210 19:46 27.07.2022
2450 Clouds 28 1011 75 10000 5.66 170 18:41 27.07.2022
2451 Clouds 28 1013 69 10000 5.14 150 16:31 27.07.2022
2452 Clouds 27 1014 71 10000 5.14 170 15:41 27.07.2022
2453 Clouds 27 1014 72 10000 4.12 150 14:41 27.07.2022
2454 Clouds 27 1014 72 10000 5.14 160 13:29 27.07.2022
2455 Clouds 25 1014 75 10000 1.54 350 09:27 27.07.2022
2456 Clouds 24 1014 76 10000 4.63 310 07:40 27.07.2022
2457 Clouds 26 1014 85 10000 3.09 190 02:52 27.07.2022
2458 Clouds 27 1014 82 10000 3.09 180 22:49 26.07.2022
2459 Clouds 27 1013 80 10000 5.14 210 21:36 26.07.2022
2460 Clouds 28 1013 78 10000 5.66 210 20:49 26.07.2022
2461 Clouds 29 1013 71 10000 5.66 200 18:47 26.07.2022
2462 Clouds 29 1013 71 10000 5.66 190 18:28 26.07.2022
2463 Clouds 29 1013 69 10000 5.66 180 17:46 26.07.2022
2464 Clouds 30 1014 67 10000 6.69 170 15:43 26.07.2022
2465 Clouds 30 1015 68 10000 6.69 170 14:38 26.07.2022
2466 Clouds 30 1015 60 10000 3.58 110 11:47 26.07.2022
2467 Clouds 27 1015 58 10000 7.2 330 09:44 26.07.2022
2468 Clouds 25 1015 63 10000 6.69 340 08:18 26.07.2022
2469 Clouds 26 1016 81 10000 1.03 0 01:52 26.07.2022
2470 Clouds 26 1016 81 10000 1.03 210 23:44 25.07.2022
2471 Clouds 27 1015 80 10000 4.12 80 22:39 25.07.2022
2472 Clouds 27 1015 77 10000 5.14 90 21:43 25.07.2022
2473 Clouds 27 1014 75 10000 5.14 90 20:43 25.07.2022
2474 Clouds 28 1014 76 10000 5.66 90 19:55 25.07.2022
2475 Clouds 28 1014 75 10000 5.66 130 19:20 25.07.2022
2476 Clouds 29 1014 73 10000 5.66 110 17:35 25.07.2022
2477 Clouds 30 1014 70 10000 6.17 110 16:40 25.07.2022
2478 Clouds 30 1016 71 10000 6.69 70 12:58 25.07.2022
2479 Clouds 29 1015 73 10000 6.17 60 10:48 25.07.2022
2480 Clear 26 1014 66 10000 3.09 320 07:32 25.07.2022
2481 Clear 28 1015 62 10000 4.12 220 00:38 25.07.2022
2482 Clear 28 1015 61 10000 4.12 230 23:45 24.07.2022
2483 Clear 29 1014 62 10000 5.14 220 22:43 24.07.2022
2484 Clear 30 1014 58 10000 5.66 220 21:41 24.07.2022
2485 Clear 31 1014 58 10000 6.17 220 20:58 24.07.2022
2486 Clear 31 1014 60 10000 6.69 220 20:37 24.07.2022
2487 Clear 32 1014 60 10000 7.2 220 19:18 24.07.2022
2488 Clear 33 1015 59 10000 6.17 210 17:56 24.07.2022
2489 Clear 32 1016 65 10000 6.17 200 15:54 24.07.2022
2490 Clear 32 1016 65 10000 6.17 180 14:41 24.07.2022
2491 Clear 32 1017 67 10000 5.66 170 13:47 24.07.2022
2492 Clear 31 1017 68 10000 3.6 160 12:28 24.07.2022
2493 Clear 31 1017 67 10000 3.09 160 11:30 24.07.2022
2494 Clear 29 1018 75 10000 2.68 314 09:47 24.07.2022
2495 Clear 25 1017 89 10000 3.09 330 07:57 24.07.2022
2496 Clouds 25 1017 89 10000 2.57 320 07:31 24.07.2022
2497 Clouds 25 1018 90 10000 1.54 280 02:57 24.07.2022
2498 Clouds 27 1018 86 10000 2.57 120 22:52 23.07.2022
2499 Clouds 29 1017 78 10000 3.6 160 20:47 23.07.2022
2500 Clouds 30 1018 74 10000 4.12 180 19:29 23.07.2022
2501 Clouds 30 1018 72 10000 4.63 150 18:36 23.07.2022
2502 Clouds 30 1018 73 10000 6.17 130 17:27 23.07.2022
2503 Clouds 30 1018 71 10000 5.14 130 16:24 23.07.2022
2504 Clouds 30 1019 71 10000 6.69 130 15:22 23.07.2022
2505 Clouds 30 1019 71 10000 6.17 120 14:52 23.07.2022
2506 Clouds 30 1019 70 10000 5.66 120 14:23 23.07.2022
2507 Clouds 29 1018 75 10000 5.66 110 11:56 23.07.2022
2508 Clouds 28 1018 77 10000 4.63 60 10:44 23.07.2022
2509 Clouds 27 1018 75 10000 3.6 50 09:44 23.07.2022
2510 Clouds 25 1017 79 10000 3.09 340 07:37 23.07.2022
2511 Clear 26 1017 72 10000 2.06 320 03:37 23.07.2022
2512 Clear 27 1017 78 10000 2.06 210 00:37 23.07.2022
2513 Clear 29 1015 69 10000 4.12 220 21:38 22.07.2022
2514 Clear 30 1015 64 10000 6.69 220 20:33 22.07.2022
2515 Clear 31 1014 60 10000 7.2 220 18:56 22.07.2022
2516 Clear 33 1014 57 10000 8.23 210 17:40 22.07.2022
2517 Clear 33 1015 53 10000 7.72 220 16:31 22.07.2022
2518 Clear 34 1016 52 10000 6.69 210 13:50 22.07.2022
2519 Clear 31 1016 59 10000 3.09 250 10:40 22.07.2022
2520 Clear 29 1016 61 10000 2.06 310 09:25 22.07.2022
2521 Clear 26 1016 69 10000 2.68 128 08:26 22.07.2022
2522 Clear 25 1016 78 10000 2.57 320 04:24 22.07.2022
2523 Clear 27 1017 76 10000 3.09 240 23:45 21.07.2022
2524 Clear 27 1017 74 10000 3.09 220 22:20 21.07.2022
2525 Clear 29 1016 64 10000 4.63 210 20:36 21.07.2022
2526 Clear 31 1017 61 10000 6.69 210 18:52 21.07.2022
2527 Clear 32 1017 58 10000 8.75 210 17:29 21.07.2022
2528 Clear 32 1017 55 10000 8.23 220 16:53 21.07.2022
2529 Clear 32 1018 58 10000 7.72 210 14:52 21.07.2022
2530 Clear 32 1018 57 10000 7.2 220 14:22 21.07.2022
2531 Clear 31 1019 58 10000 3.09 200 12:27 21.07.2022
2532 Clear 30 1019 58 10000 3.13 349 10:39 21.07.2022
2533 Clear 27 1019 68 10000 3.09 330 08:54 21.07.2022
2534 Clear 26 1019 73 10000 3.6 330 08:35 21.07.2022
2535 Clear 24 1019 79 10000 3.6 330 07:23 21.07.2022
2536 Clouds 25 1019 78 10000 2.57 330 03:55 21.07.2022
2537 Clouds 26 1019 77 10000 2.06 70 23:26 20.07.2022
2538 Clouds 26 1019 80 10000 3.6 130 22:21 20.07.2022
2539 Clouds 28 1018 76 10000 3.6 140 20:50 20.07.2022
2540 Clouds 28 1018 76 10000 5.14 120 19:49 20.07.2022
2541 Clouds 28 1018 75 10000 5.14 110 19:20 20.07.2022
2542 Clouds 29 1018 73 10000 5.14 100 18:33 20.07.2022
2543 Clouds 30 1018 70 10000 5.66 100 17:54 20.07.2022
2544 Clouds 30 1019 69 10000 6.69 130 16:19 20.07.2022
2545 Clouds 30 1019 69 10000 6.17 100 14:57 20.07.2022
2546 Clouds 30 1019 69 10000 6.17 100 13:57 20.07.2022
2547 Clouds 30 1018 69 10000 4.12 70 11:32 20.07.2022
2548 Clear 26 1016 64 10000 3.6 330 07:50 20.07.2022
2549 Clear 25 1016 74 10000 3.09 320 03:25 20.07.2022
2550 Clear 26 1016 70 10000 2.06 280 00:48 20.07.2022
2551 Clouds 27 1016 68 10000 2.06 280 23:41 19.07.2022
2552 Clear 27 1016 77 10000 0.51 350 22:31 19.07.2022
2553 Clear 28 1015 76 10000 2.06 160 21:23 19.07.2022
2554 Clear 29 1015 72 10000 4.12 130 20:27 19.07.2022
2555 Clouds 31 1015 66 10000 6.17 120 18:43 19.07.2022
2556 Clouds 31 1015 64 10000 6.69 120 17:58 19.07.2022
2557 Clear 31 1016 63 10000 6.17 110 16:37 19.07.2022
2558 Clear 31 1016 65 10000 6.17 110 14:52 19.07.2022
2559 Clouds 30 1016 69 10000 3.09 110 11:39 19.07.2022
2560 Clear 29 1016 69 7000 1.54 110 10:52 19.07.2022
2561 Mist 27 1017 80 10000 2.57 320 09:23 19.07.2022
2562 Clouds 25 1017 86 10000 2.57 320 08:38 19.07.2022
2563 Clouds 23 1017 88 10000 1.54 310 07:19 19.07.2022
2564 Clouds 24 1016 89 9000 1.54 340 05:28 19.07.2022
2565 Clouds 24 1017 89 10000 1.03 0 04:53 19.07.2022
2566 Clouds 25 1017 87 10000 1.03 100 01:19 19.07.2022
2567 Clouds 25 1017 87 10000 1.54 90 23:47 18.07.2022
2568 Clouds 25 1017 86 10000 2.06 120 23:18 18.07.2022
2569 Clouds 26 1017 83 10000 2.06 100 21:58 18.07.2022
2570 Clouds 27 1017 79 10000 3.6 130 20:51 18.07.2022
2571 Clouds 29 1017 74 10000 4.12 130 19:33 18.07.2022
2572 Clouds 30 1017 68 10000 6.17 120 17:38 18.07.2022
2573 Clear 30 1018 67 10000 5.66 120 15:55 18.07.2022
2574 Clear 31 1018 63 10000 6.17 130 14:51 18.07.2022
2575 Clear 30 1019 65 10000 4.12 100 13:23 18.07.2022
2576 Clear 30 1018 64 10000 4.12 80 11:31 18.07.2022
2577 Clouds 27 1019 72 10000 4.12 70 09:28 18.07.2022
2578 Clouds 25 1018 70 10000 2.57 330 07:43 18.07.2022
2579 Clear 26 1018 66 10000 1.54 290 02:21 18.07.2022
2580 Clear 27 1018 64 10000 2.06 290 22:51 17.07.2022
2581 Clear 28 1018 62 10000 1.03 0 22:23 17.07.2022
2582 Clear 28 1018 62 10000 1.54 70 21:24 17.07.2022
2583 Clear 29 1018 62 10000 2.57 110 20:44 17.07.2022
2584 Clouds 29 1018 56 10000 3.6 130 19:34 17.07.2022
2585 Clouds 30 1018 53 10000 4.12 80 18:56 17.07.2022
2586 Clear 31 1018 49 10000 5.66 140 17:39 17.07.2022
2587 Clear 31 1018 47 10000 6.17 130 16:51 17.07.2022
2588 Clear 31 1018 46 10000 6.69 130 16:27 17.07.2022
2589 Clear 31 1018 45 10000 6.17 120 15:27 17.07.2022
2590 Clear 32 1018 42 10000 5.14 120 13:47 17.07.2022
2591 Clear 32 1019 42 10000 3.6 120 12:32 17.07.2022
2592 Clear 30 1018 40 10000 2.24 73 09:31 17.07.2022
2593 Clear 26 1016 47 10000 4.12 350 06:58 17.07.2022
2594 Clear 27 1017 50 10000 3.13 126 02:33 17.07.2022
2595 Clear 27 1017 56 10000 2.06 280 23:22 16.07.2022
2596 Clear 28 1016 51 10000 1.54 110 21:57 16.07.2022
2597 Clear 30 1016 49 10000 3.09 80 20:28 16.07.2022
2598 Clear 31 1016 50 10000 5.14 110 18:42 16.07.2022
2599 Clear 32 1016 45 10000 5.14 100 17:24 16.07.2022
2600 Clear 32 1016 46 10000 5.66 120 15:41 16.07.2022
2601 Clear 32 1016 40 10000 3.6 130 11:55 16.07.2022
2602 Clear 31 1016 41 10000 1.34 46 09:41 16.07.2022
2603 Clear 30 1016 42 10000 2.06 340 09:22 16.07.2022
2604 Clear 29 1015 43 10000 3.09 330 08:35 16.07.2022
2605 Clear 27 1015 46 10000 5.14 330 06:47 16.07.2022
2606 Clear 28 1015 42 10000 3.09 330 03:32 16.07.2022
2607 Clear 29 1015 41 10000 2.57 300 23:54 15.07.2022
2608 Clear 30 1015 41 10000 1.03 0 22:46 15.07.2022
2609 Clear 31 1015 43 10000 1.54 200 21:55 15.07.2022
2610 Clear 32 1015 45 10000 4.63 170 20:40 15.07.2022
2611 Clear 32 1014 54 10000 6.17 220 18:55 15.07.2022
2612 Clear 33 1014 55 10000 6.17 200 18:22 15.07.2022
2613 Clear 33 1015 55 10000 6.69 110 16:46 15.07.2022
2614 Clear 33 1015 48 10000 6.69 130 13:58 15.07.2022
2615 Clear 33 1016 48 10000 4.63 220 12:28 15.07.2022
2616 Clear 32 1016 46 10000 2.06 220 10:52 15.07.2022
2617 Clear 27 1015 52 10000 4.12 290 07:48 15.07.2022
2618 Clear 26 1016 57 10000 2.57 300 03:41 15.07.2022
2619 Clear 27 1017 54 10000 3.09 250 00:40 15.07.2022
2620 Clear 28 1017 59 10000 4.12 220 23:24 14.07.2022
2621 Clear 28 1017 59 10000 3.6 220 22:24 14.07.2022
2622 Clear 29 1017 57 10000 4.63 220 21:40 14.07.2022
2623 Clear 29 1017 57 10000 5.14 210 21:21 14.07.2022
2624 Clear 30 1017 58 10000 5.14 210 20:43 14.07.2022
2625 Clear 30 1017 56 10000 4.63 210 20:18 14.07.2022
2626 Clear 31 1017 54 10000 5.14 200 18:24 14.07.2022
2627 Clear 31 1019 57 10000 5.14 210 16:19 14.07.2022
2628 Clouds 31 1019 63 10000 6.17 140 14:56 14.07.2022
2629 Clouds 31 1019 62 10000 6.17 130 13:51 14.07.2022
2630 Clear 30 1019 60 10000 4.12 180 12:36 14.07.2022
2631 Clear 30 1019 57 10000 3.09 170 11:28 14.07.2022
2632 Clear 30 1019 49 10000 2.68 352 10:52 14.07.2022
2633 Clear 27 1019 57 10000 3.09 320 08:58 14.07.2022
2634 Clear 24 1019 73 10000 2.57 320 04:45 14.07.2022
2635 Clear 25 1021 84 10000 1.54 280 01:19 14.07.2022
2636 Clear 25 1020 83 10000 2.06 290 00:51 14.07.2022
2637 Clear 27 1020 82 10000 3.09 130 22:31 13.07.2022
2638 Clear 27 1020 77 10000 4.12 120 21:47 13.07.2022
2639 Clear 29 1019 70 10000 5.14 120 20:41 13.07.2022
2640 Clear 30 1019 64 10000 5.14 160 18:40 13.07.2022
2641 Clear 31 1019 59 10000 5.66 170 17:31 13.07.2022
2642 Clear 31 1020 62 10000 6.17 130 16:19 13.07.2022
2643 Clear 30 1020 66 10000 6.17 120 14:54 13.07.2022
2644 Clear 30 1020 55 10000 5.66 130 11:56 13.07.2022
2645 Clear 30 1020 57 10000 2.06 120 10:45 13.07.2022
2646 Clear 29 1020 56 10000 2.24 272 09:56 13.07.2022
2647 Clear 28 1019 58 10000 2.06 320 09:20 13.07.2022
2648 Clear 26 1019 54 10000 2.57 310 05:29 13.07.2022
2649 Clear 26 1020 62 10000 1.54 280 01:22 13.07.2022
2650 Clear 26 1019 70 10000 1.54 280 23:35 12.07.2022
2651 Clear 27 1019 70 10000 1.54 120 21:54 12.07.2022
2652 Clear 28 1018 69 10000 3.6 120 21:18 12.07.2022
2653 Clear 28 1018 68 10000 3.09 110 20:41 12.07.2022
2654 Clear 30 1018 65 10000 5.14 120 18:56 12.07.2022
2655 Clear 31 1018 62 10000 5.66 120 17:38 12.07.2022
2656 Clear 30 1018 65 10000 6.17 120 15:42 12.07.2022
2657 Clear 30 1020 66 10000 5.66 120 14:23 12.07.2022
2658 Clear 30 1019 63 10000 4.12 70 12:19 12.07.2022
2659 Clear 29 1019 63 10000 4.12 80 11:22 12.07.2022
2660 Clear 27 1019 60 10000 1.03 0 09:28 12.07.2022
2661 Clear 26 1018 59 10000 2.57 340 08:18 12.07.2022
2662 Clear 24 1017 58 10000 3.09 320 06:24 12.07.2022
2663 Clear 24 1017 58 10000 2.57 310 05:39 12.07.2022
2664 Clear 25 1017 65 10000 3.13 247 02:21 12.07.2022
2665 Clear 25 1016 77 10000 2.06 120 23:18 11.07.2022
2666 Clouds 26 1017 76 10000 1.54 110 22:30 11.07.2022
2667 Clear 27 1016 70 10000 3.09 110 20:33 11.07.2022
2668 Clear 28 1015 66 10000 4.63 110 19:36 11.07.2022
2669 Clear 29 1015 63 10000 5.66 110 18:32 11.07.2022
2670 Clear 29 1015 57 10000 5.66 120 17:39 11.07.2022
2671 Clear 29 1016 53 10000 6.69 130 16:19 11.07.2022
2672 Clear 30 1016 48 10000 6.69 130 14:37 11.07.2022
2673 Clear 29 1016 47 10000 6.17 70 11:49 11.07.2022
2674 Clear 28 1016 52 10000 5.14 70 10:29 11.07.2022
2675 Clear 28 1016 55 10000 2.57 80 09:42 11.07.2022
2676 Clear 27 1015 55 10000 3.09 320 08:34 11.07.2022
2677 Clear 24 1014 60 10000 4.63 320 05:52 11.07.2022
2678 Clear 25 1016 72 10000 3.09 240 00:22 11.07.2022
2679 Clear 26 1016 75 10000 2.06 220 22:58 10.07.2022
2680 Clear 26 1016 73 10000 2.06 130 21:51 10.07.2022
2681 Clear 27 1016 70 10000 3.6 140 20:54 10.07.2022
2682 Clouds 28 1016 67 10000 4.63 150 19:50 10.07.2022
2683 Clouds 28 1016 67 10000 4.63 150 19:50 10.07.2022
2684 Clouds 28 1016 67 10000 4.63 150 19:50 10.07.2022
2685 Clear 29 1016 64 10000 5.66 160 18:50 10.07.2022
2686 Clear 30 1016 59 10000 5.66 210 17:40 10.07.2022
2687 Clear 30 1016 57 10000 6.69 170 16:57 10.07.2022
2688 Clear 31 1016 55 10000 6.17 210 16:19 10.07.2022
2689 Clear 31 1017 56 10000 6.17 210 14:33 10.07.2022
2690 Clear 31 1017 45 10000 4.63 100 12:30 10.07.2022
2691 Clear 31 1018 41 10000 3.09 100 11:34 10.07.2022
2692 Clear 27 1018 57 10000 3.09 340 08:46 10.07.2022
2693 Clear 26 1018 60 10000 4.63 320 08:24 10.07.2022
2694 Clear 24 1018 62 10000 1.34 262 03:38 10.07.2022
2695 Clear 25 1020 71 10000 3.09 220 23:30 09.07.2022
2696 Clear 26 1019 73 10000 2.57 210 22:25 09.07.2022
2697 Clear 26 1019 72 10000 3.09 210 21:29 09.07.2022
2698 Clear 28 1019 68 10000 5.14 110 18:59 09.07.2022
2699 Clear 28 1020 64 10000 6.17 120 17:59 09.07.2022
2700 Clear 29 1020 66 10000 6.69 110 16:59 09.07.2022
2701 Clouds 29 1020 64 10000 7.2 120 15:54 09.07.2022
2702 Clouds 29 1020 63 10000 6.69 120 15:35 09.07.2022
2703 Clouds 29 1021 63 10000 6.69 150 13:54 09.07.2022
2704 Clouds 29 1021 65 10000 7.2 140 13:28 09.07.2022
2705 Clear 29 1022 54 10000 4.12 140 11:34 09.07.2022
2706 Clear 28 1021 55 10000 1.34 153 10:24 09.07.2022
2707 Clear 24 1021 58 10000 4.12 310 08:27 09.07.2022
2708 Clear 23 1021 61 10000 3.09 340 06:59 09.07.2022
2709 Clear 24 1021 59 10000 2.06 290 04:35 09.07.2022
2710 Clear 25 1022 67 10000 4.63 250 23:27 08.07.2022
2711 Clear 26 1021 60 10000 4.63 240 21:59 08.07.2022
2712 Clear 27 1021 58 10000 5.14 240 21:20 08.07.2022
2713 Clouds 27 1021 57 10000 5.14 220 20:33 08.07.2022
2714 Clouds 28 1021 62 10000 5.14 180 18:36 08.07.2022
2715 Clouds 28 1021 62 10000 6.17 130 17:45 08.07.2022
2716 Clouds 29 1021 60 10000 6.69 130 15:53 08.07.2022
2717 Clouds 29 1021 57 10000 6.17 130 14:50 08.07.2022
2718 Clouds 28 1021 63 10000 4.63 120 12:30 08.07.2022
2719 Clouds 27 1021 64 10000 5.66 70 10:46 08.07.2022
2720 Clouds 26 1021 68 10000 4.63 50 09:42 08.07.2022
2721 Clear 22 1020 73 10000 4.63 330 06:55 08.07.2022
2722 Clear 23 1020 76 10000 3.09 310 04:32 08.07.2022
2723 Clear 25 1020 68 10000 5.14 230 00:23 08.07.2022
2724 Clear 26 1020 71 10000 5.14 220 22:47 07.07.2022
2725 Clouds 27 1019 67 10000 5.14 220 21:41 07.07.2022
2726 Clouds 29 1019 58 10000 6.17 220 19:34 07.07.2022
2727 Clouds 30 1019 54 10000 6.69 220 17:43 07.07.2022
2728 Clouds 29 1020 59 10000 7.2 200 15:58 07.07.2022
2729 Clouds 29 1020 58 10000 4.63 160 13:40 07.07.2022
2730 Clouds 29 1021 56 10000 5.14 180 12:41 07.07.2022
2731 Clouds 28 1020 58 10000 5.14 200 12:22 07.07.2022
2732 Clear 28 1020 57 10000 5.66 340 11:32 07.07.2022
2733 Clouds 26 1020 62 10000 6.17 320 10:45 07.07.2022
2734 Clouds 26 1020 62 10000 6.17 320 10:27 07.07.2022
2735 Fog 23 1020 73 10000 5.66 320 08:40 07.07.2022
2736 Clear 22 1019 76 10000 6.69 320 05:45 07.07.2022
2737 Clouds 24 1020 71 10000 3.13 118 00:18 07.07.2022
2738 Clouds 24 1019 68 10000 3.58 260 23:36 06.07.2022
2739 Clouds 24 1019 66 10000 5.66 310 23:18 06.07.2022
2740 Clouds 24 1019 66 10000 5.66 310 22:47 06.07.2022
2741 Clouds 24 1018 66 10000 5.14 310 22:47 06.07.2022
2742 Clouds 24 1018 67 10000 5.14 310 22:28 06.07.2022
2743 Clouds 26 1019 73 10000 9.26 250 20:19 06.07.2022
2744 Rain 28 1018 67 10000 8.23 230 18:48 06.07.2022
2745 Clouds 29 1018 65 10000 7.72 220 17:21 06.07.2022
2746 Rain 28 1019 66 10000 4.63 220 15:50 06.07.2022
2747 Rain 27 1019 64 10000 4.12 150 12:44 06.07.2022
2748 Clouds 26 1018 70 10000 4.12 90 11:52 06.07.2022
2749 Clouds 26 1019 69 10000 2.57 110 10:49 06.07.2022
2750 Thunderstorm 25 1019 75 9000 2.57 320 09:21 06.07.2022
2751 Rain 23 1019 82 10000 3.6 0 07:43 06.07.2022
2752 Rain 24 1021 78 10000 2.24 152 06:43 06.07.2022
2753 Clouds 25 1017 71 10000 3.6 120 23:42 05.07.2022
2754 Rain 26 1021 70 10000 6.17 230 22:42 05.07.2022
2755 Rain 27 1018 64 10000 4.63 120 20:48 05.07.2022
2756 Rain 27 1018 61 10000 3.6 150 19:55 05.07.2022
2757 Clouds 28 1018 61 10000 4.63 120 19:36 05.07.2022
2758 Clear 29 1018 60 10000 5.14 130 17:50 05.07.2022
2759 Clear 29 1018 59 10000 5.66 130 17:18 05.07.2022
2760 Clear 30 1019 56 10000 6.69 130 16:18 05.07.2022
2761 Clear 30 1018 56 10000 6.69 130 14:54 05.07.2022
2762 Clear 30 1018 56 10000 5.14 140 12:59 05.07.2022
2763 Clear 30 1018 54 10000 3.09 140 12:22 05.07.2022
2764 Clear 30 1018 54 10000 2.06 150 10:45 05.07.2022
2765 Clouds 28 1018 57 10000 2.06 330 09:44 05.07.2022
2766 Clouds 24 1018 73 10000 3.6 320 08:21 05.07.2022
2767 Rain 24 1018 70 10000 3.6 320 06:48 05.07.2022
2768 Clear 23 1018 74 10000 2.06 330 04:30 05.07.2022
2769 Clear 25 1017 72 10000 1.54 290 00:47 05.07.2022
2770 Clear 25 1016 74 10000 3.09 50 23:37 04.07.2022
2771 Clear 25 1016 76 10000 2.06 50 22:54 04.07.2022
2772 Clear 25 1015 77 10000 3.09 120 21:56 04.07.2022
2773 Clear 27 1015 72 10000 3.6 130 20:55 04.07.2022
2774 Clear 27 1015 72 10000 3.6 110 20:35 04.07.2022
2775 Clear 27 1015 68 10000 4.12 120 19:56 04.07.2022
2776 Clear 28 1015 65 10000 4.12 120 19:37 04.07.2022
2777 Clear 28 1015 58 10000 4.63 130 18:34 04.07.2022
2778 Clear 29 1016 50 10000 6.17 130 16:42 04.07.2022
2779 Clear 29 1016 55 10000 7.2 130 15:34 04.07.2022
2780 Clear 30 1017 44 10000 7.2 130 13:44 04.07.2022
2781 Clear 31 1017 39 10000 5.14 120 12:38 04.07.2022
2782 Clear 30 1015 40 10000 1.79 165 10:39 04.07.2022
2783 Clear 29 1015 43 10000 3.09 330 10:20 04.07.2022
2784 Clear 26 1015 41 10000 3.6 330 08:31 04.07.2022
2785 Clear 24 1017 53 10000 3.6 330 05:57 04.07.2022
2786 Clouds 26 1017 55 10000 1.54 90 00:44 04.07.2022
2787 Clouds 26 1017 54 10000 1.54 90 00:44 04.07.2022
2788 Rain 27 1018 46 10000 3.13 36 23:38 03.07.2022
2789 Clear 26 1017 59 10000 1.54 280 22:27 03.07.2022
2790 Clear 27 1015 58 10000 3.6 90 20:45 03.07.2022
2791 Rain 28 1015 57 10000 3.09 190 19:42 03.07.2022
2792 Clear 28 1016 56 10000 3.09 170 19:23 03.07.2022
2793 Clear 29 1017 50 10000 4.63 120 17:46 03.07.2022
2794 Clear 29 1017 51 10000 5.66 120 17:18 03.07.2022
2795 Clear 29 1018 44 10000 5.14 120 15:26 03.07.2022
2796 Clear 29 1018 44 10000 6.17 120 14:49 03.07.2022
2797 Clear 29 1018 51 10000 5.14 130 13:49 03.07.2022
2798 Clear 29 1018 60 10000 4.63 110 12:42 03.07.2022
2799 Clear 28 1018 62 10000 3.6 90 11:47 03.07.2022
2800 Clear 27 1017 65 10000 4.63 60 10:51 03.07.2022
2801 Clear 26 1017 67 10000 4.63 60 10:33 03.07.2022
2802 Clear 23 1017 65 10000 3.6 320 07:38 03.07.2022
2803 Clear 22 1017 67 10000 2.57 300 05:34 03.07.2022
2804 Clear 24 1019 69 10000 1.54 180 00:26 03.07.2022
2805 Clear 24 1018 65 10000 1.03 0 22:37 02.07.2022
2806 Clear 24 1018 65 10000 1.03 0 22:18 02.07.2022
2807 Clear 26 1018 55 10000 2.57 100 20:26 02.07.2022
2808 Clear 26 1018 54 10000 4.12 120 19:49 02.07.2022
2809 Clear 27 1019 52 10000 4.12 120 18:20 02.07.2022
2810 Clear 27 1019 54 10000 5.14 130 17:37 02.07.2022
2811 Clouds 27 1019 58 10000 5.14 120 15:46 02.07.2022
2812 Clear 27 1019 61 10000 5.14 110 12:56 02.07.2022
2813 Clear 27 1019 62 10000 4.12 100 11:48 02.07.2022
2814 Clear 26 1019 63 10000 3.6 70 10:50 02.07.2022
2815 Clear 25 1019 66 10000 1.54 30 09:49 02.07.2022
2816 Clear 23 1019 70 10000 4.12 330 08:37 02.07.2022
2817 Clear 22 1018 72 10000 4.63 330 08:19 02.07.2022
2818 Clear 21 1019 77 10000 2.06 300 02:53 02.07.2022
2819 Clear 21 1019 73 10000 1.03 290 00:28 02.07.2022
2820 Clear 22 1019 71 10000 1.54 120 23:21 01.07.2022
2821 Clear 22 1018 70 10000 2.57 110 22:29 01.07.2022
2822 Clear 23 1018 69 10000 3.6 120 21:37 01.07.2022
2823 Clouds 23 1018 68 10000 3.6 110 20:58 01.07.2022
2824 Clouds 23 1018 67 10000 4.12 130 20:32 01.07.2022
2825 Clouds 24 1018 66 10000 5.66 120 19:36 01.07.2022
2826 Clouds 25 1018 64 10000 6.69 130 16:42 01.07.2022
2827 Clouds 26 1018 64 10000 7.2 120 14:32 01.07.2022
2828 Clouds 25 1018 64 10000 6.17 120 13:39 01.07.2022
2829 Clouds 24 1017 62 10000 3.6 120 11:22 01.07.2022
2830 Clouds 24 1017 61 10000 2.24 307 10:19 01.07.2022
2831 Clouds 22 1016 66 10000 4.63 330 07:32 01.07.2022
2832 Clouds 23 1015 77 10000 1.54 110 02:43 01.07.2022
2833 Clouds 23 1015 78 10000 6.17 80 23:52 30.06.2022
2834 Clouds 23 1014 81 10000 7.2 70 22:51 30.06.2022
2835 Clouds 23 1014 81 10000 7.72 70 22:32 30.06.2022
2836 Clouds 23 1014 81 10000 7.72 70 22:32 30.06.2022
2837 Clouds 23 1014 81 10000 7.72 70 22:32 30.06.2022
2838 Clouds 23 1013 82 10000 7.72 70 22:32 30.06.2022
2839 Clouds 24 1013 82 10000 5.81 116 21:54 30.06.2022
2840 Clear 25 1012 78 10000 4.92 104 20:53 30.06.2022
2841 Clear 26 1011 73 10000 5.14 130 20:21 30.06.2022
2842 Clear 27 1011 67 10000 5.14 130 19:48 30.06.2022
2843 Clear 27 1011 61 10000 4.63 120 18:56 30.06.2022
2844 Clear 28 1011 58 10000 4.63 120 18:34 30.06.2022
2845 Clear 28 1011 57 10000 4.63 220 17:37 30.06.2022
2846 Clear 28 1011 59 10000 5.66 200 16:22 30.06.2022
2847 Clear 28 1012 61 10000 5.66 200 14:31 30.06.2022
2848 Clear 28 1012 66 10000 6.69 190 13:29 30.06.2022
2849 Clear 28 1012 65 10000 6.17 210 12:34 30.06.2022
2850 Clear 27 1011 67 10000 4.63 210 11:28 30.06.2022
2851 Clear 25 1011 70 10000 2.57 200 09:53 30.06.2022
2852 Clear 25 1011 71 10000 1.03 0 09:31 30.06.2022
2853 Clouds 22 1011 76 10000 2.06 320 07:41 30.06.2022
2854 Clouds 22 1011 81 10000 1.54 250 05:47 30.06.2022
2855 Clouds 23 1012 84 10000 2.06 240 00:31 30.06.2022
2856 Clouds 23 1012 85 10000 1.54 200 23:19 29.06.2022
2857 Clouds 24 1011 83 10000 3.09 170 22:38 29.06.2022
2858 Clouds 25 1011 77 10000 3.6 210 21:34 29.06.2022
2859 Clouds 26 1011 72 10000 4.63 210 20:33 29.06.2022
2860 Clouds 27 1011 68 10000 4.63 220 19:37 29.06.2022
2861 Clouds 28 1012 67 10000 5.66 200 17:43 29.06.2022
2862 Clouds 28 1012 67 10000 5.66 210 16:36 29.06.2022
2863 Clouds 28 1013 69 10000 5.66 220 14:56 29.06.2022
2864 Clouds 27 1015 73 10000 5.14 190 12:40 29.06.2022
2865 Clear 27 1015 67 10000 1.34 161 10:56 29.06.2022
2866 Clouds 25 1015 68 10000 2.06 320 09:32 29.06.2022
2867 Clouds 22 1015 76 10000 2.06 320 07:39 29.06.2022
2868 Clear 21 1015 75 10000 2.06 330 04:51 29.06.2022
2869 Clear 23 1016 70 10000 4.12 240 00:57 29.06.2022
2870 Clear 23 1016 70 10000 4.63 240 00:35 29.06.2022
2871 Clear 25 1015 63 10000 6.69 230 22:54 28.06.2022
2872 Clear 25 1015 63 10000 2.57 240 22:30 28.06.2022
2873 Clear 26 1014 61 10000 3.6 220 21:54 28.06.2022
2874 Clear 26 1014 63 10000 9.77 230 21:32 28.06.2022
2875 Clear 28 1013 54 10000 5.14 210 20:35 28.06.2022
2876 Clear 29 1013 51 10000 9.26 230 19:34 28.06.2022
2877 Clear 29 1013 52 10000 9.77 230 18:46 28.06.2022
2878 Clouds 29 1013 56 10000 10.29 220 17:40 28.06.2022
2879 Clouds 28 1014 58 10000 7.2 200 15:59 28.06.2022
2880 Clouds 28 1015 58 10000 7.72 210 15:38 28.06.2022
2881 Clouds 27 1015 59 10000 5.66 200 14:21 28.06.2022
2882 Clouds 27 1016 57 10000 5.66 190 13:52 28.06.2022
2883 Clouds 27 1016 58 10000 4.63 170 12:57 28.06.2022
2884 Clouds 26 1016 59 10000 3.58 164 11:18 28.06.2022
2885 Clear 23 1017 68 10000 5.66 340 09:29 28.06.2022
2886 Clouds 22 1016 68 10000 5.66 340 08:43 28.06.2022
2887 Clouds 21 1016 75 10000 4.63 340 07:42 28.06.2022
2888 Clouds 21 1016 75 10000 4.63 350 06:56 28.06.2022
2889 Clouds 22 1017 67 10000 7.2 320 00:58 28.06.2022
2890 Clouds 23 1017 69 10000 5.14 310 23:37 27.06.2022
2891 Clouds 24 1017 71 10000 3.6 330 22:52 27.06.2022
2892 Clouds 24 1016 72 10000 4.12 280 21:38 27.06.2022
2893 Clouds 24 1016 72 10000 4.12 260 20:52 27.06.2022
2894 Clouds 26 1015 65 10000 6.17 230 19:33 27.06.2022
2895 Clouds 27 1014 58 10000 4.12 200 18:25 27.06.2022
2896 Clouds 27 1015 60 10000 4.63 140 16:27 27.06.2022
2897 Clouds 27 1014 65 10000 5.66 120 15:23 27.06.2022
2898 Clouds 26 1015 72 10000 3.6 140 13:37 27.06.2022
2899 Clouds 26 1015 73 10000 3.6 150 12:56 27.06.2022
2900 Clouds 25 1014 75 10000 3.09 160 10:35 27.06.2022
2901 Clouds 25 1013 79 10000 2.24 313 09:21 27.06.2022
2902 Clouds 24 1012 82 10000 1.03 0 08:30 27.06.2022
2903 Clouds 22 1011 87 10000 2.57 100 06:39 27.06.2022
2904 Clouds 23 1011 88 10000 1.79 253 03:58 27.06.2022
2905 Clouds 23 1012 89 10000 2.57 90 01:18 27.06.2022
2906 Clouds 24 1010 87 10000 3.09 130 22:22 26.06.2022
2907 Clouds 25 1009 83 10000 3.6 130 20:48 26.06.2022
2908 Clouds 26 1009 80 10000 4.12 120 19:44 26.06.2022
2909 Clouds 26 1009 77 10000 4.63 120 18:32 26.06.2022
2910 Clouds 27 1009 74 10000 4.63 120 17:22 26.06.2022
2911 Clouds 26 1010 75 10000 5.66 100 15:27 26.06.2022
2912 Clouds 27 1011 75 10000 7.2 100 13:53 26.06.2022
2913 Clouds 26 1011 76 10000 7.2 90 13:20 26.06.2022
2914 Clouds 26 1011 77 10000 7.2 80 11:27 26.06.2022
2915 Clouds 25 1011 79 10000 6.69 90 10:28 26.06.2022
2916 Clouds 25 1010 80 10000 7.72 60 09:39 26.06.2022
2917 Clouds 22 1010 83 10000 4.12 50 07:45 26.06.2022
2918 Clouds 23 1010 86 10000 2.06 30 02:52 26.06.2022
2919 Clouds 23 1011 86 10000 0.51 150 00:36 26.06.2022
2920 Clouds 23 1011 86 10000 0.51 150 00:18 26.06.2022
2921 Clouds 24 1011 85 10000 1.54 170 23:24 25.06.2022
2922 Clouds 24 1010 84 10000 3.09 130 22:27 25.06.2022
2923 Clear 25 1010 78 10000 2.57 120 21:50 25.06.2022
2924 Clear 26 1009 75 10000 3.09 130 21:20 25.06.2022
2925 Clear 26 1009 74 10000 3.09 120 20:30 25.06.2022
2926 Clear 27 1010 71 10000 3.6 130 19:55 25.06.2022
2927 Clouds 27 1010 73 10000 6.17 120 18:21 25.06.2022
2928 Clouds 28 1010 70 10000 5.66 110 17:25 25.06.2022
2929 Clouds 28 1010 66 10000 6.69 120 16:24 25.06.2022
2930 Clouds 27 1012 66 10000 6.17 100 13:51 25.06.2022
2931 Clouds 27 1012 66 10000 4.12 100 12:39 25.06.2022
2932 Clouds 26 1012 71 10000 3.6 90 11:34 25.06.2022
2933 Clouds 24 1012 73 10000 2.57 320 09:22 25.06.2022
2934 Clouds 23 1012 75 10000 2.57 320 08:46 25.06.2022
2935 Clouds 23 1012 77 10000 3.09 330 08:19 25.06.2022
2936 Clouds 21 1013 85 10000 2.06 60 05:26 25.06.2022
2937 Clouds 22 1014 82 10000 5.14 50 00:44 25.06.2022
2938 Clouds 22 1014 82 10000 5.14 50 00:44 25.06.2022
2939 Clouds 23 1014 84 10000 5.66 60 23:18 24.06.2022
2940 Clouds 23 1013 83 10000 5.66 60 21:59 24.06.2022
2941 Clouds 24 1013 80 10000 7.2 60 21:21 24.06.2022
2942 Clouds 25 1012 71 10000 7.72 80 20:22 24.06.2022
2943 Clouds 27 1012 58 10000 5.14 90 19:23 24.06.2022
2944 Clouds 27 1012 64 10000 6.17 100 18:50 24.06.2022
2945 Clouds 28 1012 63 10000 6.69 200 18:30 24.06.2022
2946 Clouds 30 1011 44 10000 8.23 220 17:46 24.06.2022
2947 Clouds 30 1012 44 10000 9.26 220 16:32 24.06.2022
2948 Clouds 30 1012 44 10000 8.75 210 14:29 24.06.2022
2949 Clouds 30 1012 45 10000 7.72 210 13:55 24.06.2022
2950 Clouds 30 1011 40 10000 5.66 200 12:26 24.06.2022
2951 Clouds 29 1012 42 10000 4.12 280 11:40 24.06.2022
2952 Clouds 27 1012 53 10000 3.09 330 10:22 24.06.2022
2953 Clouds 25 1012 59 10000 4.63 310 09:41 24.06.2022
2954 Clouds 24 1012 66 10000 3.09 320 08:52 24.06.2022
2955 Clouds 21 1012 79 10000 3.09 320 07:20 24.06.2022
2956 Clouds 21 1012 81 10000 2.57 320 06:42 24.06.2022
2957 Clouds 21 1011 79 10000 2.06 280 06:18 24.06.2022
2958 Clear 23 1011 78 10000 2.06 310 02:44 24.06.2022
2959 Clouds 25 1011 62 10000 4.12 220 22:58 23.06.2022
2960 Clear 26 1011 59 10000 6.17 220 22:40 23.06.2022
2961 Clear 27 1011 59 10000 6.69 230 20:57 23.06.2022
2962 Clear 27 1011 58 10000 7.2 230 20:32 23.06.2022
2963 Clouds 28 1010 64 10000 8.23 220 19:25 23.06.2022
2964 Clouds 28 1011 66 10000 7.72 220 17:52 23.06.2022
2965 Clouds 28 1011 64 10000 6.17 210 16:58 23.06.2022
2966 Clouds 28 1011 65 10000 5.66 120 15:50 23.06.2022
2967 Clouds 28 1011 64 10000 5.14 190 15:24 23.06.2022
2968 Clouds 28 1012 67 10000 5.14 200 13:33 23.06.2022
2969 Clouds 26 1011 71 10000 6.17 200 11:27 23.06.2022
2970 Clouds 26 1011 73 10000 4.47 2 10:35 23.06.2022
2971 Clouds 24 1011 80 10000 4.63 220 08:53 23.06.2022
2972 Clouds 23 1011 89 9000 3.09 200 03:35 23.06.2022
2973 Clear 24 1011 86 10000 2.57 210 00:26 23.06.2022
2974 Clouds 24 1011 87 10000 3.09 210 23:30 22.06.2022
2975 Clouds 25 1010 86 10000 3.09 200 22:39 22.06.2022
2976 Clouds 26 1009 81 10000 4.12 210 21:22 22.06.2022
2977 Clouds 27 1009 76 10000 4.63 220 20:42 22.06.2022
2978 Clouds 27 1009 77 10000 5.66 180 19:56 22.06.2022
2979 Clouds 28 1009 76 10000 6.17 210 18:47 22.06.2022
2980 Clouds 27 1009 80 10000 3.6 170 17:28 22.06.2022
2981 Clouds 27 1010 79 10000 5.14 100 16:29 22.06.2022
2982 Clouds 26 1010 78 10000 5.66 90 15:26 22.06.2022
2983 Clouds 27 1010 77 9000 6.69 70 14:20 22.06.2022
2984 Clouds 27 1010 76 9000 6.17 70 13:39 22.06.2022
2985 Clouds 26 1010 77 9000 6.17 70 13:21 22.06.2022
2986 Clouds 25 1010 82 9000 4.12 70 11:49 22.06.2022
2987 Clouds 24 1010 83 9000 2.06 20 10:55 22.06.2022
2988 Clouds 23 1010 85 9000 1.54 330 10:19 22.06.2022
2989 Clear 23 1010 82 10000 3.6 340 08:28 22.06.2022
2990 Clouds 21 1008 88 10000 4.63 330 04:50 22.06.2022
2991 Rain 22 1013 88 8000 8.75 320 01:23 22.06.2022
2992 Rain 24 1011 78 10000 7.72 320 00:29 22.06.2022
2993 Rain 26 1010 80 10000 1.03 0 22:19 21.06.2022
2994 Clouds 27 1010 75 10000 1.54 240 19:56 21.06.2022
2995 Clouds 27 1010 75 10000 5.14 170 18:36 21.06.2022
2996 Clouds 28 1010 73 10000 4.02 3 17:39 21.06.2022
2997 Clouds 29 1009 67 10000 4.12 60 14:22 21.06.2022
2998 Rain 26 1011 77 10000 3.13 246 11:49 21.06.2022
2999 Rain 26 1011 77 10000 1.54 160 10:19 21.06.2022
3000 Clouds 26 1010 73 10000 3.09 220 08:48 21.06.2022
3001 Clouds 24 1010 78 10000 1.03 280 07:23 21.06.2022
3002 Clouds 24 1011 83 10000 2.57 270 02:27 21.06.2022
3003 Clouds 25 1011 84 10000 0.51 30 23:26 20.06.2022
3004 Clouds 26 1010 81 10000 2.57 110 21:58 20.06.2022
3005 Clouds 26 1010 81 10000 2.57 110 21:30 20.06.2022
3006 Clouds 27 1011 79 10000 4.12 120 19:49 20.06.2022
3007 Clouds 27 1011 78 10000 4.63 130 18:53 20.06.2022
3008 Clouds 28 1011 78 10000 4.63 130 18:23 20.06.2022
3009 Clouds 28 1011 75 10000 4.63 120 17:40 20.06.2022
3010 Clouds 28 1011 73 10000 5.14 130 16:20 20.06.2022
3011 Clouds 28 1011 76 10000 5.14 140 14:18 20.06.2022
3012 Clouds 28 1011 69 10000 3.6 120 11:30 20.06.2022
3013 Clear 26 1011 70 10000 2.57 50 09:48 20.06.2022
3014 Clouds 25 1010 75 10000 1.54 350 08:45 20.06.2022
3015 Clouds 23 1010 83 10000 2.06 330 06:59 20.06.2022
3016 Clear 24 1010 82 10000 3.09 10 03:29 20.06.2022
3017 Clear 25 1011 80 10000 5.14 40 00:52 20.06.2022
3018 Clear 25 1011 78 10000 5.14 50 23:29 19.06.2022
3019 Clear 25 1010 78 10000 7.2 50 22:19 19.06.2022
3020 Clouds 26 1010 77 10000 7.2 50 21:42 19.06.2022
3021 Clouds 26 1010 76 10000 7.2 60 20:48 19.06.2022
3022 Clear 27 1010 75 10000 7.72 60 19:49 19.06.2022
3023 Clear 27 1010 74 10000 7.2 70 19:24 19.06.2022
3024 Clouds 28 1011 74 10000 7.2 60 18:31 19.06.2022
3025 Clouds 28 1011 75 10000 7.2 70 17:39 19.06.2022
3026 Clouds 28 1011 75 10000 7.2 70 16:47 19.06.2022
3027 Clouds 28 1012 77 10000 6.69 130 16:23 19.06.2022
3028 Clouds 28 1012 75 10000 6.17 100 15:29 19.06.2022
3029 Clouds 28 1012 75 10000 6.69 140 14:41 19.06.2022
3030 Clouds 28 1012 78 10000 7.2 130 13:44 19.06.2022
3031 Clear 29 1012 71 10000 6.17 70 12:19 19.06.2022
3032 Clear 28 1012 71 10000 6.69 70 10:52 19.06.2022
3033 Clouds 25 1012 79 10000 5.14 50 08:55 19.06.2022
3034 Clouds 25 1012 83 10000 3.09 30 08:32 19.06.2022
3035 Clouds 23 1012 86 10000 5.14 50 07:26 19.06.2022
3036 Clouds 23 1012 86 10000 3.09 40 03:57 19.06.2022
3037 Clouds 24 1014 89 10000 4.12 50 00:51 19.06.2022
3038 Clouds 24 1014 89 10000 3.6 70 00:22 19.06.2022
3039 Clouds 24 1014 88 10000 4.12 60 23:35 18.06.2022
3040 Clouds 24 1014 87 10000 4.63 70 22:30 18.06.2022
3041 Clouds 26 1014 80 10000 4.12 70 20:51 18.06.2022
3042 Clouds 27 1014 75 10000 5.14 70 20:18 18.06.2022
3043 Clouds 29 1014 69 10000 5.14 120 18:57 18.06.2022
3044 Clouds 29 1014 69 10000 5.14 120 18:57 18.06.2022
3045 Clouds 29 1015 69 10000 4.63 120 18:38 18.06.2022
3046 Clouds 30 1015 63 10000 5.66 100 17:29 18.06.2022
3047 Clear 30 1016 60 10000 5.66 140 16:18 18.06.2022
3048 Clear 31 1016 51 10000 5.66 130 14:58 18.06.2022
3049 Clear 31 1016 49 10000 6.69 120 14:37 18.06.2022
3050 Clear 31 1017 50 10000 4.12 70 12:31 18.06.2022
3051 Clear 31 1017 53 10000 3.09 80 11:29 18.06.2022
3052 Clear 29 1017 54 10000 3.6 70 10:23 18.06.2022
3053 Clear 28 1017 60 10000 4.12 60 09:19 18.06.2022
3054 Clear 27 1017 58 10000 5.14 320 07:58 18.06.2022
3055 Clear 26 1016 55 10000 4.12 330 06:24 18.06.2022
3056 Clear 28 1017 43 10000 4.63 320 02:53 18.06.2022
3057 Clear 28 1018 44 10000 2.57 310 01:23 18.06.2022
3058 Clear 28 1018 44 10000 2.06 300 00:39 18.06.2022
3059 Clear 28 1018 45 10000 2.57 290 23:42 17.06.2022
3060 Clear 29 1018 44 10000 1.54 280 22:49 17.06.2022
3061 Clear 31 1017 39 10000 3.09 240 20:33 17.06.2022
3062 Clear 32 1017 40 10000 3.6 110 19:24 17.06.2022
3063 Clear 32 1018 41 10000 4.63 120 18:19 17.06.2022
3064 Clear 32 1018 41 10000 5.14 120 17:21 17.06.2022
3065 Clear 33 1018 40 10000 5.66 140 16:37 17.06.2022
3066 Clear 33 1019 41 10000 6.17 130 15:41 17.06.2022
3067 Clear 33 1018 39 10000 6.17 130 14:37 17.06.2022
3068 Clear 33 1019 39 10000 6.17 130 14:18 17.06.2022
3069 Clear 33 1019 38 10000 6.17 120 13:41 17.06.2022
3070 Clear 33 1019 39 10000 3.09 170 12:42 17.06.2022
3071 Clear 33 1018 40 10000 3.09 160 11:56 17.06.2022
3072 Clear 33 1019 40 10000 1.54 140 11:34 17.06.2022
3073 Clear 31 1018 42 10000 0.89 53 09:49 17.06.2022
3074 Clear 28 1018 46 10000 2.57 330 08:27 17.06.2022
3075 Clear 27 1017 39 10000 6.17 330 06:51 17.06.2022
3076 Clear 27 1017 37 10000 3.6 290 04:49 17.06.2022
3077 Clear 28 1018 37 10000 3.58 121 01:57 17.06.2022
3078 Clear 29 1018 38 10000 2.24 249 00:26 17.06.2022
3079 Clear 28 1018 52 10000 1.54 300 22:43 16.06.2022
3080 Clear 31 1019 47 10000 1.03 0 21:23 16.06.2022
3081 Clear 31 1019 45 10000 1.54 120 20:56 16.06.2022
3082 Clear 32 1019 47 10000 2.57 200 20:36 16.06.2022
3083 Clear 31 1018 50 10000 2.57 200 20:36 16.06.2022
3084 Clear 32 1019 43 10000 2.57 120 19:53 16.06.2022
3085 Clear 33 1019 41 10000 4.12 100 18:27 16.06.2022
3086 Clear 33 1018 43 10000 4.63 100 17:43 16.06.2022
3087 Clear 33 1019 43 10000 4.63 140 16:39 16.06.2022
3088 Clear 33 1019 45 10000 4.63 120 15:24 16.06.2022
3089 Clear 33 1019 44 10000 4.63 130 14:46 16.06.2022
3090 Clear 33 1017 41 10000 5.66 120 13:32 16.06.2022
3091 Clear 34 1017 35 10000 2.06 170 12:36 16.06.2022
3092 Clear 32 1017 43 10000 5.14 220 11:52 16.06.2022
3093 Clear 31 1017 45 10000 2.57 230 10:56 16.06.2022
3094 Clear 30 1017 48 10000 2.57 240 10:27 16.06.2022
3095 Clear 27 1018 54 10000 3.09 300 09:21 16.06.2022
3096 Clear 26 1017 59 10000 4.12 310 08:30 16.06.2022
3097 Clear 25 1017 61 10000 3.09 300 07:26 16.06.2022
3098 Clouds 24 1017 69 10000 5.36 120 05:29 16.06.2022
3099 Clouds 24 1017 77 10000 1.79 308 02:50 16.06.2022
3100 Clouds 24 1017 79 10000 0.51 0 01:50 16.06.2022
3101 Clouds 25 1018 75 10000 1.03 260 01:21 16.06.2022
3102 Clear 25 1018 76 10000 2.06 330 23:47 15.06.2022
3103 Clouds 26 1016 73 10000 2.57 120 22:42 15.06.2022
3104 Clear 27 1017 71 10000 1.54 130 21:23 15.06.2022
3105 Clear 27 1017 70 10000 3.09 70 20:45 15.06.2022
3106 Clear 28 1018 69 10000 3.09 70 20:27 15.06.2022
3107 Clear 28 1016 68 10000 4.12 80 19:30 15.06.2022
3108 Clear 30 1017 62 10000 5.66 130 17:58 15.06.2022
3109 Clear 30 1016 59 10000 4.12 100 17:33 15.06.2022
3110 Clear 30 1016 57 10000 5.14 110 15:46 15.06.2022
3111 Clear 31 1017 55 10000 5.66 100 14:26 15.06.2022
3112 Clear 32 1016 55 10000 5.66 190 12:54 15.06.2022
3113 Clear 31 1016 56 10000 5.66 200 12:32 15.06.2022
3114 Clear 30 1015 41 10000 3.09 200 10:28 15.06.2022
3115 Clouds 30 1015 41 10000 3.09 240 09:53 15.06.2022
3116 Clouds 27 1014 46 10000 4.63 270 08:50 15.06.2022
3117 Clear 26 1014 48 10000 4.02 125 06:42 15.06.2022
3118 Clear 27 1015 41 10000 2.06 340 04:51 15.06.2022
3119 Clear 27 1016 40 10000 3.6 290 02:28 15.06.2022
3120 Rain 27 1016 41 10000 2.06 260 00:54 15.06.2022
3121 Clouds 27 1015 40 10000 2.57 300 23:55 14.06.2022
3122 Clear 27 1015 37 10000 3.13 298 23:37 14.06.2022
3123 Clouds 26 1015 46 10000 1.03 0 22:28 14.06.2022
3124 Clouds 27 1015 48 10000 2.06 210 21:41 14.06.2022
3125 Clouds 28 1014 43 10000 2.06 250 20:57 14.06.2022
3126 Clouds 28 1014 42 10000 1.54 210 20:32 14.06.2022
3127 Clouds 28 1015 47 10000 2.06 100 19:25 14.06.2022
3128 Rain 28 1015 53 10000 3.6 160 18:25 14.06.2022
3129 Clear 29 1015 44 10000 4.63 120 16:49 14.06.2022
3130 Clouds 29 1016 48 10000 5.66 130 15:50 14.06.2022
3131 Clouds 29 1015 46 10000 5.14 130 15:31 14.06.2022
3132 Clear 30 1015 41 10000 5.66 130 14:46 14.06.2022
3133 Clear 29 1016 44 10000 5.14 90 13:46 14.06.2022
3134 Clear 29 1016 47 10000 5.14 110 12:55 14.06.2022
3135 Clear 28 1016 51 10000 4.63 80 11:52 14.06.2022
3136 Clear 28 1016 49 10000 4.12 70 10:49 14.06.2022
3137 Clear 28 1016 48 10000 3.6 100 10:25 14.06.2022
3138 Clear 26 1016 48 10000 0 0 08:52 14.06.2022
3139 Clear 25 1015 51 10000 4.12 320 07:58 14.06.2022
3140 Clear 23 1015 49 10000 3.6 310 06:19 14.06.2022
3141 Clear 24 1016 52 10000 2.57 310 03:36 14.06.2022
3142 Clear 24 1016 51 10000 3.09 290 01:36 14.06.2022
3143 Clear 25 1016 50 10000 1.54 160 23:53 13.06.2022
3144 Clear 27 1016 42 10000 2.06 250 22:27 13.06.2022
3145 Clear 28 1016 39 10000 2.06 200 21:59 13.06.2022
3146 Clear 29 1016 38 10000 3.6 180 21:24 13.06.2022
3147 Clear 30 1016 36 10000 3.6 170 19:48 13.06.2022
3148 Clear 31 1016 36 10000 4.12 210 18:52 13.06.2022
3149 Clear 31 1016 38 10000 5.66 230 17:52 13.06.2022
3150 Clear 31 1016 37 10000 6.69 230 17:21 13.06.2022
3151 Clear 32 1018 40 10000 7.72 210 16:30 13.06.2022
3152 Clear 31 1017 38 10000 4.63 110 14:48 13.06.2022
3153 Clear 31 1018 39 10000 4.63 130 14:23 13.06.2022
3154 Clouds 30 1018 47 10000 5.14 160 13:28 13.06.2022
3155 Clear 30 1019 45 10000 3.6 160 12:22 13.06.2022
3156 Clouds 28 1019 49 10000 3.6 80 10:36 13.06.2022
3157 Clear 27 1019 53 10000 1.54 330 09:43 13.06.2022
3158 Clouds 25 1018 58 10000 0 0 08:34 13.06.2022
3159 Clouds 23 1017 67 10000 1.54 280 06:36 13.06.2022
3160 Clouds 24 1017 62 10000 1.54 240 04:43 13.06.2022
3161 Clouds 25 1018 55 10000 3.6 220 01:45 13.06.2022
3162 Clear 26 1018 50 10000 0.45 323 01:18 13.06.2022
3163 Clear 26 1018 50 10000 3.09 270 23:43 12.06.2022
3164 Clear 27 1019 56 10000 3.6 250 22:36 12.06.2022
3165 Clear 27 1019 57 10000 2.06 270 21:46 12.06.2022
3166 Clear 28 1018 58 10000 2.57 140 20:53 12.06.2022
3167 Clear 29 1018 52 10000 3.09 260 19:58 12.06.2022
3168 Clear 30 1019 46 10000 3.09 180 18:54 12.06.2022
3169 Clear 30 1020 54 10000 6.17 210 17:36 12.06.2022
3170 Clear 31 1020 52 10000 5.66 210 15:52 12.06.2022
3171 Clear 32 1021 51 10000 6.17 130 14:50 12.06.2022
3172 Clear 32 1021 48 10000 6.69 120 14:18 12.06.2022
3173 Clear 31 1020 53 10000 6.17 120 13:45 12.06.2022
3174 Clear 31 1021 50 10000 5.66 220 12:31 12.06.2022
3175 Clear 29 1020 53 10000 2.68 336 11:19 12.06.2022
3176 Clear 29 1020 51 10000 3.6 220 10:20 12.06.2022
3177 Clear 27 1019 56 10000 4.63 320 08:51 12.06.2022
3178 Clear 25 1020 59 10000 5.14 310 08:29 12.06.2022
3179 Clear 23 1019 61 10000 2.57 340 06:49 12.06.2022
3180 Clear 23 1019 61 10000 2.57 340 06:49 12.06.2022
3181 Clear 24 1019 61 10000 3.09 310 04:26 12.06.2022
3182 Clear 24 1019 67 10000 4.63 240 02:32 12.06.2022
3183 Clear 24 1020 66 10000 1.54 210 01:36 12.06.2022
3184 Clear 25 1020 64 10000 2.57 210 00:57 12.06.2022
3185 Clear 25 1021 63 10000 3.09 250 00:19 12.06.2022
3186 Clear 25 1020 65 10000 2.57 210 00:19 12.06.2022
3187 Clouds 24 1021 72 10000 3.6 220 23:21 11.06.2022
3188 Clouds 25 1021 71 10000 4.63 230 22:37 11.06.2022
3189 Clear 25 1020 73 10000 4.12 210 21:31 11.06.2022
3190 Clear 26 1020 72 10000 5.66 210 20:27 11.06.2022
3191 Clear 27 1020 68 10000 6.69 210 19:36 11.06.2022
3192 Clear 28 1019 60 10000 6.17 210 18:45 11.06.2022
3193 Clear 28 1019 58 10000 5.66 210 18:27 11.06.2022
3194 Clear 29 1019 55 10000 6.17 110 17:48 11.06.2022
3195 Clear 29 1019 52 10000 6.17 110 17:26 11.06.2022
3196 Clear 29 1019 52 10000 7.2 110 16:44 11.06.2022
3197 Clear 30 1019 47 10000 6.17 120 16:25 11.06.2022
3198 Clear 30 1019 48 10000 6.17 210 15:18 11.06.2022
3199 Clear 29 1020 51 10000 5.66 110 13:52 11.06.2022
3200 Clear 29 1021 47 10000 4.63 120 12:19 11.06.2022
3201 Clear 27 1020 54 10000 1.54 130 10:32 11.06.2022
3202 Clouds 26 1020 60 10000 2.57 300 09:41 11.06.2022
3203 Clouds 25 1020 62 10000 3.6 310 08:45 11.06.2022
3204 Clouds 21 1019 74 10000 3.6 330 06:34 11.06.2022
3205 Clouds 22 1019 74 10000 3.09 330 05:53 11.06.2022
3206 Clear 22 1019 76 10000 1.54 270 03:31 11.06.2022
3207 Clear 23 1019 78 10000 2.24 302 01:51 11.06.2022
3208 Clear 23 1019 77 10000 2.06 300 01:25 11.06.2022
3209 Clouds 24 1019 76 10000 6.69 250 23:27 10.06.2022
3210 Clouds 24 1018 75 10000 7.72 230 22:27 10.06.2022
3211 Clouds 25 1018 74 10000 7.72 220 21:46 10.06.2022
3212 Clouds 26 1018 74 10000 8.23 220 20:39 10.06.2022
3213 Clouds 26 1018 73 10000 8.23 220 20:20 10.06.2022
3214 Clouds 27 1017 72 10000 9.26 220 19:19 10.06.2022
3215 Clouds 27 1017 72 10000 8.75 220 18:44 10.06.2022
3216 Clouds 27 1018 69 10000 8.23 210 17:54 10.06.2022
3217 Clouds 27 1018 70 10000 7.72 210 17:22 10.06.2022
3218 Clouds 27 1018 71 10000 7.72 210 16:28 10.06.2022
3219 Clouds 27 1018 71 10000 6.17 190 15:40 10.06.2022
3220 Clouds 27 1019 72 10000 5.14 100 14:28 10.06.2022
3221 Clouds 26 1020 73 10000 4.12 180 13:19 10.06.2022
3222 Clouds 25 1020 73 10000 3.09 130 11:59 10.06.2022
3223 Clouds 24 1020 73 10000 3.09 120 10:51 10.06.2022
3224 Clouds 24 1020 74 10000 3.6 120 10:24 10.06.2022
3225 Clouds 22 1019 80 10000 2.57 330 08:58 10.06.2022
3226 Clouds 20 1019 86 10000 1.34 264 07:50 10.06.2022
3227 Clouds 19 1019 88 10000 1.03 0 06:47 10.06.2022
3228 Clouds 19 1019 87 10000 1.03 0 06:28 10.06.2022
3229 Clouds 19 1018 85 10000 1.54 290 04:53 10.06.2022
3230 Clouds 20 1019 83 10000 3.6 260 01:59 10.06.2022
3231 Clouds 20 1019 83 10000 5.14 260 01:36 10.06.2022
3232 Clouds 20 1019 83 10000 5.14 260 01:36 10.06.2022
3233 Clouds 21 1019 82 10000 2.57 220 23:58 09.06.2022
3234 Clouds 21 1018 79 10000 2.57 190 22:30 09.06.2022
3235 Clouds 22 1018 78 10000 2.57 180 21:43 09.06.2022
3236 Clouds 22 1018 77 10000 3.09 150 21:24 09.06.2022
3237 Clouds 23 1017 75 10000 4.12 140 20:38 09.06.2022
3238 Clouds 23 1017 74 10000 4.12 160 19:43 09.06.2022
3239 Clouds 23 1017 72 10000 4.63 120 18:37 09.06.2022
3240 Clouds 24 1017 72 10000 5.14 130 17:31 09.06.2022
3241 Clouds 23 1017 72 10000 5.66 130 16:28 09.06.2022
3242 Clouds 24 1017 73 10000 6.17 130 14:52 09.06.2022
3243 Clouds 24 1017 73 10000 6.17 130 14:27 09.06.2022
3244 Clouds 23 1017 74 10000 6.69 120 13:30 09.06.2022
3245 Clouds 23 1017 74 10000 6.69 120 13:30 09.06.2022
3246 Clouds 24 1017 74 10000 7.72 120 12:55 09.06.2022
3247 Clouds 24 1016 71 10000 5.14 90 11:33 09.06.2022
3248 Clouds 24 1016 64 10000 3.58 263 09:55 09.06.2022
3249 Clouds 24 1016 64 10000 3.58 263 09:55 09.06.2022
3250 Clouds 24 1016 64 10000 4.12 330 09:37 09.06.2022
3251 Clouds 22 1016 71 10000 2.06 330 08:38 09.06.2022
3252 Clouds 20 1015 82 10000 1.54 340 07:29 09.06.2022
3253 Clouds 21 1015 79 10000 1.54 310 03:31 09.06.2022
3254 Clouds 21 1015 77 10000 2.06 280 00:34 09.06.2022
3255 Clouds 22 1015 74 10000 2.06 50 23:18 08.06.2022
3256 Clouds 22 1015 73 10000 2.06 50 22:43 08.06.2022
3257 Clouds 22 1015 72 10000 2.57 60 22:23 08.06.2022
3258 Clouds 22 1014 69 10000 5.14 60 21:33 08.06.2022
3259 Clouds 23 1014 65 10000 5.14 70 20:25 08.06.2022
3260 Clouds 23 1013 67 10000 4.63 100 19:42 08.06.2022
3261 Clouds 24 1013 73 10000 4.63 120 18:48 08.06.2022
3262 Clouds 24 1012 76 10000 4.63 120 17:41 08.06.2022
3263 Clouds 26 1012 75 10000 5.66 110 15:56 08.06.2022
3264 Clouds 26 1012 72 10000 6.17 200 14:44 08.06.2022
3265 Clouds 26 1011 69 10000 5.66 190 12:55 08.06.2022
3266 Clouds 26 1011 69 10000 5.66 190 12:55 08.06.2022
3267 Clouds 26 1011 69 10000 5.66 190 12:55 08.06.2022
3268 Clouds 26 1011 69 10000 5.66 190 12:55 08.06.2022
3269 Clouds 25 1012 72 10000 4.12 190 11:41 08.06.2022
3270 Clouds 25 1012 72 10000 4.12 190 11:19 08.06.2022
3271 Clear 23 1013 74 10000 0.51 280 09:30 08.06.2022
3272 Clouds 23 1013 76 10000 2.06 330 08:55 08.06.2022
3273 Clouds 21 1013 79 10000 3.09 330 07:21 08.06.2022
3274 Clouds 21 1013 80 10000 2.06 330 07:21 08.06.2022
3275 Clouds 21 1014 81 10000 1.54 320 04:49 08.06.2022
3276 Clouds 21 1015 81 10000 1.03 270 01:27 08.06.2022
3277 Clouds 22 1016 80 10000 2.57 100 23:33 07.06.2022
3278 Clouds 22 1016 81 10000 2.57 90 22:58 07.06.2022
3279 Clouds 22 1016 80 10000 3.09 110 22:37 07.06.2022
3280 Clouds 23 1016 78 10000 4.63 140 21:41 07.06.2022
3281 Clouds 23 1016 77 10000 4.63 140 21:20 07.06.2022
3282 Clouds 23 1016 76 10000 4.63 190 20:42 07.06.2022
3283 Clouds 24 1016 74 10000 5.14 170 19:57 07.06.2022
3284 Clouds 25 1016 71 10000 6.17 180 18:38 07.06.2022
3285 Clouds 26 1016 70 10000 6.17 160 17:36 07.06.2022
3286 Clouds 27 1016 70 10000 7.2 160 16:47 07.06.2022
3287 Clouds 26 1016 69 10000 7.2 160 16:28 07.06.2022
3288 Clouds 27 1017 66 10000 6.69 160 15:37 07.06.2022
3289 Clouds 27 1017 66 10000 7.2 160 15:18 07.06.2022
3290 Clouds 27 1017 64 10000 7.2 160 14:43 07.06.2022
3291 Clouds 27 1018 62 10000 6.17 150 13:38 07.06.2022
3292 Clouds 27 1017 63 10000 4.12 200 13:20 07.06.2022
3293 Clouds 28 1018 57 10000 3.58 43 11:56 07.06.2022
3294 Clouds 26 1018 65 10000 2.57 210 10:53 07.06.2022
3295 Clear 24 1018 71 10000 1.03 300 09:26 07.06.2022
3296 Clear 23 1017 71 10000 2.57 320 08:22 07.06.2022
3297 Clouds 21 1017 77 10000 1.03 290 06:42 07.06.2022
3298 Clouds 21 1017 75 10000 0.89 360 04:52 07.06.2022
3299 Clouds 23 1017 70 10000 1.03 0 01:28 07.06.2022
3300 Clouds 23 1017 69 10000 5.14 230 23:59 06.06.2022
3301 Clouds 24 1016 66 10000 7.2 230 22:56 06.06.2022
3302 Clouds 24 1016 66 10000 6.69 240 22:30 06.06.2022
3303 Clear 25 1015 68 10000 6.69 230 21:28 06.06.2022
3304 Clear 26 1016 68 10000 5.14 210 19:29 06.06.2022
3305 Clear 26 1016 67 10000 5.66 200 18:59 06.06.2022
3306 Clear 26 1016 65 10000 5.14 210 18:32 06.06.2022
3307 Clear 26 1017 62 10000 6.17 220 17:27 06.06.2022
3308 Clouds 27 1017 66 10000 6.17 210 16:21 06.06.2022
3309 Clouds 27 1018 63 10000 6.17 160 15:33 06.06.2022
3310 Clouds 27 1018 60 10000 4.63 150 14:36 06.06.2022
3311 Clouds 27 1019 61 10000 3.6 200 13:26 06.06.2022
3312 Clouds 27 1019 61 10000 2.57 190 12:36 06.06.2022
3313 Clouds 26 1019 63 10000 2.57 120 11:53 06.06.2022
3314 Clouds 25 1020 68 10000 2.06 130 10:46 06.06.2022
3315 Clear 24 1019 72 10000 1.54 350 09:40 06.06.2022
3316 Clear 23 1019 77 10000 2.57 330 08:33 06.06.2022
3317 Clouds 20 1019 89 10000 2.06 320 07:28 06.06.2022
3318 Clouds 21 1018 86 10000 1.54 300 05:28 06.06.2022
3319 Clouds 21 1019 87 10000 1.54 50 03:39 06.06.2022
3320 Clouds 22 1020 87 10000 3.09 70 01:23 06.06.2022
3321 Clouds 22 1019 85 10000 2.06 100 00:39 06.06.2022
3322 Clouds 22 1019 84 10000 1.54 90 23:40 05.06.2022
3323 Clouds 23 1019 83 10000 3.09 120 22:47 05.06.2022
3324 Clear 24 1018 76 10000 4.63 130 20:57 05.06.2022
3325 Clear 25 1017 69 10000 4.63 130 19:44 05.06.2022
3326 Clouds 26 1017 66 10000 4.63 120 18:30 05.06.2022
3327 Clouds 26 1017 66 10000 4.63 120 18:30 05.06.2022
3328 Clear 27 1017 65 10000 5.66 120 17:55 05.06.2022
3329 Clear 27 1018 67 10000 4.63 130 17:26 05.06.2022
3330 Clear 26 1018 67 10000 5.66 130 16:52 05.06.2022
3331 Clear 26 1018 68 10000 5.66 130 16:34 05.06.2022
3332 Clouds 27 1018 66 10000 6.69 120 14:27 05.06.2022
3333 Clear 27 1018 63 10000 4.12 130 12:57 05.06.2022
3334 Clear 27 1018 64 10000 3.09 70 11:47 05.06.2022
3335 Clouds 25 1017 68 10000 4.12 30 10:39 05.06.2022
3336 Clouds 25 1017 70 10000 4.63 10 10:20 05.06.2022
3337 Clouds 22 1016 77 10000 2.06 350 08:34 05.06.2022
3338 Clouds 21 1016 76 10000 2.57 320 07:48 05.06.2022
3339 Clouds 20 1014 83 10000 1.03 0 05:22 05.06.2022
3340 Clouds 20 1014 83 10000 1.03 220 04:30 05.06.2022
3341 Clouds 21 1015 85 10000 3.09 210 01:32 05.06.2022
3342 Clouds 21 1015 83 10000 3.6 210 00:39 05.06.2022
3343 Clear 22 1013 82 10000 1.54 220 22:43 04.06.2022
3344 Clear 25 1013 68 10000 3.09 190 20:42 04.06.2022
3345 Clouds 25 1013 73 10000 3.6 230 18:51 04.06.2022
3346 Clouds 25 1013 72 10000 5.14 120 16:47 04.06.2022
3347 Clouds 26 1014 72 10000 8.75 120 16:18 04.06.2022
3348 Clear 27 1012 66 10000 4.12 120 14:54 04.06.2022
3349 Clouds 27 1013 64 10000 4.63 130 13:37 04.06.2022
3350 Clear 25 1015 73 10000 4.12 120 11:22 04.06.2022
3351 Clear 25 1015 73 10000 3.6 120 10:49 04.06.2022
3352 Clouds 23 1014 77 9000 1.54 310 09:45 04.06.2022
3353 Clouds 22 1014 85 9000 1.03 0 08:43 04.06.2022
3354 Clouds 20 1014 86 7000 1.54 120 07:42 04.06.2022
3355 Clouds 20 1013 84 7000 1.03 150 05:38 04.06.2022
3356 Mist 20 1013 87 8000 2.68 247 02:20 04.06.2022
3357 Clouds 21 1014 83 7000 2.06 200 00:19 04.06.2022
3358 Fog 21 1013 84 900 1.54 130 22:41 03.06.2022
3359 Clouds 22 1013 84 8000 3.09 110 21:39 03.06.2022
3360 Clouds 23 1013 83 9000 3.6 120 20:38 03.06.2022
3361 Clouds 25 1013 77 10000 4.12 130 18:54 03.06.2022
3362 Clouds 26 1013 72 10000 5.66 130 16:52 03.06.2022
3363 Clouds 26 1013 71 10000 6.17 130 15:40 03.06.2022
3364 Clear 26 1013 70 10000 5.14 140 13:49 03.06.2022
3365 Clear 27 1013 55 10000 3.13 349 11:51 03.06.2022
3366 Clouds 24 1012 67 10000 6.17 60 09:54 03.06.2022
3367 Clouds 23 1012 74 10000 4.63 60 09:29 03.06.2022
3368 Clouds 21 1012 78 10000 2.57 40 07:42 03.06.2022
3369 Clouds 20 1012 81 10000 2.57 100 06:45 03.06.2022
3370 Clouds 21 1012 77 10000 1.54 110 06:27 03.06.2022
3371 Clouds 20 1012 86 8000 3.6 60 02:50 03.06.2022
3372 Clear 21 1013 80 10000 3.09 60 23:36 02.06.2022
3373 Clear 21 1013 77 10000 4.63 70 21:58 02.06.2022
3374 Clear 23 1012 73 10000 4.63 70 20:34 02.06.2022
3375 Clear 23 1012 71 10000 4.63 70 19:54 02.06.2022
3376 Clear 23 1012 72 10000 5.14 70 19:36 02.06.2022
3377 Clear 25 1013 65 10000 6.17 80 18:34 02.06.2022
3378 Clear 26 1013 64 10000 4.63 80 16:28 02.06.2022
3379 Clouds 26 1013 63 10000 6.17 80 15:30 02.06.2022
3380 Clouds 25 1015 67 10000 6.17 70 13:30 02.06.2022
3381 Clouds 24 1015 72 10000 6.17 60 12:46 02.06.2022
3382 Clouds 23 1014 73 10000 6.69 130 10:34 02.06.2022
3383 Clear 23 1013 69 10000 3.13 62 09:29 02.06.2022
3384 Clear 22 1013 75 10000 4.12 340 08:39 02.06.2022
3385 Clear 22 1012 74 10000 4.12 340 08:19 02.06.2022
3386 Clear 20 1012 77 10000 4.63 330 06:20 02.06.2022
3387 Clear 19 1013 83 10000 2.06 260 03:49 02.06.2022
3388 Clear 21 1013 81 10000 4.12 230 00:39 02.06.2022
3389 Clear 21 1014 79 10000 3.09 210 22:57 01.06.2022
3390 Clear 22 1013 76 10000 4.12 210 21:52 01.06.2022
3391 Clear 23 1013 75 10000 3.6 220 21:24 01.06.2022
3392 Clear 23 1013 76 10000 4.12 210 20:38 01.06.2022
3393 Clear 24 1013 73 10000 5.66 220 19:50 01.06.2022
3394 Clouds 26 1013 68 10000 5.66 130 18:28 01.06.2022
3395 Clear 26 1014 67 10000 6.17 210 16:56 01.06.2022
3396 Clear 26 1014 65 10000 5.66 200 15:42 01.06.2022
3397 Clear 26 1014 65 10000 6.17 120 14:46 01.06.2022
3398 Clear 27 1015 63 10000 5.66 200 13:23 01.06.2022
3399 Clear 25 1015 66 10000 2.68 5 10:44 01.06.2022
3400 Clear 23 1015 73 10000 2.57 310 09:29 01.06.2022
3401 Clouds 20 1014 82 10000 2.06 330 08:18 01.06.2022
3402 Clouds 18 1014 84 10000 2.06 310 07:20 01.06.2022
3403 Clear 19 1014 86 10000 0.45 317 03:55 01.06.2022
3404 Clouds 20 1015 87 10000 2.06 90 23:50 31.05.2022
3405 Clouds 21 1015 85 10000 2.57 130 22:41 31.05.2022
3406 Clouds 21 1014 85 10000 3.6 130 22:22 31.05.2022
3407 Clouds 21 1014 83 10000 4.12 120 21:39 31.05.2022
3408 Clouds 22 1013 80 10000 4.63 120 20:44 31.05.2022
3409 Clear 23 1013 74 10000 4.63 120 19:31 31.05.2022
3410 Clear 24 1013 68 10000 5.66 110 18:32 31.05.2022
3411 Clear 25 1012 62 10000 5.66 110 17:38 31.05.2022
3412 Clear 25 1013 50 10000 5.14 130 15:55 31.05.2022
3413 Clear 25 1013 47 10000 3.6 130 15:34 31.05.2022
3414 Clear 25 1014 40 10000 3.09 110 12:56 31.05.2022
3415 Clear 24 1013 46 10000 3.09 110 12:18 31.05.2022
3416 Clear 23 1014 52 10000 2.57 120 10:34 31.05.2022
3417 Clear 20 1013 59 10000 2.06 330 08:26 31.05.2022
3418 Clear 18 1011 56 10000 2.57 330 06:21 31.05.2022
3419 Clear 19 1011 52 10000 4.12 340 04:31 31.05.2022
3420 Clear 20 1011 55 10000 2.06 40 23:46 30.05.2022
3421 Clear 20 1011 55 10000 2.06 40 23:24 30.05.2022
3422 Clear 20 1011 55 10000 2.06 50 22:42 30.05.2022
3423 Clear 20 1010 57 10000 2.57 160 21:40 30.05.2022
3424 Clear 21 1009 59 10000 3.09 60 20:52 30.05.2022
3425 Clear 21 1009 58 10000 4.12 80 19:45 30.05.2022
3426 Clear 22 1009 57 10000 5.66 140 18:21 30.05.2022
3427 Clear 23 1008 59 10000 5.66 130 17:23 30.05.2022
3428 Clear 23 1008 60 10000 6.69 130 16:30 30.05.2022
3429 Clear 24 1008 58 10000 4.63 140 13:38 30.05.2022
3430 Clear 24 1007 59 10000 7.2 100 11:54 30.05.2022
3431 Clear 23 1007 58 10000 5.14 70 10:20 30.05.2022
3432 Clouds 22 1006 53 10000 2.06 350 09:18 30.05.2022
3433 Clouds 18 1005 65 10000 3.09 330 06:28 30.05.2022
3434 Clear 19 1005 66 10000 3.09 330 05:38 30.05.2022
3435 Clouds 19 1006 72 10000 1.54 50 01:30 30.05.2022
3436 Clouds 20 1007 72 10000 1.03 0 22:49 29.05.2022
3437 Clouds 20 1007 72 10000 2.06 100 22:29 29.05.2022
3438 Clear 21 1006 65 10000 3.09 110 20:38 29.05.2022
3439 Clouds 22 1006 62 10000 4.63 110 19:30 29.05.2022
3440 Clouds 23 1006 60 10000 5.14 110 18:35 29.05.2022
3441 Clouds 23 1006 59 10000 5.66 130 16:51 29.05.2022
3442 Clouds 24 1007 59 10000 6.17 110 15:47 29.05.2022
3443 Clouds 23 1007 61 10000 7.2 110 14:56 29.05.2022
3444 Clouds 23 1008 66 10000 5.66 120 13:46 29.05.2022
3445 Clouds 24 1008 67 10000 3.6 170 11:34 29.05.2022
3446 Clouds 23 1008 71 10000 3.09 130 10:38 29.05.2022
3447 Clouds 21 1007 80 10000 4.12 60 08:39 29.05.2022
3448 Clear 19 1007 86 10000 2.68 92 05:22 29.05.2022
3449 Clear 20 1007 85 10000 2.57 10 04:43 29.05.2022
3450 Clear 20 1008 83 10000 4.12 80 02:50 29.05.2022
3451 Clear 22 1008 74 10000 2.57 90 23:49 28.05.2022
3452 Clouds 22 1008 73 10000 1.03 0 23:26 28.05.2022
3453 Clouds 23 1008 69 10000 4.63 220 22:33 28.05.2022
3454 Clouds 24 1008 69 10000 6.69 220 21:34 28.05.2022
3455 Clouds 25 1008 71 10000 8.75 230 19:24 28.05.2022
3456 Clouds 25 1009 70 10000 8.23 230 18:46 28.05.2022
3457 Clouds 26 1009 61 10000 5.14 110 17:36 28.05.2022
3458 Clouds 28 1010 56 10000 5.66 100 16:37 28.05.2022
3459 Clouds 29 1010 51 10000 5.66 130 15:39 28.05.2022
3460 Clouds 30 1011 44 10000 4.63 200 14:18 28.05.2022
3461 Clear 29 1012 41 10000 5.14 210 12:44 28.05.2022
3462 Clear 29 1012 43 10000 2.57 320 12:18 28.05.2022
3463 Clear 26 1013 50 10000 4.63 350 10:51 28.05.2022
3464 Clear 25 1013 57 10000 4.63 340 09:57 28.05.2022
3465 Clear 23 1013 60 10000 5.66 330 08:45 28.05.2022
3466 Clear 21 1013 68 10000 5.14 320 07:23 28.05.2022
3467 Clear 21 1014 69 10000 3.09 330 05:28 28.05.2022
3468 Clear 21 1016 68 10000 3.09 300 02:44 28.05.2022
3469 Clear 22 1016 64 10000 3.09 230 00:32 28.05.2022
3470 Clear 23 1016 63 10000 3.09 210 22:53 27.05.2022
3471 Clear 24 1016 62 10000 5.14 240 21:44 27.05.2022
3472 Clear 25 1016 59 10000 5.14 240 20:50 27.05.2022
3473 Clouds 26 1016 57 10000 5.14 230 20:24 27.05.2022
3474 Clouds 27 1016 57 10000 5.66 230 19:42 27.05.2022
3475 Clouds 27 1015 57 10000 5.66 230 19:21 27.05.2022
3476 Clouds 25 1016 65 10000 5.14 190 17:54 27.05.2022
3477 Clouds 26 1017 60 10000 6.69 210 16:38 27.05.2022
3478 Clouds 27 1017 56 10000 6.17 210 15:22 27.05.2022
3479 Clouds 27 1017 52 10000 4.12 200 14:25 27.05.2022
3480 Clouds 25 1018 50 10000 3.6 170 12:43 27.05.2022
3481 Clear 24 1018 52 10000 4.63 340 11:34 27.05.2022
3482 Clear 23 1018 57 10000 5.14 340 10:55 27.05.2022
3483 Clear 22 1018 59 10000 5.66 330 10:31 27.05.2022
3484 Clear 21 1018 61 10000 6.17 350 09:35 27.05.2022
3485 Clear 19 1018 65 10000 5.14 330 07:52 27.05.2022
3486 Clear 19 1017 65 10000 2.68 261 05:39 27.05.2022
3487 Clear 20 1019 62 10000 5.14 320 02:26 27.05.2022
3488 Clear 21 1020 62 10000 3.09 300 00:29 27.05.2022
3489 Clear 22 1020 57 10000 4.63 250 22:39 26.05.2022
3490 Clear 22 1019 60 10000 5.66 230 21:39 26.05.2022
3491 Clear 23 1019 60 10000 4.12 220 20:53 26.05.2022
3492 Clouds 23 1019 57 10000 4.63 190 19:19 26.05.2022
3493 Clear 24 1019 53 10000 5.14 200 18:18 26.05.2022
3494 Clear 24 1019 48 10000 5.14 210 16:42 26.05.2022
3495 Clear 25 1020 43 10000 5.14 130 15:46 26.05.2022
3496 Clear 24 1020 46 10000 6.17 180 14:43 26.05.2022
3497 Clear 25 1021 41 10000 3.13 165 12:37 26.05.2022
3498 Clear 23 1021 44 10000 4.63 330 11:29 26.05.2022
3499 Clear 21 1021 49 10000 5.66 330 10:19 26.05.2022
3500 Clear 20 1021 52 10000 6.17 340 09:33 26.05.2022
3501 Clear 19 1020 55 10000 5.66 330 08:35 26.05.2022
3502 Clear 19 1019 57 10000 4.63 340 04:41 26.05.2022
3503 Clear 20 1019 62 10000 2.57 290 00:48 26.05.2022
3504 Clear 20 1019 59 10000 2.68 122 23:40 25.05.2022
3505 Clear 20 1019 63 10000 2.06 260 22:22 25.05.2022
3506 Clear 20 1018 59 10000 2.06 330 21:33 25.05.2022
3507 Clear 21 1017 56 10000 3.09 260 20:37 25.05.2022
3508 Clear 21 1017 53 10000 3.6 330 19:29 25.05.2022
3509 Clear 21 1016 57 10000 6.17 270 17:43 25.05.2022
3510 Clear 20 1016 60 10000 6.69 280 16:38 25.05.2022
3511 Clear 20 1016 61 10000 6.69 290 15:57 25.05.2022
3512 Clear 19 1016 66 10000 4.63 310 14:55 25.05.2022
3513 Clear 19 1016 68 10000 5.14 320 14:33 25.05.2022
3514 Clear 19 1016 71 10000 4.63 310 13:56 25.05.2022
3515 Clear 17 1016 76 10000 3.6 310 12:45 25.05.2022
3516 Clouds 16 1015 80 10000 3.6 320 10:54 25.05.2022
3517 Clouds 16 1015 80 10000 4.12 310 10:19 25.05.2022
3518 Clouds 15 1013 86 10000 1.34 257 08:41 25.05.2022
3519 Rain 14 1012 84 10000 1.34 278 07:23 25.05.2022
3520 Rain 14 1012 84 10000 1.34 278 07:23 25.05.2022
3521 Rain 14 1012 85 9000 1.34 130 05:18 25.05.2022
3522 Rain 16 1011 82 10000 2.06 80 00:28 25.05.2022
3523 Clouds 16 1011 82 10000 4.12 70 23:47 24.05.2022
3524 Clouds 16 1011 86 10000 6.17 50 22:39 24.05.2022
3525 Rain 16 1010 85 6000 5.66 90 21:43 24.05.2022
3526 Rain 16 1010 84 2400 3.13 144 21:21 24.05.2022
3527 Thunderstorm 17 1010 82 4000 3.09 320 20:30 24.05.2022
3528 Rain 19 1009 78 10000 5.66 70 18:57 24.05.2022
3529 Rain 18 1009 81 8000 6.17 90 16:58 24.05.2022
3530 Rain 18 1010 79 7000 3.09 120 16:28 24.05.2022
3531 Rain 19 1010 74 10000 3.6 90 15:20 24.05.2022
3532 Clouds 20 1010 74 10000 4.63 70 14:34 24.05.2022
3533 Thunderstorm 19 1010 78 10000 4.63 80 13:27 24.05.2022
3534 Clouds 19 1010 80 10000 5.66 110 11:53 24.05.2022
3535 Clouds 21 1010 79 10000 4.12 260 09:49 24.05.2022
3536 Clouds 21 1010 82 10000 3.09 220 08:51 24.05.2022
3537 Clouds 21 1009 83 10000 2.06 220 07:30 24.05.2022
3538 Clouds 21 1009 81 10000 1.54 120 05:59 24.05.2022
3539 Clear 20 1009 82 10000 2.06 280 02:54 24.05.2022
3540 Clouds 21 1009 80 10000 1.03 270 01:44 24.05.2022
3541 Clouds 21 1009 78 10000 1.03 0 23:59 23.05.2022
3542 Clouds 21 1009 76 10000 2.06 170 22:22 23.05.2022
3543 Clouds 22 1008 75 10000 2.57 150 21:42 23.05.2022
3544 Clouds 23 1008 74 10000 3.6 140 20:45 23.05.2022
3545 Clouds 23 1007 73 10000 5.14 120 19:44 23.05.2022
3546 Clouds 24 1008 72 10000 4.63 120 19:18 23.05.2022
3547 Clouds 24 1007 73 10000 5.66 130 18:40 23.05.2022
3548 Clouds 24 1007 72 10000 5.66 120 17:56 23.05.2022
3549 Clouds 24 1007 73 10000 5.66 130 15:55 23.05.2022
3550 Clouds 24 1007 75 10000 6.69 130 13:56 23.05.2022
3551 Clouds 25 1007 71 10000 5.66 90 11:41 23.05.2022
3552 Clear 24 1007 69 10000 6.17 80 10:47 23.05.2022
3553 Clear 23 1007 67 10000 7.2 60 09:47 23.05.2022
3554 Clear 22 1006 68 10000 7.2 50 08:46 23.05.2022
3555 Clear 22 1006 68 10000 7.2 50 08:46 23.05.2022
3556 Clouds 21 1006 67 10000 2.68 245 07:24 23.05.2022
3557 Clouds 21 1005 69 10000 2.06 300 06:39 23.05.2022
3558 Clear 22 1007 61 10000 0.51 0 03:27 23.05.2022
3559 Clear 22 1008 69 10000 1.54 300 01:52 23.05.2022
3560 Clear 22 1008 70 10000 1.54 280 01:29 23.05.2022
3561 Clear 23 1009 75 10000 0 0 23:18 22.05.2022
3562 Clear 23 1009 70 10000 3.6 240 22:27 22.05.2022
3563 Clear 24 1009 66 10000 2.57 110 21:51 22.05.2022
3564 Clear 27 1009 51 10000 3.09 130 20:46 22.05.2022
3565 Clear 28 1009 47 10000 3.09 190 20:22 22.05.2022
3566 Clear 29 1009 43 10000 4.63 210 19:34 22.05.2022
3567 Clear 30 1009 42 10000 4.63 210 18:50 22.05.2022
3568 Clear 31 1009 41 10000 5.14 200 18:21 22.05.2022
3569 Clear 31 1012 45 10000 6.17 210 17:26 22.05.2022
3570 Clear 33 1013 33 10000 5.14 220 15:57 22.05.2022
3571 Clear 33 1014 34 10000 4.63 0 14:47 22.05.2022
3572 Clear 33 1014 35 10000 4.63 0 14:47 22.05.2022
3573 Clear 34 1012 25 10000 4.12 220 13:21 22.05.2022
3574 Clear 31 1012 38 10000 3.09 210 12:45 22.05.2022
3575 Clear 29 1012 49 10000 7.72 210 11:29 22.05.2022
3576 Clear 25 1013 46 10000 5.14 240 09:40 22.05.2022
3577 Clear 22 1013 46 10000 2.06 290 07:54 22.05.2022
3578 Clear 21 1013 45 10000 2.06 290 07:21 22.05.2022
3579 Clear 22 1014 44 10000 1.03 260 04:59 22.05.2022
3580 Clear 23 1016 44 10000 2.06 250 01:21 22.05.2022
3581 Clear 24 1016 42 10000 1.54 280 00:39 22.05.2022
3582 Clear 24 1016 46 10000 4.12 220 23:50 21.05.2022
3583 Clear 25 1016 43 10000 4.12 210 22:26 21.05.2022
3584 Clear 26 1016 38 10000 1.79 226 21:41 21.05.2022
3585 Clear 28 1016 35 10000 2.24 272 20:48 21.05.2022
3586 Clear 29 1016 36 10000 7.72 230 20:21 21.05.2022
3587 Clear 30 1016 31 10000 8.23 230 19:25 21.05.2022
3588 Clear 31 1017 29 10000 8.23 220 17:47 21.05.2022
3589 Clear 32 1018 33 10000 9.77 230 15:44 21.05.2022
3590 Clear 31 1019 41 10000 8.75 220 14:37 21.05.2022
3591 Clear 30 1020 44 10000 3.6 210 13:42 21.05.2022
3592 Clear 30 1020 50 10000 3.09 210 12:49 21.05.2022
3593 Clear 28 1020 59 10000 3.09 210 11:58 21.05.2022
3594 Clear 26 1021 59 10000 1.54 110 10:23 21.05.2022
3595 Clear 24 1021 64 10000 1.54 120 09:41 21.05.2022
3596 Clear 22 1022 74 10000 1.54 330 08:52 21.05.2022
3597 Clear 21 1021 73 10000 3.09 330 07:53 21.05.2022
3598 Clear 21 1022 74 10000 3.09 330 03:48 21.05.2022
3599 Clear 22 1023 77 10000 1.54 110 23:53 20.05.2022
3600 Clear 23 1023 77 10000 0.51 0 22:57 20.05.2022
3601 Clear 23 1023 76 10000 1.03 0 22:23 20.05.2022
3602 Clear 24 1023 74 10000 2.57 120 21:41 20.05.2022
3603 Clear 24 1023 71 10000 2.57 130 20:54 20.05.2022
3604 Clear 26 1022 64 10000 4.63 130 19:58 20.05.2022
3605 Clear 28 1022 58 10000 3.6 160 19:26 20.05.2022
3606 Clear 27 1023 61 10000 4.12 140 18:36 20.05.2022
3607 Clear 28 1023 59 10000 5.14 100 16:54 20.05.2022
3608 Clear 28 1023 61 10000 6.17 120 16:19 20.05.2022
3609 Clear 28 1024 59 10000 6.17 120 15:44 20.05.2022
3610 Clear 27 1024 65 10000 4.63 120 14:30 20.05.2022
3611 Clear 27 1024 62 10000 4.63 120 13:55 20.05.2022
3612 Clear 26 1025 57 10000 4.12 100 11:33 20.05.2022
3613 Clear 24 1025 57 10000 2.57 350 09:51 20.05.2022
3614 Clear 23 1025 58 10000 0.45 47 08:44 20.05.2022
3615 Clear 20 1023 68 10000 3.09 340 06:50 20.05.2022
3616 Clouds 20 1023 67 10000 2.06 330 06:31 20.05.2022
3617 Clear 20 1024 66 10000 4.63 330 04:31 20.05.2022
3618 Clear 21 1024 70 10000 1.03 30 00:43 20.05.2022
3619 Clear 21 1023 78 10000 1.54 50 22:46 19.05.2022
3620 Clear 22 1023 76 10000 2.57 70 21:59 19.05.2022
3621 Clear 22 1023 76 10000 2.57 70 21:40 19.05.2022
3622 Clear 22 1023 74 10000 3.09 70 21:22 19.05.2022
3623 Clear 23 1022 72 10000 3.09 90 20:32 19.05.2022
3624 Clear 24 1022 70 10000 3.09 110 19:40 19.05.2022
3625 Clear 25 1022 70 10000 4.63 120 18:19 19.05.2022
3626 Clear 25 1022 71 10000 5.66 130 16:32 19.05.2022
3627 Clear 25 1030 72 10000 6.17 120 14:52 19.05.2022
3628 Clear 26 1017 71 10000 6.17 100 14:24 19.05.2022
3629 Clear 26 1023 64 10000 5.14 80 13:20 19.05.2022
3630 Clouds 25 1023 73 7000 5.66 70 11:25 19.05.2022
3631 Clouds 22 1022 84 7000 3.09 70 09:19 19.05.2022
3632 Mist 20 1021 87 4000 3.6 50 07:49 19.05.2022
3633 Clouds 20 1020 89 9000 2.06 330 05:32 19.05.2022
3634 Clouds 21 1019 87 9000 0 0 02:23 19.05.2022
3635 Clouds 21 1019 85 9000 1.03 0 23:57 18.05.2022
3636 Clouds 22 1019 85 8000 1.54 120 22:47 18.05.2022
3637 Clouds 23 1018 80 9000 2.06 150 21:51 18.05.2022
3638 Clouds 23 1018 79 9000 2.06 150 21:29 18.05.2022
3639 Clear 24 1018 73 10000 2.57 130 20:47 18.05.2022
3640 Clear 25 1018 71 10000 3.09 100 20:18 18.05.2022
3641 Clear 27 1018 60 10000 5.14 110 18:33 18.05.2022
3642 Clear 27 1018 64 10000 4.63 200 17:41 18.05.2022
3643 Clear 27 1018 62 10000 4.63 200 17:23 18.05.2022
3644 Clear 28 1018 57 10000 5.14 130 16:34 18.05.2022
3645 Clear 28 1018 58 10000 5.14 130 15:42 18.05.2022
3646 Clear 28 1018 57 10000 5.14 130 14:35 18.05.2022
3647 Clouds 28 1018 57 10000 4.12 120 13:41 18.05.2022
3648 Clear 28 1019 58 10000 2.57 180 12:43 18.05.2022
3649 Clear 28 1019 56 9000 3.09 190 11:36 18.05.2022
3650 Clear 28 1019 55 10000 0.89 43 11:18 18.05.2022
3651 Clear 26 1019 66 9000 2.57 240 09:50 18.05.2022
3652 Clouds 21 1018 84 9000 3.6 340 07:51 18.05.2022
3653 Clouds 19 1018 81 10000 3.09 330 06:41 18.05.2022
3654 Clouds 19 1018 86 10000 1.54 210 01:53 18.05.2022
3655 Clouds 20 1018 88 10000 1.03 120 00:23 18.05.2022
3656 Clouds 21 1018 84 10000 1.54 110 21:57 17.05.2022
3657 Clouds 22 1017 81 10000 4.12 200 21:20 17.05.2022
3658 Clouds 22 1017 81 10000 4.12 200 21:20 17.05.2022
3659 Clouds 23 1017 79 10000 4.12 200 20:19 17.05.2022
3660 Clear 24 1016 73 10000 5.14 200 19:28 17.05.2022
3661 Clouds 25 1017 68 10000 4.63 130 17:52 17.05.2022
3662 Clouds 25 1017 66 10000 5.14 130 16:59 17.05.2022
3663 Clouds 26 1017 65 10000 5.14 120 16:30 17.05.2022
3664 Clouds 26 1017 64 10000 4.63 120 15:32 17.05.2022
3665 Clouds 26 1018 63 10000 5.14 120 14:30 17.05.2022
3666 Clouds 25 1018 63 10000 4.63 120 13:37 17.05.2022
3667 Clear 25 1018 58 10000 4.12 210 11:46 17.05.2022
3668 Clear 22 1019 70 10000 2.06 270 09:38 17.05.2022
3669 Clouds 21 1018 76 10000 3.09 320 08:36 17.05.2022
3670 Clear 18 1018 80 10000 3.6 320 06:50 17.05.2022
3671 Clouds 19 1018 78 10000 2.57 310 04:24 17.05.2022
3672 Clouds 19 1019 86 9000 2.57 60 00:46 17.05.2022
3673 Clouds 20 1019 85 10000 2.06 60 22:44 16.05.2022
3674 Clouds 20 1019 84 10000 2.06 120 21:52 16.05.2022
3675 Clear 22 1019 80 10000 3.09 100 20:49 16.05.2022
3676 Clear 23 1018 75 10000 3.09 110 19:49 16.05.2022
3677 Clear 24 1018 68 10000 4.12 130 18:21 16.05.2022
3678 Clear 25 1019 65 10000 5.14 130 16:24 16.05.2022
3679 Mist 25 1019 59 10000 5.14 130 14:38 16.05.2022
3680 Clear 25 1019 54 10000 6.69 110 13:23 16.05.2022
3681 Clear 26 1018 42 10000 3.6 230 11:33 16.05.2022
3682 Clear 24 1018 45 10000 2.06 270 09:58 16.05.2022
3683 Clear 19 1017 53 10000 4.12 320 07:21 16.05.2022
3684 Clear 19 1017 51 10000 3.6 330 04:41 16.05.2022
3685 Clouds 20 1018 64 10000 1.54 180 23:56 15.05.2022
3686 Clear 21 1017 59 10000 2.57 210 22:34 15.05.2022
3687 Clear 21 1016 56 10000 2.06 210 21:48 15.05.2022
3688 Clear 22 1016 51 10000 3.09 210 21:19 15.05.2022
3689 Clear 23 1016 58 10000 4.12 170 19:56 15.05.2022
3690 Clear 25 1016 50 10000 5.66 180 17:52 15.05.2022
3691 Clear 26 1016 55 10000 6.17 140 16:35 15.05.2022
3692 Clouds 26 1017 53 10000 5.14 180 14:18 15.05.2022
3693 Clouds 26 1017 53 10000 4.63 170 13:27 15.05.2022
3694 Clouds 25 1017 51 10000 2.57 170 11:55 15.05.2022
3695 Clear 24 1017 47 10000 1.34 30 10:35 15.05.2022
3696 Clear 21 1016 57 10000 3.09 330 08:52 15.05.2022
3697 Clear 18 1016 62 10000 2.57 290 06:59 15.05.2022
3698 Clouds 18 1016 61 10000 2.06 290 06:38 15.05.2022
3699 Clear 19 1017 58 10000 1.54 250 01:43 15.05.2022
3700 Clear 19 1018 62 10000 3.09 250 23:52 14.05.2022
3701 Clear 20 1018 63 10000 2.57 230 23:33 14.05.2022
3702 Clear 21 1017 61 10000 2.57 110 21:45 14.05.2022
3703 Clear 21 1017 58 10000 2.57 110 21:19 14.05.2022
3704 Clear 23 1017 55 10000 4.63 210 19:40 14.05.2022
3705 Clear 23 1017 55 10000 4.63 210 19:40 14.05.2022
3706 Clear 23 1017 56 10000 4.63 210 19:20 14.05.2022
3707 Clear 24 1017 54 10000 4.12 210 18:47 14.05.2022
3708 Clouds 24 1017 56 10000 5.14 200 17:36 14.05.2022
3709 Clouds 25 1018 49 10000 5.14 100 15:47 14.05.2022
3710 Clear 25 1019 50 10000 5.14 130 14:37 14.05.2022
3711 Clear 25 1019 48 10000 4.63 200 12:51 14.05.2022
3712 Clear 24 1019 48 10000 1.79 339 11:37 14.05.2022
3713 Clear 23 1019 50 10000 3.6 290 10:24 14.05.2022
3714 Clear 23 1019 50 10000 3.6 290 09:56 14.05.2022
3715 Clear 21 1019 58 10000 4.12 320 09:19 14.05.2022
3716 Clouds 17 1019 68 10000 3.6 310 07:23 14.05.2022
3717 Clouds 18 1019 68 10000 4.12 300 03:45 14.05.2022
3718 Clouds 18 1021 77 9000 2.57 290 00:21 14.05.2022
3719 Clouds 18 1021 79 10000 2.57 280 23:24 13.05.2022
3720 Clouds 18 1021 78 10000 1.54 290 22:54 13.05.2022
3721 Clouds 19 1021 76 10000 1.03 140 22:20 13.05.2022
3722 Clear 20 1020 70 10000 3.09 110 20:57 13.05.2022
3723 Clear 21 1020 68 10000 3.6 120 20:30 13.05.2022
3724 Clear 21 1020 66 10000 3.6 120 19:44 13.05.2022
3725 Clear 21 1020 66 10000 4.12 110 18:47 13.05.2022
3726 Clear 23 1020 61 10000 5.14 130 17:29 13.05.2022
3727 Clouds 22 1021 65 10000 5.66 120 16:29 13.05.2022
3728 Clouds 22 1021 65 10000 5.66 120 15:45 13.05.2022
3729 Clear 22 1021 63 10000 5.66 130 14:29 13.05.2022
3730 Clear 23 1022 59 10000 4.63 80 12:47 13.05.2022
3731 Clear 22 1022 58 10000 4.63 80 11:36 13.05.2022
3732 Clear 19 1021 60 10000 3.09 340 09:43 13.05.2022
3733 Clear 18 1021 62 10000 3.09 330 08:51 13.05.2022
3734 Clear 17 1021 67 10000 3.09 330 07:49 13.05.2022
3735 Clear 16 1020 70 10000 4.12 330 06:48 13.05.2022
3736 Clear 16 1020 71 10000 3.09 330 04:54 13.05.2022
3737 Clear 17 1021 79 10000 2.06 290 00:42 13.05.2022
3738 Clear 18 1021 80 10000 1.54 130 22:47 12.05.2022
3739 Clear 18 1021 80 10000 1.54 130 22:29 12.05.2022
3740 Clear 20 1021 74 10000 3.6 110 20:41 12.05.2022
3741 Clear 21 1021 68 10000 5.14 120 19:26 12.05.2022
3742 Clear 22 1021 63 10000 6.69 130 18:19 12.05.2022
3743 Clear 23 1021 55 10000 6.69 110 16:34 12.05.2022
3744 Clear 24 1021 52 10000 4.63 190 14:52 12.05.2022
3745 Clear 23 1022 54 10000 4.63 190 13:48 12.05.2022
3746 Clear 22 1022 57 10000 2.57 200 11:31 12.05.2022
3747 Clouds 21 1022 61 10000 1.79 317 10:22 12.05.2022
3748 Clouds 19 1022 65 10000 3.09 310 08:52 12.05.2022
3749 Clouds 18 1022 65 10000 3.09 310 08:52 12.05.2022
3750 Clouds 19 1022 65 10000 3.09 310 08:52 12.05.2022
3751 Clouds 18 1022 65 10000 3.09 310 08:52 12.05.2022
3752 Clear 17 1022 71 10000 4.63 320 07:58 12.05.2022
3753 Clouds 16 1021 74 10000 4.12 320 06:58 12.05.2022
3754 Clouds 17 1021 72 10000 2.57 320 03:46 12.05.2022
3755 Clear 17 1021 73 10000 1.54 250 01:29 12.05.2022
3756 Clear 18 1022 72 10000 2.57 200 22:59 11.05.2022
3757 Clear 19 1021 68 10000 3.6 210 22:18 11.05.2022
3758 Clear 20 1021 63 10000 4.12 210 21:24 11.05.2022
3759 Clear 20 1021 63 10000 4.12 210 21:24 11.05.2022
3760 Clear 22 1020 57 10000 5.66 220 19:57 11.05.2022
3761 Clear 23 1020 59 10000 6.69 210 17:33 11.05.2022
3762 Clear 23 1020 59 10000 6.69 210 16:19 11.05.2022
3763 Clear 24 1020 57 10000 8.23 220 14:47 11.05.2022
3764 Clear 24 1020 55 10000 8.23 220 14:24 11.05.2022
3765 Clear 24 1021 56 10000 6.69 210 12:39 11.05.2022
3766 Clear 23 1021 58 10000 4.02 16 11:47 11.05.2022
3767 Clouds 20 1020 68 10000 4.12 220 09:29 11.05.2022
3768 Clouds 16 1020 71 10000 2.06 300 06:30 11.05.2022
3769 Clear 18 1021 67 10000 2.57 220 01:53 11.05.2022
3770 Clear 19 1022 60 10000 3.09 220 22:58 10.05.2022
3771 Clear 20 1022 58 10000 3.09 220 22:24 10.05.2022
3772 Clouds 21 1021 55 10000 4.63 220 21:26 10.05.2022
3773 Clouds 22 1021 49 10000 5.14 220 20:26 10.05.2022
3774 Clouds 24 1021 45 10000 7.72 220 18:49 10.05.2022
3775 Clouds 24 1021 45 10000 8.23 220 17:38 10.05.2022
3776 Clouds 24 1021 48 10000 8.75 220 16:24 10.05.2022
3777 Clear 23 1023 51 10000 7.2 210 13:19 10.05.2022
3778 Clear 23 1023 52 10000 5.66 210 11:53 10.05.2022
3779 Clear 23 1023 53 10000 4.12 200 11:30 10.05.2022
3780 Clear 22 1022 54 10000 2.57 210 10:56 10.05.2022
3781 Clear 19 1022 62 10000 2.57 300 09:36 10.05.2022
3782 Clear 17 1022 67 10000 3.6 320 07:58 10.05.2022
3783 Clear 16 1021 69 10000 2.57 310 06:20 10.05.2022
3784 Clear 17 1022 74 10000 2.06 290 01:54 10.05.2022
3785 Clear 17 1023 76 10000 2.57 290 23:45 09.05.2022
3786 Clear 18 1023 74 10000 1.54 90 22:35 09.05.2022
3787 Clear 19 1022 71 10000 2.57 110 21:39 09.05.2022
3788 Clear 20 1022 64 10000 1.54 110 20:20 09.05.2022
3789 Clouds 21 1022 60 10000 4.12 140 18:26 09.05.2022
3790 Clouds 22 1022 58 10000 5.66 120 17:26 09.05.2022
3791 Clouds 22 1022 58 10000 5.14 120 16:19 09.05.2022
3792 Clouds 22 1022 59 10000 5.14 120 15:47 09.05.2022
3793 Clouds 22 1022 57 10000 6.69 120 14:37 09.05.2022
3794 Clouds 22 1022 56 10000 7.2 120 13:59 09.05.2022
3795 Clouds 22 1022 55 10000 5.66 130 13:22 09.05.2022
3796 Clouds 23 1022 50 10000 3.09 110 11:53 09.05.2022
3797 Clear 22 1022 50 10000 1.34 57 10:48 09.05.2022
3798 Clear 21 1022 54 10000 3.09 340 10:26 09.05.2022
3799 Clouds 17 1021 64 10000 5.14 320 07:57 09.05.2022
3800 Clouds 17 1020 64 10000 3.09 360 05:53 09.05.2022
3801 Clouds 18 1021 63 10000 3.6 300 01:59 09.05.2022
3802 Clouds 17 1021 66 10000 0 0 23:29 08.05.2022
3803 Clouds 18 1021 61 10000 2.06 280 22:32 08.05.2022
3804 Clouds 19 1020 60 10000 3.09 170 21:24 08.05.2022
3805 Clouds 21 1019 57 10000 3.6 180 20:25 08.05.2022
3806 Clouds 21 1019 57 10000 4.12 140 19:35 08.05.2022
3807 Clouds 22 1019 55 10000 4.63 130 18:40 08.05.2022
3808 Clouds 22 1019 53 10000 3.6 130 17:40 08.05.2022
3809 Clouds 21 1018 59 10000 6.17 130 16:22 08.05.2022
3810 Clouds 22 1019 56 10000 4.63 120 15:24 08.05.2022
3811 Clouds 22 1018 54 10000 4.12 130 13:44 08.05.2022
3812 Clouds 22 1019 52 10000 2.57 170 11:50 08.05.2022
3813 Clouds 20 1019 54 10000 3.09 310 10:26 08.05.2022
3814 Clouds 19 1019 58 10000 4.12 310 09:53 08.05.2022
3815 Clouds 17 1018 61 10000 5.14 320 07:57 08.05.2022
3816 Clouds 16 1017 65 10000 4.12 310 06:21 08.05.2022
3817 Clouds 17 1018 65 10000 3.09 330 03:22 08.05.2022
3818 Clouds 17 1019 70 10000 3.13 136 01:19 08.05.2022
3819 Clouds 17 1019 70 10000 3.09 250 23:57 07.05.2022
3820 Clear 17 1019 70 10000 2.57 240 23:34 07.05.2022
3821 Clouds 17 1019 73 10000 3.6 220 22:46 07.05.2022
3822 Clear 18 1019 74 10000 3.6 210 21:56 07.05.2022
3823 Clouds 18 1019 73 10000 3.09 200 21:31 07.05.2022
3824 Clouds 19 1018 68 10000 3.09 120 20:25 07.05.2022
3825 Clouds 20 1018 67 10000 5.66 130 18:52 07.05.2022
3826 Clouds 22 1018 59 10000 5.14 130 16:51 07.05.2022
3827 Clouds 22 1018 52 10000 6.17 120 15:18 07.05.2022
3828 Clear 22 1018 48 10000 3.13 352 11:51 07.05.2022
3829 Clear 19 1019 53 10000 4.63 310 09:55 07.05.2022
3830 Clear 16 1019 60 10000 5.14 300 08:33 07.05.2022
3831 Clouds 15 1018 61 10000 4.63 320 07:25 07.05.2022
3832 Clouds 15 1018 61 10000 4.02 128 06:42 07.05.2022
3833 Clouds 15 1019 64 10000 4.63 310 04:19 07.05.2022
3834 Clouds 16 1020 63 10000 1.54 310 00:45 07.05.2022
3835 Clear 17 1019 64 10000 3.6 260 22:40 06.05.2022
3836 Clear 17 1019 63 10000 4.12 240 21:54 06.05.2022
3837 Clouds 18 1019 62 10000 1.54 270 21:30 06.05.2022
3838 Clouds 20 1018 56 10000 4.63 120 19:49 06.05.2022
3839 Clouds 20 1018 56 10000 4.63 120 19:25 06.05.2022
3840 Clouds 20 1018 56 10000 5.14 130 18:43 06.05.2022
3841 Clouds 21 1017 56 10000 5.66 110 17:37 06.05.2022
3842 Clouds 22 1017 50 10000 6.17 130 15:54 06.05.2022
3843 Clouds 22 1017 50 10000 6.17 130 15:30 06.05.2022
3844 Clouds 22 1018 49 10000 5.14 180 13:50 06.05.2022
3845 Clouds 21 1018 49 10000 4.63 180 12:51 06.05.2022
3846 Clear 21 1018 49 10000 5.66 260 11:58 06.05.2022
3847 Clear 20 1018 51 10000 5.14 270 11:27 06.05.2022
3848 Clear 18 1018 57 10000 2.57 310 09:48 06.05.2022
3849 Clear 17 1018 62 10000 2.57 330 09:18 06.05.2022
3850 Clear 15 1018 70 10000 4.63 310 07:55 06.05.2022
3851 Clouds 14 1018 72 10000 4.12 350 06:27 06.05.2022
3852 Clear 14 1019 79 10000 1.54 340 03:44 06.05.2022
3853 Clouds 15 1019 78 10000 3.13 110 02:38 06.05.2022
3854 Clouds 17 1020 73 10000 4.63 290 23:24 05.05.2022
3855 Clouds 17 1019 74 10000 4.63 240 21:51 05.05.2022
3856 Clouds 18 1018 71 10000 2.57 240 20:37 05.05.2022
3857 Clouds 18 1018 71 10000 4.12 240 19:19 05.05.2022
3858 Clouds 19 1018 75 9000 3.6 130 16:42 05.05.2022
3859 Rain 18 1018 75 10000 4.12 150 15:46 05.05.2022
3860 Clouds 21 1018 58 10000 4.12 200 13:41 05.05.2022
3861 Clouds 21 1018 58 10000 4.12 200 13:18 05.05.2022
3862 Clouds 20 1018 62 10000 5.66 280 11:42 05.05.2022
3863 Clouds 18 1018 72 10000 4.63 320 09:46 05.05.2022
3864 Clouds 17 1018 72 10000 5.66 310 09:26 05.05.2022
3865 Clouds 14 1017 79 10000 4.12 320 06:33 05.05.2022
3866 Clouds 16 1018 79 10000 3.6 330 02:28 05.05.2022
3867 Clouds 16 1018 80 10000 2.06 300 01:45 05.05.2022
3868 Clouds 16 1018 79 10000 2.57 330 00:57 05.05.2022
3869 Clouds 16 1018 78 10000 2.06 280 23:22 04.05.2022
3870 Clouds 16 1018 79 10000 2.57 10 22:18 04.05.2022
3871 Clouds 16 1018 79 10000 2.06 20 21:45 04.05.2022
3872 Rain 16 1018 80 10000 2.06 20 21:18 04.05.2022
3873 Rain 17 1017 80 10000 2.57 70 20:20 04.05.2022
3874 Rain 17 1017 79 10000 3.6 130 19:35 04.05.2022
3875 Rain 17 1017 76 10000 5.14 130 18:44 04.05.2022
3876 Rain 18 1017 74 10000 6.17 140 18:20 04.05.2022
3877 Clouds 18 1017 72 10000 5.14 140 17:22 04.05.2022
3878 Clouds 19 1016 70 10000 5.14 100 15:34 04.05.2022
3879 Clouds 19 1016 67 10000 4.63 70 14:46 04.05.2022
3880 Clouds 20 1016 61 10000 4.63 70 14:20 04.05.2022
3881 Clear 19 1016 66 10000 3.6 80 12:58 04.05.2022
3882 Clear 18 996 71 10000 3.6 50 12:24 04.05.2022
3883 Clouds 17 1017 76 10000 6.17 40 10:30 04.05.2022
3884 Clouds 16 1016 78 10000 3.09 340 09:23 04.05.2022
3885 Clouds 14 1017 82 10000 3.6 340 08:26 04.05.2022
3886 Clouds 13 1016 85 10000 2.57 350 05:42 04.05.2022
3887 Clouds 14 1016 83 10000 0.51 350 02:43 04.05.2022
3888 Clouds 15 1016 83 10000 3.09 50 23:31 03.05.2022
3889 Clouds 16 1015 84 10000 3.09 40 22:00 03.05.2022
3890 Clouds 16 1015 82 10000 3.09 70 21:32 03.05.2022
3891 Clouds 16 1015 81 10000 4.12 60 20:52 03.05.2022
3892 Clouds 17 1014 77 10000 4.63 60 19:39 03.05.2022
3893 Clouds 18 1014 74 10000 5.66 60 18:48 03.05.2022
3894 Clouds 18 1014 73 10000 6.17 60 17:34 03.05.2022
3895 Clouds 18 1014 73 10000 6.17 70 16:20 03.05.2022
3896 Rain 17 1015 80 10000 5.66 70 14:34 03.05.2022
3897 Rain 17 1015 80 10000 5.66 80 12:46 03.05.2022
3898 Rain 17 1015 81 10000 6.17 70 12:22 03.05.2022
3899 Clouds 17 1014 76 10000 5.66 70 10:52 03.05.2022
3900 Clouds 15 1013 78 10000 3.09 40 08:38 03.05.2022
3901 Clouds 15 1012 77 10000 3.6 50 06:46 03.05.2022
3902 Clear 15 1013 72 10000 2.57 50 03:34 03.05.2022
3903 Clouds 16 1013 68 10000 2.57 60 23:32 02.05.2022
3904 Clouds 16 1013 69 10000 3.6 50 22:34 02.05.2022
3905 Clouds 17 1013 67 10000 4.12 70 21:48 02.05.2022
3906 Clouds 17 1013 62 10000 3.6 70 20:50 02.05.2022
3907 Clouds 19 1012 59 10000 5.66 80 18:35 02.05.2022
3908 Clouds 19 1013 60 10000 5.14 90 17:44 02.05.2022
3909 Clouds 19 1013 61 10000 5.14 100 16:50 02.05.2022
3910 Rain 19 1013 63 10000 3.6 100 15:56 02.05.2022
3911 Clouds 19 1014 62 10000 3.6 120 14:57 02.05.2022
3912 Clouds 19 1014 62 10000 3.6 150 13:48 02.05.2022
3913 Clouds 20 1014 62 10000 3.6 90 12:18 02.05.2022
3914 Clouds 18 1014 70 10000 3.09 40 10:20 02.05.2022
3915 Clouds 16 1014 78 10000 1.54 350 08:46 02.05.2022
3916 Clear 16 1014 80 10000 2.57 10 07:30 02.05.2022
3917 Clear 16 1016 75 10000 1.03 310 01:58 02.05.2022
3918 Clear 17 1016 75 10000 1.03 0 00:23 02.05.2022
3919 Rain 17 1016 74 10000 1.03 0 23:46 01.05.2022
3920 Clear 17 1016 71 10000 1.54 70 21:56 01.05.2022
3921 Clouds 18 1016 69 10000 2.57 120 20:58 01.05.2022
3922 Clouds 19 1016 68 10000 4.12 130 19:49 01.05.2022
3923 Clear 20 1016 67 10000 5.66 160 18:55 01.05.2022
3924 Clouds 20 1016 66 10000 5.14 170 18:18 01.05.2022
3925 Clouds 21 1016 64 10000 5.66 160 16:55 01.05.2022
3926 Clouds 21 1016 62 10000 5.66 190 16:23 01.05.2022
3927 Clouds 21 1017 64 10000 4.63 160 15:23 01.05.2022
3928 Clouds 20 1018 66 10000 3.6 130 13:42 01.05.2022
3929 Clouds 19 1018 72 10000 4.12 80 10:50 01.05.2022
3930 Clear 16 1018 81 10000 5.66 320 08:51 01.05.2022
3931 Clouds 15 1018 83 10000 5.14 330 07:42 01.05.2022
3932 Clouds 16 1018 82 10000 2.06 330 03:26 01.05.2022
3933 Clouds 17 1020 78 10000 1.54 210 23:23 30.04.2022
3934 Clouds 17 1019 77 10000 1.54 280 21:35 30.04.2022
3935 Clouds 18 1019 77 10000 2.06 220 20:36 30.04.2022
3936 Clear 18 1019 76 10000 2.06 200 19:41 30.04.2022
3937 Rain 19 1019 69 10000 5.14 130 17:44 30.04.2022
3938 Clouds 21 1019 64 10000 6.69 150 16:37 30.04.2022
3939 Clouds 21 1019 62 10000 6.17 150 15:24 30.04.2022
3940 Clouds 21 1020 64 10000 5.66 150 14:34 30.04.2022
3941 Clear 22 1021 60 10000 2.57 140 12:40 30.04.2022
3942 Clear 21 1021 60 10000 1.79 60 11:33 30.04.2022
3943 Clear 20 1021 63 10000 1.03 130 10:43 30.04.2022
3944 Clear 18 1021 71 10000 3.09 340 08:59 30.04.2022
3945 Clear 16 1020 74 10000 3.6 320 05:51 30.04.2022
3946 Clear 17 1022 69 10000 2.24 128 01:53 30.04.2022
3947 Clouds 18 1022 71 10000 3.09 230 23:37 29.04.2022
3948 Clouds 18 1022 70 10000 2.06 280 22:31 29.04.2022
3949 Clear 18 1021 70 10000 2.06 200 21:34 29.04.2022
3950 Clear 19 1021 66 10000 2.57 140 20:40 29.04.2022
3951 Clear 20 1021 64 10000 3.09 110 19:43 29.04.2022
3952 Clear 22 1022 58 10000 4.63 130 17:54 29.04.2022
3953 Clouds 22 1022 57 10000 5.14 140 17:21 29.04.2022
3954 Clouds 24 1022 47 10000 5.66 210 14:57 29.04.2022
3955 Clouds 24 1023 48 10000 5.66 220 14:20 29.04.2022
3956 Clear 23 1023 51 10000 2.24 7 12:48 29.04.2022
3957 Clouds 21 1024 54 10000 4.63 320 10:59 29.04.2022
3958 Clear 18 1023 67 10000 5.66 330 08:46 29.04.2022
3959 Clear 15 1022 73 10000 6.17 320 07:27 29.04.2022
3960 Clear 16 1022 68 10000 5.66 320 06:38 29.04.2022
3961 Clear 16 1022 68 10000 4.63 330 04:43 29.04.2022
3962 Clear 17 1023 66 10000 2.57 300 00:19 29.04.2022
3963 Clear 17 1022 66 10000 1.03 0 23:27 28.04.2022
3964 Clear 18 1022 65 10000 2.06 40 22:41 28.04.2022
3965 Clear 18 1021 65 10000 2.57 60 21:47 28.04.2022
3966 Clear 19 1021 61 10000 3.09 60 20:57 28.04.2022
3967 Clear 20 1021 60 10000 2.06 60 20:24 28.04.2022
3968 Clear 20 1020 59 10000 3.09 70 19:41 28.04.2022
3969 Clear 20 1020 56 10000 3.09 70 19:21 28.04.2022
3970 Clear 20 1020 56 10000 5.14 70 18:35 28.04.2022
3971 Clear 21 1020 55 10000 5.66 80 17:20 28.04.2022
3972 Clear 21 1020 53 10000 5.66 70 16:40 28.04.2022
3973 Clouds 21 1020 54 10000 5.14 70 16:18 28.04.2022
3974 Clouds 21 1020 57 10000 5.66 70 15:27 28.04.2022
3975 Clouds 20 1020 58 10000 4.63 100 13:44 28.04.2022
3976 Clouds 21 1020 53 10000 3.6 90 12:44 28.04.2022
3977 Clouds 20 1020 53 10000 4.63 80 11:58 28.04.2022
3978 Clouds 19 1020 57 10000 5.14 70 10:46 28.04.2022
3979 Clear 17 1020 59 10000 1.03 0 09:54 28.04.2022
3980 Clouds 16 1019 64 10000 2.06 350 08:31 28.04.2022
3981 Clouds 15 1018 65 10000 3.09 330 06:59 28.04.2022
3982 Clouds 14 1017 66 10000 3.09 330 05:55 28.04.2022
3983 Clouds 14 1017 65 10000 2.57 330 05:37 28.04.2022
3984 Clouds 15 1017 65 10000 2.06 340 04:38 28.04.2022
3985 Clouds 16 1018 68 10000 0.51 0 00:30 28.04.2022
3986 Clear 16 1018 66 10000 1.03 180 22:39 27.04.2022
3987 Clear 17 1017 65 10000 1.54 200 21:54 27.04.2022
3988 Clear 17 1017 61 10000 2.06 220 20:59 27.04.2022
3989 Clear 18 1017 60 10000 3.09 240 20:37 27.04.2022
3990 Clear 18 1016 59 10000 3.09 210 19:38 27.04.2022
3991 Clear 19 1016 56 10000 3.09 210 19:18 27.04.2022
3992 Clouds 19 1016 53 10000 4.12 130 18:22 27.04.2022
3993 Clouds 20 1016 52 10000 4.12 130 16:58 27.04.2022
3994 Clear 21 1017 49 10000 2.57 170 14:33 27.04.2022
3995 Clear 21 1017 50 10000 4.12 200 12:25 27.04.2022
3996 Clear 20 1017 54 10000 1.34 309 11:20 27.04.2022
3997 Clear 18 1016 60 10000 4.12 330 09:43 27.04.2022
3998 Clear 14 1015 64 10000 4.12 320 07:18 27.04.2022
3999 Clouds 14 1014 67 10000 4.12 320 04:45 27.04.2022
4000 Clouds 15 1015 68 10000 2.57 300 01:34 27.04.2022
4001 Clouds 15 1015 68 10000 1.54 240 00:38 27.04.2022
4002 Clouds 15 1015 68 10000 1.54 240 00:38 27.04.2022
4003 Clouds 15 1015 69 10000 2.57 230 23:40 26.04.2022
4004 Clouds 16 1015 68 10000 3.09 220 23:22 26.04.2022
4005 Clouds 16 1015 67 10000 2.57 220 22:41 26.04.2022
4006 Clear 17 1014 63 10000 3.09 220 21:37 26.04.2022
4007 Clear 18 1014 57 10000 3.09 210 20:53 26.04.2022
4008 Clear 19 1014 57 10000 4.63 220 20:33 26.04.2022
4009 Clouds 20 1013 52 10000 5.66 220 19:32 26.04.2022
4010 Clouds 21 1013 51 10000 6.17 210 18:45 26.04.2022
4011 Clouds 21 1013 50 10000 6.17 210 18:18 26.04.2022
4012 Clouds 21 1013 47 10000 6.17 200 17:22 26.04.2022
4013 Clouds 21 1014 50 10000 5.66 210 14:28 26.04.2022
4014 Clouds 21 1015 56 10000 4.63 210 13:34 26.04.2022
4015 Clouds 20 1015 59 10000 3.6 190 12:22 26.04.2022
4016 Clear 19 1014 58 10000 0.89 148 10:44 26.04.2022
4017 Clouds 17 1014 64 10000 2.06 310 09:36 26.04.2022
4018 Clouds 13 1014 73 10000 5.14 300 07:54 26.04.2022
4019 Clouds 13 1013 74 10000 2.06 320 04:33 26.04.2022
4020 Clear 13 1014 75 10000 1.54 290 01:54 26.04.2022
4021 Clear 15 1014 74 10000 2.06 230 00:26 26.04.2022
4022 Clear 16 1013 70 10000 4.63 220 22:49 25.04.2022
4023 Clear 17 1012 69 10000 3.09 210 21:43 25.04.2022
4024 Clear 18 1012 67 10000 5.66 230 20:45 25.04.2022
4025 Clear 18 1012 67 10000 5.66 230 20:45 25.04.2022
4026 Clouds 19 1012 68 10000 6.69 220 19:34 25.04.2022
4027 Clouds 20 1012 64 10000 6.17 220 18:23 25.04.2022
4028 Clouds 20 1012 61 10000 5.66 220 17:32 25.04.2022
4029 Clouds 19 1013 67 10000 6.17 130 15:30 25.04.2022
4030 Clouds 19 1013 68 10000 5.66 150 14:54 25.04.2022
4031 Clouds 19 1014 67 10000 4.63 100 13:41 25.04.2022
4032 Clouds 19 1013 59 10000 1.34 60 11:49 25.04.2022
4033 Clear 17 1013 65 10000 1.03 0 10:27 25.04.2022
4034 Clouds 15 1013 75 10000 2.57 330 08:47 25.04.2022
4035 Clouds 12 1012 82 10000 3.6 330 06:46 25.04.2022
4036 Clouds 12 1012 81 10000 2.57 330 05:23 25.04.2022
4037 Clouds 14 1012 79 10000 2.57 50 00:58 25.04.2022
4038 Clouds 15 1012 77 10000 2.57 80 23:52 24.04.2022
4039 Clouds 15 1011 76 10000 1.34 0 22:52 24.04.2022
4040 Clouds 15 1011 75 10000 4.63 250 22:31 24.04.2022
4041 Clouds 16 1010 72 10000 6.69 220 21:42 24.04.2022
4042 Clouds 17 1010 71 10000 7.2 220 21:18 24.04.2022
4043 Clouds 18 1009 65 10000 8.75 230 20:37 24.04.2022
4044 Clouds 18 1008 60 10000 7.72 220 19:48 24.04.2022
4045 Clouds 20 1007 54 10000 10.8 230 18:20 24.04.2022
4046 Clouds 20 1008 54 10000 10.8 220 17:37 24.04.2022
4047 Clouds 20 1008 59 10000 10.8 220 17:19 24.04.2022
4048 Clouds 20 1008 62 10000 8.75 230 16:35 24.04.2022
4049 Clouds 21 1008 56 10000 4.47 345 15:56 24.04.2022
4050 Clouds 20 1008 57 10000 4.12 180 15:31 24.04.2022
4051 Clouds 20 1008 55 10000 5.14 200 13:58 24.04.2022
4052 Clouds 19 1008 55 10000 3.09 270 13:25 24.04.2022
4053 Clouds 18 1007 58 10000 4.12 280 12:32 24.04.2022
4054 Clouds 17 1007 62 10000 6.17 310 11:33 24.04.2022
4055 Clouds 15 1006 65 10000 8.23 280 10:27 24.04.2022
4056 Clouds 14 1005 68 10000 5.14 290 09:26 24.04.2022
4057 Clouds 12 1004 70 10000 6.17 230 06:46 24.04.2022
4058 Clouds 12 1003 69 10000 8.75 240 03:57 24.04.2022
4059 Clouds 12 1003 72 10000 6.17 250 01:38 24.04.2022
4060 Clouds 12 1003 72 10000 6.17 250 01:38 24.04.2022
4061 Clouds 12 1003 72 10000 8.23 250 00:29 24.04.2022
4062 Clouds 12 1003 75 10000 5.14 270 23:44 23.04.2022
4063 Clouds 12 1003 75 10000 5.14 270 23:21 23.04.2022
4064 Drizzle 12 1002 77 10000 7.2 250 21:53 23.04.2022
4065 Drizzle 12 1002 78 10000 8.75 260 21:34 23.04.2022
4066 Clouds 12 1001 76 10000 6.17 230 20:51 23.04.2022
4067 Thunderstorm 14 1000 66 10000 5.14 210 19:47 23.04.2022
4068 Clouds 15 999 63 10000 7.72 230 19:19 23.04.2022
4069 Rain 15 999 65 10000 10.29 230 18:52 23.04.2022
4070 Rain 14 999 69 10000 7.2 230 17:51 23.04.2022
4071 Rain 14 999 68 10000 6.69 240 17:26 23.04.2022
4072 Clouds 13 999 69 10000 8.23 220 16:41 23.04.2022
4073 Rain 14 998 67 10000 9.77 260 15:28 23.04.2022
4074 Clouds 15 997 67 10000 9.77 220 12:44 23.04.2022
4075 Drizzle 15 997 80 9000 7.72 210 10:44 23.04.2022
4076 Drizzle 14 996 82 7000 1.79 1 09:33 23.04.2022
4077 Clouds 14 997 83 10000 1.54 140 06:32 23.04.2022
4078 Clouds 13 998 82 9000 1.54 170 03:54 23.04.2022
4079 Clouds 13 1000 82 10000 2.06 300 01:20 23.04.2022
4080 Clouds 14 1000 79 10000 1.54 160 23:30 22.04.2022
4081 Clouds 15 1000 75 10000 1.34 340 22:20 22.04.2022
4082 Clear 15 1000 72 10000 2.06 210 21:43 22.04.2022
4083 Clouds 16 1000 66 10000 3.13 62 20:47 22.04.2022
4084 Clouds 16 1000 64 10000 3.58 68 20:27 22.04.2022
4085 Clouds 17 1000 65 10000 6.17 240 19:20 22.04.2022
4086 Clouds 17 1000 65 10000 7.2 220 18:41 22.04.2022
4087 Clouds 18 1000 63 10000 6.69 230 17:41 22.04.2022
4088 Clouds 18 1000 61 10000 7.72 210 16:46 22.04.2022
4089 Clouds 20 1000 56 10000 7.72 220 15:42 22.04.2022
4090 Clouds 20 1000 57 10000 7.72 210 14:46 22.04.2022
4091 Clouds 20 1001 53 10000 4.12 260 13:50 22.04.2022
4092 Clear 20 1001 55 10000 3.09 230 12:58 22.04.2022
4093 Clear 18 1001 60 10000 7.2 220 11:50 22.04.2022
4094 Clear 18 1001 60 10000 4.12 260 11:21 22.04.2022
4095 Clear 17 1001 61 10000 4.12 270 10:50 22.04.2022
4096 Clear 16 1001 64 10000 4.12 250 10:30 22.04.2022
4097 Clear 15 1001 69 10000 4.63 250 09:50 22.04.2022
4098 Clear 13 1001 75 10000 4.63 320 08:50 22.04.2022
4099 Clear 12 1001 80 10000 3.6 270 06:58 22.04.2022
4100 Clouds 13 1001 81 10000 1.03 0 03:30 22.04.2022
4101 Clouds 13 1003 79 10000 2.06 300 00:51 22.04.2022
4102 Clouds 14 1003 79 10000 1.03 0 23:24 21.04.2022
4103 Clouds 14 1003 81 10000 1.54 290 22:27 21.04.2022
4104 Clouds 14 1002 81 10000 4.02 121 20:37 21.04.2022
4105 Clouds 14 1002 81 10000 2.24 114 20:18 21.04.2022
4106 Rain 14 1002 79 9000 3.09 280 18:42 21.04.2022
4107 Rain 13 1002 80 8000 3.09 270 17:57 21.04.2022
4108 Rain 14 1002 77 10000 2.68 325 16:35 21.04.2022
4109 Rain 13 1002 79 10000 4.63 280 15:21 21.04.2022
4110 Rain 13 1002 79 10000 4.12 300 14:49 21.04.2022
4111 Rain 11 1003 80 10000 5.14 290 13:23 21.04.2022
4112 Rain 12 1003 79 10000 4.47 135 12:57 21.04.2022
4113 Rain 12 1004 83 10000 4.63 330 10:49 21.04.2022
4114 Rain 12 1004 82 10000 2.06 320 08:57 21.04.2022
4115 Rain 11 1003 81 6000 0.51 350 07:32 21.04.2022
4116 Rain 12 1004 81 10000 6.69 60 05:42 21.04.2022
4117 Clouds 13 1004 78 10000 9.77 50 03:32 21.04.2022
4118 Clouds 13 1004 80 10000 9.26 60 02:47 21.04.2022
4119 Clouds 14 1004 80 10000 6.69 50 00:47 21.04.2022
4120 Thunderstorm 14 1004 80 10000 4.47 53 23:51 20.04.2022
4121 Clouds 14 1004 81 10000 5.14 130 23:22 20.04.2022
4122 Clouds 14 1004 82 10000 6.69 80 22:50 20.04.2022
4123 Clouds 14 1004 83 10000 7.72 60 22:31 20.04.2022
4124 Rain 15 1004 81 10000 10.29 50 21:29 20.04.2022
4125 Rain 15 1003 80 10000 10.29 60 20:37 20.04.2022
4126 Rain 15 1003 79 10000 10.29 50 19:52 20.04.2022
4127 Rain 15 1003 78 10000 9.77 50 19:21 20.04.2022
4128 Thunderstorm 16 1003 76 10000 13.38 60 18:23 20.04.2022
4129 Clouds 16 1003 75 10000 12.35 60 16:56 20.04.2022
4130 Clouds 16 1003 72 10000 12.86 60 16:37 20.04.2022
4131 Clouds 16 1003 70 6000 12.35 60 14:21 20.04.2022
4132 Clouds 16 1004 70 10000 11.32 60 11:52 20.04.2022
4133 Clouds 15 1004 71 10000 10.29 60 11:25 20.04.2022
4134 Clouds 15 1004 70 10000 9.77 60 10:24 20.04.2022
4135 Clouds 15 1003 70 10000 10.29 60 09:25 20.04.2022
4136 Clouds 14 1004 75 10000 8.23 60 08:22 20.04.2022
4137 Clouds 14 1004 74 10000 8.23 60 08:22 20.04.2022
4138 Clouds 14 1004 78 10000 8.23 60 07:42 20.04.2022
4139 Clouds 14 1005 76 10000 4.12 30 03:54 20.04.2022
4140 Clouds 14 1008 79 10000 2.06 320 00:24 20.04.2022
4141 Clouds 14 1008 78 10000 2.06 320 23:59 19.04.2022
4142 Clouds 15 1008 77 10000 3.09 50 22:28 19.04.2022
4143 Clouds 15 1009 75 10000 2.57 50 21:57 19.04.2022
4144 Rain 16 1008 73 10000 3.09 40 21:34 19.04.2022
4145 Rain 16 1009 66 10000 1.03 10 20:50 19.04.2022
4146 Clouds 17 1009 66 10000 2.57 40 20:32 19.04.2022
4147 Clouds 17 1009 62 10000 2.57 30 19:24 19.04.2022
4148 Clouds 18 1009 59 10000 3.6 100 17:59 19.04.2022
4149 Clouds 18 1010 58 10000 3.09 80 16:44 19.04.2022
4150 Clouds 18 1010 57 10000 4.12 150 16:24 19.04.2022
4151 Clouds 17 1011 70 10000 3.6 130 14:51 19.04.2022
4152 Clouds 17 1011 71 10000 2.57 110 14:31 19.04.2022
4153 Clouds 17 1012 74 9000 2.06 110 12:52 19.04.2022
4154 Clouds 17 1013 75 9000 2.06 150 12:26 19.04.2022
4155 Clouds 16 1013 76 9000 1.54 190 11:22 19.04.2022
4156 Clouds 14 1012 78 9000 2.06 330 09:25 19.04.2022
4157 Clouds 12 1012 78 10000 3.09 320 06:34 19.04.2022
4158 Clouds 13 1013 78 10000 2.57 320 04:19 19.04.2022
4159 Clouds 14 1014 82 10000 1.54 290 00:56 19.04.2022
4160 Clouds 14 1014 82 10000 1.54 50 23:38 18.04.2022
4161 Clouds 15 1014 81 10000 2.06 90 21:48 18.04.2022
4162 Clouds 15 1014 81 10000 3.09 120 21:24 18.04.2022
4163 Clouds 16 1014 78 10000 4.12 130 20:38 18.04.2022
4164 Clouds 17 1013 79 10000 4.12 130 19:59 18.04.2022
4165 Clouds 17 1013 77 10000 3.6 110 19:27 18.04.2022
4166 Clouds 18 1013 76 10000 3.6 120 18:33 18.04.2022
4167 Clouds 18 1014 74 10000 4.12 120 17:39 18.04.2022
4168 Clouds 18 1014 73 10000 4.12 120 17:19 18.04.2022
4169 Clouds 18 1015 70 10000 4.63 120 16:35 18.04.2022
4170 Clouds 18 1015 71 10000 5.14 130 15:28 18.04.2022
4171 Clouds 18 1016 70 10000 5.66 130 13:44 18.04.2022
4172 Clear 18 1016 69 10000 4.12 140 12:40 18.04.2022
4173 Clear 18 1016 64 10000 4.12 200 11:43 18.04.2022
4174 Clear 17 1015 63 10000 3.09 310 10:43 18.04.2022
4175 Clear 16 1015 66 10000 3.13 249 09:31 18.04.2022
4176 Clear 16 1015 67 10000 3.13 249 09:31 18.04.2022
4177 Clear 15 1015 69 10000 4.12 320 08:37 18.04.2022
4178 Clear 13 1015 73 10000 2.06 320 06:25 18.04.2022
4179 Clouds 15 1016 66 10000 2.57 320 02:22 18.04.2022
4180 Clear 15 1017 72 10000 1.54 80 22:53 17.04.2022
4181 Clear 15 1017 72 10000 1.54 70 22:31 17.04.2022
4182 Clouds 16 1016 70 10000 3.09 70 21:32 17.04.2022
4183 Clouds 16 1016 69 10000 3.09 70 20:51 17.04.2022
4184 Clear 17 1016 67 10000 3.6 70 19:55 17.04.2022
4185 Clear 18 1016 66 10000 4.12 120 18:34 17.04.2022
4186 Clear 18 1016 66 10000 5.66 140 17:20 17.04.2022
4187 Clouds 19 1017 61 10000 6.69 90 15:34 17.04.2022
4188 Clouds 21 1017 54 10000 6.17 80 14:38 17.04.2022
4189 Clouds 21 1017 58 10000 6.17 80 13:28 17.04.2022
4190 Clouds 21 1017 57 10000 5.14 90 12:31 17.04.2022
4191 Clouds 21 1017 55 10000 3.09 90 10:48 17.04.2022
4192 Clouds 20 1017 57 10000 1.54 10 10:29 17.04.2022
4193 Clouds 19 1017 62 10000 3.6 340 09:51 17.04.2022
4194 Clouds 18 1017 67 10000 4.63 330 09:18 17.04.2022
4195 Clouds 17 1017 71 10000 3.6 340 08:31 17.04.2022
4196 Clear 16 1015 75 10000 2.57 350 05:33 17.04.2022
4197 Clear 16 1016 78 10000 2.06 250 01:52 17.04.2022
4198 Clouds 16 1016 77 10000 1.54 300 00:37 17.04.2022
4199 Clear 17 1016 76 10000 1.03 130 23:30 16.04.2022
4200 Clouds 18 1016 75 10000 3.09 110 21:47 16.04.2022
4201 Clouds 19 1015 71 10000 4.12 130 20:54 16.04.2022
4202 Clouds 21 1015 71 10000 9.77 230 19:24 16.04.2022
4203 Clouds 22 1015 69 10000 8.23 220 18:43 16.04.2022
4204 Clouds 24 1014 53 10000 5.66 150 17:20 16.04.2022
4205 Clouds 25 1015 48 10000 5.14 210 15:51 16.04.2022
4206 Clouds 25 1015 44 10000 5.66 210 14:58 16.04.2022
4207 Clouds 25 1016 45 10000 5.66 200 14:40 16.04.2022
4208 Clear 25 1016 46 10000 3.6 240 13:49 16.04.2022
4209 Clear 24 1017 51 10000 5.14 190 13:18 16.04.2022
4210 Clear 24 1017 49 10000 3.6 300 11:43 16.04.2022
4211 Clear 21 1017 57 10000 4.12 320 10:33 16.04.2022
4212 Clear 18 1018 69 10000 5.14 320 09:37 16.04.2022
4213 Clear 18 1018 69 10000 6.17 320 08:51 16.04.2022
4214 Clear 16 1017 75 10000 6.69 310 07:22 16.04.2022
4215 Clear 17 1017 71 10000 5.14 310 05:38 16.04.2022
4216 Clear 18 1020 64 10000 3.09 320 01:47 16.04.2022
4217 Clear 18 1020 64 10000 2.06 290 23:52 15.04.2022
4218 Clear 19 1020 61 10000 2.06 270 22:51 15.04.2022
4219 Clear 19 1020 61 10000 2.57 280 22:29 15.04.2022
4220 Clear 20 1020 58 10000 2.06 250 21:25 15.04.2022
4221 Clear 21 1019 56 10000 3.09 230 20:38 15.04.2022
4222 Clear 22 1018 52 10000 3.6 180 19:46 15.04.2022
4223 Clear 22 1019 51 10000 3.6 180 19:23 15.04.2022
4224 Clear 23 1018 49 10000 3.6 180 18:42 15.04.2022
4225 Clouds 23 1019 48 10000 3.09 180 18:22 15.04.2022
4226 Clouds 24 1019 48 10000 4.12 130 17:27 15.04.2022
4227 Clouds 24 1019 47 10000 5.14 130 16:25 15.04.2022
4228 Clouds 24 1019 46 10000 5.66 130 15:46 15.04.2022
4229 Clear 24 1020 44 10000 4.12 200 14:18 15.04.2022
4230 Clear 24 1019 41 10000 3.09 160 12:52 15.04.2022
4231 Clear 23 1019 42 10000 2.57 150 12:26 15.04.2022
4232 Clear 23 1019 43 10000 3.6 320 11:51 15.04.2022
4233 Clear 21 1019 47 10000 0.89 276 10:48 15.04.2022
4234 Clear 19 1019 51 10000 3.09 340 10:21 15.04.2022
4235 Clear 17 1019 57 10000 5.66 330 09:23 15.04.2022
4236 Clear 16 1019 59 10000 6.17 330 08:49 15.04.2022
4237 Clouds 15 1019 60 10000 3.6 340 06:51 15.04.2022
4238 Clouds 15 1018 64 10000 2.06 320 04:49 15.04.2022
4239 Clouds 16 1019 62 10000 3.09 290 00:51 15.04.2022
4240 Clouds 17 1019 58 10000 3.6 30 23:28 14.04.2022
4241 Clouds 17 1019 59 10000 3.09 20 22:46 14.04.2022
4242 Clouds 17 1019 59 10000 3.09 20 22:27 14.04.2022
4243 Clouds 17 1018 58 10000 3.6 50 21:50 14.04.2022
4244 Clouds 19 1017 50 10000 7.72 70 19:53 14.04.2022
4245 Clouds 19 1017 50 10000 9.26 70 19:22 14.04.2022
4246 Clouds 20 1016 48 10000 9.77 80 17:48 14.04.2022
4247 Clear 20 1015 48 10000 11.32 70 17:18 14.04.2022
4248 Clear 21 1015 49 10000 9.77 70 16:32 14.04.2022
4249 Clouds 21 1016 45 10000 10.29 80 13:55 14.04.2022
4250 Clouds 21 1016 48 10000 9.77 80 13:26 14.04.2022
4251 Clouds 22 1016 42 10000 8.75 70 12:33 14.04.2022
4252 Clouds 21 1015 42 10000 6.17 70 11:47 14.04.2022
4253 Clouds 20 1015 43 10000 6.17 30 11:21 14.04.2022
4254 Clouds 19 1015 48 10000 3.6 330 10:36 14.04.2022
4255 Clouds 18 1015 48 10000 4.12 330 09:52 14.04.2022
4256 Clouds 14 1015 68 10000 4.12 330 08:39 14.04.2022
4257 Clouds 13 1015 76 10000 2.06 290 06:24 14.04.2022
4258 Clouds 14 1015 72 10000 3.6 30 01:49 14.04.2022
4259 Clouds 14 1015 71 10000 8.23 60 22:45 13.04.2022
4260 Drizzle 14 1015 76 10000 10.8 60 21:44 13.04.2022
4261 Rain 14 1014 77 10000 8.23 70 20:48 13.04.2022
4262 Clouds 14 1014 80 10000 8.75 70 20:22 13.04.2022
4263 Rain 15 1012 81 10000 7.72 50 19:23 13.04.2022
4264 Mist 14 1013 82 5000 8.23 60 17:54 13.04.2022
4265 Mist 14 1013 84 5000 8.75 70 17:23 13.04.2022
4266 Mist 14 1013 84 5000 8.23 70 16:33 13.04.2022
4267 Rain 14 1013 85 7000 7.72 70 15:32 13.04.2022
4268 Rain 14 1013 85 6000 8.23 60 14:50 13.04.2022
4269 Mist 14 1013 86 2000 9.26 60 13:58 13.04.2022
4270 Mist 14 1013 88 1200 9.77 60 13:19 13.04.2022
4271 Mist 14 1013 88 1200 9.77 60 12:20 13.04.2022
4272 Mist 14 1012 88 3000 8.75 60 10:47 13.04.2022
4273 Clouds 14 1011 86 3100 7.2 50 08:57 13.04.2022
4274 Drizzle 14 1011 85 6000 7.2 60 08:33 13.04.2022
4275 Clouds 14 1010 86 6000 7.72 50 06:51 13.04.2022
4276 Clouds 14 1011 86 4000 7.72 50 06:25 13.04.2022
4277 Clouds 14 1011 81 7000 5.66 70 04:55 13.04.2022
4278 Mist 14 1012 91 5000 7.72 50 00:20 13.04.2022
4279 Clouds 14 1012 82 8000 8.75 60 23:21 12.04.2022
4280 Clouds 14 1011 80 10000 8.75 60 21:57 12.04.2022
4281 Clouds 15 1011 78 10000 7.2 60 20:57 12.04.2022
4282 Clouds 15 1011 80 10000 8.23 60 20:38 12.04.2022
4283 Clouds 15 1011 78 10000 7.72 60 19:48 12.04.2022
4284 Clouds 15 1011 78 10000 7.72 60 19:29 12.04.2022
4285 Clouds 15 1011 78 10000 7.72 60 19:29 12.04.2022
4286 Clouds 15 1011 77 10000 8.23 60 17:59 12.04.2022
4287 Clouds 15 1011 77 10000 8.75 60 17:23 12.04.2022
4288 Clouds 15 1011 76 10000 8.75 60 16:22 12.04.2022
4289 Clouds 15 1011 76 10000 10.8 50 15:29 12.04.2022
4290 Clouds 15 1012 75 10000 11.32 60 14:21 12.04.2022
4291 Clouds 15 1012 76 10000 10.29 50 13:29 12.04.2022
4292 Drizzle 14 1012 78 7000 10.29 50 12:49 12.04.2022
4293 Drizzle 14 1013 77 5000 9.77 50 11:46 12.04.2022
4294 Clouds 14 1012 76 9000 8.75 60 10:35 12.04.2022
4295 Clouds 14 1012 75 10000 8.23 60 09:18 12.04.2022
4296 Clouds 14 1011 74 10000 10.29 50 07:55 12.04.2022
4297 Clouds 14 1011 75 10000 9.26 60 05:50 12.04.2022
4298 Clouds 14 1012 75 9000 9.26 60 05:31 12.04.2022
4299 Clouds 14 1014 76 9000 8.23 60 23:59 11.04.2022
4300 Clouds 14 1015 76 9000 7.72 60 22:44 11.04.2022
4301 Clouds 14 1014 75 10000 9.26 50 21:37 11.04.2022
4302 Clouds 14 1014 75 10000 8.75 60 20:57 11.04.2022
4303 Clouds 14 1014 74 10000 7.72 60 20:29 11.04.2022
4304 Clouds 14 1014 73 10000 8.75 60 19:54 11.04.2022
4305 Clouds 15 1014 72 10000 7.72 60 19:18 11.04.2022
4306 Clouds 15 1014 72 10000 8.23 60 18:47 11.04.2022
4307 Clouds 16 1014 71 10000 8.23 60 17:56 11.04.2022
4308 Clouds 16 1015 71 10000 7.72 70 16:54 11.04.2022
4309 Clouds 16 1015 68 10000 7.2 70 15:54 11.04.2022
4310 Clouds 17 1016 70 10000 5.66 90 14:24 11.04.2022
4311 Clouds 16 1017 73 10000 5.66 90 12:52 11.04.2022
4312 Clouds 16 1017 73 10000 5.14 70 12:31 11.04.2022
4313 Clouds 16 1016 73 10000 4.12 80 11:31 11.04.2022
4314 Clouds 15 1016 73 10000 1.54 340 10:28 11.04.2022
4315 Clear 13 1016 77 10000 3.09 330 09:20 11.04.2022
4316 Clear 11 1015 78 10000 2.57 330 06:24 11.04.2022
4317 Clear 12 1017 77 10000 1.54 180 01:53 11.04.2022
4318 Clear 14 1017 70 10000 4.12 240 22:37 10.04.2022
4319 Clear 14 1017 69 10000 3.6 240 21:55 10.04.2022
4320 Clear 14 1017 70 10000 4.12 240 21:29 10.04.2022
4321 Clear 15 1017 67 10000 5.66 240 20:31 10.04.2022
4322 Clear 16 1017 66 10000 6.17 230 19:44 10.04.2022
4323 Clouds 17 1017 66 10000 6.17 230 19:20 10.04.2022
4324 Clouds 17 1017 66 10000 6.17 230 18:42 10.04.2022
4325 Clouds 17 1017 68 10000 7.2 210 17:52 10.04.2022
4326 Clouds 17 1018 68 10000 6.17 200 17:33 10.04.2022
4327 Clouds 17 1019 64 10000 5.14 200 16:22 10.04.2022
4328 Clouds 16 1019 62 10000 4.12 200 15:19 10.04.2022
4329 Clouds 16 1020 62 10000 3.6 180 14:22 10.04.2022
4330 Clouds 15 1021 68 10000 3.09 160 12:34 10.04.2022
4331 Clouds 14 1021 73 10000 3.6 140 11:46 10.04.2022
4332 Clouds 14 1021 74 10000 3.6 140 11:28 10.04.2022
4333 Clouds 14 1020 73 10000 1.54 300 10:48 10.04.2022
4334 Clouds 13 1020 76 10000 1.54 310 09:56 10.04.2022
4335 Clouds 13 1020 76 10000 2.06 320 09:28 10.04.2022
4336 Clouds 12 1020 78 10000 3.6 320 08:22 10.04.2022
4337 Clouds 12 1020 77 10000 2.57 320 07:21 10.04.2022
4338 Clouds 12 1019 75 10000 2.06 330 05:46 10.04.2022
4339 Clouds 13 1020 74 10000 1.03 0 02:21 10.04.2022
4340 Clouds 13 1020 73 10000 2.06 150 00:25 10.04.2022
4341 Clouds 13 1019 75 10000 2.57 120 23:43 09.04.2022
4342 Clouds 13 1019 73 10000 3.09 110 22:45 09.04.2022
4343 Clouds 13 1018 74 10000 3.6 100 21:35 09.04.2022
4344 Clouds 13 1017 74 10000 4.12 110 20:48 09.04.2022
4345 Clouds 14 1017 74 10000 4.12 100 20:25 09.04.2022
4346 Clouds 14 1016 73 10000 5.14 110 19:41 09.04.2022
4347 Clouds 14 1016 74 10000 6.17 110 18:55 09.04.2022
4348 Clouds 14 1016 73 10000 6.17 120 18:19 09.04.2022
4349 Clouds 14 1015 72 10000 6.69 130 17:39 09.04.2022
4350 Clouds 15 1015 71 10000 6.69 130 16:50 09.04.2022
4351 Clouds 15 1015 72 10000 6.69 130 15:55 09.04.2022
4352 Clouds 15 1015 72 10000 6.69 140 15:29 09.04.2022
4353 Clouds 15 1015 71 10000 6.69 130 14:27 09.04.2022
4354 Clouds 15 1015 75 10000 6.69 130 13:54 09.04.2022
4355 Clouds 15 1015 69 10000 5.14 110 13:18 09.04.2022
4356 Clouds 15 1015 71 10000 6.69 120 12:41 09.04.2022
4357 Clouds 15 1014 68 10000 4.63 100 11:22 09.04.2022
4358 Clouds 15 1013 71 10000 5.36 318 10:21 09.04.2022
4359 Clouds 14 1013 68 10000 3.6 340 09:37 09.04.2022
4360 Clouds 14 1012 66 10000 3.09 320 08:51 09.04.2022
4361 Clouds 15 1011 60 10000 6.69 320 06:56 09.04.2022
4362 Clear 19 1010 46 10000 5.14 260 01:32 09.04.2022
4363 Clear 20 1010 42 10000 4.12 250 23:30 08.04.2022
4364 Clear 21 1010 39 10000 7.2 250 21:58 08.04.2022
4365 Clear 21 1009 37 10000 5.66 250 21:29 08.04.2022
4366 Clear 21 1009 34 10000 4.12 280 20:38 08.04.2022
4367 Clear 23 1009 32 10000 7.72 260 19:20 08.04.2022
4368 Clouds 23 1009 33 10000 8.75 270 18:30 08.04.2022
4369 Clear 23 1009 31 10000 7.2 250 17:49 08.04.2022
4370 Clear 24 1008 29 10000 8.23 260 17:25 08.04.2022
4371 Clear 24 1009 29 10000 8.75 270 16:47 08.04.2022
4372 Clear 24 1009 33 10000 6.17 260 15:57 08.04.2022
4373 Clear 24 1009 33 10000 10.29 290 15:26 08.04.2022
4374 Clear 23 1010 35 10000 8.75 270 14:33 08.04.2022
4375 Clear 22 1011 41 10000 8.23 240 13:46 08.04.2022
4376 Clear 22 1011 42 10000 8.23 240 13:27 08.04.2022
4377 Clear 20 1012 44 10000 5.66 250 11:56 08.04.2022
4378 Clear 17 1013 54 10000 2.57 270 10:37 08.04.2022
4379 Clear 16 1013 57 10000 4.02 107 09:38 08.04.2022
4380 Clouds 15 1013 59 10000 2.24 297 08:51 08.04.2022
4381 Clouds 13 1013 65 10000 3.09 350 06:55 08.04.2022
4382 Clouds 14 1013 62 10000 1.54 260 05:23 08.04.2022
4383 Clear 16 1014 60 10000 4.63 240 01:29 08.04.2022
4384 Clear 17 1014 61 10000 5.66 230 00:25 08.04.2022
4385 Clear 18 1014 53 10000 5.14 260 22:59 07.04.2022
4386 Clear 18 1014 50 10000 2.06 280 22:39 07.04.2022
4387 Clear 18 1014 48 10000 2.06 280 22:21 07.04.2022
4388 Clear 19 1013 45 10000 3.6 270 21:53 07.04.2022
4389 Clear 19 1013 46 10000 3.6 260 21:19 07.04.2022
4390 Clear 19 1012 42 10000 3.09 230 20:38 07.04.2022
4391 Clear 21 1012 39 10000 9.77 230 18:48 07.04.2022
4392 Clear 22 1011 37 10000 8.75 270 17:27 07.04.2022
4393 Clear 23 1011 36 10000 8.23 260 16:45 07.04.2022
4394 Clear 23 1011 34 10000 9.26 250 16:23 07.04.2022
4395 Clear 23 1012 32 10000 7.2 260 15:19 07.04.2022
4396 Clear 20 1014 49 10000 7.72 260 13:45 07.04.2022
4397 Clear 19 1014 49 10000 6.69 270 12:58 07.04.2022
4398 Clear 17 1015 51 10000 4.63 280 11:40 07.04.2022
4399 Clear 15 1015 58 10000 3.09 330 10:27 07.04.2022
4400 Clouds 11 1014 69 10000 3.6 300 08:39 07.04.2022
4401 Clear 10 1013 69 10000 4.12 330 06:58 07.04.2022
4402 Clear 10 1013 71 10000 3.6 320 03:59 07.04.2022
4403 Clear 11 1013 72 10000 2.06 340 02:28 07.04.2022
4404 Clear 12 1013 67 10000 2.57 180 00:42 07.04.2022
4405 Clear 13 1013 63 10000 3.6 210 22:58 06.04.2022
4406 Clear 13 1013 61 10000 3.6 210 22:39 06.04.2022
4407 Clouds 14 1013 60 10000 3.6 220 21:47 06.04.2022
4408 Clear 14 1011 65 10000 5.66 210 20:41 06.04.2022
4409 Clear 15 1011 61 10000 4.12 220 19:59 06.04.2022
4410 Clouds 16 1011 60 10000 5.14 190 19:19 06.04.2022
4411 Clouds 16 1010 57 10000 5.14 190 18:47 06.04.2022
4412 Clear 17 1010 54 10000 6.69 230 17:35 06.04.2022
4413 Clear 17 1010 45 10000 6.69 230 16:39 06.04.2022
4414 Clouds 17 1010 44 10000 6.17 220 15:57 06.04.2022
4415 Clouds 17 1010 43 10000 6.17 220 15:39 06.04.2022
4416 Clouds 17 1011 45 10000 4.63 220 13:31 06.04.2022
4417 Clouds 16 1011 50 10000 0.51 220 12:28 06.04.2022
4418 Clouds 14 1011 55 10000 2.06 300 10:57 06.04.2022
4419 Clouds 13 1011 57 10000 3.09 300 10:33 06.04.2022
4420 Clouds 12 1010 62 10000 5.14 310 09:46 06.04.2022
4421 Clouds 11 1010 64 10000 3.6 320 08:39 06.04.2022
4422 Clouds 10 1010 66 10000 4.63 310 07:57 06.04.2022
4423 Clouds 10 1010 64 10000 4.12 320 05:23 06.04.2022
4424 Clouds 10 1013 67 10000 1.54 320 00:20 06.04.2022
4425 Clear 11 1013 67 10000 2.06 0 23:47 05.04.2022
4426 Clear 11 1013 66 10000 1.54 150 21:48 05.04.2022
4427 Clear 12 1013 63 10000 2.57 160 20:58 05.04.2022
4428 Clear 12 1013 60 10000 3.09 130 20:23 05.04.2022
4429 Clear 14 1013 52 10000 4.12 120 18:31 05.04.2022
4430 Clear 14 1013 49 10000 5.14 140 17:21 05.04.2022
4431 Clear 15 1013 47 10000 5.14 150 16:42 05.04.2022
4432 Clear 15 1014 47 10000 5.14 130 15:51 05.04.2022
4433 Clear 15 1014 45 10000 3.6 120 15:30 05.04.2022
4434 Clear 15 1015 41 10000 3.09 110 13:49 05.04.2022
4435 Clear 14 1016 42 10000 1.54 100 12:33 05.04.2022
4436 Clear 13 1016 43 10000 1.34 49 11:43 05.04.2022
4437 Clear 13 1016 45 10000 2.57 340 11:24 05.04.2022
4438 Clear 8 1016 59 10000 6.17 330 09:31 05.04.2022
4439 Clear 7 1016 61 10000 6.17 330 08:33 05.04.2022
4440 Clear 8 1017 60 10000 4.63 320 04:19 05.04.2022
4441 Clear 9 1017 60 10000 3.09 20 23:45 04.04.2022
4442 Clear 10 1017 56 10000 6.17 70 22:38 04.04.2022
4443 Clear 10 1017 57 10000 7.72 80 21:51 04.04.2022
4444 Clear 11 1016 58 10000 7.72 80 21:20 04.04.2022
4445 Clear 11 1016 60 10000 7.2 80 20:47 04.04.2022
4446 Clear 12 1016 57 10000 6.71 265 19:30 04.04.2022
4447 Clear 12 1016 55 10000 5.36 265 18:46 04.04.2022
4448 Clouds 12 1016 51 10000 3.09 100 17:33 04.04.2022
4449 Clouds 12 1016 47 10000 5.14 100 16:36 04.04.2022
4450 Clear 12 1017 45 10000 5.66 100 15:34 04.04.2022
4451 Clouds 12 1017 50 10000 5.14 100 14:49 04.04.2022
4452 Clouds 12 1017 52 10000 5.66 100 14:31 04.04.2022
4453 Clouds 11 1018 53 10000 4.12 100 13:18 04.04.2022
4454 Clouds 9 1019 63 10000 2.57 350 11:29 04.04.2022
4455 Clouds 8 1019 69 10000 3.6 320 10:49 04.04.2022
4456 Clouds 5 1018 75 10000 3.6 340 07:36 04.04.2022
4457 Clouds 6 1019 76 10000 2.57 330 03:19 04.04.2022
4458 Clouds 6 1019 73 10000 2.06 360 00:25 04.04.2022
4459 Clouds 7 1019 73 10000 4.63 80 22:31 03.04.2022
4460 Clouds 7 1018 73 10000 4.12 80 21:37 03.04.2022
4461 Clouds 7 1017 72 10000 3.6 60 20:41 03.04.2022
4462 Clouds 8 1017 69 10000 3.6 100 19:45 03.04.2022
4463 Clouds 8 1016 69 10000 3.6 110 18:31 03.04.2022
4464 Clouds 8 1016 70 10000 3.09 120 17:46 03.04.2022
4465 Drizzle 8 1016 73 10000 3.09 110 16:50 03.04.2022
4466 Drizzle 7 1016 73 10000 2.57 110 16:31 03.04.2022
4467 Rain 7 1017 70 10000 4.63 150 14:38 03.04.2022
4468 Rain 8 1017 63 10000 3.6 160 13:46 03.04.2022
4469 Clouds 8 1016 51 10000 2.57 290 12:38 03.04.2022
4470 Clouds 6 1016 49 10000 3.09 10 10:58 03.04.2022
4471 Clouds 6 1016 47 10000 5.14 320 09:36 03.04.2022
4472 Clouds 6 1015 47 10000 4.63 320 08:27 03.04.2022
4473 Clouds 7 1014 54 10000 3.13 245 04:37 03.04.2022
4474 Clouds 8 1014 61 10000 2.57 50 00:41 03.04.2022
4475 Clouds 9 1014 58 10000 9.26 80 23:21 02.04.2022
4476 Clouds 10 1013 60 10000 9.26 50 21:58 02.04.2022
4477 Clouds 10 1013 61 10000 9.26 50 21:36 02.04.2022
4478 Clouds 10 1013 61 10000 8.75 50 21:18 02.04.2022
4479 Clouds 11 1011 58 10000 9.77 50 19:53 02.04.2022
4480 Clouds 14 1010 36 10000 7.6 75 18:23 02.04.2022
4481 Clouds 15 1009 32 10000 10.29 270 17:53 02.04.2022
4482 Clouds 16 1009 26 10000 5.66 270 16:27 02.04.2022
4483 Clouds 15 1010 28 10000 9.26 270 15:22 02.04.2022
4484 Clouds 14 1010 30 10000 7.72 300 14:49 02.04.2022
4485 Clear 12 1010 35 10000 9.77 290 13:36 02.04.2022
4486 Clear 11 1010 36 10000 9.26 290 12:47 02.04.2022
4487 Clear 10 1010 40 10000 9.77 310 11:31 02.04.2022
4488 Clear 6 1010 55 10000 5.14 310 09:30 02.04.2022
4489 Clear 5 1009 63 10000 6.69 320 06:51 02.04.2022
4490 Clear 5 1009 63 10000 6.69 320 06:51 02.04.2022
4491 Clear 5 1009 59 10000 5.14 240 03:53 02.04.2022
4492 Clear 8 1010 35 10000 7.2 270 00:19 02.04.2022
4493 Clear 9 1010 29 10000 6.17 280 23:40 01.04.2022
4494 Clouds 10 1009 25 10000 4.63 280 21:52 01.04.2022
4495 Clouds 11 1008 22 10000 6.17 320 20:52 01.04.2022
4496 Clouds 11 1008 21 10000 9.77 310 20:30 01.04.2022
4497 Clouds 12 1007 17 10000 9.26 300 19:37 01.04.2022
4498 Clouds 13 1006 16 10000 10.8 300 18:51 01.04.2022
4499 Clouds 14 1006 15 10000 11.83 310 17:54 01.04.2022
4500 Clouds 14 1005 15 10000 9.77 300 17:34 01.04.2022
4501 Clouds 14 1005 19 10000 10.29 300 15:42 01.04.2022
4502 Clouds 14 1005 20 10000 10.29 310 14:26 01.04.2022
4503 Clouds 13 1005 22 10000 8.23 300 13:34 01.04.2022
4504 Clouds 12 1005 25 10000 7.72 300 12:33 01.04.2022
4505 Clouds 12 1005 25 10000 7.72 300 12:33 01.04.2022
4506 Clouds 12 1004 27 10000 5.66 320 11:44 01.04.2022
4507 Clouds 10 1003 40 10000 7.2 310 10:19 01.04.2022
4508 Clouds 9 1002 50 10000 5.66 320 09:29 01.04.2022
4509 Clouds 9 1000 71 10000 5.66 300 06:55 01.04.2022
4510 Clouds 9 1000 77 10000 4.12 250 04:53 01.04.2022
4511 Clear 9 1001 77 10000 4.12 330 04:34 01.04.2022
4512 Clouds 10 1001 81 10000 2.57 320 01:58 01.04.2022
4513 Clouds 10 1001 80 10000 1.54 360 00:44 01.04.2022
4514 Clouds 11 1001 78 10000 3.09 20 21:55 31.03.2022
4515 Clouds 11 1000 78 10000 4.12 40 21:33 31.03.2022
4516 Clouds 11 999 78 10000 5.14 50 20:30 31.03.2022
4517 Clouds 12 999 76 10000 6.69 70 19:50 31.03.2022
4518 Rain 13 999 75 10000 5.36 31 18:52 31.03.2022
4519 Clouds 14 998 75 10000 3.6 170 17:54 31.03.2022
4520 Clouds 14 998 76 10000 5.66 120 16:40 31.03.2022
4521 Clouds 15 999 73 10000 4.63 140 15:48 31.03.2022
4522 Clouds 15 999 70 10000 4.63 140 15:20 31.03.2022
4523 Clouds 15 999 72 10000 4.63 120 14:40 31.03.2022
4524 Clouds 14 1000 72 10000 5.14 340 12:30 31.03.2022
4525 Clouds 14 1000 72 10000 5.14 340 12:30 31.03.2022
4526 Clouds 13 999 73 10000 5.66 320 11:28 31.03.2022
4527 Clouds 12 999 77 10000 3.6 330 09:50 31.03.2022
4528 Clouds 11 998 80 10000 3.6 280 08:23 31.03.2022
4529 Clouds 12 999 81 10000 2.57 320 06:21 31.03.2022
4530 Clouds 12 1001 92 10000 1.54 190 00:46 31.03.2022
4531 Rain 12 1001 92 10000 2.06 210 23:23 30.03.2022
4532 Clouds 12 1001 82 10000 1.54 190 21:41 30.03.2022
4533 Clouds 12 1001 80 10000 2.06 170 20:55 30.03.2022
4534 Drizzle 12 1000 78 10000 2.57 190 20:20 30.03.2022
4535 Clouds 13 1000 77 10000 3.6 120 19:36 30.03.2022
4536 Clouds 14 1000 74 10000 4.63 130 18:34 30.03.2022
4537 Clouds 14 1000 74 10000 4.63 130 17:48 30.03.2022
4538 Clouds 14 1000 74 10000 2.24 335 16:57 30.03.2022
4539 Clouds 14 1000 74 10000 2.24 326 16:38 30.03.2022
4540 Clouds 14 1001 75 10000 2.06 130 15:24 30.03.2022
4541 Clouds 13 1002 79 10000 2.06 150 13:44 30.03.2022
4542 Clouds 12 1003 81 10000 1.54 40 12:58 30.03.2022
4543 Clouds 11 1003 83 10000 2.06 310 11:36 30.03.2022
4544 Clouds 11 1003 83 9000 2.06 60 10:31 30.03.2022
4545 Clouds 11 1002 82 6000 3.09 340 09:25 30.03.2022
4546 Rain 12 1002 77 10000 4.12 320 07:33 30.03.2022
4547 Clouds 13 1001 66 10000 6.17 10 05:41 30.03.2022
4548 Clouds 14 1002 64 10000 7.2 30 04:19 30.03.2022
4549 Clouds 14 1005 68 10000 7.2 50 00:42 30.03.2022
4550 Clouds 15 1006 70 10000 8.23 50 22:34 29.03.2022
4551 Clouds 15 1006 69 10000 7.2 50 21:45 29.03.2022
4552 Clouds 15 1006 71 10000 8.23 60 20:54 29.03.2022
4553 Clouds 15 1006 69 10000 7.72 60 20:20 29.03.2022
4554 Clouds 15 1006 68 10000 9.26 50 18:56 29.03.2022
4555 Rain 15 1006 70 10000 7.72 60 18:31 29.03.2022
4556 Clouds 16 1007 70 10000 6.69 50 17:36 29.03.2022
4557 Clouds 16 1007 71 10000 8.23 50 16:58 29.03.2022
4558 Clouds 15 1009 72 10000 6.69 60 15:58 29.03.2022
4559 Clouds 15 1010 77 10000 6.17 70 14:53 29.03.2022
4560 Clouds 15 1011 77 10000 6.17 70 14:18 29.03.2022
4561 Clouds 15 1012 74 10000 6.17 70 12:53 29.03.2022
4562 Clear 15 1012 64 10000 4.12 90 11:43 29.03.2022
4563 Clear 14 1012 61 10000 2.06 330 10:51 29.03.2022
4564 Clear 13 1012 62 10000 3.6 330 09:49 29.03.2022
4565 Clear 13 1012 62 10000 3.6 330 09:49 29.03.2022
4566 Clouds 12 1013 69 10000 3.6 330 07:57 29.03.2022
4567 Clouds 12 1015 66 10000 1.54 310 04:47 29.03.2022
4568 Clear 13 1018 74 10000 0.51 0 00:36 29.03.2022
4569 Clear 13 1018 73 10000 1.03 80 23:24 28.03.2022
4570 Clear 13 1018 71 10000 1.54 70 22:53 28.03.2022
4571 Clear 13 1019 70 10000 1.03 0 22:26 28.03.2022
4572 Clear 14 1019 68 10000 2.06 70 20:58 28.03.2022
4573 Clear 15 1019 65 10000 3.09 140 20:23 28.03.2022
4574 Clear 16 1019 60 10000 3.6 120 19:44 28.03.2022
4575 Clear 16 1019 58 10000 3.6 120 19:25 28.03.2022
4576 Clear 17 1020 55 10000 3.6 140 18:40 28.03.2022
4577 Clear 18 1020 49 10000 3.6 110 17:39 28.03.2022
4578 Clear 19 1020 43 10000 3.09 80 16:21 28.03.2022
4579 Clear 19 1022 39 10000 3.09 100 14:47 28.03.2022
4580 Clear 19 1023 39 10000 3.09 130 14:21 28.03.2022
4581 Clear 18 1025 43 10000 2.57 70 12:20 28.03.2022
4582 Clear 17 1025 48 10000 1.54 350 11:24 28.03.2022
4583 Clear 14 1025 58 10000 4.63 330 09:43 28.03.2022
4584 Clear 13 1024 61 10000 5.14 330 09:19 28.03.2022
4585 Clouds 11 1024 62 10000 4.63 330 08:22 28.03.2022
4586 Clouds 11 1024 64 10000 5.14 320 07:28 28.03.2022
4587 Clouds 12 1025 66 10000 3.09 330 03:52 28.03.2022
4588 Clouds 13 1026 70 10000 1.54 30 23:30 27.03.2022
4589 Clouds 14 1026 68 10000 2.57 70 22:24 27.03.2022
4590 Clear 14 1025 67 10000 3.6 60 21:42 27.03.2022
4591 Clear 15 1025 66 10000 7.2 70 20:57 27.03.2022
4592 Clear 16 1024 58 10000 5.66 80 19:48 27.03.2022
4593 Clear 17 1024 56 10000 5.14 70 19:24 27.03.2022
4594 Clear 18 1024 48 10000 7.2 70 18:27 27.03.2022
4595 Clear 18 1023 46 10000 5.66 70 17:39 27.03.2022
4596 Clear 19 1023 50 10000 5.66 70 16:31 27.03.2022
4597 Clouds 19 1023 47 10000 6.69 70 15:25 27.03.2022
4598 Clouds 19 1024 42 10000 6.69 70 13:56 27.03.2022
4599 Clouds 18 1024 52 10000 6.69 50 12:31 27.03.2022
4600 Clouds 16 1024 55 10000 5.66 40 11:20 27.03.2022
4601 Clouds 13 1023 68 10000 4.12 10 08:53 27.03.2022
4602 Clouds 12 1022 72 10000 5.14 20 05:54 27.03.2022
4603 Clouds 12 1022 74 10000 2.57 360 00:48 27.03.2022
4604 Clouds 12 1022 75 10000 3.09 10 23:46 26.03.2022
4605 Clouds 12 1022 73 10000 6.17 50 22:38 26.03.2022
4606 Clouds 12 1022 73 10000 6.17 30 21:38 26.03.2022
4607 Clouds 12 1022 73 10000 6.17 30 21:38 26.03.2022
4608 Clouds 12 1022 72 10000 6.17 30 20:57 26.03.2022
4609 Clouds 13 1021 67 10000 5.14 60 19:29 26.03.2022
4610 Clouds 14 1020 67 10000 7.72 50 17:54 26.03.2022
4611 Clouds 14 1020 67 10000 7.72 50 17:54 26.03.2022
4612 Clouds 14 1020 68 10000 7.72 60 17:33 26.03.2022
4613 Clouds 14 1020 66 10000 7.72 60 16:27 26.03.2022
4614 Rain 13 1020 68 10000 6.17 60 15:20 26.03.2022
4615 Rain 13 1021 72 10000 6.69 40 13:53 26.03.2022
4616 Rain 13 1021 68 10000 7.72 60 12:59 26.03.2022
4617 Rain 14 1021 62 10000 7.2 50 11:41 26.03.2022
4618 Rain 14 1021 62 10000 7.2 50 11:41 26.03.2022
4619 Rain 14 1021 62 10000 7.2 50 11:41 26.03.2022
4620 Rain 13 1021 62 10000 6.69 40 10:28 26.03.2022
4621 Clouds 12 1020 67 10000 7.72 50 08:35 26.03.2022
4622 Drizzle 12 1020 66 10000 6.69 50 06:25 26.03.2022
4623 Clear 12 1020 65 10000 7.72 50 05:22 26.03.2022
4624 Clouds 12 1021 72 10000 5.66 50 00:28 26.03.2022
4625 Clear 12 1021 72 10000 7.72 60 21:49 25.03.2022
4626 Clouds 13 1021 71 10000 7.72 60 20:46 25.03.2022
4627 Clouds 13 1020 71 10000 7.72 70 19:38 25.03.2022
4628 Clouds 14 1020 68 10000 7.72 70 18:47 25.03.2022
4629 Clouds 14 1020 66 10000 8.23 80 17:47 25.03.2022
4630 Clear 15 1020 62 10000 8.75 80 17:27 25.03.2022
4631 Clear 16 1020 56 10000 8.75 80 16:18 25.03.2022
4632 Clouds 16 1021 44 10000 10.8 80 14:26 25.03.2022
4633 Clear 16 1022 57 10000 8.75 60 12:57 25.03.2022
4634 Clear 15 1023 50 10000 6.69 60 10:22 25.03.2022
4635 Clear 14 1023 59 10000 4.63 50 09:28 25.03.2022
4636 Clear 12 1023 66 10000 4.63 50 08:24 25.03.2022
4637 Clear 11 1023 70 10000 6.17 60 07:28 25.03.2022
4638 Clouds 11 1022 69 10000 5.66 70 06:24 25.03.2022
4639 Clear 12 1024 70 10000 5.14 50 01:18 25.03.2022
4640 Clouds 12 1025 68 10000 5.14 60 22:51 24.03.2022
4641 Clouds 13 1025 70 10000 4.63 60 21:45 24.03.2022
4642 Drizzle 13 1025 69 10000 4.63 60 20:37 24.03.2022
4643 Clouds 13 1025 68 10000 5.14 60 19:47 24.03.2022
4644 Clouds 13 1024 68 10000 3.58 114 17:48 24.03.2022
4645 Clouds 13 1024 66 10000 3.13 266 17:19 24.03.2022
4646 Clouds 13 1025 62 10000 6.17 50 15:45 24.03.2022
4647 Clouds 13 1025 59 10000 8.23 40 14:50 24.03.2022
4648 Clouds 13 1025 59 10000 8.23 50 14:19 24.03.2022
4649 Clouds 13 1026 61 10000 7.2 50 13:23 24.03.2022
4650 Clouds 13 1026 63 10000 7.2 50 11:52 24.03.2022
4651 Clouds 12 1026 69 10000 7.2 60 10:18 24.03.2022
4652 Clouds 11 1025 70 10000 5.14 50 08:49 24.03.2022
4653 Drizzle 10 1025 72 10000 3.6 30 06:55 24.03.2022
4654 Clouds 10 1025 73 10000 2.57 340 03:59 24.03.2022
4655 Clouds 11 1026 73 10000 7.2 70 23:20 23.03.2022
4656 Clouds 12 1027 73 10000 6.69 80 21:45 23.03.2022
4657 Clouds 12 1026 74 10000 6.69 80 21:20 23.03.2022
4658 Clouds 12 1026 72 10000 6.17 80 19:46 23.03.2022
4659 Clouds 12 1026 69 10000 6.69 80 18:59 23.03.2022
4660 Clouds 13 1026 67 10000 7.2 70 17:38 23.03.2022
4661 Clouds 14 1026 65 10000 7.72 80 16:50 23.03.2022
4662 Clouds 14 1026 67 10000 7.72 60 14:52 23.03.2022
4663 Drizzle 13 1026 65 10000 6.69 60 14:32 23.03.2022
4664 Clouds 12 1028 67 10000 7.2 50 13:21 23.03.2022
4665 Clouds 12 1028 71 10000 7.2 50 10:20 23.03.2022
4666 Clouds 10 1027 74 10000 3.6 320 07:44 23.03.2022
4667 Clouds 9 1027 72 10000 4.12 340 05:27 23.03.2022
4668 Clouds 10 1029 73 10000 3.6 30 01:18 23.03.2022
4669 Clouds 10 1029 71 10000 4.63 50 00:23 23.03.2022
4670 Clouds 11 1029 70 10000 7.72 70 21:31 22.03.2022
4671 Clouds 11 1029 70 10000 6.69 70 20:55 22.03.2022
4672 Clouds 12 1029 68 10000 7.2 80 19:56 22.03.2022
4673 Clouds 12 1029 68 10000 6.69 80 19:25 22.03.2022
4674 Clouds 13 1029 65 10000 8.23 80 18:45 22.03.2022
4675 Clouds 13 1028 63 10000 7.72 80 17:42 22.03.2022
4676 Clouds 14 1028 61 10000 7.72 90 16:35 22.03.2022
4677 Clouds 13 1029 61 10000 7.72 90 15:37 22.03.2022
4678 Clouds 14 1029 60 10000 5.66 100 15:18 22.03.2022
4679 Clouds 14 1029 59 10000 8.75 80 14:41 22.03.2022
4680 Clouds 13 1030 60 10000 8.23 80 13:37 22.03.2022
4681 Clouds 13 1030 66 10000 7.72 100 11:52 22.03.2022
4682 Clouds 12 1029 72 10000 7.2 100 10:51 22.03.2022
4683 Rain 10 1028 79 10000 6.17 50 08:40 22.03.2022
4684 Clouds 10 1028 76 10000 7.2 40 07:21 22.03.2022
4685 Clouds 11 1028 76 10000 5.66 60 03:54 22.03.2022
4686 Clouds 11 1028 75 10000 7.2 60 00:46 22.03.2022
4687 Clouds 11 1029 75 10000 9.26 60 22:46 21.03.2022
4688 Clouds 12 1028 75 10000 8.75 70 21:20 21.03.2022
4689 Clouds 12 1028 75 10000 8.23 70 20:43 21.03.2022
4690 Clouds 12 1028 75 10000 8.23 70 20:21 21.03.2022
4691 Clouds 12 1028 76 10000 7.72 80 19:35 21.03.2022
4692 Clouds 13 1027 74 10000 8.23 80 18:47 21.03.2022
4693 Clouds 13 1027 72 10000 7.72 80 17:35 21.03.2022
4694 Clouds 13 1028 72 10000 8.23 80 16:58 21.03.2022
4695 Clouds 14 1028 72 10000 8.23 90 16:24 21.03.2022
4696 Clouds 14 1028 72 10000 8.75 80 15:21 21.03.2022
4697 Clouds 14 1028 72 10000 6.17 90 14:29 21.03.2022
4698 Clouds 14 1029 74 10000 8.75 80 12:58 21.03.2022
4699 Clouds 14 1029 77 10000 8.75 80 11:57 21.03.2022
4700 Clouds 13 1029 77 10000 7.72 80 10:59 21.03.2022
4701 Clouds 13 1028 80 10000 5.66 80 09:42 21.03.2022
4702 Clouds 13 1027 81 10000 5.14 80 07:22 21.03.2022
4703 Clouds 12 1027 81 10000 6.17 80 05:42 21.03.2022
4704 Clouds 13 1027 81 9000 4.63 80 00:46 21.03.2022
4705 Clouds 13 1027 81 8000 5.14 80 22:56 20.03.2022
4706 Clouds 13 1027 81 8000 5.14 80 22:23 20.03.2022
4707 Clouds 13 1027 81 10000 4.63 80 21:31 20.03.2022
4708 Clouds 13 1027 81 10000 4.63 80 20:54 20.03.2022
4709 Clouds 13 1027 81 10000 5.14 80 20:27 20.03.2022
4710 Clouds 13 1026 81 10000 4.63 80 19:48 20.03.2022
4711 Clouds 13 1026 81 10000 4.63 80 19:19 20.03.2022
4712 Clouds 14 1026 81 10000 4.12 70 17:43 20.03.2022
4713 Clouds 14 1026 81 10000 4.12 70 17:24 20.03.2022
4714 Clouds 14 1026 80 10000 4.63 60 15:57 20.03.2022
4715 Clouds 14 1026 78 10000 5.14 60 14:38 20.03.2022
4716 Clouds 15 1027 74 10000 6.69 70 13:38 20.03.2022
4717 Clouds 15 1027 76 10000 6.69 70 11:58 20.03.2022
4718 Clouds 13 1026 76 10000 8.23 60 09:59 20.03.2022
4719 Clouds 12 1026 76 10000 5.14 50 08:19 20.03.2022
4720 Clouds 11 1025 77 10000 2.57 330 05:49 20.03.2022
4721 Clouds 11 1026 78 10000 3.09 320 03:18 20.03.2022
4722 Clouds 11 1026 76 10000 2.06 10 00:53 20.03.2022
4723 Clouds 11 1027 75 10000 2.06 360 00:28 20.03.2022
4724 Clouds 12 1027 73 10000 1.54 350 22:25 19.03.2022
4725 Clouds 12 1027 74 10000 5.14 40 21:26 19.03.2022
4726 Clouds 13 1026 74 9000 7.72 50 19:22 19.03.2022
4727 Clouds 13 1026 74 9000 6.69 50 18:38 19.03.2022
4728 Clouds 13 1026 74 9000 7.72 60 17:48 19.03.2022
4729 Clouds 13 1026 74 10000 6.17 50 16:46 19.03.2022
4730 Clouds 13 1026 74 8000 8.23 50 15:26 19.03.2022
4731 Clouds 13 1026 75 8000 10.29 50 13:45 19.03.2022
4732 Clouds 13 1027 75 8000 8.75 50 12:43 19.03.2022
4733 Clouds 13 1027 76 8000 9.77 60 12:20 19.03.2022
4734 Clouds 13 1027 78 8000 10.8 50 11:45 19.03.2022
4735 Clouds 12 1026 79 10000 8.75 50 09:22 19.03.2022
4736 Clouds 12 1026 75 10000 10.29 50 04:53 19.03.2022
4737 Clouds 14 1026 65 10000 7.72 60 02:33 19.03.2022
4738 Clouds 14 1026 63 10000 10.29 50 23:52 18.03.2022
4739 Clouds 14 1026 58 10000 10.29 50 22:58 18.03.2022
4740 Clouds 14 1026 55 10000 9.77 60 22:21 18.03.2022
4741 Clouds 14 1025 56 10000 6.69 50 20:26 18.03.2022
4742 Clouds 14 1025 59 10000 7.2 60 19:24 18.03.2022
4743 Clouds 14 1025 61 10000 8.75 60 18:58 18.03.2022
4744 Clouds 15 1024 66 10000 9.26 60 16:56 18.03.2022
4745 Clouds 15 1024 67 10000 8.23 60 16:24 18.03.2022
4746 Clouds 15 1025 65 10000 10.29 60 14:27 18.03.2022
4747 Clouds 15 1025 64 10000 11.32 50 13:40 18.03.2022
4748 Clouds 16 1025 65 10000 10.8 50 11:37 18.03.2022
4749 Clouds 16 1024 64 10000 10.8 50 10:27 18.03.2022
4750 Clouds 15 1023 67 10000 9.77 50 08:46 18.03.2022
4751 Clouds 15 1023 70 10000 7.72 50 07:26 18.03.2022
4752 Clouds 14 1022 72 10000 7.2 30 05:20 18.03.2022
4753 Clouds 15 1022 68 10000 5.66 40 01:51 18.03.2022
4754 Clouds 15 1022 67 10000 5.14 60 00:20 18.03.2022
4755 Clouds 15 1022 64 10000 3.09 30 22:50 17.03.2022
4756 Clouds 15 1022 65 10000 5.14 40 22:19 17.03.2022
4757 Clouds 14 1022 67 10000 7.2 40 21:31 17.03.2022
4758 Clouds 14 1022 68 10000 7.2 50 20:54 17.03.2022
4759 Clouds 14 1022 69 10000 7.72 60 20:28 17.03.2022
4760 Clouds 15 1021 70 10000 8.75 70 19:39 17.03.2022
4761 Clouds 15 1021 71 10000 9.26 70 18:55 17.03.2022
4762 Clouds 15 1020 72 10000 10.29 70 17:47 17.03.2022
4763 Clouds 16 1020 71 10000 10.29 70 16:29 17.03.2022
4764 Clouds 17 1019 67 10000 7.72 70 15:43 17.03.2022
4765 Clouds 17 1019 67 10000 11.32 60 15:18 17.03.2022
4766 Clouds 16 1020 70 10000 7.72 70 13:47 17.03.2022
4767 Clouds 16 1020 71 10000 8.75 70 12:47 17.03.2022
4768 Clouds 16 1020 73 10000 9.26 70 11:40 17.03.2022
4769 Clouds 15 1020 75 10000 8.75 60 10:58 17.03.2022
4770 Rain 14 1019 76 10000 6.69 70 09:40 17.03.2022
4771 Rain 14 1019 77 10000 7.72 60 08:21 17.03.2022
4772 Rain 14 1018 78 10000 7.72 70 06:18 17.03.2022
4773 Clouds 14 1018 77 10000 8.23 60 05:25 17.03.2022
4774 Clouds 15 1018 66 10000 8.75 50 00:33 17.03.2022
4775 Clouds 15 1018 70 10000 8.23 60 22:58 16.03.2022
4776 Clouds 15 1018 71 10000 8.23 60 22:37 16.03.2022
4777 Clouds 15 1018 74 10000 8.23 60 21:58 16.03.2022
4778 Clouds 14 1017 75 10000 8.75 60 21:18 16.03.2022
4779 Clouds 15 1017 75 10000 9.77 60 19:25 16.03.2022
4780 Clouds 15 1016 76 10000 9.77 60 18:43 16.03.2022
4781 Clouds 15 1016 77 10000 9.77 70 18:18 16.03.2022
4782 Clouds 15 1016 75 10000 10.8 70 17:36 16.03.2022
4783 Clouds 15 1016 76 10000 12.86 60 16:36 16.03.2022
4784 Clouds 15 1017 76 10000 11.32 60 15:35 16.03.2022
4785 Clouds 15 1019 76 10000 11.32 50 13:41 16.03.2022
4786 Clouds 15 1019 77 10000 10.8 60 12:57 16.03.2022
4787 Clouds 14 1020 78 10000 10.8 60 11:26 16.03.2022
4788 Clouds 14 1020 79 10000 10.8 60 10:43 16.03.2022
4789 Clouds 14 1020 79 9000 10.29 50 09:58 16.03.2022
4790 Clouds 14 1020 80 9000 9.77 60 08:37 16.03.2022
4791 Clouds 13 1021 80 9000 8.75 60 03:30 16.03.2022
4792 Clouds 14 1023 81 9000 8.75 50 23:37 15.03.2022
4793 Clouds 14 1023 81 9000 9.26 50 22:37 15.03.2022
4794 Clouds 14 1023 81 9000 9.26 60 21:27 15.03.2022
4795 Clouds 14 1023 80 6000 9.77 60 19:47 15.03.2022
4796 Clouds 14 1023 80 7000 9.77 60 18:38 15.03.2022
4797 Clouds 15 1023 79 7000 10.8 60 16:45 15.03.2022
4798 Clouds 15 1023 78 7000 10.8 60 16:18 15.03.2022
4799 Clouds 15 1024 79 8000 11.83 60 14:55 15.03.2022
4800 Clouds 15 1024 79 7000 10.8 50 14:30 15.03.2022
4801 Clouds 15 1024 80 7000 12.35 50 13:24 15.03.2022
4802 Clouds 15 1025 81 7000 11.32 50 11:48 15.03.2022
4803 Clouds 15 1025 81 6000 11.83 50 11:19 15.03.2022
4804 Drizzle 14 1025 83 7000 11.32 50 09:31 15.03.2022
4805 Drizzle 14 1024 83 9000 11.32 50 08:32 15.03.2022
4806 Clouds 14 1023 83 8000 11.32 50 07:44 15.03.2022
4807 Clouds 14 1023 82 6000 11.32 50 06:32 15.03.2022
4808 Clouds 14 1023 81 8000 9.77 50 01:59 15.03.2022
4809 Clouds 14 1023 81 9000 11.32 60 23:36 14.03.2022
4810 Clouds 14 1023 81 9000 10.8 60 23:18 14.03.2022
4811 Clouds 14 1022 81 10000 11.32 60 21:57 14.03.2022
4812 Clouds 14 1022 81 10000 12.86 60 21:20 14.03.2022
4813 Clouds 14 1022 80 10000 11.83 50 20:31 14.03.2022
4814 Clouds 14 1021 80 10000 12.86 50 19:47 14.03.2022
4815 Drizzle 14 1021 81 10000 12.86 60 18:23 14.03.2022
4816 Clouds 14 1020 79 10000 12.35 60 17:43 14.03.2022
4817 Clouds 14 1020 78 10000 11.83 50 16:54 14.03.2022
4818 Clouds 14 1020 77 10000 12.86 60 15:29 14.03.2022
4819 Clouds 14 1020 77 10000 11.32 60 14:24 14.03.2022
4820 Rain 13 1021 80 10000 10.29 60 11:36 14.03.2022
4821 Rain 13 1021 80 10000 10.29 60 10:23 14.03.2022
4822 Clouds 13 1021 81 10000 10.29 60 09:38 14.03.2022
4823 Clouds 13 1021 81 10000 10.29 60 09:19 14.03.2022
4824 Clouds 12 1021 80 10000 9.26 60 08:46 14.03.2022
4825 Clouds 12 1020 76 10000 9.26 60 07:21 14.03.2022
4826 Clouds 12 1019 67 10000 9.77 60 04:27 14.03.2022
4827 Clouds 12 1020 75 10000 5.66 60 01:52 14.03.2022
4828 Clouds 12 1020 76 10000 5.66 70 00:38 14.03.2022
4829 Clouds 12 1019 79 10000 6.69 70 21:56 13.03.2022
4830 Clouds 12 1019 81 10000 7.72 70 21:28 13.03.2022
4831 Clouds 12 1018 81 10000 5.81 253 20:53 13.03.2022
4832 Clear 13 1017 81 10000 7.15 243 20:28 13.03.2022
4833 Clear 13 1017 80 10000 1.03 0 19:43 13.03.2022
4834 Clear 13 1016 80 10000 2.06 140 19:25 13.03.2022
4835 Clear 14 1016 75 10000 3.09 200 18:50 13.03.2022
4836 Clouds 15 1015 71 10000 3.6 190 18:27 13.03.2022
4837 Clouds 16 1014 66 10000 3.09 310 17:40 13.03.2022
4838 Clouds 16 1014 65 10000 4.12 280 16:48 13.03.2022
4839 Clouds 15 1014 70 10000 4.63 300 16:27 13.03.2022
4840 Clouds 15 1014 75 10000 6.69 290 15:44 13.03.2022
4841 Clouds 15 1013 77 10000 1.34 311 14:49 13.03.2022
4842 Clouds 14 1013 82 10000 2.57 350 13:30 13.03.2022
4843 Clouds 13 1013 82 10000 2.06 340 12:37 13.03.2022
4844 Clouds 13 1014 82 10000 1.03 320 11:51 13.03.2022
4845 Rain 13 1014 81 10000 0.51 0 11:25 13.03.2022
4846 Rain 13 1013 80 10000 0.51 0 10:44 13.03.2022
4847 Clouds 12 1013 82 10000 1.54 340 09:43 13.03.2022
4848 Clouds 12 1013 83 10000 2.57 320 09:20 13.03.2022
4849 Clear 10 1013 83 10000 3.6 340 08:39 13.03.2022
4850 Clouds 9 1013 82 10000 3.09 310 07:37 13.03.2022
4851 Clouds 10 1012 82 10000 2.57 330 05:39 13.03.2022
4852 Clear 10 1013 83 10000 4.12 310 01:48 13.03.2022
4853 Clouds 11 1014 84 10000 3.09 330 23:31 12.03.2022
4854 Clouds 12 1014 84 10000 1.54 340 21:49 12.03.2022
4855 Clouds 12 1014 82 10000 2.57 20 20:29 12.03.2022
4856 Clouds 12 1013 81 10000 2.57 20 19:47 12.03.2022
4857 Clouds 12 1012 81 10000 5.14 30 18:55 12.03.2022
4858 Clouds 13 1012 81 10000 7.2 30 18:21 12.03.2022
4859 Clouds 13 1012 81 10000 5.14 330 17:23 12.03.2022
4860 Clouds 13 1011 81 10000 5.14 330 16:23 12.03.2022
4861 Clouds 13 1011 83 10000 6.17 320 15:22 12.03.2022
4862 Rain 12 1011 83 10000 5.66 320 14:27 12.03.2022
4863 Rain 12 1012 85 5000 4.12 320 12:35 12.03.2022
4864 Rain 12 1012 85 5000 4.12 320 11:56 12.03.2022
4865 Rain 12 1012 85 5000 3.09 360 11:34 12.03.2022
4866 Rain 12 1012 85 5000 2.68 247 10:52 12.03.2022
4867 Rain 11 1012 84 6000 2.57 340 09:44 12.03.2022
4868 Rain 11 1012 83 8000 1.54 40 08:53 12.03.2022
4869 Rain 12 1011 82 10000 3.09 120 06:53 12.03.2022
4870 Rain 12 1014 83 10000 2.06 90 01:44 12.03.2022
4871 Drizzle 12 1015 84 10000 2.57 40 23:52 11.03.2022
4872 Clouds 12 1016 83 10000 2.06 60 22:52 11.03.2022
4873 Clouds 12 1016 83 10000 1.54 90 21:35 11.03.2022
4874 Rain 12 1016 81 10000 1.54 110 20:54 11.03.2022
4875 Rain 12 1016 83 10000 2.06 110 20:28 11.03.2022
4876 Clouds 12 1016 85 10000 1.03 0 19:42 11.03.2022
4877 Clouds 12 1016 84 10000 1.03 0 19:20 11.03.2022
4878 Clouds 13 1015 84 8000 2.57 150 17:29 11.03.2022
4879 Clouds 13 1015 82 9000 3.09 170 16:27 11.03.2022
4880 Clouds 13 1016 81 10000 3.6 120 15:53 11.03.2022
4881 Clouds 14 1016 80 10000 4.12 130 14:19 11.03.2022
4882 Clouds 14 1018 79 10000 4.12 120 12:44 11.03.2022
4883 Clouds 14 1017 79 10000 3.09 170 12:20 11.03.2022
4884 Clouds 14 1018 80 10000 3.09 170 11:43 11.03.2022
4885 Mist 12 1018 86 9000 1.54 20 09:39 11.03.2022
4886 Clouds 11 1017 85 9000 0.51 40 08:40 11.03.2022
4887 Mist 11 1017 85 9000 0 0 07:49 11.03.2022
4888 Mist 11 1018 84 10000 0.51 360 07:28 11.03.2022
4889 Clouds 11 1017 84 10000 1.54 300 05:42 11.03.2022
4890 Clouds 11 1019 84 10000 1.03 280 02:56 11.03.2022
4891 Clouds 12 1020 84 10000 1.03 0 22:56 10.03.2022
4892 Clouds 12 1020 85 10000 1.03 180 22:28 10.03.2022
4893 Clouds 12 1021 85 10000 2.06 190 21:27 10.03.2022
4894 Clouds 12 1021 85 10000 2.06 180 20:45 10.03.2022
4895 Clouds 13 1021 83 10000 2.57 190 19:23 10.03.2022
4896 Clouds 13 1020 80 10000 4.63 180 18:39 10.03.2022
4897 Clouds 14 1020 77 10000 5.66 180 16:54 10.03.2022
4898 Clouds 15 1021 76 10000 5.36 348 15:49 10.03.2022
4899 Clouds 15 1021 77 10000 6.69 200 14:24 10.03.2022
4900 Clouds 14 1022 80 10000 5.66 210 12:50 10.03.2022
4901 Mist 13 1022 83 10000 5.66 210 11:39 10.03.2022
4902 Mist 12 1023 86 10000 1.03 0 10:24 10.03.2022
4903 Mist 11 1022 84 10000 2.57 310 08:49 10.03.2022
4904 Clouds 10 1022 89 10000 2.06 330 06:36 10.03.2022
4905 Clouds 10 1023 87 10000 2.06 320 03:42 10.03.2022
4906 Clouds 10 1023 86 10000 1.54 290 00:23 10.03.2022
4907 Clouds 10 1024 85 10000 2.57 290 22:46 09.03.2022
4908 Clouds 11 1022 85 10000 1.54 260 21:48 09.03.2022
4909 Clouds 11 1023 84 10000 1.54 240 21:23 09.03.2022
4910 Clouds 12 1022 81 10000 4.12 230 19:40 09.03.2022
4911 Clouds 13 1021 75 10000 4.12 210 18:25 09.03.2022
4912 Clouds 14 1022 73 10000 4.63 210 17:26 09.03.2022
4913 Clouds 14 1022 71 10000 3.6 190 16:24 09.03.2022
4914 Clouds 14 1022 75 10000 2.06 110 14:32 09.03.2022
4915 Clouds 14 1023 76 10000 2.57 100 13:52 09.03.2022
4916 Clouds 12 1024 83 10000 3.6 40 12:36 09.03.2022
4917 Clouds 12 1023 85 10000 4.12 40 11:52 09.03.2022
4918 Clouds 12 1024 84 10000 3.09 40 11:32 09.03.2022
4919 Clouds 10 1023 84 10000 3.6 330 09:45 09.03.2022
4920 Clouds 9 1022 88 10000 3.6 330 08:47 09.03.2022
4921 Clouds 8 1020 90 9000 3.6 330 06:51 09.03.2022
4922 Clouds 9 1020 85 10000 3.09 320 01:54 09.03.2022
4923 Clouds 9 1020 87 10000 2.06 330 00:27 09.03.2022
4924 Clouds 9 1020 89 10000 1.54 300 22:47 08.03.2022
4925 Clouds 10 1019 89 10000 2.06 300 21:52 08.03.2022
4926 Clouds 10 1019 87 10000 2.06 280 21:22 08.03.2022
4927 Clouds 10 1019 87 10000 2.06 250 20:24 08.03.2022
4928 Clouds 11 1018 85 10000 3.6 250 19:24 08.03.2022
4929 Clouds 11 1018 86 10000 4.12 220 18:23 08.03.2022
4930 Clouds 11 1018 86 10000 2.06 190 16:56 08.03.2022
4931 Mist 11 1018 88 10000 1.54 140 14:58 08.03.2022
4932 Rain 11 1017 86 10000 1.79 14 13:54 08.03.2022
4933 Clouds 11 1018 85 10000 2.06 320 12:28 08.03.2022
4934 Clouds 11 1018 79 10000 2.57 320 11:43 08.03.2022
4935 Clouds 11 1018 79 10000 3.6 320 10:29 08.03.2022
4936 Clouds 10 1018 80 10000 3.09 330 08:58 08.03.2022
4937 Clouds 8 1017 84 10000 3.09 320 06:31 08.03.2022
4938 Clear 8 1017 82 10000 3.09 320 03:48 08.03.2022
4939 Clouds 10 1016 76 10000 1.54 180 22:57 07.03.2022
4940 Clouds 11 1017 74 10000 1.54 160 21:46 07.03.2022
4941 Clouds 11 1017 73 10000 1.34 14 21:27 07.03.2022
4942 Clouds 11 1017 71 10000 1.54 150 20:38 07.03.2022
4943 Clouds 12 1017 70 10000 2.06 140 19:50 07.03.2022
4944 Clouds 12 1017 70 10000 1.34 194 19:29 07.03.2022
4945 Clouds 12 1016 70 10000 3.6 140 18:38 07.03.2022
4946 Clouds 13 1016 68 10000 3.6 140 17:33 07.03.2022
4947 Clouds 13 1015 68 10000 3.6 120 16:55 07.03.2022
4948 Clouds 13 1016 66 10000 5.14 80 14:57 07.03.2022
4949 Clouds 12 1017 63 10000 4.63 80 12:48 07.03.2022
4950 Clouds 11 1017 63 10000 4.63 70 12:20 07.03.2022
4951 Clouds 11 1017 69 10000 5.66 80 10:35 07.03.2022
4952 Clouds 10 1016 82 10000 2.06 340 08:35 07.03.2022
4953 Clouds 9 1016 82 10000 2.06 330 02:58 07.03.2022
4954 Clouds 10 1016 82 10000 1.03 340 00:21 07.03.2022
4955 Clouds 10 1017 81 10000 0.51 0 23:29 06.03.2022
4956 Clouds 10 1017 82 10000 2.06 290 22:32 06.03.2022
4957 Clouds 10 1016 80 10000 1.03 0 21:45 06.03.2022
4958 Clouds 10 1016 80 10000 1.34 241 20:30 06.03.2022
4959 Clouds 10 1016 79 10000 1.54 160 19:50 06.03.2022
4960 Clouds 11 1015 75 10000 3.09 70 18:51 06.03.2022
4961 Clouds 11 1015 72 10000 3.09 110 17:53 06.03.2022
4962 Clouds 11 1015 71 10000 3.6 90 17:20 06.03.2022
4963 Clouds 12 1015 69 10000 3.6 90 16:40 06.03.2022
4964 Clouds 12 1015 69 10000 3.6 90 16:40 06.03.2022
4965 Clouds 12 1015 67 10000 2.57 110 15:37 06.03.2022
4966 Clouds 12 1015 69 10000 2.57 80 14:49 06.03.2022
4967 Clouds 12 959 70 10000 3.09 90 14:28 06.03.2022
4968 Drizzle 11 1016 79 10000 2.57 90 12:43 06.03.2022
4969 Drizzle 11 1016 84 10000 2.57 90 11:56 06.03.2022
4970 Drizzle 10 1015 87 10000 1.03 0 10:45 06.03.2022
4971 Drizzle 9 1016 88 10000 1.54 270 09:34 06.03.2022
4972 Drizzle 9 1015 88 10000 2.06 60 08:28 06.03.2022
4973 Rain 9 1015 89 10000 2.57 30 07:33 06.03.2022
4974 Rain 10 1014 85 5000 0.51 0 04:45 06.03.2022
4975 Clouds 11 1015 72 10000 2.06 260 00:42 06.03.2022
4976 Clouds 11 1015 71 10000 2.06 260 00:23 06.03.2022
4977 Clouds 11 1015 70 10000 2.06 240 23:19 05.03.2022
4978 Clouds 11 1015 69 10000 2.57 240 22:42 05.03.2022
4979 Clouds 12 1015 68 10000 2.57 250 21:44 05.03.2022
4980 Clouds 12 1015 66 10000 3.09 200 21:19 05.03.2022
4981 Clouds 13 1014 62 10000 3.09 180 19:24 05.03.2022
4982 Clouds 13 1014 61 10000 4.12 220 18:50 05.03.2022
4983 Clouds 14 1014 61 10000 4.12 210 17:41 05.03.2022
4984 Clouds 14 1014 59 10000 5.14 210 16:20 05.03.2022
4985 Clouds 14 1014 57 10000 4.63 210 15:30 05.03.2022
4986 Clouds 15 1015 57 10000 4.63 190 14:44 05.03.2022
4987 Clouds 15 1015 57 10000 4.63 190 14:24 05.03.2022
4988 Clouds 15 1015 55 10000 4.63 190 12:59 05.03.2022
4989 Clouds 15 1016 53 10000 2.06 290 11:43 05.03.2022
4990 Clouds 14 1016 53 10000 4.12 330 11:18 05.03.2022
4991 Clouds 12 1016 60 10000 5.66 320 09:58 05.03.2022
4992 Clouds 10 1016 66 10000 5.66 330 08:57 05.03.2022
4993 Clouds 10 1015 67 10000 5.66 330 07:37 05.03.2022
4994 Clouds 11 1015 64 10000 5.66 310 05:42 05.03.2022
4995 Clouds 10 1015 65 10000 6.17 320 05:42 05.03.2022
4996 Clouds 12 1014 60 10000 4.63 330 01:30 05.03.2022
4997 Clouds 12 1015 76 10000 3.6 320 23:36 04.03.2022
4998 Clouds 13 1015 79 10000 1.54 340 22:42 04.03.2022
4999 Clouds 13 1015 79 10000 2.06 360 21:47 04.03.2022
5000 Clouds 13 1014 81 10000 2.57 20 20:51 04.03.2022
5001 Clouds 13 1014 80 10000 2.57 20 20:21 04.03.2022
5002 Clouds 14 1014 79 10000 3.6 190 19:35 04.03.2022
5003 Clouds 15 1013 76 10000 3.6 210 18:37 04.03.2022
5004 Clouds 16 1012 73 10000 5.14 190 17:30 04.03.2022
5005 Clouds 16 1013 69 10000 5.14 190 16:43 04.03.2022
5006 Clouds 16 1014 67 10000 4.63 190 15:28 04.03.2022
5007 Clouds 16 1014 62 10000 4.12 200 14:19 04.03.2022
5008 Clouds 16 1013 63 10000 4.12 240 13:24 04.03.2022
5009 Clouds 14 1014 71 10000 4.12 330 11:41 04.03.2022
5010 Clouds 13 1014 74 10000 3.6 320 10:42 04.03.2022
5011 Clouds 12 1014 79 10000 4.12 320 09:40 04.03.2022
5012 Clouds 11 1013 82 10000 4.12 320 08:36 04.03.2022
5013 Clouds 10 1013 84 10000 4.63 330 07:23 04.03.2022
5014 Clouds 10 1011 87 10000 3.6 330 03:50 04.03.2022
5015 Clouds 11 1013 84 10000 1.54 330 00:24 04.03.2022
5016 Clouds 11 1013 82 10000 1.54 310 22:26 03.03.2022
5017 Clouds 12 1013 81 10000 3.09 250 21:41 03.03.2022
5018 Clouds 12 1013 81 10000 3.09 250 21:21 03.03.2022
5019 Clouds 13 1013 79 10000 4.63 240 19:51 03.03.2022
5020 Clouds 13 1012 75 10000 0.89 233 18:53 03.03.2022
5021 Clouds 14 1012 71 10000 5.66 220 18:23 03.03.2022
5022 Clouds 15 1013 67 10000 6.69 220 17:30 03.03.2022
5023 Clouds 16 1012 59 10000 6.69 220 16:24 03.03.2022
5024 Clouds 17 1013 57 10000 5.66 220 15:21 03.03.2022
5025 Clouds 17 1014 57 10000 7.2 220 14:42 03.03.2022
5026 Clouds 17 1015 61 10000 0.45 119 13:24 03.03.2022
5027 Clouds 15 1017 67 10000 4.12 260 11:54 03.03.2022
5028 Clouds 14 1016 72 10000 3.13 122 10:47 03.03.2022
5029 Clear 11 1016 79 10000 5.14 320 09:38 03.03.2022
5030 Clouds 9 1017 85 10000 4.63 340 07:48 03.03.2022
5031 Clouds 10 1017 87 10000 2.57 320 06:36 03.03.2022
5032 Clouds 11 1018 87 10000 2.57 60 02:42 03.03.2022
5033 Clouds 12 1019 89 10000 1.03 350 23:34 02.03.2022
5034 Clouds 11 1019 89 10000 2.06 290 22:52 02.03.2022
5035 Clouds 12 1019 88 10000 5.14 230 21:35 02.03.2022
5036 Clouds 12 1018 89 10000 4.12 220 20:55 02.03.2022
5037 Clouds 13 1018 88 10000 3.09 220 20:24 02.03.2022
5038 Clouds 13 1018 88 10000 3.09 220 20:24 02.03.2022
5039 Clouds 13 1018 87 10000 4.12 230 19:37 02.03.2022
5040 Clouds 14 1018 86 10000 5.66 220 18:54 02.03.2022
5041 Clouds 14 1017 85 10000 5.66 220 18:26 02.03.2022
5042 Clouds 14 1019 85 10000 5.14 220 17:36 02.03.2022
5043 Clouds 14 1019 82 10000 4.63 200 16:51 02.03.2022
5044 Clouds 14 1020 79 10000 5.66 190 14:59 02.03.2022
5045 Clouds 14 1021 82 10000 3.09 210 13:30 02.03.2022
5046 Clouds 13 1022 82 10000 1.54 280 12:45 02.03.2022
5047 Clouds 12 1022 82 10000 0.51 0 12:21 02.03.2022
5048 Clouds 12 1022 83 10000 1.54 340 11:26 02.03.2022
5049 Clouds 12 1022 83 10000 2.06 330 10:30 02.03.2022
5050 Clouds 12 1022 83 10000 2.06 330 10:30 02.03.2022
5051 Clouds 11 1023 84 10000 2.57 320 09:31 02.03.2022
5052 Clouds 10 1023 86 9000 3.09 0 08:28 02.03.2022
5053 Clouds 9 1023 86 9000 2.57 330 07:23 02.03.2022
5054 Clouds 9 1023 88 9000 4.12 330 04:46 02.03.2022
5055 Clouds 10 1025 86 10000 2.06 330 00:40 02.03.2022
5056 Clouds 11 1025 85 10000 2.06 310 23:24 01.03.2022
5057 Clouds 11 1026 84 10000 2.06 290 22:37 01.03.2022
5058 Clouds 11 1026 83 10000 1.03 0 21:37 01.03.2022
5059 Clouds 12 1026 82 10000 3.09 120 20:38 01.03.2022
5060 Clouds 12 1026 82 10000 3.09 120 20:19 01.03.2022
5061 Clouds 13 1026 79 10000 1.34 136 18:53 01.03.2022
5062 Clear 14 1025 74 10000 5.14 130 18:22 01.03.2022
5063 Clear 14 974 74 10000 5.14 130 17:42 01.03.2022
5064 Clear 15 1025 62 10000 4.63 120 16:36 01.03.2022
5065 Clouds 16 1025 62 10000 4.63 120 15:47 01.03.2022
5066 Clouds 16 1026 62 10000 5.66 110 14:54 01.03.2022
5067 Clouds 16 1026 62 10000 6.69 100 14:31 01.03.2022
5068 Clouds 16 1027 65 10000 6.17 90 13:26 01.03.2022
5069 Clear 15 1027 66 10000 3.6 110 12:36 01.03.2022
5070 Clear 14 1027 66 10000 2.24 57 11:35 01.03.2022
5071 Clear 12 1025 73 10000 6.17 320 09:52 01.03.2022
5072 Clouds 8 1025 81 10000 5.66 320 08:25 01.03.2022
5073 Clear 9 1024 83 10000 4.12 320 06:47 01.03.2022
5074 Clouds 10 1024 83 10000 2.68 127 03:26 01.03.2022
5075 Clouds 11 1025 80 10000 2.57 250 00:48 01.03.2022
5076 Clouds 11 1025 79 10000 5.14 230 23:46 28.02.2022
5077 Clouds 11 1026 79 10000 4.12 250 22:43 28.02.2022
5078 Clouds 12 1026 78 10000 3.6 250 21:48 28.02.2022
5079 Clouds 12 1026 79 10000 4.12 230 20:54 28.02.2022
5080 Clouds 12 1026 77 10000 5.14 220 19:51 28.02.2022
5081 Clouds 13 1025 76 10000 4.63 210 18:56 28.02.2022
5082 Clouds 14 1025 72 10000 5.66 210 17:43 28.02.2022
5083 Clouds 14 1025 70 10000 5.14 210 17:23 28.02.2022
5084 Clouds 15 1025 68 10000 5.14 200 16:25 28.02.2022
5085 Clouds 14 1027 67 10000 3.6 180 14:33 28.02.2022
5086 Clouds 14 1027 69 10000 3.6 170 13:56 28.02.2022
5087 Clouds 14 1028 68 10000 4.12 160 13:24 28.02.2022
5088 Clouds 14 1028 69 10000 4.63 140 12:29 28.02.2022
5089 Clouds 13 1028 71 10000 4.63 110 11:20 28.02.2022
5090 Clouds 12 1028 71 10000 1.79 69 10:23 28.02.2022
5091 Clouds 12 1027 72 10000 3.09 320 09:53 28.02.2022
5092 Clouds 11 1027 73 10000 3.09 320 09:24 28.02.2022
5093 Clouds 11 1027 73 10000 3.09 320 09:24 28.02.2022
5094 Clouds 10 1027 72 10000 2.57 340 08:22 28.02.2022
5095 Clouds 10 1027 72 10000 2.57 340 08:22 28.02.2022
5096 Clouds 10 1026 69 10000 3.6 320 06:44 28.02.2022
5097 Clouds 10 1026 70 10000 3.6 330 04:31 28.02.2022
5098 Clouds 11 1026 70 10000 3.09 320 01:42 28.02.2022
5099 Clouds 11 1025 70 10000 2.57 330 23:18 27.02.2022
5100 Clouds 11 1025 72 10000 1.54 360 22:33 27.02.2022
5101 Clouds 10 1024 72 10000 2.57 290 21:46 27.02.2022
5102 Clouds 11 1024 70 10000 1.03 160 20:54 27.02.2022
5103 Clouds 11 1024 70 10000 1.03 160 20:25 27.02.2022
5104 Clouds 12 1023 66 10000 1.03 0 19:50 27.02.2022
5105 Clear 12 1023 67 10000 2.57 140 19:26 27.02.2022
5106 Clear 12 1023 64 10000 3.09 210 18:39 27.02.2022
5107 Clear 14 1023 61 10000 4.12 200 17:53 27.02.2022
5108 Clouds 15 1022 58 10000 5.14 190 16:36 27.02.2022
5109 Clouds 15 1022 56 10000 5.14 200 15:42 27.02.2022
5110 Clouds 14 1024 56 10000 3.13 14 12:53 27.02.2022
5111 Clouds 14 1024 58 10000 2.68 335 12:29 27.02.2022
5112 Clouds 13 1023 65 10000 1.54 300 10:50 27.02.2022
5113 Clouds 11 1024 70 10000 3.09 320 09:58 27.02.2022
5114 Clouds 10 1024 73 10000 3.6 320 09:29 27.02.2022
5115 Clear 9 1024 77 10000 4.12 320 08:59 27.02.2022
5116 Clear 8 1023 88 10000 3.09 330 06:43 27.02.2022
5117 Clear 8 1021 82 10000 3.6 340 05:35 27.02.2022
5118 Clouds 9 1025 77 10000 2.06 340 00:37 27.02.2022
5119 Clouds 10 1025 72 10000 1.54 290 22:56 26.02.2022
5120 Clouds 11 1025 71 10000 1.03 0 21:39 26.02.2022
5121 Clouds 11 1024 71 10000 1.03 0 20:48 26.02.2022
5122 Clouds 11 1024 70 10000 2.06 150 20:19 26.02.2022
5123 Clouds 11 1024 68 10000 2.57 150 19:37 26.02.2022
5124 Clouds 12 1024 65 10000 3.09 130 18:49 26.02.2022
5125 Clouds 12 1024 62 10000 2.57 120 17:42 26.02.2022
5126 Clouds 12 1024 58 10000 3.09 130 16:49 26.02.2022
5127 Clouds 12 1024 56 10000 3.09 150 15:49 26.02.2022
5128 Clouds 12 1025 53 10000 4.12 170 15:22 26.02.2022
5129 Clouds 12 1025 51 10000 4.63 100 14:53 26.02.2022
5130 Clouds 12 1025 51 10000 5.66 90 14:33 26.02.2022
5131 Clouds 12 1025 47 10000 5.66 90 13:19 26.02.2022
5132 Clouds 11 1026 50 10000 6.17 80 12:20 26.02.2022
5133 Clouds 11 1026 54 10000 6.17 70 11:28 26.02.2022
5134 Clouds 10 1026 56 10000 5.14 80 10:39 26.02.2022
5135 Clouds 10 1025 68 10000 4.63 70 08:53 26.02.2022
5136 Clouds 10 1025 82 10000 2.24 75 06:51 26.02.2022
5137 Clouds 11 1025 85 10000 3.09 170 00:56 26.02.2022
5138 Clouds 12 1025 84 10000 2.06 180 22:49 25.02.2022
5139 Clouds 12 1025 83 10000 2.06 180 21:43 25.02.2022
5140 Clouds 12 1025 83 10000 2.06 160 21:23 25.02.2022
5141 Clouds 12 1024 83 10000 1.54 140 20:32 25.02.2022
5142 Clouds 13 1024 82 10000 3.6 180 19:18 25.02.2022
5143 Clouds 14 1023 78 10000 4.12 150 17:29 25.02.2022
5144 Clouds 14 1023 76 10000 4.12 140 16:32 25.02.2022
5145 Clouds 15 1024 74 10000 4.63 140 15:47 25.02.2022
5146 Clouds 15 1024 72 10000 4.12 150 15:21 25.02.2022
5147 Clouds 15 1024 72 10000 4.12 160 14:42 25.02.2022
5148 Clouds 15 1024 72 10000 4.12 160 14:42 25.02.2022
5149 Clouds 15 1024 70 10000 3.6 170 13:51 25.02.2022
5150 Clouds 15 1025 70 10000 0.45 3 13:18 25.02.2022
5151 Clouds 13 1026 70 10000 3.09 330 11:28 25.02.2022
5152 Clouds 12 1026 75 10000 3.09 330 10:43 25.02.2022
5153 Clouds 12 1025 76 10000 2.68 144 10:22 25.02.2022
5154 Clouds 11 1025 78 10000 3.6 320 09:30 25.02.2022
5155 Clouds 11 1024 82 10000 2.24 248 07:42 25.02.2022
5156 Clouds 11 1023 85 10000 3.6 330 05:51 25.02.2022
5157 Clouds 11 1023 85 10000 4.63 320 05:31 25.02.2022
5158 Clouds 11 1023 88 10000 2.06 330 00:27 25.02.2022
5159 Clear 12 1023 86 10000 1.54 280 22:00 24.02.2022
5160 Clear 12 1023 86 10000 2.06 290 21:40 24.02.2022
5161 Clear 12 1022 86 10000 2.06 290 21:20 24.02.2022
5162 Clear 13 1022 84 10000 2.06 210 19:53 24.02.2022
5163 Clear 14 1021 78 10000 2.57 210 18:52 24.02.2022
5164 Clear 15 1021 77 10000 3.6 210 18:19 24.02.2022
5165 Clear 15 1020 74 10000 4.63 220 17:42 24.02.2022
5166 Clear 16 1020 70 10000 4.12 210 16:56 24.02.2022
5167 Clear 16 1019 66 10000 4.63 160 16:25 24.02.2022
5168 Clear 17 1020 60 10000 4.63 200 15:30 24.02.2022
5169 Clouds 17 1020 57 10000 5.66 230 14:37 24.02.2022
5170 Clouds 17 1021 60 10000 4.63 200 13:42 24.02.2022
5171 Clouds 17 1021 58 10000 3.13 7 13:24 24.02.2022
5172 Clouds 14 1022 78 10000 1.03 0 10:43 24.02.2022
5173 Clouds 12 1022 83 10000 2.57 330 09:41 24.02.2022
5174 Clouds 11 1021 89 8000 1.54 350 08:42 24.02.2022
5175 Clouds 11 1021 88 8000 1.03 320 06:25 24.02.2022
5176 Clouds 11 1021 88 8000 1.03 330 05:36 24.02.2022
5177 Clouds 11 1023 84 10000 2.57 260 00:30 24.02.2022
5178 Clouds 12 1023 83 10000 3.09 250 21:56 23.02.2022
5179 Clouds 12 1023 82 10000 4.12 230 20:33 23.02.2022
5180 Clouds 13 1023 81 10000 4.12 240 19:56 23.02.2022
5181 Clouds 13 1023 81 10000 5.66 240 19:23 23.02.2022
5182 Clouds 15 1023 76 10000 6.69 230 17:56 23.02.2022
5183 Clouds 16 1023 71 10000 5.14 170 16:18 23.02.2022
5184 Clouds 17 1025 60 10000 4.47 8 13:36 23.02.2022
5185 Clouds 16 1026 62 10000 3.09 230 12:31 23.02.2022
5186 Clouds 14 1026 65 10000 3.6 0 10:55 23.02.2022
5187 Clouds 11 1027 76 10000 6.69 330 09:38 23.02.2022
5188 Clouds 10 1027 80 10000 6.69 320 08:54 23.02.2022
5189 Clouds 9 1025 82 10000 6.17 320 07:47 23.02.2022
5190 Clouds 10 1026 83 10000 2.57 320 02:31 23.02.2022
5191 Clear 10 1026 76 10000 3.6 340 23:50 22.02.2022
5192 Clear 10 1027 75 10000 2.57 320 23:31 22.02.2022
5193 Clear 11 1026 77 10000 1.54 340 22:28 22.02.2022
5194 Clear 11 1026 79 10000 2.57 290 21:44 22.02.2022
5195 Clear 11 1026 77 10000 2.57 210 21:21 22.02.2022
5196 Clear 12 1025 77 10000 3.09 210 20:41 22.02.2022
5197 Clear 12 1025 76 10000 3.09 210 20:22 22.02.2022
5198 Clear 13 1024 72 10000 3.6 210 19:34 22.02.2022
5199 Clouds 14 1025 68 10000 1.79 286 18:35 22.02.2022
5200 Clouds 16 1024 64 10000 4.12 130 17:34 22.02.2022
5201 Clouds 16 1025 61 10000 5.14 120 16:57 22.02.2022
5202 Clear 16 1025 59 10000 5.14 130 16:22 22.02.2022
5203 Clear 16 1025 58 10000 4.63 130 15:31 22.02.2022
5204 Clear 17 1025 56 10000 5.14 210 14:33 22.02.2022
5205 Clear 14 1027 48 10000 4.63 340 11:39 22.02.2022
5206 Clouds 11 1027 58 10000 7.72 340 09:48 22.02.2022
5207 Clouds 9 1026 62 10000 6.17 330 07:41 22.02.2022
5208 Clouds 9 1026 61 10000 6.17 330 07:23 22.02.2022
5209 Clouds 10 1025 80 10000 3.09 310 02:51 22.02.2022
5210 Clouds 12 1024 78 10000 3.6 40 23:48 21.02.2022
5211 Clouds 13 1023 78 10000 5.66 40 22:37 21.02.2022
5212 Clear 13 1022 77 10000 5.14 30 21:24 21.02.2022
5213 Clear 15 1020 72 10000 5.14 30 19:36 21.02.2022
5214 Clear 17 1019 61 10000 4.12 280 18:39 21.02.2022
5215 Clear 19 1018 53 10000 5.14 260 16:40 21.02.2022
5216 Clear 18 1020 51 10000 4.12 260 14:24 21.02.2022
5217 Clear 18 1020 47 10000 3.6 290 13:55 21.02.2022
5218 Clear 17 1021 49 10000 1.79 271 12:57 21.02.2022
5219 Clear 16 1022 52 10000 5.66 260 12:22 21.02.2022
5220 Clear 12 1023 64 10000 5.14 320 10:32 21.02.2022
5221 Clear 9 1022 78 10000 4.12 310 08:31 21.02.2022
5222 Clear 10 1025 65 10000 2.57 320 00:56 21.02.2022
5223 Clear 11 1026 58 10000 2.57 300 22:40 20.02.2022
5224 Clear 11 1025 56 10000 1.54 260 21:54 20.02.2022
5225 Clear 12 1025 56 10000 2.57 250 21:25 20.02.2022
5226 Clear 12 1025 53 10000 3.09 240 20:50 20.02.2022
5227 Clear 12 1025 62 10000 6.69 230 19:59 20.02.2022
5228 Clear 13 1025 62 10000 7.2 230 19:21 20.02.2022
5229 Clear 14 1024 61 10000 6.69 230 18:42 20.02.2022
5230 Clear 14 1024 60 10000 6.69 230 18:23 20.02.2022
5231 Clear 15 1024 57 10000 6.69 220 17:30 20.02.2022
5232 Clear 16 1025 56 10000 6.17 210 15:29 20.02.2022
5233 Clear 15 1026 55 10000 4.12 300 14:33 20.02.2022
5234 Clear 14 1026 54 10000 3.6 270 12:51 20.02.2022
5235 Clear 12 1027 59 10000 4.12 340 11:56 20.02.2022
5236 Clear 10 1028 67 10000 5.66 320 10:21 20.02.2022
5237 Clear 9 1027 70 10000 4.63 320 09:52 20.02.2022
5238 Clear 8 1026 78 10000 4.63 320 06:44 20.02.2022
5239 Clouds 9 1025 84 10000 2.57 320 00:33 20.02.2022
5240 Clouds 9 1024 84 10000 2.06 330 23:42 19.02.2022
5241 Clouds 10 1024 82 10000 3.09 320 22:25 19.02.2022
5242 Clouds 10 1024 80 10000 3.09 310 21:54 19.02.2022
5243 Clouds 10 1023 80 10000 3.09 340 20:48 19.02.2022
5244 Clouds 11 1022 78 10000 2.06 260 19:41 19.02.2022
5245 Clouds 11 1022 78 10000 3.09 320 18:41 19.02.2022
5246 Clouds 11 1021 78 10000 3.6 310 18:19 19.02.2022
5247 Drizzle 11 1021 78 10000 4.12 320 17:33 19.02.2022
5248 Drizzle 11 1021 77 10000 3.09 340 16:21 19.02.2022
5249 Clouds 12 1021 70 10000 4.63 280 14:56 19.02.2022
5250 Clouds 12 1020 68 10000 4.63 330 13:59 19.02.2022
5251 Clouds 13 1020 72 10000 4.12 340 11:59 19.02.2022
5252 Clouds 13 1020 73 10000 4.63 340 11:36 19.02.2022
5253 Clouds 12 1019 83 10000 1.79 132 09:34 19.02.2022
5254 Mist 12 1017 86 5000 2.06 350 06:53 19.02.2022
5255 Mist 12 1017 87 9000 2.57 300 02:38 19.02.2022
5256 Clouds 13 1017 89 10000 3.6 70 23:28 18.02.2022
5257 Clouds 14 1015 84 6000 4.02 60 21:30 18.02.2022
5258 Clouds 14 1014 78 10000 5.14 220 20:39 18.02.2022
5259 Clouds 15 1014 78 10000 5.14 210 19:51 18.02.2022
5260 Clear 16 1015 73 10000 6.69 220 18:50 18.02.2022
5261 Clear 17 1014 69 10000 7.72 220 18:20 18.02.2022
5262 Clear 19 1013 59 10000 8.23 210 17:25 18.02.2022
5263 Clouds 19 1014 70 10000 9.77 220 14:48 18.02.2022
5264 Clouds 19 1016 68 10000 8.75 220 13:54 18.02.2022
5265 Clear 19 1016 67 10000 0.89 124 12:51 18.02.2022
5266 Clear 18 1017 65 10000 4.12 240 11:58 18.02.2022
5267 Clear 18 1017 65 10000 4.12 240 11:58 18.02.2022
5268 Clear 18 1017 65 10000 4.12 240 11:58 18.02.2022
5269 Clouds 17 1017 71 10000 7.72 220 11:21 18.02.2022
5270 Clouds 13 1018 79 10000 3.09 320 09:33 18.02.2022
5271 Clear 11 1018 82 10000 3.09 310 06:52 18.02.2022
5272 Clear 12 1018 80 10000 4.12 320 05:38 18.02.2022
5273 Clear 13 1022 81 10000 2.57 290 22:47 17.02.2022
5274 Clear 14 1021 77 10000 1.54 250 21:43 17.02.2022
5275 Clouds 14 1021 76 10000 4.12 240 20:59 17.02.2022
5276 Clouds 15 1021 75 10000 4.63 240 20:34 17.02.2022
5277 Clouds 16 1021 72 10000 4.12 230 19:48 17.02.2022
5278 Clear 17 1021 71 10000 4.63 210 18:38 17.02.2022
5279 Clear 18 1021 66 10000 4.12 210 17:48 17.02.2022
5280 Clear 19 1020 56 10000 5.66 220 16:20 17.02.2022
5281 Clear 20 1020 55 10000 5.14 260 15:26 17.02.2022
5282 Clear 19 1022 54 10000 5.66 220 14:20 17.02.2022
5283 Clear 17 1023 59 10000 6.17 280 12:24 17.02.2022
5284 Clear 16 1023 64 10000 6.17 320 11:21 17.02.2022
5285 Clear 12 1022 74 10000 4.63 290 08:43 17.02.2022
5286 Clear 12 1021 71 10000 2.57 320 00:29 17.02.2022
5287 Clear 12 1021 75 10000 2.06 350 22:41 16.02.2022
5288 Clouds 12 1021 77 10000 2.57 290 21:25 16.02.2022
5289 Clouds 13 1021 74 10000 4.12 240 19:43 16.02.2022
5290 Clouds 15 1020 68 10000 4.12 210 18:36 16.02.2022
5291 Clear 16 1020 62 10000 5.66 230 17:41 16.02.2022
5292 Clear 16 1020 63 10000 5.66 230 17:37 16.02.2022
5293 Clouds 16 1019 51 10000 5.66 270 15:30 16.02.2022
5294 Clouds 15 1021 52 10000 6.69 270 14:57 16.02.2022
5295 Clouds 13 1022 53 10000 5.14 280 12:35 16.02.2022
5296 Clouds 13 1023 53 10000 5.66 280 11:53 16.02.2022
5297 Clouds 13 1023 54 10000 6.69 270 11:23 16.02.2022
5298 Clouds 12 1023 59 10000 3.6 330 10:29 16.02.2022
5299 Rain 9 1022 66 10000 4.12 340 06:57 16.02.2022
5300 Clear 9 1022 69 10000 3.09 330 04:42 16.02.2022
5301 Clear 10 1023 76 10000 2.57 70 23:44 15.02.2022
5302 Clear 12 1022 71 10000 3.09 80 22:19 15.02.2022
5303 Clear 12 1023 70 10000 3.09 70 21:45 15.02.2022
5304 Clear 12 1023 68 10000 3.6 50 21:27 15.02.2022
5305 Clear 13 1023 64 10000 3.09 70 20:55 15.02.2022
5306 Clear 14 1022 57 10000 2.68 111 19:55 15.02.2022
5307 Clear 15 1021 48 10000 4.02 246 18:52 15.02.2022
5308 Clear 15 1021 42 10000 4.63 290 18:19 15.02.2022
5309 Clear 16 1021 39 10000 4.63 290 17:48 15.02.2022
5310 Clouds 17 1020 34 10000 5.14 290 16:32 15.02.2022
5311 Clouds 17 1021 36 10000 5.14 230 15:22 15.02.2022
5312 Clear 15 1022 47 10000 5.14 260 13:26 15.02.2022
5313 Clear 13 1022 53 10000 4.12 340 11:57 15.02.2022
5314 Clear 11 1022 58 10000 6.17 320 10:58 15.02.2022
5315 Clear 8 1022 70 10000 6.17 330 09:28 15.02.2022
5316 Clouds 7 1020 72 10000 3.6 330 06:50 15.02.2022
5317 Clouds 8 1017 72 10000 3.09 320 02:36 15.02.2022
5318 Clouds 10 1015 77 10000 2.06 120 22:36 14.02.2022
5319 Clouds 11 1016 74 10000 3.09 80 21:35 14.02.2022
5320 Clouds 12 1014 73 10000 4.63 90 20:30 14.02.2022
5321 Clouds 13 1014 66 10000 4.12 300 19:32 14.02.2022
5322 Clouds 14 1013 51 10000 4.12 290 18:30 14.02.2022
5323 Clouds 15 1012 46 10000 7.2 280 17:58 14.02.2022
5324 Clouds 16 1012 43 10000 7.2 290 17:25 14.02.2022
5325 Clouds 17 1011 38 10000 6.69 260 16:19 14.02.2022
5326 Clouds 15 1012 47 10000 6.69 320 13:54 14.02.2022
5327 Clouds 15 1012 46 10000 6.69 300 13:26 14.02.2022
5328 Clouds 16 1012 49 10000 6.17 240 12:33 14.02.2022
5329 Clouds 16 1012 57 10000 4.63 230 11:54 14.02.2022
5330 Clouds 15 1012 64 10000 4.12 230 10:43 14.02.2022
5331 Clouds 12 1011 81 8000 3.6 250 08:45 14.02.2022
5332 Clouds 12 1011 83 6000 2.57 250 07:31 14.02.2022
5333 Clouds 13 1015 84 10000 6.69 210 01:18 14.02.2022
5334 Clouds 13 1017 84 10000 6.17 210 22:42 13.02.2022
5335 Clouds 13 1017 84 10000 6.17 210 22:24 13.02.2022
5336 Clouds 13 1017 84 10000 6.69 210 21:32 13.02.2022
5337 Clouds 13 1017 85 10000 6.17 200 20:36 13.02.2022
5338 Clouds 13 1017 84 10000 6.17 200 19:45 13.02.2022
5339 Clouds 13 1018 81 10000 5.66 210 18:49 13.02.2022
5340 Clouds 13 1018 80 10000 5.66 210 18:28 13.02.2022
5341 Clouds 15 1018 70 10000 8.23 220 15:54 13.02.2022
5342 Clouds 15 1019 72 10000 8.23 220 15:24 13.02.2022
5343 Clouds 15 1020 72 10000 7.2 220 14:31 13.02.2022
5344 Clouds 14 1021 80 10000 5.66 210 12:51 13.02.2022
5345 Clouds 13 1022 84 10000 5.66 220 11:44 13.02.2022
5346 Clouds 12 1023 86 10000 4.63 210 10:34 13.02.2022
5347 Clouds 12 1022 87 10000 5.14 210 09:47 13.02.2022
5348 Clouds 11 1022 89 10000 1.54 330 07:51 13.02.2022
5349 Clouds 10 1025 87 10000 1.54 290 00:36 13.02.2022
5350 Clouds 11 1025 86 10000 1.03 320 23:53 12.02.2022
5351 Clouds 11 1025 83 10000 1.54 10 22:33 12.02.2022
5352 Clouds 11 1025 81 10000 1.03 0 21:36 12.02.2022
5353 Clouds 11 1024 81 10000 1.03 40 20:52 12.02.2022
5354 Clouds 11 1025 80 10000 2.06 70 19:47 12.02.2022
5355 Clouds 11 1025 78 10000 2.06 70 18:53 12.02.2022
5356 Clouds 11 1025 77 10000 2.57 130 18:35 12.02.2022
5357 Clouds 12 1024 77 10000 2.57 90 17:37 12.02.2022
5358 Clouds 12 1025 76 10000 2.57 100 16:43 12.02.2022
5359 Clouds 12 1024 77 10000 2.57 80 15:52 12.02.2022
5360 Clouds 12 1024 78 10000 3.6 120 14:55 12.02.2022
5361 Clouds 12 1026 78 10000 3.6 130 14:25 12.02.2022
5362 Clouds 12 1027 81 10000 1.79 271 11:20 12.02.2022
5363 Clouds 12 1026 82 10000 2.68 275 10:28 12.02.2022
5364 Clouds 11 1025 84 9000 1.03 340 09:33 12.02.2022
5365 Clouds 10 1025 85 9000 1.03 0 08:46 12.02.2022
5366 Clouds 10 1024 85 10000 2.57 320 06:46 12.02.2022
5367 Clouds 10 1025 86 10000 1.54 310 04:44 12.02.2022
5368 Clouds 10 1026 83 10000 2.57 300 02:19 12.02.2022
5369 Clouds 11 1026 82 10000 2.06 320 23:20 11.02.2022
5370 Clouds 11 1026 83 10000 1.54 310 22:21 11.02.2022
5371 Clear 11 1026 81 10000 1.54 280 21:18 11.02.2022
5372 Clear 12 1026 80 10000 1.03 0 20:26 11.02.2022
5373 Clear 13 1026 77 10000 2.57 170 19:28 11.02.2022
5374 Clear 14 1024 74 10000 3.09 220 18:29 11.02.2022
5375 Clear 15 1025 69 10000 3.09 190 17:27 11.02.2022
5376 Clear 15 1024 65 10000 5.66 130 16:40 11.02.2022
5377 Clear 17 1024 61 10000 3.09 190 15:19 11.02.2022
5378 Clear 17 1025 59 10000 2.57 180 14:37 11.02.2022
5379 Clear 16 1025 60 10000 2.57 180 14:19 11.02.2022
5380 Clear 16 1025 59 10000 2.57 180 13:44 11.02.2022
5381 Clear 16 1025 58 10000 2.57 150 13:25 11.02.2022
5382 Clouds 13 1027 65 9000 0.51 0 10:59 11.02.2022
5383 Clouds 11 1026 74 10000 4.12 330 09:32 11.02.2022
5384 Clouds 9 1026 74 10000 4.12 330 08:35 11.02.2022
5385 Clouds 9 1024 75 10000 4.12 330 07:46 11.02.2022
5386 Clouds 9 1024 75 10000 4.12 330 07:46 11.02.2022
5387 Clouds 9 1025 75 10000 5.14 320 06:24 11.02.2022
5388 Clear 9 1025 79 10000 0.45 268 02:22 11.02.2022
5389 Clear 9 1025 86 10000 2.24 246 23:48 10.02.2022
5390 Clear 10 1026 84 10000 2.06 300 22:33 10.02.2022
5391 Clear 10 1026 84 10000 1.54 300 21:42 10.02.2022
5392 Clear 10 1026 83 10000 2.57 260 20:50 10.02.2022
5393 Clear 11 1026 84 10000 3.6 230 19:56 10.02.2022
5394 Clear 12 1026 81 10000 3.6 230 19:23 10.02.2022
5395 Clear 13 1026 77 10000 4.12 220 18:33 10.02.2022
5396 Clouds 14 1026 73 10000 5.14 210 17:23 10.02.2022
5397 Clouds 15 1026 72 10000 5.14 200 16:43 10.02.2022
5398 Clouds 15 1026 70 10000 4.12 190 15:41 10.02.2022
5399 Clouds 15 1026 69 10000 3.6 190 15:21 10.02.2022
5400 Clouds 15 1026 69 10000 3.09 190 14:35 10.02.2022
5401 Clouds 15 1027 70 10000 3.09 180 13:59 10.02.2022
5402 Clouds 14 1027 71 10000 0.45 169 13:19 10.02.2022
5403 Clouds 13 1029 70 10000 3.09 320 11:57 10.02.2022
5404 Clouds 12 1029 72 10000 4.12 320 11:32 10.02.2022
5405 Clouds 10 1029 78 10000 5.66 330 10:25 10.02.2022
5406 Clouds 9 1029 80 10000 5.14 320 09:46 10.02.2022
5407 Clouds 9 1029 80 10000 5.14 320 09:46 10.02.2022
5408 Clouds 8 1028 86 10000 4.63 320 08:42 10.02.2022
5409 Clouds 8 1028 85 10000 4.12 320 06:34 10.02.2022
5410 Clouds 8 1029 86 10000 4.12 320 03:33 10.02.2022
5411 Clear 9 1030 83 10000 2.57 320 00:57 10.02.2022
5412 Clear 9 1030 83 10000 1.03 0 00:38 10.02.2022
5413 Clear 9 1030 82 10000 1.03 0 00:20 10.02.2022
5414 Clear 9 1030 80 10000 1.79 122 22:57 09.02.2022
5415 Clear 10 1029 80 10000 1.54 290 22:33 09.02.2022
5416 Clear 10 1030 80 10000 2.57 250 21:48 09.02.2022
5417 Clear 10 1030 78 10000 3.09 240 21:27 09.02.2022
5418 Clear 11 1030 77 10000 3.09 250 20:45 09.02.2022
5419 Clear 11 1030 79 10000 3.09 250 20:23 09.02.2022
5420 Clear 12 1029 77 10000 3.6 230 19:42 09.02.2022
5421 Clear 12 1030 76 10000 4.12 220 18:50 09.02.2022
5422 Clear 15 1029 69 10000 6.69 210 17:24 09.02.2022
5423 Clear 16 1032 70 10000 6.69 220 16:25 09.02.2022
5424 Clear 16 1031 69 10000 7.2 210 15:26 09.02.2022
5425 Clouds 15 1031 70 10000 5.36 2 13:32 09.02.2022
5426 Clouds 13 1032 74 10000 3.6 240 11:52 09.02.2022
5427 Clouds 11 1032 81 9000 3.6 330 10:35 09.02.2022
5428 Clouds 10 1032 82 8000 4.12 330 09:56 09.02.2022
5429 Clouds 9 1032 85 9000 5.14 330 09:22 09.02.2022
5430 Clouds 8 1032 87 7000 4.63 320 08:51 09.02.2022
5431 Clouds 8 1032 86 7000 3.09 320 06:56 09.02.2022
5432 Mist 9 1032 88 7000 3.09 320 04:36 09.02.2022
5433 Clouds 9 1032 88 8000 1.54 310 03:49 09.02.2022
5434 Clouds 10 1031 87 10000 1.54 320 23:45 08.02.2022
5435 Clouds 11 1032 88 10000 1.54 290 23:19 08.02.2022
5436 Clouds 11 1032 88 10000 2.06 290 23:19 08.02.2022
5437 Clouds 11 1032 88 10000 3.09 220 22:38 08.02.2022
5438 Clouds 11 1032 88 10000 3.09 220 22:20 08.02.2022
5439 Clouds 12 1033 88 10000 3.09 210 21:22 08.02.2022
5440 Clouds 12 1032 88 10000 3.6 220 20:59 08.02.2022
5441 Clouds 12 1032 88 10000 3.09 210 20:38 08.02.2022
5442 Clouds 13 1032 86 10000 3.6 200 19:31 08.02.2022
5443 Clouds 13 1032 84 10000 3.6 200 18:24 08.02.2022
5444 Clouds 14 1031 81 10000 4.12 190 17:30 08.02.2022
5445 Clouds 16 1031 76 10000 4.63 200 15:52 08.02.2022
5446 Clouds 16 1031 75 10000 4.63 200 15:28 08.02.2022
5447 Clouds 15 1032 74 10000 3.13 1 13:50 08.02.2022
5448 Clouds 14 1033 71 10000 1.54 130 12:25 08.02.2022
5449 Clouds 13 1032 72 10000 2.24 305 10:55 08.02.2022
5450 Clouds 11 1032 76 10000 4.63 330 09:50 08.02.2022
5451 Clouds 10 1032 77 10000 5.14 330 08:53 08.02.2022
5452 Clouds 9 1031 78 10000 4.63 330 06:50 08.02.2022
5453 Clouds 9 1030 76 10000 3.6 330 04:40 08.02.2022
5454 Clouds 9 1030 75 10000 3.6 330 04:22 08.02.2022
5455 Clouds 9 1030 75 10000 2.06 330 03:36 08.02.2022
5456 Clouds 9 1030 73 10000 2.06 20 03:18 08.02.2022
5457 Clouds 9 1030 74 10000 2.06 20 02:59 08.02.2022
5458 Clouds 9 1030 74 10000 2.57 340 02:36 08.02.2022
5459 Clouds 10 1030 72 10000 2.57 340 02:18 08.02.2022
5460 Clouds 10 1029 69 10000 3.6 330 01:45 08.02.2022
5461 Clouds 10 1029 69 10000 3.6 330 01:45 08.02.2022
5462 Clouds 10 1028 70 10000 2.57 340 01:25 08.02.2022
5463 Clouds 10 1029 68 10000 4.12 330 00:55 08.02.2022
5464 Clouds 10 1028 67 10000 4.12 330 00:32 08.02.2022
5465 Clouds 11 1028 65 10000 3.6 320 23:45 07.02.2022
5466 Clear 11 1027 65 10000 2.06 280 23:18 07.02.2022
5467 Clear 11 1029 66 10000 2.06 280 22:59 07.02.2022
5468 Clear 11 1029 65 10000 2.06 300 22:19 07.02.2022
5469 Clear 11 1028 64 10000 1.54 300 21:51 07.02.2022
5470 Clear 11 1028 64 10000 3.09 290 21:28 07.02.2022
5471 Clear 12 1027 65 10000 1.54 320 20:47 07.02.2022
5472 Clear 12 1027 65 10000 2.57 300 20:29 07.02.2022
5473 Clear 12 1027 65 10000 1.54 300 19:47 07.02.2022
5474 Clear 14 1026 59 10000 3.6 130 18:40 07.02.2022
5475 Clear 15 1026 54 10000 4.63 130 17:33 07.02.2022
5476 Clear 16 1026 51 10000 3.09 220 16:52 07.02.2022
5477 Clear 16 1025 51 10000 4.12 230 15:48 07.02.2022
5478 Clear 16 1024 49 10000 4.12 270 14:19 07.02.2022
5479 Clear 15 1025 48 10000 5.66 330 13:27 07.02.2022
5480 Clear 14 1026 52 10000 0.45 275 12:36 07.02.2022
5481 Clear 13 1026 55 10000 0.89 28 11:50 07.02.2022
5482 Clear 12 1026 57 10000 0.89 234 11:24 07.02.2022
5483 Clear 11 1025 61 10000 1.34 179 10:42 07.02.2022
5484 Clear 10 1025 63 10000 1.79 301 10:24 07.02.2022
5485 Clear 9 1025 64 10000 0.89 84 09:52 07.02.2022
5486 Clear 8 1025 68 10000 0.45 302 09:18 07.02.2022
5487 Clouds 7 1026 70 10000 0.45 137 07:58 07.02.2022
5488 Clouds 7 1025 70 10000 1.79 168 06:34 07.02.2022
5489 Clouds 8 1025 70 10000 1.34 342 05:18 07.02.2022
5490 Clouds 8 1026 66 10000 1.34 244 02:38 07.02.2022
5491 Clouds 9 1028 68 10000 1.79 304 00:29 07.02.2022
5492 Clouds 9 1028 61 10000 1.34 271 23:33 06.02.2022
5493 Clouds 10 1028 59 10000 2.24 296 22:45 06.02.2022
5494 Clouds 10 1028 56 10000 1.34 257 21:47 06.02.2022
5495 Clouds 10 1028 54 10000 1.79 285 21:21 06.02.2022
5496 Clouds 11 1028 54 10000 3.13 296 21:21 06.02.2022
5497 Clouds 11 1028 54 10000 3.13 296 21:21 06.02.2022
5498 Clouds 11 1027 53 10000 0.45 348 20:48 06.02.2022
5499 Clouds 11 1027 54 10000 0.89 284 20:24 06.02.2022
5500 Clouds 12 1027 59 10000 0.45 0 19:30 06.02.2022
5501 Clouds 13 1026 61 10000 2.24 231 18:34 06.02.2022
5502 Clouds 13 1026 60 10000 2.24 220 17:54 06.02.2022
5503 Clouds 14 1026 58 10000 2.24 271 16:52 06.02.2022
5504 Clouds 15 1026 59 10000 0.45 0 16:30 06.02.2022
5505 Clouds 15 1026 61 10000 0.45 74 15:47 06.02.2022
5506 Clouds 15 1026 61 10000 0.89 111 15:25 06.02.2022
5507 Clouds 15 1027 50 10000 0.45 119 14:25 06.02.2022
5508 Clouds 14 1027 49 10000 1.34 321 13:24 06.02.2022
5509 Clouds 12 1027 52 10000 0.89 303 12:34 06.02.2022
5510 Clouds 10 1028 60 10000 3.58 267 10:43 06.02.2022
5511 Clouds 9 1028 64 10000 3.58 255 09:48 06.02.2022
5512 Clouds 8 1027 67 10000 4.92 300 08:46 06.02.2022
5513 Clouds 8 1027 68 10000 4.47 321 07:36 06.02.2022
5514 Clouds 9 1026 82 10000 0.45 272 05:29 06.02.2022
5515 Clouds 10 1027 83 10000 2.57 330 02:26 06.02.2022
5516 Clouds 10 1027 86 9000 0.45 285 01:20 06.02.2022
5517 Clouds 10 1026 86 9000 2.57 320 00:24 06.02.2022
5518 Clouds 11 1026 86 8000 0.51 0 22:18 05.02.2022
5519 Clouds 11 1025 85 10000 1.03 240 20:48 05.02.2022
5520 Clouds 11 1025 86 10000 2.06 220 20:23 05.02.2022
5521 Clouds 12 1025 86 10000 2.57 220 19:44 05.02.2022
5522 Clouds 13 1024 85 7000 0.45 273 18:49 05.02.2022
5523 Clouds 14 1023 81 8000 2.57 180 17:37 05.02.2022
5524 Clouds 14 1023 78 8000 0.45 81 16:36 05.02.2022
5525 Clouds 15 1023 75 8000 1.34 264 15:33 05.02.2022
5526 Clouds 14 1024 77 7000 0.45 99 14:40 05.02.2022
5527 Clouds 13 1025 78 7000 0.89 80 12:46 05.02.2022
5528 Clouds 13 1024 80 8000 0.45 102 11:49 05.02.2022
5529 Clouds 12 1023 82 10000 0.45 250 10:46 05.02.2022
5530 Clouds 11 1024 82 8000 0.45 239 09:52 05.02.2022
5531 Mist 11 1023 85 8000 0.89 247 09:25 05.02.2022
5532 Mist 10 1022 88 8000 0.45 242 07:36 05.02.2022
5533 Mist 10 1022 87 7000 3.6 330 06:56 05.02.2022
5534 Mist 11 1021 87 6000 0.45 266 03:55 05.02.2022
5535 Clouds 11 1022 85 8000 0.51 0 01:19 05.02.2022
5536 Clouds 11 1022 85 8000 0.51 0 00:42 05.02.2022
5537 Mist 12 1022 85 9000 1.03 0 23:38 04.02.2022
5538 Mist 12 1022 85 9000 1.03 0 23:20 04.02.2022
5539 Clouds 12 1021 87 10000 2.06 180 21:36 04.02.2022
5540 Clouds 12 1021 88 10000 2.06 180 21:18 04.02.2022
5541 Clouds 12 1021 88 10000 1.54 160 20:50 04.02.2022
5542 Clouds 13 1021 88 10000 1.03 140 19:33 04.02.2022
5543 Clouds 14 1019 84 10000 2.57 210 17:27 04.02.2022
5544 Clouds 15 1018 79 10000 0.89 34 15:39 04.02.2022
5545 Clouds 15 1018 76 10000 0.45 168 14:52 04.02.2022
5546 Clouds 15 1020 67 10000 0.89 122 12:43 04.02.2022
5547 Clouds 14 1020 70 10000 0.45 128 11:47 04.02.2022
5548 Clouds 13 1020 68 10000 0.45 121 11:22 04.02.2022
5549 Clouds 13 1020 70 10000 1.41 262 10:32 04.02.2022
5550 Clouds 10 1020 77 10000 0.45 296 08:34 04.02.2022
5551 Clear 10 1019 76 10000 0.45 305 05:19 04.02.2022
5552 Clear 11 1019 79 10000 0.45 334 02:39 04.02.2022
5553 Clouds 11 1020 81 10000 0.45 269 00:31 04.02.2022
5554 Mist 12 1020 83 4500 0.45 340 23:21 03.02.2022
5555 Mist 12 1020 86 1100 0.89 322 22:26 03.02.2022
5556 Fog 12 1019 86 1200 1.34 343 21:47 03.02.2022
5557 Clear 13 1019 83 10000 0.89 9 20:27 03.02.2022
5558 Fog 14 1019 81 1500 1.34 328 19:59 03.02.2022
5559 Fog 14 1018 78 8000 2.24 327 19:26 03.02.2022
5560 Fog 16 1017 74 800 3.6 230 18:26 03.02.2022
5561 Clouds 17 1018 70 10000 0.45 219 17:32 03.02.2022
5562 Clear 18 1017 63 10000 1.79 263 15:53 03.02.2022
5563 Clear 17 1018 62 10000 0.45 107 14:26 03.02.2022
5564 Clear 16 1019 56 10000 0.89 116 12:40 03.02.2022
5565 Clear 13 1021 71 10000 3.6 330 10:35 03.02.2022
5566 Clear 9 1021 75 10000 3.6 330 08:23 03.02.2022
5567 Clear 11 1021 68 10000 2.24 245 03:28 03.02.2022
5568 Clear 12 1022 66 10000 2.24 248 00:30 03.02.2022
5569 Clear 12 1022 66 10000 3.13 247 22:47 02.02.2022
5570 Clear 12 1022 69 10000 1.34 267 21:53 02.02.2022
5571 Clear 13 1022 70 10000 2.24 263 21:30 02.02.2022
5572 Clear 12 1022 75 10000 0 0 20:33 02.02.2022
5573 Clear 13 1023 78 10000 0.45 280 19:51 02.02.2022
5574 Clear 13 1023 78 10000 2.57 230 19:20 02.02.2022
5575 Clear 14 1023 75 10000 0.45 318 18:27 02.02.2022
5576 Clear 16 1023 69 10000 2.06 180 17:37 02.02.2022
5577 Clear 16 1023 69 10000 2.06 180 17:18 02.02.2022
5578 Clear 16 1023 69 10000 2.06 180 17:18 02.02.2022
5579 Clear 17 1023 63 10000 0.89 133 16:30 02.02.2022
5580 Clear 16 1024 58 10000 0.45 254 12:54 02.02.2022
5581 Clear 15 1025 57 10000 0.45 150 11:51 02.02.2022
5582 Clear 14 1024 59 10000 3.09 330 11:31 02.02.2022
5583 Clear 11 1025 65 10000 0.45 62 09:46 02.02.2022
5584 Clear 10 1022 70 10000 4.02 236 06:18 02.02.2022
5585 Clear 12 1025 53 10000 4.02 288 22:44 01.02.2022
5586 Clear 13 1024 55 10000 2.68 245 21:30 01.02.2022
5587 Clouds 13 1025 59 10000 1.34 86 19:57 01.02.2022
5588 Clouds 15 1023 52 10000 0.45 244 17:38 01.02.2022
5589 Clouds 16 1023 48 10000 0.89 244 16:33 01.02.2022
5590 Clear 14 1023 48 10000 0.45 312 13:28 01.02.2022
5591 Clear 13 1024 47 10000 0.45 232 12:28 01.02.2022
5592 Clear 10 1023 58 10000 1.34 290 10:44 01.02.2022
5593 Clouds 9 1020 86 7000 3.6 330 02:30 01.02.2022
5594 Clear 9 1019 85 10000 0.51 0 23:40 31.01.2022
5595 Clear 10 1019 84 10000 0.51 0 22:43 31.01.2022
5596 Clouds 10 1018 82 10000 0.45 283 21:38 31.01.2022
5597 Clouds 10 1019 83 10000 1.03 0 20:45 31.01.2022
5598 Clouds 11 1018 82 10000 0 0 20:26 31.01.2022
5599 Clouds 12 1018 78 10000 2.06 220 18:54 31.01.2022
5600 Clouds 13 1018 75 9000 1.03 0 18:20 31.01.2022
5601 Clear 14 1018 69 9000 0.45 153 17:25 31.01.2022
5602 Clear 15 1018 66 10000 0.45 140 16:25 31.01.2022
5603 Clouds 15 1019 61 10000 0.89 266 14:54 31.01.2022
5604 Clouds 14 1020 63 10000 0.89 65 13:43 31.01.2022
5605 Clouds 14 1021 59 10000 0.89 55 12:38 31.01.2022
5606 Clouds 13 1022 54 10000 0.45 302 11:42 31.01.2022
5607 Clouds 11 1021 56 10000 1.79 304 10:49 31.01.2022
5608 Clear 10 1021 60 10000 1.34 297 09:45 31.01.2022
5609 Clear 9 1021 61 10000 0.45 296 08:58 31.01.2022
5610 Clear 9 1021 61 10000 0.89 105 08:38 31.01.2022
5611 Clear 9 1021 60 10000 0.89 281 08:19 31.01.2022
5612 Clouds 10 1020 56 10000 5.36 286 06:18 31.01.2022
5613 Clear 11 1022 49 10000 4.92 300 00:44 31.01.2022
5614 Clear 12 1023 42 10000 3.58 259 22:34 30.01.2022
5615 Clear 12 1023 41 10000 0.89 0 21:56 30.01.2022
5616 Clear 13 1023 41 10000 0.45 0 21:37 30.01.2022
5617 Clear 13 1023 40 10000 1.34 91 21:18 30.01.2022
5618 Clear 13 1023 40 10000 1.79 40 20:43 30.01.2022
5619 Clear 13 1023 40 10000 0.45 0 20:25 30.01.2022
5620 Clear 14 1023 43 10000 0.89 218 19:23 30.01.2022
5621 Clear 15 1023 48 10000 0.89 298 18:35 30.01.2022
5622 Clear 16 1023 47 10000 3.6 220 17:53 30.01.2022
5623 Clear 17 1023 46 10000 5.14 220 17:20 30.01.2022
5624 Clear 17 1024 51 10000 6.17 220 16:37 30.01.2022
5625 Clear 18 1024 45 10000 0.45 203 16:19 30.01.2022
5626 Clear 18 1024 46 10000 0.45 64 15:48 30.01.2022
5627 Clear 18 1024 45 10000 0.45 298 15:30 30.01.2022
5628 Clear 18 1024 44 10000 0.89 196 14:45 30.01.2022
5629 Clear 15 1027 43 10000 3.13 249 12:46 30.01.2022
5630 Clear 14 1028 47 10000 3.13 248 11:53 30.01.2022
5631 Clear 10 1027 55 10000 3.58 253 10:27 30.01.2022
5632 Clear 10 1028 57 10000 3.13 245 09:48 30.01.2022
5633 Clear 9 1028 57 10000 3.58 253 08:52 30.01.2022
5634 Clear 8 1027 60 10000 2.68 259 06:55 30.01.2022
5635 Clear 9 1029 57 10000 1.34 227 01:55 30.01.2022
5636 Haze 10 1030 55 10000 0.45 257 00:22 30.01.2022
5637 Clear 10 1030 59 10000 3.58 238 22:58 29.01.2022
5638 Clear 10 1030 61 10000 1.34 271 21:47 29.01.2022
5639 Clear 11 1030 62 10000 0.89 278 21:23 29.01.2022
5640 Clear 11 1030 63 10000 0.45 295 20:22 29.01.2022
5641 Clear 12 1030 63 10000 1.54 210 19:33 29.01.2022
5642 Clear 12 1030 62 10000 2.06 220 18:51 29.01.2022
5643 Clear 13 1030 59 10000 3.09 200 18:18 29.01.2022
5644 Clear 15 1030 54 10000 3.09 230 17:28 29.01.2022
5645 Clear 16 1031 50 10000 0.89 136 15:50 29.01.2022
5646 Clear 16 1032 48 10000 0.45 95 13:59 29.01.2022
5647 Clear 16 1032 46 10000 0.89 176 13:41 29.01.2022
5648 Clear 16 1032 45 10000 1.34 237 13:22 29.01.2022
5649 Clear 13 1032 47 10000 1.34 246 11:40 29.01.2022
5650 Clear 12 1033 46 10000 1.79 304 10:54 29.01.2022
5651 Clear 9 1032 53 10000 4.47 186 08:42 29.01.2022
5652 Clear 9 1031 51 10000 6.26 285 06:37 29.01.2022
5653 Clear 10 1030 47 10000 3.13 246 00:34 29.01.2022
5654 Clear 10 1030 50 10000 2.68 249 23:44 28.01.2022
5655 Clear 10 1030 46 10000 3.58 247 22:50 28.01.2022
5656 Clear 11 1030 46 10000 3.13 246 22:21 28.01.2022
5657 Clear 11 1030 45 10000 3.13 240 21:35 28.01.2022
5658 Clear 12 1029 44 10000 2.68 257 20:29 28.01.2022
5659 Clear 13 1029 42 10000 4.02 260 19:28 28.01.2022
5660 Clear 14 1028 46 10000 4.02 308 18:42 28.01.2022
5661 Clear 17 1027 37 10000 0.89 313 16:45 28.01.2022
5662 Clear 17 1027 37 10000 0.89 277 15:18 28.01.2022
5663 Clear 16 1028 36 10000 2.68 314 13:37 28.01.2022
5664 Clear 14 1030 45 10000 3.58 240 12:27 28.01.2022
5665 Clear 11 1029 52 10000 4.92 250 10:49 28.01.2022
5666 Clear 9 1029 57 10000 4.92 303 09:49 28.01.2022
5667 Clear 7 1029 60 10000 3.58 252 07:43 28.01.2022
5668 Clear 8 1029 60 10000 1.79 297 06:44 28.01.2022
5669 Clear 8 1029 60 10000 2.24 289 03:56 28.01.2022
5670 Clear 8 1029 60 10000 4.47 329 02:31 28.01.2022
5671 Clear 9 1029 61 10000 2.24 269 01:59 28.01.2022
5672 Clear 9 1028 61 10000 1.79 321 01:30 28.01.2022
5673 Clear 9 1029 73 9000 2.24 262 22:48 27.01.2022
5674 Clear 9 1029 81 9000 0.89 267 21:46 27.01.2022
5675 Clear 9 1028 79 9000 1.79 269 21:28 27.01.2022
5676 Clear 10 1027 84 10000 1.03 280 20:24 27.01.2022
5677 Clear 12 1028 82 10000 0.51 110 18:26 27.01.2022
5678 Clear 14 1028 77 10000 1.54 110 17:34 27.01.2022
5679 Clear 15 1029 64 10000 0.45 80 14:34 27.01.2022
5680 Clear 15 1029 54 10000 0.45 0 13:24 27.01.2022
5681 Clear 14 1030 50 10000 0.89 62 12:39 27.01.2022
5682 Clear 9 1030 58 10000 2.24 241 09:56 27.01.2022
5683 Clear 8 1029 59 10000 3.13 240 08:48 27.01.2022
5684 Clear 8 1029 58 10000 2.24 298 08:28 27.01.2022
5685 Clear 9 1029 51 10000 1.79 258 03:47 27.01.2022
5686 Clear 10 1028 48 10000 1.79 268 01:45 27.01.2022
5687 Clear 11 1029 54 10000 3.13 228 22:39 26.01.2022
5688 Clear 11 1028 58 10000 1.79 288 21:45 26.01.2022
5689 Clear 11 1028 61 10000 1.79 288 21:26 26.01.2022
5690 Clear 11 1028 68 10000 1.79 267 20:35 26.01.2022
5691 Clear 11 1028 72 10000 0.45 292 19:54 26.01.2022
5692 Clear 11 1028 72 10000 0.89 276 19:19 26.01.2022
5693 Clear 13 1027 67 10000 0.89 252 18:26 26.01.2022
5694 Clear 13 1027 66 10000 0.45 305 17:49 26.01.2022
5695 Clear 15 1028 62 10000 0.89 210 17:19 26.01.2022
5696 Clear 15 1028 61 10000 0.45 0 16:26 26.01.2022
5697 Clear 15 1028 59 10000 0.45 265 15:45 26.01.2022
5698 Clear 13 1030 54 10000 0.45 71 12:54 26.01.2022
5699 Clear 12 1031 59 9000 0.89 243 11:34 26.01.2022
5700 Clear 9 1031 66 10000 1.34 248 10:19 26.01.2022
5701 Clear 9 1031 66 10000 1.79 240 09:42 26.01.2022
5702 Clouds 7 1030 69 10000 0.45 344 07:32 26.01.2022
5703 Mist 7 1032 83 10000 0.89 247 00:48 26.01.2022
5704 Mist 7 1032 83 10000 0.89 247 00:48 26.01.2022
5705 Clouds 8 1032 82 10000 0.45 252 23:48 25.01.2022
5706 Clouds 8 1032 84 10000 0.89 310 22:50 25.01.2022
5707 Clouds 8 1032 83 10000 2.06 320 22:50 25.01.2022
5708 Clouds 8 1032 84 10000 0.89 310 22:50 25.01.2022
5709 Clouds 8 1031 85 10000 2.06 310 22:21 25.01.2022
5710 Clouds 8 1032 85 10000 1.03 280 21:41 25.01.2022
5711 Clouds 9 1032 85 10000 0.51 0 20:46 25.01.2022
5712 Clouds 9 1032 83 10000 0 0 20:21 25.01.2022
5713 Clouds 10 1032 83 10000 0.45 289 19:44 25.01.2022
5714 Clear 11 1032 80 10000 2.06 200 18:22 25.01.2022
5715 Clear 12 1031 76 10000 2.06 180 17:42 25.01.2022
5716 Clear 13 1031 71 10000 3.09 200 16:35 25.01.2022
5717 Clouds 14 1031 66 10000 0.45 177 15:44 25.01.2022
5718 Clouds 14 1031 66 10000 0.45 0 15:26 25.01.2022
5719 Clouds 14 1031 64 10000 0.45 176 14:57 25.01.2022
5720 Clouds 14 1031 65 10000 0.45 177 14:57 25.01.2022
5721 Clear 13 1032 62 10000 0.89 350 13:18 25.01.2022
5722 Clear 8 1033 76 10000 3.13 248 10:00 25.01.2022
5723 Clouds 6 1032 78 10000 2.24 245 08:32 25.01.2022
5724 Clouds 6 1032 77 10000 1.34 251 07:28 25.01.2022
5725 Clouds 6 1032 78 10000 0.45 303 06:22 25.01.2022
5726 Clouds 7 1032 83 10000 5.14 330 01:34 25.01.2022
5727 Clouds 7 1031 85 10000 3.6 320 23:36 24.01.2022
5728 Clouds 7 1031 85 10000 3.6 320 23:18 24.01.2022
5729 Clouds 7 1031 84 10000 1.54 320 22:59 24.01.2022
5730 Clouds 8 1031 84 10000 2.57 320 22:41 24.01.2022
5731 Clouds 8 1031 82 10000 1.03 0 21:45 24.01.2022
5732 Clouds 8 1031 82 10000 1.03 0 21:27 24.01.2022
5733 Clouds 9 1030 81 10000 1.54 280 20:29 24.01.2022
5734 Clouds 9 1030 79 10000 2.06 220 19:39 24.01.2022
5735 Clouds 10 1030 78 10000 1.54 200 18:55 24.01.2022
5736 Clouds 12 1029 70 10000 0.45 157 17:44 24.01.2022
5737 Clouds 13 1029 68 10000 0.89 221 17:23 24.01.2022
5738 Clouds 13 1028 65 10000 0.45 61 16:32 24.01.2022
5739 Clouds 13 1028 64 10000 0.45 210 15:52 24.01.2022
5740 Clouds 13 1029 64 10000 0.51 90 14:27 24.01.2022
5741 Clouds 11 1030 67 10000 0.89 265 12:36 24.01.2022
5742 Clouds 10 1030 71 10000 5.14 330 11:53 24.01.2022
5743 Clouds 7 1030 80 10000 0.89 267 10:25 24.01.2022
5744 Clouds 7 1030 82 10000 0.45 297 09:47 24.01.2022
5745 Clouds 5 1029 81 10000 1.34 335 08:19 24.01.2022
5746 Clouds 6 1028 85 10000 0.45 267 02:51 24.01.2022
5747 Clouds 7 1028 85 10000 0.45 303 01:28 24.01.2022
5748 Clouds 7 1028 84 10000 0.45 282 00:34 24.01.2022
5749 Clouds 7 1029 84 10000 0.45 295 23:47 23.01.2022
5750 Clouds 7 1028 83 10000 0.45 289 22:21 23.01.2022
5751 Clouds 7 1028 82 10000 0.45 287 21:42 23.01.2022
5752 Clouds 7 1027 82 10000 0.89 284 21:24 23.01.2022
5753 Clouds 8 1028 81 10000 2.06 310 20:29 23.01.2022
5754 Clouds 9 1028 79 10000 1.54 310 19:21 23.01.2022
5755 Clouds 10 1027 77 10000 1.54 230 18:44 23.01.2022
5756 Clouds 11 1027 71 10000 0.89 176 17:28 23.01.2022
5757 Clouds 12 1027 67 10000 0.45 317 16:38 23.01.2022
5758 Clouds 12 1027 64 10000 0.89 188 14:56 23.01.2022
5759 Clouds 12 1027 62 10000 1.34 180 14:19 23.01.2022
5760 Clear 11 1029 60 10000 0.89 113 12:49 23.01.2022
5761 Clear 10 1028 60 10000 0.45 117 12:21 23.01.2022
5762 Clear 9 1030 60 10000 0.45 182 11:51 23.01.2022
5763 Clear 8 1030 63 10000 0.45 280 11:18 23.01.2022
5764 Clear 7 1030 67 10000 0.89 252 10:26 23.01.2022
5765 Clouds 7 1029 69 10000 0.45 257 09:39 23.01.2022
5766 Clouds 5 1029 72 10000 6.69 330 08:51 23.01.2022
5767 Clear 5 1028 73 10000 0.45 285 05:55 23.01.2022
5768 Clear 5 1029 67 10000 0.89 313 01:49 23.01.2022
5769 Clear 5 1029 67 10000 0.89 360 01:25 23.01.2022
5770 Clear 6 1030 64 10000 0.45 250 00:23 23.01.2022
5771 Clear 6 1029 62 10000 0.45 307 23:35 22.01.2022
5772 Clear 6 1029 61 10000 0.89 263 22:34 22.01.2022
5773 Clear 7 1029 60 10000 0.45 261 21:28 22.01.2022
5774 Clear 7 1029 60 10000 0.89 311 19:51 22.01.2022
5775 Clear 9 1028 55 10000 0.45 294 18:49 22.01.2022
5776 Clear 10 1028 51 10000 0.45 292 17:59 22.01.2022
5777 Clear 11 1028 50 10000 5.14 240 17:35 22.01.2022
5778 Clear 11 1028 48 10000 0.45 210 16:55 22.01.2022
5779 Clear 11 1028 49 10000 1.34 291 15:49 22.01.2022
5780 Clear 11 1028 49 10000 0.89 68 14:58 22.01.2022
5781 Clear 10 1029 52 10000 0.45 84 13:42 22.01.2022
5782 Clouds 9 1030 55 10000 1.34 308 12:50 22.01.2022
5783 Clouds 8 1030 58 10000 0.45 0 12:28 22.01.2022
5784 Clouds 6 1031 63 10000 3.58 243 10:56 22.01.2022
5785 Clouds 5 1030 66 10000 1.79 298 10:29 22.01.2022
5786 Clouds 5 1030 68 10000 0.89 298 09:59 22.01.2022
5787 Clouds 3 1030 70 10000 1.79 296 08:52 22.01.2022
5788 Clouds 4 1030 69 10000 0.89 344 07:38 22.01.2022
5789 Clouds 4 1029 68 10000 2.24 256 04:52 22.01.2022
5790 Clouds 6 1029 73 10000 1.79 279 01:35 22.01.2022
5791 Clouds 6 1028 72 10000 1.34 304 23:38 21.01.2022
5792 Clouds 7 1028 70 10000 0.89 311 22:28 21.01.2022
5793 Clouds 7 1027 68 10000 0.89 294 20:28 21.01.2022
5794 Clouds 8 1026 64 10000 0.89 244 18:40 21.01.2022
5795 Clouds 9 1025 63 10000 2.24 284 17:31 21.01.2022
5796 Clouds 10 1024 62 10000 1.34 304 15:42 21.01.2022
5797 Clouds 10 1025 65 10000 1.34 346 13:51 21.01.2022
5798 Fog 9 1025 69 10000 0.89 360 12:38 21.01.2022
5799 Clouds 8 1025 76 10000 0.89 272 11:28 21.01.2022
5800 Clouds 7 1025 79 10000 0.89 342 10:19 21.01.2022
5801 Clouds 5 1024 81 10000 1.79 284 08:25 21.01.2022
5802 Clouds 6 1023 80 9000 1.34 101 06:57 21.01.2022
5803 Clear 7 1024 72 10000 0.89 289 23:40 20.01.2022
5804 Clear 8 1024 71 10000 3.13 225 22:41 20.01.2022
5805 Clear 8 1024 69 10000 3.13 286 21:43 20.01.2022
5806 Clear 9 1024 69 10000 3.58 277 20:56 20.01.2022
5807 Clear 9 1024 72 10000 0.45 288 19:21 20.01.2022
5808 Clear 10 1024 71 10000 2.57 240 18:51 20.01.2022
5809 Clouds 12 1024 65 10000 0.45 233 17:30 20.01.2022
5810 Clouds 13 1025 63 10000 0.45 74 15:45 20.01.2022
5811 Clouds 13 1025 62 10000 0.45 149 15:24 20.01.2022
5812 Clear 13 1026 60 10000 1.79 250 13:42 20.01.2022
5813 Clouds 11 1027 65 9000 0.89 268 12:38 20.01.2022
5814 Clouds 11 1027 65 8000 1.79 249 11:57 20.01.2022
5815 Clouds 9 1028 71 8000 0.45 305 10:47 20.01.2022
5816 Clouds 7 1027 77 9000 1.79 284 09:42 20.01.2022
5817 Mist 6 1027 80 10000 1.79 298 08:35 20.01.2022
5818 Mist 6 1027 81 10000 2.24 124 05:38 20.01.2022
5819 Mist 7 1029 84 10000 4.63 330 23:42 19.01.2022
5820 Clouds 8 1029 83 10000 3.09 330 22:37 19.01.2022
5821 Clouds 8 1029 84 10000 2.06 320 21:24 19.01.2022
5822 Clouds 8 1029 84 10000 1.03 310 20:51 19.01.2022
5823 Clouds 8 1029 82 9000 0.45 306 19:58 19.01.2022
5824 Clouds 9 1029 81 10000 0 0 18:48 19.01.2022
5825 Clouds 10 1029 76 10000 0.45 217 17:50 19.01.2022
5826 Clouds 12 1029 70 10000 0.45 134 16:59 19.01.2022
5827 Clouds 12 1029 64 10000 0.45 142 14:42 19.01.2022
5828 Clouds 11 1030 69 9000 0.89 288 12:53 19.01.2022
5829 Clouds 10 1031 73 10000 1.34 231 11:43 19.01.2022
5830 Clouds 8 1032 78 9000 0.89 0 10:38 19.01.2022
5831 Clouds 7 1032 79 10000 1.34 0 09:34 19.01.2022
5832 Mist 5 1031 84 10000 0.89 254 07:34 19.01.2022
5833 Clouds 6 1030 85 10000 1.79 278 05:19 19.01.2022
5834 Clouds 7 1032 87 10000 1.34 299 23:53 18.01.2022
5835 Clouds 8 1032 87 10000 1.34 289 23:18 18.01.2022
5836 Clouds 8 1032 86 10000 0.45 275 21:43 18.01.2022
5837 Clouds 9 1031 83 10000 0.45 54 19:57 18.01.2022
5838 Clouds 9 1031 82 10000 0.89 37 19:38 18.01.2022
5839 Clouds 9 1031 82 10000 0.45 291 19:18 18.01.2022
5840 Clouds 11 1030 80 10000 1.34 130 18:18 18.01.2022
5841 Clouds 12 1030 76 10000 2.24 117 17:29 18.01.2022
5842 Clouds 13 1030 72 10000 0.89 134 15:56 18.01.2022
5843 Clouds 13 1030 70 10000 0.89 52 15:24 18.01.2022
5844 Clear 13 1030 65 10000 0.89 0 14:18 18.01.2022
5845 Clear 9 1031 55 10000 2.24 280 11:20 18.01.2022
5846 Clear 8 1030 59 10000 3.13 286 09:58 18.01.2022
5847 Clear 6 1029 64 10000 2.24 263 08:19 18.01.2022
5848 Clear 6 1028 64 10000 0.45 65 07:31 18.01.2022
5849 Clear 7 1029 56 10000 3.58 259 00:22 18.01.2022
5850 Clear 8 1030 52 10000 3.13 254 22:31 17.01.2022
5851 Clear 8 1029 51 10000 0.45 151 21:36 17.01.2022
5852 Clear 9 1030 51 10000 0.89 128 20:39 17.01.2022
5853 Clear 11 1029 57 10000 0.89 261 18:46 17.01.2022
5854 Clear 11 1029 56 10000 3.09 250 18:23 17.01.2022
5855 Clear 14 1030 48 10000 1.34 172 16:53 17.01.2022
5856 Clear 15 1030 38 10000 1.34 0 15:47 17.01.2022
5857 Clear 15 1030 39 10000 0.89 259 14:58 17.01.2022
5858 Clear 14 1030 38 10000 0.45 131 14:22 17.01.2022
5859 Clear 12 1032 42 10000 1.34 317 12:58 17.01.2022
5860 Clear 11 1032 45 10000 2.68 244 11:51 17.01.2022
5861 Clear 10 1031 49 10000 3.58 227 10:47 17.01.2022
5862 Clouds 8 1031 53 10000 4.47 298 09:35 17.01.2022
5863 Clouds 7 1031 52 10000 2.24 248 08:43 17.01.2022
5864 Clouds 7 1031 51 10000 4.92 292 07:19 17.01.2022
5865 Clear 7 1031 48 10000 4.47 279 00:58 17.01.2022
5866 Clear 7 1030 50 10000 1.79 297 23:27 16.01.2022
5867 Clear 8 1030 53 10000 2.24 279 20:41 16.01.2022
5868 Clear 8 1030 57 10000 1.79 269 19:55 16.01.2022
5869 Clear 10 1028 54 10000 1.54 220 18:45 16.01.2022
5870 Clear 12 1028 49 10000 2.06 220 17:46 16.01.2022
5871 Clear 13 1028 42 10000 3.09 210 16:52 16.01.2022
5872 Clear 13 1027 41 10000 0.45 127 15:39 16.01.2022
5873 Clear 13 1028 39 10000 0.45 89 14:29 16.01.2022
5874 Clear 13 1028 39 10000 0.45 89 14:29 16.01.2022
5875 Clear 12 1028 44 10000 0.45 67 12:57 16.01.2022
5876 Clear 10 1029 48 10000 0.45 315 11:49 16.01.2022
5877 Clear 8 1029 53 10000 1.34 261 10:58 16.01.2022
5878 Clear 6 1028 57 10000 1.79 296 10:27 16.01.2022
5879 Clear 7 1028 56 10000 1.34 199 09:57 16.01.2022
5880 Clear 6 1027 57 10000 2.24 296 09:23 16.01.2022
5881 Clear 5 1028 59 10000 0.45 157 08:52 16.01.2022
5882 Clear 5 1026 61 10000 0.45 279 05:35 16.01.2022
5883 Clear 6 1026 56 10000 4.47 291 23:51 15.01.2022
5884 Clear 7 1026 52 10000 4.92 259 22:37 15.01.2022
5885 Clear 8 1027 49 10000 3.58 246 21:21 15.01.2022
5886 Clear 8 1026 49 10000 4.02 250 20:43 15.01.2022
5887 Clear 9 1025 48 10000 2.68 244 19:52 15.01.2022
5888 Clear 9 1025 49 10000 2.24 291 19:19 15.01.2022
5889 Clear 12 1025 49 10000 0.45 218 17:49 15.01.2022
5890 Clear 13 1025 46 10000 0.45 0 16:38 15.01.2022
5891 Clear 13 1025 40 10000 0.45 91 13:57 15.01.2022
5892 Clear 10 1026 45 10000 0.45 96 12:33 15.01.2022
5893 Clear 9 1027 50 10000 0.89 63 11:19 15.01.2022
5894 Clear 6 1027 60 10000 4.02 235 09:21 15.01.2022
5895 Clouds 7 1029 78 10000 2.24 258 00:52 15.01.2022
5896 Clear 8 1031 80 10000 0.45 323 21:57 14.01.2022
5897 Clear 8 1030 79 10000 2.06 320 20:51 14.01.2022
5898 Clear 8 1031 79 10000 1.54 300 20:23 14.01.2022
5899 Clear 9 1031 79 10000 1.03 0 19:48 14.01.2022
5900 Clear 10 1031 74 10000 0 0 18:28 14.01.2022
5901 Clouds 13 1031 61 10000 2.57 130 16:50 14.01.2022
5902 Clouds 13 1031 59 10000 3.09 120 15:48 14.01.2022
5903 Clouds 13 1032 57 10000 0.89 67 14:47 14.01.2022
5904 Clouds 13 1032 55 10000 0.89 343 13:47 14.01.2022
5905 Clouds 11 1033 52 10000 1.79 296 12:31 14.01.2022
5906 Clear 9 1034 51 10000 0.89 294 11:27 14.01.2022
5907 Clouds 8 1034 61 10000 1.34 294 09:51 14.01.2022
5908 Clouds 6 1034 64 10000 2.68 285 08:52 14.01.2022
5909 Clouds 6 1033 63 10000 2.24 321 07:21 14.01.2022
5910 Clear 7 1034 61 10000 1.34 275 01:37 14.01.2022
5911 Clear 7 1035 67 10000 4.12 330 23:32 13.01.2022
5912 Clear 7 1034 74 10000 2.68 292 21:41 13.01.2022
5913 Clear 8 1034 73 10000 1.79 271 21:23 13.01.2022
5914 Clear 8 1034 75 10000 1.03 30 19:41 13.01.2022
5915 Clear 8 1034 74 10000 1.03 30 19:22 13.01.2022
5916 Clear 11 1034 65 10000 1.03 140 17:56 13.01.2022
5917 Clear 12 1032 58 10000 1.54 160 16:22 13.01.2022
5918 Clear 12 1033 57 10000 2.57 140 15:37 13.01.2022
5919 Clear 12 1033 55 10000 0.45 201 14:49 13.01.2022
5920 Clear 11 1034 59 10000 0.89 240 12:46 13.01.2022
5921 Clear 7 1034 74 10000 0.89 0 10:25 13.01.2022
5922 Clear 6 1033 77 10000 0.89 300 09:20 13.01.2022
5923 Clear 5 1033 78 10000 0.89 320 08:27 13.01.2022
5924 Clear 5 1033 77 10000 0.45 297 07:24 13.01.2022
5925 Clear 5 1032 79 10000 0.45 312 06:41 13.01.2022
5926 Clear 5 1033 80 10000 0.89 312 05:20 13.01.2022
5927 Clear 6 1032 82 10000 1.34 307 03:24 13.01.2022
5928 Clouds 7 1032 79 10000 3.6 320 00:56 13.01.2022
5929 Clouds 7 1032 77 10000 3.6 330 23:50 12.01.2022
5930 Clouds 7 1032 76 10000 3.6 330 23:30 12.01.2022
5931 Clouds 8 1032 74 10000 2.57 310 21:58 12.01.2022
5932 Clouds 8 1032 73 10000 1.54 330 21:23 12.01.2022
5933 Clouds 8 1031 75 10000 0.45 26 20:57 12.01.2022
5934 Clouds 9 1031 74 10000 0.45 322 20:19 12.01.2022
5935 Clouds 10 1030 71 10000 0.45 90 18:48 12.01.2022
5936 Clouds 10 1030 69 10000 0.45 142 17:51 12.01.2022
5937 Clouds 12 1029 67 10000 0.45 116 16:42 12.01.2022
5938 Clouds 12 1029 68 10000 0.45 65 14:49 12.01.2022
5939 Clouds 12 1029 71 10000 0.89 58 13:37 12.01.2022
5940 Clouds 12 1029 69 10000 0.45 61 12:56 12.01.2022
5941 Clouds 8 1028 80 10000 0.89 294 08:55 12.01.2022
5942 Clouds 8 1027 81 10000 0.89 253 07:55 12.01.2022
5943 Clouds 8 1027 82 10000 0.45 252 07:32 12.01.2022
5944 Clouds 10 1026 78 10000 2.68 123 02:20 12.01.2022
5945 Clouds 10 1025 79 10000 4.92 164 23:26 11.01.2022
5946 Clouds 9 1025 81 10000 1.54 320 22:25 11.01.2022
5947 Clouds 10 1024 80 10000 2.06 310 21:28 11.01.2022
5948 Clouds 10 1023 80 10000 0.45 337 20:36 11.01.2022
5949 Clouds 11 1023 80 10000 0.45 290 19:23 11.01.2022
5950 Clouds 13 1022 75 10000 6.17 240 17:53 11.01.2022
5951 Clouds 15 1022 67 10000 0.45 129 16:39 11.01.2022
5952 Clouds 15 1022 65 10000 0.45 129 16:18 11.01.2022
5953 Clouds 14 1022 61 10000 0.45 305 14:50 11.01.2022
5954 Clouds 14 1022 61 10000 0.89 260 14:32 11.01.2022
5955 Clouds 14 1022 65 10000 0.45 203 13:48 11.01.2022
5956 Clouds 13 1023 73 10000 0.45 75 13:25 11.01.2022
5957 Clouds 12 1022 80 10000 0.45 264 12:25 11.01.2022
5958 Clouds 9 1023 86 10000 1.34 73 10:31 11.01.2022
5959 Clouds 8 1022 81 7000 0.45 269 07:50 11.01.2022
5960 Clouds 9 1021 84 10000 0.89 309 03:51 11.01.2022
5961 Clouds 10 1020 84 10000 1.79 251 00:27 11.01.2022
5962 Clouds 10 1019 84 10000 2.24 277 23:39 10.01.2022
5963 Clouds 10 1019 85 10000 2.68 261 22:39 10.01.2022
5964 Clouds 10 1019 84 10000 1.34 265 22:18 10.01.2022
5965 Clouds 10 1018 84 10000 1.79 259 21:33 10.01.2022
5966 Clouds 10 1018 84 10000 1.34 241 20:59 10.01.2022
5967 Clouds 10 1018 83 10000 0.45 321 20:41 10.01.2022
5968 Clouds 10 1018 83 10000 1.34 242 20:19 10.01.2022
5969 Clouds 10 1017 84 10000 0.45 307 19:38 10.01.2022
5970 Clouds 10 1017 84 10000 1.34 285 19:19 10.01.2022
5971 Clouds 10 1016 83 10000 0.45 0 18:46 10.01.2022
5972 Drizzle 10 1016 84 10000 0.89 319 16:49 10.01.2022
5973 Drizzle 10 1015 85 10000 1.54 20 16:27 10.01.2022
5974 Drizzle 10 1015 85 6000 1.79 123 14:44 10.01.2022
5975 Drizzle 10 1015 86 4000 2.24 116 13:35 10.01.2022
5976 Clouds 10 1014 86 10000 0.89 126 11:57 10.01.2022
5977 Drizzle 10 1013 86 10000 5.66 70 10:50 10.01.2022
5978 Drizzle 11 1012 85 8000 3.13 113 09:40 10.01.2022
5979 Clouds 10 1010 83 10000 3.09 60 05:52 10.01.2022
5980 Clouds 10 1010 82 10000 1.34 0 02:38 10.01.2022
5981 Clouds 10 1010 80 10000 0.89 305 01:21 10.01.2022
5982 Clouds 11 1011 77 10000 0.51 0 00:21 10.01.2022
5983 Clouds 11 1011 73 10000 2.57 40 22:47 09.01.2022
5984 Clouds 11 1011 73 10000 0.89 68 22:21 09.01.2022
5985 Clouds 12 1011 72 10000 0.45 0 21:42 09.01.2022
5986 Clouds 12 1011 71 10000 0.45 0 21:22 09.01.2022
5987 Clouds 12 1011 70 10000 1.34 269 20:47 09.01.2022
5988 Clouds 12 1011 70 10000 1.79 293 20:29 09.01.2022
5989 Clouds 13 1012 68 10000 0.89 255 19:42 09.01.2022
5990 Clouds 13 1012 67 10000 0.89 333 19:21 09.01.2022
5991 Clouds 13 1011 65 10000 1.34 288 18:47 09.01.2022
5992 Clouds 13 1011 63 10000 1.34 0 18:28 09.01.2022
5993 Clouds 14 1011 60 10000 0.45 0 17:30 09.01.2022
5994 Clouds 15 1011 57 10000 1.79 265 16:50 09.01.2022
5995 Clouds 15 1011 56 10000 2.24 293 15:52 09.01.2022
5996 Clouds 15 1011 57 10000 1.79 283 15:33 09.01.2022
5997 Clouds 14 1012 59 10000 3.58 281 14:39 09.01.2022
5998 Clouds 14 1012 60 10000 1.34 282 13:50 09.01.2022
5999 Clouds 13 1013 64 10000 4.02 316 12:31 09.01.2022
6000 Clouds 13 1014 66 10000 1.34 350 11:47 09.01.2022
6001 Clouds 11 1014 71 10000 2.24 60 09:56 09.01.2022
6002 Clouds 10 1014 71 10000 1.79 17 09:29 09.01.2022
6003 Clouds 10 1014 70 10000 0.89 292 08:25 09.01.2022
6004 Clouds 10 1014 58 10000 3.13 318 02:31 09.01.2022
6005 Clouds 10 1014 54 10000 4.02 0 01:20 09.01.2022
6006 Clouds 10 1016 57 10000 0.89 282 23:38 08.01.2022
6007 Clouds 10 1016 57 10000 1.34 299 22:59 08.01.2022
6008 Clouds 11 1017 60 10000 0.45 80 21:33 08.01.2022
6009 Clouds 11 1017 63 10000 1.34 278 20:45 08.01.2022
6010 Clouds 11 1017 63 10000 1.34 277 20:23 08.01.2022
6011 Clouds 11 1018 65 10000 1.34 26 19:58 08.01.2022
6012 Clouds 12 1019 65 10000 0.45 325 17:51 08.01.2022
6013 Clear 12 1019 65 10000 0.89 279 17:21 08.01.2022
6014 Clear 13 1020 61 10000 0.89 338 15:47 08.01.2022
6015 Clouds 12 1021 63 10000 0.89 254 14:41 08.01.2022
6016 Clear 10 1022 67 10000 0.45 186 12:44 08.01.2022
6017 Clouds 8 1023 71 10000 2.24 226 10:59 08.01.2022
6018 Clouds 8 1023 70 10000 0.89 283 10:25 08.01.2022
6019 Clouds 7 1023 72 10000 3.58 296 09:44 08.01.2022
6020 Clouds 7 1022 70 10000 4.02 280 07:19 08.01.2022
6021 Clouds 8 1023 63 10000 1.34 287 02:39 08.01.2022
6022 Clear 7 1023 64 10000 2.24 223 00:41 08.01.2022
6023 Clear 7 1024 62 10000 1.34 269 22:40 07.01.2022
6024 Clouds 7 1024 65 10000 0.89 284 20:56 07.01.2022
6025 Clouds 7 1024 66 10000 3.09 290 19:56 07.01.2022
6026 Clouds 8 1023 66 10000 3.09 290 19:56 07.01.2022
6027 Clouds 8 1023 64 10000 0.51 70 18:58 07.01.2022
6028 Clouds 9 1023 62 10000 1.54 100 18:38 07.01.2022
6029 Clear 11 1023 53 10000 1.03 220 17:25 07.01.2022
6030 Clear 12 1022 49 10000 0.45 256 16:23 07.01.2022
6031 Clear 11 1021 46 10000 0.45 43 13:53 07.01.2022
6032 Clear 10 1022 48 10000 0.45 172 13:22 07.01.2022
6033 Clear 10 1023 49 10000 0.45 335 12:49 07.01.2022
6034 Clear 5 1022 62 10000 3.13 245 09:37 07.01.2022
6035 Clear 5 1021 60 10000 4.02 300 02:55 07.01.2022
6036 Clear 6 1020 59 10000 0.45 0 01:54 07.01.2022
6037 Clear 5 1020 60 10000 0.45 300 01:27 07.01.2022
6038 Clear 6 1020 59 10000 2.24 284 00:58 07.01.2022
6039 Clear 6 1020 58 10000 2.24 284 00:58 07.01.2022
6040 Clear 6 1019 56 10000 0.89 325 22:54 06.01.2022
6041 Clear 7 1019 54 10000 0.45 0 21:28 06.01.2022
6042 Clear 7 1019 53 10000 0.45 262 20:22 06.01.2022
6043 Clear 7 1018 53 10000 0.89 311 19:45 06.01.2022
6044 Clear 8 1018 50 10000 3.58 275 18:29 06.01.2022
6045 Clear 10 1016 44 10000 2.24 344 17:40 06.01.2022
6046 Clear 11 1016 38 10000 1.79 316 16:44 06.01.2022
6047 Clear 11 1016 36 10000 2.24 271 15:47 06.01.2022
6048 Clear 11 1016 37 10000 1.79 284 15:26 06.01.2022
6049 Clear 11 1016 37 10000 2.24 330 14:51 06.01.2022
6050 Clear 11 1016 40 10000 0.45 307 14:18 06.01.2022
6051 Clear 9 1017 48 10000 1.34 273 12:50 06.01.2022
6052 Clear 8 1016 50 10000 1.34 166 11:43 06.01.2022
6053 Clear 7 1017 53 10000 3.58 288 11:23 06.01.2022
6054 Clear 4 1015 62 10000 5.36 340 08:59 06.01.2022
6055 Clouds 6 1012 66 10000 0.89 312 01:37 06.01.2022
6056 Clear 8 1013 73 10000 1.34 297 23:38 05.01.2022
6057 Clear 8 1013 72 10000 1.79 282 22:59 05.01.2022
6058 Clouds 8 1012 72 10000 1.34 316 22:33 05.01.2022
6059 Clouds 8 1012 75 10000 1.79 303 21:52 05.01.2022
6060 Clouds 8 1012 76 10000 0.89 322 21:21 05.01.2022
6061 Clouds 9 1012 76 10000 0.45 295 20:19 05.01.2022
6062 Clouds 10 1012 77 10000 0.45 277 18:54 05.01.2022
6063 Clear 11 1011 74 10000 1.34 152 17:45 05.01.2022
6064 Clear 12 1010 70 10000 0.89 143 16:56 05.01.2022
6065 Clouds 13 1010 62 10000 0.45 63 15:46 05.01.2022
6066 Clouds 13 1010 58 10000 0.45 191 14:28 05.01.2022
6067 Clouds 12 1010 63 10000 0.89 245 13:32 05.01.2022
6068 Clouds 10 1010 73 10000 1.34 17 11:45 05.01.2022
6069 Rain 10 1008 81 10000 0.89 298 08:20 05.01.2022
6070 Rain 10 1005 82 9000 0.89 193 06:36 05.01.2022
6071 Clouds 12 1003 75 10000 0.89 347 00:59 05.01.2022
6072 Clouds 12 1004 74 8000 0.51 0 23:38 04.01.2022
6073 Clouds 13 1004 74 8000 0.45 293 23:18 04.01.2022
6074 Clouds 14 1005 72 6000 0.45 298 21:31 04.01.2022
6075 Clear 15 1006 66 9000 1.79 323 19:55 04.01.2022
6076 Clear 16 1006 64 9000 0.45 221 18:19 04.01.2022
6077 Clear 17 1007 61 9000 0.89 222 17:18 04.01.2022
6078 Clear 19 1007 58 10000 0.89 272 16:31 04.01.2022
6079 Clear 20 1008 59 9000 0.45 194 14:58 04.01.2022
6080 Clear 20 1008 60 10000 0.45 194 14:36 04.01.2022
6081 Clear 20 1009 60 10000 1.34 265 13:48 04.01.2022
6082 Clear 16 1012 64 10000 0.45 102 10:59 04.01.2022
6083 Clear 14 1013 73 10000 1.79 250 09:58 04.01.2022
6084 Clear 12 1012 72 9000 0.45 300 08:36 04.01.2022
6085 Clear 12 1014 75 7000 0.45 277 04:24 04.01.2022
6086 Clouds 13 1017 75 6000 0.89 30 00:42 04.01.2022
6087 Clouds 12 1018 75 7000 0.45 330 23:44 03.01.2022
6088 Clouds 13 1019 75 8000 0.89 276 22:21 03.01.2022
6089 Clouds 13 1019 77 7000 0.45 238 21:38 03.01.2022
6090 Clouds 13 1019 78 6000 0.89 290 20:34 03.01.2022
6091 Clouds 13 1020 78 9000 0.45 5 18:55 03.01.2022
6092 Clouds 14 1020 77 9000 0.89 346 18:30 03.01.2022
6093 Clear 15 1020 74 8000 2.24 221 17:20 03.01.2022
6094 Clear 16 1020 73 9000 0.45 214 16:31 03.01.2022
6095 Clouds 16 1022 72 8000 0.45 66 14:31 03.01.2022
6096 Clear 15 1024 73 10000 1.34 220 12:52 03.01.2022
6097 Clouds 14 1025 72 8000 0.45 71 11:50 03.01.2022
6098 Clouds 12 1025 80 6000 2.57 290 10:37 03.01.2022
6099 Clouds 11 1025 78 6000 2.57 310 09:27 03.01.2022
6100 Clouds 12 1025 73 6000 0.89 252 07:52 03.01.2022
6101 Mist 10 1027 80 2500 0.89 117 02:56 03.01.2022
6102 Mist 11 1028 83 7000 1.79 301 23:23 02.01.2022
6103 Mist 12 1028 83 8000 0.45 257 22:56 02.01.2022
6104 Mist 12 1028 84 10000 1.03 0 21:52 02.01.2022
6105 Mist 12 1028 83 10000 1.54 60 20:50 02.01.2022
6106 Mist 12 1027 83 10000 0 0 20:29 02.01.2022
6107 Clouds 13 1028 81 10000 0.51 0 19:31 02.01.2022
6108 Clouds 13 1028 79 10000 0.45 135 18:56 02.01.2022
6109 Clouds 13 1027 79 10000 1.54 210 17:57 02.01.2022
6110 Clouds 14 1027 79 10000 0.45 41 17:39 02.01.2022
6111 Clouds 14 1027 74 10000 2.57 200 17:20 02.01.2022
6112 Clouds 16 1026 73 10000 3.6 220 16:28 02.01.2022
6113 Clouds 17 1027 72 10000 3.6 210 14:41 02.01.2022
6114 Clouds 15 1026 75 10000 0.89 153 13:25 02.01.2022
6115 Clouds 14 1028 76 10000 0.89 59 12:32 02.01.2022
6116 Fog 14 1028 73 10000 1.54 320 11:49 02.01.2022
6117 Fog 12 1028 84 10000 2.06 320 10:53 02.01.2022
6118 Fog 10 1028 86 10000 3.6 330 09:56 02.01.2022
6119 Clouds 11 1027 87 10000 3.09 320 07:34 02.01.2022
6120 Clouds 11 1027 70 10000 3.09 330 02:56 02.01.2022
6121 Clouds 11 1027 75 10000 2.57 340 23:42 01.01.2022
6122 Clear 11 1027 74 10000 1.54 330 23:24 01.01.2022
6123 Clouds 11 1027 75 9000 2.57 310 22:25 01.01.2022
6124 Clear 12 1026 79 10000 1.54 300 21:45 01.01.2022
6125 Clear 12 1026 80 10000 1.54 300 21:21 01.01.2022
6126 Clear 12 1026 82 10000 3.09 30 20:20 01.01.2022
6127 Clouds 13 1026 84 10000 1.03 0 19:34 01.01.2022
6128 Clouds 13 1026 84 10000 1.03 0 18:51 01.01.2022
6129 Clouds 15 1025 80 10000 0.89 87 17:38 01.01.2022
6130 Clouds 17 1025 76 10000 5.14 220 16:34 01.01.2022
6131 Clouds 17 1025 76 10000 5.14 220 16:34 01.01.2022
6132 Clear 18 1025 68 10000 0.45 165 15:37 01.01.2022
6133 Clouds 18 1024 69 10000 5.14 220 14:25 01.01.2022
6134 Clear 17 1026 68 10000 0.45 131 13:36 01.01.2022
6135 Clouds 16 1027 64 10000 0.45 117 12:18 01.01.2022
6136 Fog 14 1027 69 7000 0.45 263 11:25 01.01.2022
6137 Fog 15 1027 67 7000 1.79 256 10:56 01.01.2022
6138 Fog 12 1026 72 150 3.13 256 09:48 01.01.2022
6139 Fog 13 1026 61 8000 3.58 254 08:35 01.01.2022
6140 Fog 12 1025 64 10000 3.13 254 07:56 01.01.2022
6141 Fog 14 1025 61 8000 1.79 270 07:37 01.01.2022
6142 Mist 14 1025 61 5000 2.68 251 06:43 01.01.2022
6143 Fog 13 1026 69 600 1.79 264 04:39 01.01.2022
6144 Clouds 13 1026 69 6000 1.34 228 03:50 01.01.2022
6145 Clouds 12 1027 76 9000 1.34 129 23:55 31.12.2021
6146 Clear 12 1028 84 8000 2.57 320 22:24 31.12.2021
6147 Clouds 12 1028 84 6000 1.54 330 21:39 31.12.2021
6148 Clouds 13 1026 89 10000 1.03 70 19:43 31.12.2021
6149 Clear 13 1027 94 10000 1.54 80 18:50 31.12.2021
6150 Clouds 16 1026 81 10000 1.03 120 17:56 31.12.2021
6151 Clear 16 1026 81 10000 1.54 180 17:26 31.12.2021
6152 Clear 16 1026 77 10000 2.57 210 16:52 31.12.2021
6153 Clear 17 1026 73 10000 4.12 210 16:18 31.12.2021
6154 Clear 18 1025 68 10000 4.12 210 15:45 31.12.2021
6155 Clear 18 1025 68 10000 0.45 107 15:26 31.12.2021
6156 Clear 18 1025 68 10000 0.45 107 15:26 31.12.2021
6157 Clear 18 1025 63 10000 2.57 220 14:39 31.12.2021
6158 Clouds 18 1025 63 10000 3.09 220 13:51 31.12.2021
6159 Clear 17 1025 62 10000 1.34 235 12:51 31.12.2021
6160 Clear 17 1026 63 10000 1.34 249 12:21 31.12.2021
6161 Clear 16 1027 64 10000 2.68 244 11:42 31.12.2021
6162 Clouds 15 1026 66 10000 2.68 245 10:55 31.12.2021
6163 Clouds 14 1026 70 10000 3.13 242 10:28 31.12.2021
6164 Clouds 13 1026 76 10000 0.89 254 09:34 31.12.2021
6165 Clouds 13 1025 77 10000 6.69 320 08:52 31.12.2021
6166 Clear 12 1025 78 10000 0.45 298 07:55 31.12.2021
6167 Clear 13 1023 77 10000 1.79 250 04:55 31.12.2021
6168 Clear 14 1023 73 10000 0.45 288 23:18 30.12.2021
6169 Clear 14 1023 75 10000 2.24 256 22:32 30.12.2021
6170 Clear 15 1023 74 10000 1.79 251 21:39 30.12.2021
6171 Clear 15 1022 74 10000 0.89 247 21:19 30.12.2021
6172 Clear 15 1022 73 10000 0.45 179 20:40 30.12.2021
6173 Clear 16 1022 71 10000 3.58 271 19:56 30.12.2021
6174 Clear 16 1022 71 10000 3.13 302 19:31 30.12.2021
6175 Clouds 17 1022 67 10000 2.68 243 18:28 30.12.2021
6176 Clear 19 1021 61 10000 0.89 244 16:53 30.12.2021
6177 Clear 20 1021 58 10000 0.45 142 15:54 30.12.2021
6178 Clear 20 1021 58 10000 1.79 254 15:21 30.12.2021
6179 Clear 19 1022 60 10000 2.24 246 14:36 30.12.2021
6180 Clear 18 1022 63 10000 0.45 267 13:26 30.12.2021
6181 Clear 16 1023 69 10000 1.79 245 11:58 30.12.2021
6182 Clouds 15 1023 75 10000 2.68 279 10:40 30.12.2021
6183 Clouds 14 1022 77 10000 0.89 278 09:50 30.12.2021
6184 Clouds 14 1021 78 10000 1.79 288 07:25 30.12.2021
6185 Clouds 13 1022 80 10000 2.68 255 06:32 30.12.2021
6186 Clouds 14 1021 77 10000 3.13 289 03:41 30.12.2021
6187 Clouds 14 1021 78 10000 3.13 265 02:32 30.12.2021
6188 Clear 15 1022 75 10000 1.79 232 23:40 29.12.2021
6189 Clear 15 1021 73 10000 1.79 241 22:59 29.12.2021
6190 Clear 15 1021 71 10000 1.79 249 22:18 29.12.2021
6191 Clear 16 1021 67 10000 2.68 275 21:19 29.12.2021
6192 Clear 16 1021 66 10000 0.45 269 20:30 29.12.2021
6193 Clear 16 1021 65 10000 0.45 269 20:30 29.12.2021
6194 Clear 16 1021 66 10000 0.45 269 20:30 29.12.2021
6195 Clear 16 1021 66 10000 0.45 269 20:30 29.12.2021
6196 Clear 17 1021 65 10000 2.68 294 19:43 29.12.2021
6197 Clear 17 1020 64 10000 0.45 198 18:44 29.12.2021
6198 Clear 18 1019 63 10000 1.34 270 17:52 29.12.2021
6199 Clear 18 1019 61 10000 1.34 270 17:27 29.12.2021
6200 Clear 19 1018 57 10000 1.34 339 16:22 29.12.2021
6201 Clear 19 1018 56 10000 0.89 304 15:42 29.12.2021
6202 Clear 18 1018 59 10000 1.79 281 13:53 29.12.2021
6203 Clear 17 1019 62 10000 1.79 292 12:36 29.12.2021
6204 Clear 16 1019 66 10000 1.34 269 11:27 29.12.2021
6205 Clear 14 1019 74 10000 2.24 236 09:56 29.12.2021
6206 Clear 13 1018 76 10000 0.89 112 07:51 29.12.2021
6207 Clear 14 1018 75 10000 2.68 246 06:38 29.12.2021
6208 Clear 14 1018 73 10000 1.34 198 05:59 29.12.2021
6209 Clear 14 1017 74 10000 0.89 228 05:36 29.12.2021
6210 Clear 15 1016 69 10000 0.45 0 02:40 29.12.2021
6211 Clouds 16 1016 67 10000 1.79 290 00:22 29.12.2021
6212 Clouds 16 1016 68 10000 1.79 287 23:34 28.12.2021
6213 Clouds 16 1016 65 10000 1.79 196 22:42 28.12.2021
6214 Clear 16 1016 66 10000 1.34 300 22:24 28.12.2021
6215 Clouds 17 1016 65 10000 3.13 274 21:37 28.12.2021
6216 Clouds 17 1015 65 10000 2.68 322 20:39 28.12.2021
6217 Clouds 17 1016 63 10000 1.79 261 19:24 28.12.2021
6218 Clouds 17 1015 62 10000 0.45 86 18:37 28.12.2021
6219 Clouds 18 1015 60 10000 0.45 139 17:59 28.12.2021
6220 Clouds 19 1013 56 10000 0.45 28 16:34 28.12.2021
6221 Clear 19 1013 55 10000 0.89 20 15:50 28.12.2021
6222 Clear 19 1013 54 10000 0.89 344 15:20 28.12.2021
6223 Clouds 19 1013 53 10000 0.45 345 14:47 28.12.2021
6224 Clouds 19 1012 53 10000 5.81 305 14:21 28.12.2021
6225 Clouds 19 1013 53 10000 1.34 282 13:42 28.12.2021
6226 Clouds 19 1013 53 10000 1.34 282 13:42 28.12.2021
6227 Clouds 19 1013 54 10000 1.34 320 13:24 28.12.2021
6228 Clouds 18 1014 54 10000 2.24 281 12:49 28.12.2021
6229 Clear 16 1014 60 10000 5.36 302 11:36 28.12.2021
6230 Clear 13 1012 67 10000 1.79 303 08:30 28.12.2021
6231 Clear 15 1011 66 10000 2.24 258 06:42 28.12.2021
6232 Clear 16 1012 61 10000 0.89 320 23:44 27.12.2021
6233 Clear 16 1012 62 10000 2.24 289 23:23 27.12.2021
6234 Clear 16 1011 60 10000 0.45 272 21:42 27.12.2021
6235 Clear 16 1011 60 10000 2.24 293 21:21 27.12.2021
6236 Clear 17 1011 58 10000 0.89 76 20:23 27.12.2021
6237 Clear 17 1011 57 10000 1.79 297 19:41 27.12.2021
6238 Clouds 17 1010 58 10000 0.89 265 18:52 27.12.2021
6239 Rain 17 1010 61 10000 1.79 194 17:49 27.12.2021
6240 Clouds 18 1009 60 10000 1.34 259 16:55 27.12.2021
6241 Clouds 18 1008 56 10000 0.89 72 15:52 27.12.2021
6242 Clouds 19 1008 56 10000 0.89 305 14:33 27.12.2021
6243 Clouds 19 1008 55 10000 3.13 128 13:40 27.12.2021
6244 Clouds 19 1008 57 10000 0.89 5 12:40 27.12.2021
6245 Clear 16 1006 72 10000 0.45 89 10:32 27.12.2021
6246 Clear 15 1006 75 10000 3.13 313 09:57 27.12.2021
6247 Clouds 13 1006 79 10000 0.45 32 08:39 27.12.2021
6248 Clouds 13 1005 79 10000 1.79 293 07:32 27.12.2021
6249 Clouds 13 1007 75 10000 0.45 311 02:24 27.12.2021
6250 Clouds 12 1009 75 10000 0.45 296 23:58 26.12.2021
6251 Clouds 12 1009 75 10000 0.45 134 23:40 26.12.2021
6252 Clouds 12 1010 75 10000 0.89 280 22:36 26.12.2021
6253 Clouds 13 1009 75 10000 0.45 275 20:59 26.12.2021
6254 Clear 13 1009 73 10000 0.45 306 19:49 26.12.2021
6255 Clear 14 1008 72 10000 0.45 253 18:25 26.12.2021
6256 Clear 14 1009 72 10000 0.45 222 17:30 26.12.2021
6257 Clouds 17 1008 64 10000 0.89 306 14:38 26.12.2021
6258 Clouds 16 1009 63 10000 0.45 355 13:43 26.12.2021
6259 Clouds 16 1009 63 10000 0.45 345 13:21 26.12.2021
6260 Clouds 15 1009 70 10000 1.79 248 12:34 26.12.2021
6261 Clear 13 1009 76 10000 0.89 260 10:48 26.12.2021
6262 Clouds 11 1008 80 10000 1.79 249 09:30 26.12.2021
6263 Clouds 11 1008 80 10000 0.45 344 08:44 26.12.2021
6264 Clouds 11 1008 81 10000 0.89 326 08:23 26.12.2021
6265 Clouds 12 1006 76 10000 0.45 288 01:37 26.12.2021
6266 Clouds 13 1006 75 10000 0.45 232 00:20 26.12.2021
6267 Clouds 13 1006 74 10000 0.45 301 23:35 25.12.2021
6268 Clouds 14 1006 73 10000 0.45 240 22:29 25.12.2021
6269 Clouds 14 1006 71 10000 0.89 238 21:29 25.12.2021
6270 Clouds 15 1005 70 8000 0.89 288 19:46 25.12.2021
6271 Clouds 15 1005 69 6000 1.34 223 19:18 25.12.2021
6272 Clouds 15 1005 67 7000 0.89 265 18:29 25.12.2021
6273 Clouds 17 1004 59 10000 0.89 0 16:49 25.12.2021
6274 Clouds 18 1004 59 10000 0.45 314 15:30 25.12.2021
6275 Clouds 18 1005 66 10000 1.34 256 14:23 25.12.2021
6276 Clouds 16 1006 75 10000 0.89 169 12:21 25.12.2021
6277 Clouds 14 1006 80 10000 0.45 304 10:46 25.12.2021
6278 Clouds 13 1006 84 7000 0.45 332 09:49 25.12.2021
6279 Clouds 11 1006 81 8000 0.45 287 07:27 25.12.2021
6280 Drizzle 13 1006 83 10000 1.34 275 01:40 25.12.2021
6281 Drizzle 13 1007 84 9000 3.6 230 00:22 25.12.2021
6282 Clouds 13 1008 84 8000 1.03 0 21:59 24.12.2021
6283 Clouds 13 1009 83 8000 3.09 220 19:27 24.12.2021
6284 Drizzle 14 1009 83 9000 3.09 210 18:56 24.12.2021
6285 Clouds 15 1010 81 10000 4.63 230 16:49 24.12.2021
6286 Clouds 15 1010 82 10000 6.69 240 15:50 24.12.2021
6287 Clouds 15 1010 81 10000 0.89 243 15:25 24.12.2021
6288 Clouds 15 1011 81 10000 1.34 238 14:35 24.12.2021
6289 Clouds 15 1012 80 9000 0.45 245 13:59 24.12.2021
6290 Clouds 15 1012 82 9000 0.45 275 13:32 24.12.2021
6291 Mist 15 1013 81 8000 0.45 311 12:47 24.12.2021
6292 Mist 14 1014 83 7000 0.89 61 11:46 24.12.2021
6293 Drizzle 13 1014 83 6000 0.45 236 11:24 24.12.2021
6294 Drizzle 13 1014 83 6000 0.45 161 10:36 24.12.2021
6295 Drizzle 13 1014 84 8000 1.54 310 09:25 24.12.2021
6296 Mist 12 1014 85 10000 1.03 0 08:19 24.12.2021
6297 Mist 12 1015 85 10000 1.34 129 07:44 24.12.2021
6298 Mist 12 1017 85 9000 4.12 240 00:48 24.12.2021
6299 Clouds 12 1017 85 10000 3.6 240 23:54 23.12.2021
6300 Clouds 12 1018 84 10000 0.89 155 22:54 23.12.2021
6301 Clouds 12 1018 84 10000 0.45 307 22:27 23.12.2021
6302 Clouds 12 1018 83 10000 0.45 179 21:59 23.12.2021
6303 Clouds 12 1018 84 10000 0.45 235 20:54 23.12.2021
6304 Clouds 13 1018 83 10000 4.12 240 19:39 23.12.2021
6305 Clouds 12 1018 82 10000 0.45 0 18:32 23.12.2021
6306 Clouds 13 1018 82 10000 0.45 269 17:55 23.12.2021
6307 Clouds 14 1017 82 10000 0.45 133 16:43 23.12.2021
6308 Clouds 15 1018 82 10000 0.45 259 16:23 23.12.2021
6309 Clouds 14 1018 82 10000 0.89 115 15:31 23.12.2021
6310 Clouds 14 1018 82 10000 0.89 115 15:31 23.12.2021
6311 Clouds 14 1019 83 10000 0.45 333 14:43 23.12.2021
6312 Clouds 14 1019 83 10000 0.89 315 14:19 23.12.2021
6313 Clouds 14 1020 84 9000 0.45 130 12:53 23.12.2021
6314 Mist 12 1021 87 5000 0.45 124 10:43 23.12.2021
6315 Mist 11 1021 87 5000 1.54 310 09:35 23.12.2021
6316 Mist 11 1021 86 5000 1.54 310 08:59 23.12.2021
6317 Mist 11 1020 87 2700 1.79 241 06:51 23.12.2021
6318 Mist 11 1021 87 3100 2.06 330 04:30 23.12.2021
6319 Mist 11 1022 86 2600 1.54 350 22:57 22.12.2021
6320 Mist 11 1022 87 2400 1.54 20 22:39 22.12.2021
6321 Mist 11 1022 86 2200 1.54 10 21:54 22.12.2021
6322 Mist 11 1022 86 2500 2.57 30 21:29 22.12.2021
6323 Mist 11 1022 86 2400 2.57 30 20:47 22.12.2021
6324 Mist 11 1022 86 2500 3.09 50 20:26 22.12.2021
6325 Mist 11 1021 86 2200 2.06 40 19:21 22.12.2021
6326 Mist 11 1021 84 5000 0.45 91 17:42 22.12.2021
6327 Mist 11 1021 82 8000 0.45 78 16:39 22.12.2021
6328 Mist 11 1021 82 7000 0.89 58 15:39 22.12.2021
6329 Clouds 11 1021 82 7000 2.57 340 13:33 22.12.2021
6330 Clouds 11 1021 81 8000 3.09 320 12:40 22.12.2021
6331 Clouds 10 1021 82 7000 3.6 340 10:19 22.12.2021
6332 Clouds 10 1021 82 7000 0.45 289 09:38 22.12.2021
6333 Clouds 9 1020 83 7000 0.45 275 07:30 22.12.2021
6334 Clouds 10 1019 82 8000 0.89 297 05:50 22.12.2021
6335 Clouds 10 1019 83 8000 2.57 330 05:26 22.12.2021
6336 Clouds 10 1019 82 8000 3.09 330 04:50 22.12.2021
6337 Clouds 10 1020 82 8000 2.57 340 04:26 22.12.2021
6338 Clouds 10 1020 82 8000 2.57 340 03:32 22.12.2021
6339 Clouds 10 1020 84 8000 2.57 320 00:50 22.12.2021
6340 Clouds 10 1020 84 8000 2.57 310 23:25 21.12.2021
6341 Clouds 11 1020 84 8000 1.54 290 22:28 21.12.2021
6342 Clouds 11 1020 84 9000 2.06 10 21:44 21.12.2021
6343 Clouds 11 1020 83 10000 0 0 21:22 21.12.2021
6344 Clouds 11 1020 83 10000 1.54 60 20:21 21.12.2021
6345 Clouds 11 1020 84 10000 2.57 70 19:43 21.12.2021
6346 Clouds 12 1019 83 10000 0.45 23 18:48 21.12.2021
6347 Clouds 12 1019 82 10000 0.45 70 18:21 21.12.2021
6348 Clouds 12 1019 82 10000 0.45 88 17:42 21.12.2021
6349 Clouds 13 1019 81 10000 0.89 84 16:26 21.12.2021
6350 Clouds 13 1019 79 10000 0.45 0 15:25 21.12.2021
6351 Clouds 13 1019 76 10000 0.45 116 13:51 21.12.2021
6352 Clouds 13 1019 75 10000 1.79 126 13:31 21.12.2021
6353 Clouds 12 1020 72 10000 0.45 61 11:57 21.12.2021
6354 Clouds 10 1020 76 10000 1.34 292 10:25 21.12.2021
6355 Clouds 9 1020 77 10000 2.24 303 09:33 21.12.2021
6356 Clouds 8 1019 74 10000 1.34 334 08:28 21.12.2021
6357 Clouds 8 1019 73 10000 2.68 280 07:32 21.12.2021
6358 Clouds 8 1019 72 10000 0.45 299 06:50 21.12.2021
6359 Clouds 7 1018 74 10000 0.45 331 03:18 21.12.2021
6360 Clouds 8 1018 73 10000 1.34 69 00:46 21.12.2021
6361 Clouds 8 1019 69 10000 0.45 315 23:34 20.12.2021
6362 Clear 9 1019 68 10000 0.89 331 22:33 20.12.2021
6363 Clear 9 1019 68 10000 1.34 302 21:48 20.12.2021
6364 Clear 9 1018 67 10000 1.34 23 21:24 20.12.2021
6365 Clear 9 1019 69 10000 2.68 285 20:48 20.12.2021
6366 Clouds 9 1019 67 10000 0.89 22 19:55 20.12.2021
6367 Clouds 10 1019 68 10000 2.24 351 19:32 20.12.2021
6368 Clouds 10 1019 70 10000 1.79 313 18:55 20.12.2021
6369 Clouds 12 1018 65 10000 0.45 316 17:56 20.12.2021
6370 Clouds 12 1018 65 10000 0.45 309 17:37 20.12.2021
6371 Clear 14 1018 60 10000 0.89 306 16:43 20.12.2021
6372 Clear 14 1019 59 10000 0.45 279 15:52 20.12.2021
6373 Clear 14 1019 58 10000 0.45 15 14:56 20.12.2021
6374 Clear 13 1019 58 10000 1.34 315 13:18 20.12.2021
6375 Clouds 11 1020 62 10000 1.34 98 11:27 20.12.2021
6376 Clouds 9 1020 69 10000 2.68 286 09:51 20.12.2021
6377 Clear 8 1020 71 10000 1.34 0 09:31 20.12.2021
6378 Clear 7 1020 73 10000 3.58 313 08:42 20.12.2021
6379 Clear 6 1020 75 10000 2.24 229 07:55 20.12.2021
6380 Clouds 7 1020 73 10000 2.24 221 07:31 20.12.2021
6381 Clouds 8 1021 73 10000 0.89 0 04:36 20.12.2021
6382 Clouds 9 1022 72 10000 1.79 262 00:18 20.12.2021
6383 Clouds 8 1023 78 10000 0.45 257 22:53 19.12.2021
6384 Clouds 9 1023 80 10000 0.45 282 21:55 19.12.2021
6385 Clouds 9 1023 80 10000 0.45 280 21:31 19.12.2021
6386 Clouds 10 1023 81 10000 0.45 307 20:34 19.12.2021
6387 Clouds 10 1023 81 10000 0.45 300 19:52 19.12.2021
6388 Clouds 10 1023 81 10000 2.06 280 19:32 19.12.2021
6389 Clouds 11 1023 80 10000 4.12 240 18:30 19.12.2021
6390 Clouds 11 1023 79 10000 0.89 270 17:53 19.12.2021
6391 Clouds 12 1023 77 10000 0.89 306 17:21 19.12.2021
6392 Clouds 13 1023 76 10000 2.24 270 16:27 19.12.2021
6393 Clouds 13 1024 76 10000 2.24 311 15:43 19.12.2021
6394 Clouds 14 1024 75 10000 0.89 53 15:21 19.12.2021
6395 Clouds 14 1024 74 10000 1.79 285 14:42 19.12.2021
6396 Clouds 13 1025 74 10000 0.45 94 13:24 19.12.2021
6397 Clouds 13 1026 74 10000 0.89 242 12:47 19.12.2021
6398 Clouds 12 1026 77 10000 0.45 256 12:28 19.12.2021
6399 Clear 11 1027 79 7000 1.79 242 11:26 19.12.2021
6400 Clouds 9 1027 82 10000 2.24 239 10:28 19.12.2021
6401 Clouds 9 1028 79 10000 2.24 238 09:53 19.12.2021
6402 Clouds 8 1027 77 10000 1.79 248 08:45 19.12.2021
6403 Clouds 8 1028 78 10000 1.34 292 04:45 19.12.2021
6404 Clouds 9 1029 81 10000 0.45 290 01:39 19.12.2021
6405 Mist 9 1030 82 10000 0.45 301 00:53 19.12.2021
6406 Clouds 9 1030 83 10000 4.12 330 22:50 18.12.2021
6407 Clouds 10 1029 82 10000 3.6 320 22:20 18.12.2021
6408 Clouds 10 1030 83 9000 0.45 304 21:41 18.12.2021
6409 Clouds 10 1030 82 9000 2.57 320 21:22 18.12.2021
6410 Clouds 10 1030 84 8000 2.06 320 20:20 18.12.2021
6411 Clouds 10 1029 83 9000 1.03 0 19:27 18.12.2021
6412 Clouds 11 1029 81 10000 0.51 100 18:23 18.12.2021
6413 Clouds 12 1029 80 10000 0.51 100 17:49 18.12.2021
6414 Clear 14 1028 74 10000 1.54 130 16:27 18.12.2021
6415 Clear 14 1028 72 10000 0.45 126 15:48 18.12.2021
6416 Clear 14 1028 68 10000 0.89 94 14:51 18.12.2021
6417 Clear 13 1028 69 10000 0.45 236 13:42 18.12.2021
6418 Clear 12 1029 74 9000 0.89 249 11:47 18.12.2021
6419 Clear 9 1029 80 7000 1.34 318 09:53 18.12.2021
6420 Clear 9 1029 80 7000 1.34 302 09:30 18.12.2021
6421 Clear 7 1028 77 8000 1.34 290 08:35 18.12.2021
6422 Clouds 7 1027 78 7000 1.34 296 06:27 18.12.2021
6423 Mist 9 1029 82 9000 0.45 296 00:42 18.12.2021
6424 Clouds 9 1029 82 10000 2.06 330 23:46 17.12.2021
6425 Clouds 10 1029 82 10000 0.45 87 22:37 17.12.2021
6426 Clouds 10 1029 83 10000 1.54 320 21:28 17.12.2021
6427 Clouds 11 1029 82 10000 0.89 8 20:42 17.12.2021
6428 Clouds 11 1029 82 10000 0.45 137 19:51 17.12.2021
6429 Clouds 11 1029 80 10000 0.45 50 18:39 17.12.2021
6430 Clouds 11 1029 80 10000 0.45 60 17:47 17.12.2021
6431 Clouds 12 1029 78 10000 0.45 52 16:50 17.12.2021
6432 Clouds 13 1029 77 10000 2.57 110 16:27 17.12.2021
6433 Clouds 13 1028 74 10000 0.45 105 15:27 17.12.2021
6434 Clouds 13 1029 73 10000 0.89 96 14:42 17.12.2021
6435 Clouds 13 1029 74 10000 0.45 162 13:35 17.12.2021
6436 Clouds 12 1030 76 9000 0.45 78 12:36 17.12.2021
6437 Clear 11 1031 82 7000 0.45 299 10:41 17.12.2021
6438 Clouds 10 1030 83 10000 0.89 249 09:47 17.12.2021
6439 Clouds 9 1030 85 10000 0.45 269 08:31 17.12.2021
6440 Clouds 9 1029 85 10000 0.45 120 07:21 17.12.2021
6441 Clouds 9 1029 88 8000 0.45 297 04:40 17.12.2021
6442 Mist 9 1029 81 7000 1.54 330 00:22 17.12.2021
6443 Mist 9 1029 82 10000 1.54 310 22:24 16.12.2021
6444 Clouds 9 1029 82 10000 1.03 0 21:51 16.12.2021
6445 Clouds 10 1028 82 10000 1.54 320 21:33 16.12.2021
6446 Clouds 10 1028 83 10000 2.06 300 20:31 16.12.2021
6447 Clouds 10 1028 83 10000 1.03 0 19:51 16.12.2021
6448 Clouds 11 1028 82 10000 0 0 18:42 16.12.2021
6449 Clouds 11 1028 82 10000 0 0 18:22 16.12.2021
6450 Clouds 12 1028 79 10000 1.03 110 17:35 16.12.2021
6451 Clouds 14 1028 77 10000 2.06 100 16:23 16.12.2021
6452 Clouds 14 1028 73 10000 0.45 69 15:22 16.12.2021
6453 Clouds 14 1029 68 10000 1.54 300 13:44 16.12.2021
6454 Clouds 13 1030 70 10000 1.34 328 11:48 16.12.2021
6455 Clear 12 1030 73 10000 0.45 256 11:18 16.12.2021
6456 Clear 12 1030 74 10000 0.45 244 10:39 16.12.2021
6457 Clouds 10 1029 74 10000 0.89 0 09:39 16.12.2021
6458 Clouds 9 1028 75 10000 6.17 330 06:23 16.12.2021
6459 Clear 9 1028 79 10000 4.12 330 03:19 16.12.2021
6460 Clear 11 1028 79 10000 3.09 330 23:36 15.12.2021
6461 Clear 10 1028 80 10000 4.12 330 22:49 15.12.2021
6462 Clear 11 1027 78 10000 3.09 320 22:20 15.12.2021
6463 Clouds 11 1027 78 10000 2.06 320 21:31 15.12.2021
6464 Clouds 11 1027 79 10000 1.03 0 20:36 15.12.2021
6465 Clouds 11 1027 77 10000 0.51 310 19:53 15.12.2021
6466 Clouds 12 1026 76 10000 0.51 0 18:41 15.12.2021
6467 Clear 13 1026 75 10000 0 0 18:18 15.12.2021
6468 Clear 14 1026 69 10000 1.54 180 17:40 15.12.2021
6469 Clear 15 1025 64 10000 1.54 180 16:59 15.12.2021
6470 Clear 16 1025 59 10000 0.89 129 15:47 15.12.2021
6471 Clear 16 1025 58 10000 0.45 130 15:29 15.12.2021
6472 Clear 16 1025 55 10000 0.89 128 14:44 15.12.2021
6473 Clear 15 1025 55 10000 2.57 340 13:27 15.12.2021
6474 Clear 13 1026 65 10000 0.45 17 11:40 15.12.2021
6475 Clouds 11 1026 67 10000 1.79 238 09:38 15.12.2021
6476 Clouds 10 1025 69 10000 1.79 259 07:52 15.12.2021
6477 Clear 10 1025 68 10000 0.45 302 03:58 15.12.2021
6478 Clear 11 1026 72 10000 3.09 350 23:46 14.12.2021
6479 Clouds 10 1025 77 9000 2.57 310 22:52 14.12.2021
6480 Clouds 10 1025 77 8000 3.09 320 22:34 14.12.2021
6481 Clear 10 1025 79 7000 1.03 0 21:25 14.12.2021
6482 Clear 11 1025 79 6000 1.03 0 20:18 14.12.2021
6483 Clouds 11 1025 81 6000 1.03 260 19:21 14.12.2021
6484 Clouds 12 1025 81 7000 0 0 18:38 14.12.2021
6485 Clouds 13 1025 81 7000 0.51 90 17:51 14.12.2021
6486 Clear 14 1025 76 8000 0.45 241 16:43 14.12.2021
6487 Clouds 15 1025 75 9000 1.34 130 15:54 14.12.2021
6488 Clouds 15 1025 69 10000 0.45 135 13:35 14.12.2021
6489 Clouds 14 1026 70 10000 1.34 302 12:47 14.12.2021
6490 Clear 12 1026 75 10000 0.89 248 11:25 14.12.2021
6491 Clear 11 1027 81 10000 1.79 311 10:28 14.12.2021
6492 Clouds 11 1026 80 10000 2.24 238 09:53 14.12.2021
6493 Clouds 9 1026 81 10000 0.89 311 08:40 14.12.2021
6494 Clouds 9 1025 81 10000 1.34 254 08:20 14.12.2021
6495 Clouds 9 1025 80 10000 0.89 305 06:40 14.12.2021
6496 Clouds 10 1026 83 10000 1.34 257 23:42 13.12.2021
6497 Clouds 11 1026 84 10000 0.45 257 22:18 13.12.2021
6498 Clouds 11 1025 84 10000 0.45 309 21:34 13.12.2021
6499 Clouds 11 1025 85 10000 0.89 245 20:51 13.12.2021
6500 Clouds 12 1025 84 10000 0.45 262 20:20 13.12.2021
6501 Clouds 12 1025 83 10000 3.6 230 19:49 13.12.2021
6502 Clouds 14 1024 79 10000 1.34 233 17:27 13.12.2021
6503 Clouds 16 1024 76 10000 1.79 259 16:24 13.12.2021
6504 Clouds 16 1023 75 10000 2.68 273 15:43 13.12.2021
6505 Clouds 16 1024 73 10000 0.45 153 14:30 13.12.2021
6506 Clouds 15 1025 72 10000 1.34 140 13:36 13.12.2021
6507 Clouds 15 1026 73 10000 0.45 71 12:39 13.12.2021
6508 Clouds 14 1026 76 10000 0.45 343 11:50 13.12.2021
6509 Clouds 13 1026 77 10000 1.34 247 11:29 13.12.2021
6510 Clouds 11 1027 79 10000 1.79 244 10:21 13.12.2021
6511 Clouds 9 1026 82 10000 0.89 249 08:43 13.12.2021
6512 Clouds 9 1026 82 10000 0.45 290 08:43 13.12.2021
6513 Clouds 9 1025 83 10000 0.45 276 06:54 13.12.2021
6514 Clouds 9 1026 82 10000 5.14 320 04:52 13.12.2021
6515 Clouds 10 1026 79 10000 3.13 254 23:55 12.12.2021
6516 Clear 11 1026 78 10000 1.79 263 21:58 12.12.2021
6517 Clear 12 1025 75 10000 2.24 266 20:50 12.12.2021
6518 Clear 12 1025 75 10000 1.34 284 19:35 12.12.2021
6519 Clear 13 1025 74 10000 0.45 16 18:22 12.12.2021
6520 Clear 16 1025 64 10000 0.45 235 16:32 12.12.2021
6521 Clear 16 1024 64 10000 0.89 9 15:55 12.12.2021
6522 Clear 16 1024 64 10000 1.79 283 15:28 12.12.2021
6523 Clear 16 1024 64 10000 0.89 331 14:46 12.12.2021
6524 Clear 15 1025 65 10000 0.89 312 13:56 12.12.2021
6525 Clear 15 1025 67 10000 1.34 347 12:48 12.12.2021
6526 Clear 13 1026 71 10000 3.13 316 11:45 12.12.2021
6527 Clear 13 1026 73 10000 2.68 319 11:27 12.12.2021
6528 Clear 12 1026 75 10000 3.58 328 10:44 12.12.2021
6529 Clear 11 1026 79 10000 3.58 298 09:58 12.12.2021
6530 Clouds 9 1025 84 10000 2.24 309 08:44 12.12.2021
6531 Clouds 9 1024 84 10000 0.89 304 06:55 12.12.2021
6532 Clouds 9 1023 84 10000 1.34 292 05:28 12.12.2021
6533 Clouds 9 1023 84 10000 1.34 249 04:18 12.12.2021
6534 Clouds 10 1023 83 10000 0.89 311 00:54 12.12.2021
6535 Clouds 10 1022 83 10000 3.09 330 22:56 11.12.2021
6536 Clouds 10 1022 82 10000 3.09 330 22:20 11.12.2021
6537 Clouds 9 1022 83 10000 2.57 310 21:26 11.12.2021
6538 Clouds 10 1021 79 10000 1.03 40 19:50 11.12.2021
6539 Clouds 10 1020 79 10000 1.54 70 19:21 11.12.2021
6540 Clouds 11 1020 78 10000 1.54 90 18:42 11.12.2021
6541 Clouds 12 1019 76 10000 0.45 37 17:48 11.12.2021
6542 Clouds 13 1018 71 10000 0.89 142 15:58 11.12.2021
6543 Clouds 13 1018 70 10000 0.45 121 15:39 11.12.2021
6544 Clouds 14 1017 68 10000 0.89 87 14:33 11.12.2021
6545 Clouds 13 1017 65 10000 0.45 242 12:29 11.12.2021
6546 Clouds 11 1017 72 10000 0.45 317 10:49 11.12.2021
6547 Clouds 9 1016 78 10000 1.34 253 09:40 11.12.2021
6548 Clouds 9 1013 78 10000 0.89 297 03:57 11.12.2021
6549 Clouds 10 1012 71 10000 0.45 259 00:48 11.12.2021
6550 Clouds 11 1011 69 10000 0.45 0 23:44 10.12.2021
6551 Clouds 11 1010 65 10000 0.45 285 22:39 10.12.2021
6552 Clouds 12 1009 61 10000 1.34 0 21:40 10.12.2021
6553 Clouds 13 1008 57 10000 2.68 302 20:28 10.12.2021
6554 Clouds 14 1007 54 10000 3.58 61 19:19 10.12.2021
6555 Clouds 15 1006 54 10000 4.02 22 17:46 10.12.2021
6556 Clouds 16 1005 51 10000 3.13 319 16:37 10.12.2021
6557 Clouds 16 1005 51 10000 1.79 245 15:45 10.12.2021
6558 Clouds 16 1005 52 10000 3.58 40 15:26 10.12.2021
6559 Clouds 17 1005 53 10000 2.68 25 14:49 10.12.2021
6560 Clouds 17 1005 54 10000 2.24 161 13:50 10.12.2021
6561 Clouds 17 1005 59 10000 1.79 311 12:56 10.12.2021
6562 Clouds 15 1005 67 10000 4.02 286 11:43 10.12.2021
6563 Clouds 15 1005 71 10000 2.24 298 11:19 10.12.2021
6564 Clouds 14 1005 73 10000 4.47 29 09:49 10.12.2021
6565 Clouds 14 1005 72 10000 1.34 5 07:49 10.12.2021
6566 Clouds 11 1006 81 10000 1.79 70 04:58 10.12.2021
6567 Clouds 10 1008 79 10000 1.34 303 02:44 10.12.2021
6568 Clouds 8 1010 74 10000 0.89 288 23:43 09.12.2021
6569 Clouds 9 1011 72 10000 2.68 300 22:44 09.12.2021
6570 Clouds 9 1011 72 10000 2.68 300 22:23 09.12.2021
6571 Clouds 9 1012 71 10000 0.89 98 21:40 09.12.2021
6572 Clouds 9 1012 70 10000 0.89 5 20:38 09.12.2021
6573 Clouds 10 1012 68 10000 1.34 305 19:46 09.12.2021
6574 Clouds 10 1012 68 10000 0.45 315 19:46 09.12.2021
6575 Clouds 10 1012 67 10000 0.45 262 19:20 09.12.2021
6576 Clouds 10 1012 64 10000 2.68 292 18:24 09.12.2021
6577 Clouds 11 1012 61 10000 1.79 0 17:48 09.12.2021
6578 Clouds 11 1012 60 10000 1.79 348 17:24 09.12.2021
6579 Clouds 11 1012 58 10000 0.45 302 16:43 09.12.2021
6580 Clouds 12 1011 54 10000 1.34 317 15:31 09.12.2021
6581 Clouds 12 1012 52 10000 3.13 337 14:43 09.12.2021
6582 Clouds 10 1013 56 10000 0.89 250 12:49 09.12.2021
6583 Clouds 10 1013 56 10000 1.79 321 12:31 09.12.2021
6584 Clear 9 1014 61 10000 0.45 306 10:47 09.12.2021
6585 Clear 6 1012 69 10000 2.24 255 08:20 09.12.2021
6586 Clear 7 1010 64 10000 2.68 281 03:59 09.12.2021
6587 Clear 7 1009 63 10000 0.89 333 01:52 09.12.2021
6588 Clear 8 1008 57 10000 1.34 0 23:40 08.12.2021
6589 Clear 9 1008 56 10000 1.34 324 23:20 08.12.2021
6590 Clouds 9 1008 54 10000 2.24 234 22:43 08.12.2021
6591 Clouds 10 1007 51 10000 2.24 223 21:39 08.12.2021
6592 Clouds 10 1007 50 10000 3.13 281 20:58 08.12.2021
6593 Clouds 10 1006 49 10000 2.68 252 19:57 08.12.2021
6594 Clouds 10 1006 48 10000 1.34 280 19:29 08.12.2021
6595 Clouds 11 1006 45 10000 1.34 235 18:30 08.12.2021
6596 Clouds 12 1005 44 10000 2.68 271 17:24 08.12.2021
6597 Clouds 13 1004 45 10000 4.02 311 15:46 08.12.2021
6598 Clouds 13 1004 45 10000 4.92 315 15:23 08.12.2021
6599 Clouds 13 1004 46 10000 4.47 299 13:40 08.12.2021
6600 Clouds 13 1005 52 10000 4.02 292 10:53 08.12.2021
6601 Clouds 13 1005 52 10000 3.13 252 10:24 08.12.2021
6602 Clouds 12 1004 53 10000 3.13 288 08:54 08.12.2021
6603 Clouds 13 1004 66 10000 1.79 300 07:21 08.12.2021
6604 Clouds 13 1005 76 10000 0.45 290 01:21 08.12.2021
6605 Clouds 13 1007 78 10000 1.34 281 23:31 07.12.2021
6606 Clouds 13 1009 82 10000 0.45 305 21:26 07.12.2021
6607 Clouds 13 1009 83 10000 2.57 260 20:30 07.12.2021
6608 Clouds 13 1010 82 10000 0.45 341 19:50 07.12.2021
6609 Clouds 13 1011 79 10000 0.89 108 18:39 07.12.2021
6610 Clouds 14 1011 74 10000 0.89 220 17:27 07.12.2021
6611 Clouds 14 1012 73 10000 0.89 309 16:57 07.12.2021
6612 Clouds 15 1012 71 10000 0.89 268 16:28 07.12.2021
6613 Clouds 15 1014 66 10000 1.79 255 14:50 07.12.2021
6614 Clear 15 1015 63 10000 0.45 130 13:46 07.12.2021
6615 Clear 14 1017 62 10000 0.45 126 12:46 07.12.2021
6616 Clear 12 1018 67 10000 0.89 188 11:25 07.12.2021
6617 Clear 9 1019 77 10000 1.34 331 09:44 07.12.2021
6618 Clouds 8 1019 80 10000 0.45 0 07:55 07.12.2021
6619 Clear 8 1018 79 10000 3.58 282 05:55 07.12.2021
6620 Clear 8 1018 79 10000 2.24 290 05:30 07.12.2021
6621 Clear 9 1017 77 10000 1.03 0 23:45 06.12.2021
6622 Clear 9 1017 74 10000 0.45 293 22:44 06.12.2021
6623 Clear 9 1017 74 10000 1.79 126 22:22 06.12.2021
6624 Clear 10 1017 71 10000 0.45 302 21:42 06.12.2021
6625 Clouds 10 1018 66 10000 0.45 305 20:33 06.12.2021
6626 Clouds 11 1018 61 10000 0.45 301 19:27 06.12.2021
6627 Clouds 11 1018 59 10000 0.45 289 18:59 06.12.2021
6628 Clear 13 1017 51 10000 0.89 63 17:56 06.12.2021
6629 Clear 13 1017 51 10000 0.45 0 17:37 06.12.2021
6630